<?xml version="1.0" encoding="UTF-8" standalone="no" ?>
<gpx xmlns="http://www.topografix.com/GPX/1/1" xmlns:xsi="http://www.w3.org/2001/XMLSchema-instance" xsi:schemaLocation="http://www.topografix.com/GPX/1/1 http://www.topografix.com/GPX/1/1/gpx.xsd" version="1.1" creator="VisuGPX - https://www.visugpx.com">
  <metadata>
    <name>031SG78-7392921</name>
    <desc><![CDATA[03
]]></desc>
  </metadata>
  <trk>
    <name><![CDATA[031SG78-7392921]]></name>
    <trkseg>
      <trkpt lat="46.69861" lon="-1.93397">
        <ele>5</ele>
        <time>2018-04-21T07:31:07Z</time>
      </trkpt>
      <trkpt lat="46.69824" lon="-1.93411">
        <ele>5</ele>
        <time>2018-04-21T07:32:07Z</time>
      </trkpt>
      <trkpt lat="46.69806" lon="-1.93419">
        <ele>5</ele>
        <time>2018-04-21T07:33:07Z</time>
      </trkpt>
      <trkpt lat="46.69798" lon="-1.93421">
        <ele>5</ele>
        <time>2018-04-21T07:34:07Z</time>
      </trkpt>
      <trkpt lat="46.69797" lon="-1.93421">
        <ele>5</ele>
        <time>2018-04-21T07:35:07Z</time>
      </trkpt>
      <trkpt lat="46.69793" lon="-1.9342">
        <ele>5</ele>
        <time>2018-04-21T07:36:07Z</time>
      </trkpt>
      <trkpt lat="46.69793" lon="-1.93421">
        <ele>5</ele>
        <time>2018-04-21T07:37:07Z</time>
      </trkpt>
      <trkpt lat="46.69793" lon="-1.93422">
        <ele>5</ele>
        <time>2018-04-21T07:38:07Z</time>
      </trkpt>
      <trkpt lat="46.69793" lon="-1.93423">
        <ele>5</ele>
        <time>2018-04-21T07:39:07Z</time>
      </trkpt>
      <trkpt lat="46.69793" lon="-1.93424">
        <ele>5</ele>
        <time>2018-04-21T07:40:07Z</time>
      </trkpt>
      <trkpt lat="46.69792" lon="-1.93425">
        <ele>5</ele>
        <time>2018-04-21T07:41:07Z</time>
      </trkpt>
      <trkpt lat="46.69792" lon="-1.93426">
        <ele>5</ele>
        <time>2018-04-21T07:42:07Z</time>
      </trkpt>
      <trkpt lat="46.69791" lon="-1.93426">
        <ele>5</ele>
        <time>2018-04-21T07:43:07Z</time>
      </trkpt>
      <trkpt lat="46.69791" lon="-1.93427">
        <ele>5</ele>
        <time>2018-04-21T07:44:07Z</time>
      </trkpt>
      <trkpt lat="46.6979" lon="-1.93427">
        <ele>5</ele>
        <time>2018-04-21T07:45:07Z</time>
      </trkpt>
      <trkpt lat="46.6979" lon="-1.93428">
        <ele>5</ele>
        <time>2018-04-21T07:46:07Z</time>
      </trkpt>
      <trkpt lat="46.69789" lon="-1.93428">
        <ele>5</ele>
        <time>2018-04-21T07:47:07Z</time>
      </trkpt>
      <trkpt lat="46.69788" lon="-1.93428">
        <ele>5</ele>
        <time>2018-04-21T07:48:07Z</time>
      </trkpt>
      <trkpt lat="46.69788" lon="-1.93427">
        <ele>5</ele>
        <time>2018-04-21T07:49:07Z</time>
      </trkpt>
      <trkpt lat="46.69787" lon="-1.93427">
        <ele>5</ele>
        <time>2018-04-21T07:50:07Z</time>
      </trkpt>
      <trkpt lat="46.69787" lon="-1.93426">
        <ele>5</ele>
        <time>2018-04-21T07:51:07Z</time>
      </trkpt>
      <trkpt lat="46.69786" lon="-1.93426">
        <ele>5</ele>
        <time>2018-04-21T07:52:07Z</time>
      </trkpt>
      <trkpt lat="46.69786" lon="-1.93425">
        <ele>5</ele>
        <time>2018-04-21T07:53:07Z</time>
      </trkpt>
      <trkpt lat="46.69786" lon="-1.93424">
        <ele>5</ele>
        <time>2018-04-21T07:54:07Z</time>
      </trkpt>
      <trkpt lat="46.69785" lon="-1.93424">
        <ele>5</ele>
        <time>2018-04-21T07:55:07Z</time>
      </trkpt>
      <trkpt lat="46.69785" lon="-1.93423">
        <ele>5</ele>
        <time>2018-04-21T07:56:07Z</time>
      </trkpt>
      <trkpt lat="46.69785" lon="-1.93422">
        <ele>5</ele>
        <time>2018-04-21T07:57:07Z</time>
      </trkpt>
      <trkpt lat="46.69779" lon="-1.9342">
        <ele>5</ele>
        <time>2018-04-21T07:58:07Z</time>
      </trkpt>
      <trkpt lat="46.69776" lon="-1.9342">
        <ele>5</ele>
        <time>2018-04-21T07:59:07Z</time>
      </trkpt>
      <trkpt lat="46.69772" lon="-1.9342">
        <ele>5</ele>
        <time>2018-04-21T08:00:07Z</time>
      </trkpt>
      <trkpt lat="46.69762" lon="-1.93423">
        <ele>5</ele>
        <time>2018-04-21T08:01:07Z</time>
      </trkpt>
      <trkpt lat="46.69759" lon="-1.93424">
        <ele>5</ele>
        <time>2018-04-21T08:02:07Z</time>
      </trkpt>
      <trkpt lat="46.69721" lon="-1.93434">
        <ele>5</ele>
        <time>2018-04-21T08:03:07Z</time>
      </trkpt>
      <trkpt lat="46.69714" lon="-1.93435">
        <ele>5</ele>
        <time>2018-04-21T08:04:07Z</time>
      </trkpt>
      <trkpt lat="46.69697" lon="-1.93436">
        <ele>5</ele>
        <time>2018-04-21T08:05:07Z</time>
      </trkpt>
      <trkpt lat="46.69685" lon="-1.93435">
        <ele>5</ele>
        <time>2018-04-21T08:06:07Z</time>
      </trkpt>
      <trkpt lat="46.69633" lon="-1.93423">
        <ele>5</ele>
        <time>2018-04-21T08:07:07Z</time>
      </trkpt>
      <trkpt lat="46.69633" lon="-1.93423">
        <ele>5</ele>
        <time>2018-04-21T08:08:07Z</time>
      </trkpt>
      <trkpt lat="46.69633" lon="-1.93424">
        <ele>4</ele>
        <time>2018-04-21T08:09:07Z</time>
      </trkpt>
      <trkpt lat="46.69633" lon="-1.93425">
        <ele>4</ele>
        <time>2018-04-21T08:10:07Z</time>
      </trkpt>
      <trkpt lat="46.69633" lon="-1.93426">
        <ele>4</ele>
        <time>2018-04-21T08:11:07Z</time>
      </trkpt>
      <trkpt lat="46.69633" lon="-1.93427">
        <ele>4</ele>
        <time>2018-04-21T08:12:07Z</time>
      </trkpt>
      <trkpt lat="46.69633" lon="-1.93428">
        <ele>4</ele>
        <time>2018-04-21T08:13:07Z</time>
      </trkpt>
      <trkpt lat="46.69633" lon="-1.93429">
        <ele>4</ele>
        <time>2018-04-21T08:14:07Z</time>
      </trkpt>
      <trkpt lat="46.69633" lon="-1.9343">
        <ele>4</ele>
        <time>2018-04-21T08:15:07Z</time>
      </trkpt>
      <trkpt lat="46.69632" lon="-1.9343">
        <ele>4</ele>
        <time>2018-04-21T08:16:07Z</time>
      </trkpt>
      <trkpt lat="46.69632" lon="-1.93431">
        <ele>4</ele>
        <time>2018-04-21T08:17:07Z</time>
      </trkpt>
      <trkpt lat="46.69632" lon="-1.93432">
        <ele>4</ele>
        <time>2018-04-21T08:18:07Z</time>
      </trkpt>
      <trkpt lat="46.69631" lon="-1.93432">
        <ele>4</ele>
        <time>2018-04-21T08:19:07Z</time>
      </trkpt>
      <trkpt lat="46.69631" lon="-1.93433">
        <ele>4</ele>
        <time>2018-04-21T08:20:07Z</time>
      </trkpt>
      <trkpt lat="46.69631" lon="-1.93434">
        <ele>4</ele>
        <time>2018-04-21T08:21:07Z</time>
      </trkpt>
      <trkpt lat="46.6963" lon="-1.93434">
        <ele>4</ele>
        <time>2018-04-21T08:22:07Z</time>
      </trkpt>
      <trkpt lat="46.6963" lon="-1.93435">
        <ele>4</ele>
        <time>2018-04-21T08:23:07Z</time>
      </trkpt>
      <trkpt lat="46.69629" lon="-1.93435">
        <ele>4</ele>
        <time>2018-04-21T08:24:07Z</time>
      </trkpt>
      <trkpt lat="46.69629" lon="-1.93436">
        <ele>4</ele>
        <time>2018-04-21T08:25:07Z</time>
      </trkpt>
      <trkpt lat="46.69628" lon="-1.93436">
        <ele>4</ele>
        <time>2018-04-21T08:26:07Z</time>
      </trkpt>
      <trkpt lat="46.69627" lon="-1.93436">
        <ele>4</ele>
        <time>2018-04-21T08:27:07Z</time>
      </trkpt>
      <trkpt lat="46.69627" lon="-1.93437">
        <ele>4</ele>
        <time>2018-04-21T08:28:07Z</time>
      </trkpt>
      <trkpt lat="46.69626" lon="-1.93437">
        <ele>4</ele>
        <time>2018-04-21T08:29:07Z</time>
      </trkpt>
      <trkpt lat="46.69625" lon="-1.93437">
        <ele>4</ele>
        <time>2018-04-21T08:30:07Z</time>
      </trkpt>
      <trkpt lat="46.69624" lon="-1.93437">
        <ele>4</ele>
        <time>2018-04-21T08:31:07Z</time>
      </trkpt>
      <trkpt lat="46.69623" lon="-1.93437">
        <ele>4</ele>
        <time>2018-04-21T08:32:07Z</time>
      </trkpt>
      <trkpt lat="46.69622" lon="-1.93436">
        <ele>4</ele>
        <time>2018-04-21T08:33:07Z</time>
      </trkpt>
      <trkpt lat="46.69621" lon="-1.93436">
        <ele>4</ele>
        <time>2018-04-21T08:34:07Z</time>
      </trkpt>
      <trkpt lat="46.6962" lon="-1.93435">
        <ele>4</ele>
        <time>2018-04-21T08:35:07Z</time>
      </trkpt>
      <trkpt lat="46.69619" lon="-1.93434">
        <ele>4</ele>
        <time>2018-04-21T08:36:07Z</time>
      </trkpt>
      <trkpt lat="46.69619" lon="-1.93433">
        <ele>4</ele>
        <time>2018-04-21T08:37:07Z</time>
      </trkpt>
      <trkpt lat="46.69618" lon="-1.93433">
        <ele>4</ele>
        <time>2018-04-21T08:38:07Z</time>
      </trkpt>
      <trkpt lat="46.69618" lon="-1.93432">
        <ele>4</ele>
        <time>2018-04-21T08:39:07Z</time>
      </trkpt>
      <trkpt lat="46.69618" lon="-1.93431">
        <ele>4</ele>
        <time>2018-04-21T08:40:07Z</time>
      </trkpt>
      <trkpt lat="46.69617" lon="-1.93431">
        <ele>4</ele>
        <time>2018-04-21T08:41:07Z</time>
      </trkpt>
      <trkpt lat="46.69617" lon="-1.9343">
        <ele>4</ele>
        <time>2018-04-21T08:42:07Z</time>
      </trkpt>
      <trkpt lat="46.69617" lon="-1.93429">
        <ele>4</ele>
        <time>2018-04-21T08:43:07Z</time>
      </trkpt>
      <trkpt lat="46.69617" lon="-1.93428">
        <ele>4</ele>
        <time>2018-04-21T08:44:07Z</time>
      </trkpt>
      <trkpt lat="46.69616" lon="-1.93428">
        <ele>4</ele>
        <time>2018-04-21T08:45:07Z</time>
      </trkpt>
      <trkpt lat="46.69616" lon="-1.93427">
        <ele>4</ele>
        <time>2018-04-21T08:46:07Z</time>
      </trkpt>
      <trkpt lat="46.69616" lon="-1.93426">
        <ele>4</ele>
        <time>2018-04-21T08:47:07Z</time>
      </trkpt>
      <trkpt lat="46.69616" lon="-1.93425">
        <ele>4</ele>
        <time>2018-04-21T08:48:07Z</time>
      </trkpt>
      <trkpt lat="46.69616" lon="-1.93424">
        <ele>4</ele>
        <time>2018-04-21T08:49:07Z</time>
      </trkpt>
      <trkpt lat="46.69616" lon="-1.93423">
        <ele>4</ele>
        <time>2018-04-21T08:50:07Z</time>
      </trkpt>
      <trkpt lat="46.69616" lon="-1.93422">
        <ele>4</ele>
        <time>2018-04-21T08:51:07Z</time>
      </trkpt>
      <trkpt lat="46.69616" lon="-1.93421">
        <ele>4</ele>
        <time>2018-04-21T08:52:07Z</time>
      </trkpt>
      <trkpt lat="46.69617" lon="-1.93421">
        <ele>4</ele>
        <time>2018-04-21T08:53:07Z</time>
      </trkpt>
      <trkpt lat="46.69617" lon="-1.9342">
        <ele>4</ele>
        <time>2018-04-21T08:54:07Z</time>
      </trkpt>
      <trkpt lat="46.69607" lon="-1.93416">
        <ele>4</ele>
        <time>2018-04-21T08:55:07Z</time>
      </trkpt>
      <trkpt lat="46.69587" lon="-1.93404">
        <ele>4</ele>
        <time>2018-04-21T08:56:07Z</time>
      </trkpt>
      <trkpt lat="46.69551" lon="-1.93388">
        <ele>4</ele>
        <time>2018-04-21T08:57:07Z</time>
      </trkpt>
      <trkpt lat="46.69518" lon="-1.93374">
        <ele>4</ele>
        <time>2018-04-21T08:58:07Z</time>
      </trkpt>
      <trkpt lat="46.69507" lon="-1.9337">
        <ele>4</ele>
        <time>2018-04-21T08:59:07Z</time>
      </trkpt>
      <trkpt lat="46.69503" lon="-1.93368">
        <ele>4</ele>
        <time>2018-04-21T09:00:07Z</time>
      </trkpt>
      <trkpt lat="46.69498" lon="-1.93366">
        <ele>4</ele>
        <time>2018-04-21T09:01:07Z</time>
      </trkpt>
      <trkpt lat="46.6946" lon="-1.93349">
        <ele>4</ele>
        <time>2018-04-21T09:02:07Z</time>
      </trkpt>
      <trkpt lat="46.69431" lon="-1.93336">
        <ele>4</ele>
        <time>2018-04-21T09:03:07Z</time>
      </trkpt>
      <trkpt lat="46.69426" lon="-1.93334">
        <ele>4</ele>
        <time>2018-04-21T09:04:07Z</time>
      </trkpt>
      <trkpt lat="46.69421" lon="-1.93333">
        <ele>4</ele>
        <time>2018-04-21T09:05:07Z</time>
      </trkpt>
      <trkpt lat="46.69416" lon="-1.93331">
        <ele>4</ele>
        <time>2018-04-21T09:06:07Z</time>
      </trkpt>
      <trkpt lat="46.69405" lon="-1.9333">
        <ele>4</ele>
        <time>2018-04-21T09:07:07Z</time>
      </trkpt>
      <trkpt lat="46.69394" lon="-1.93333">
        <ele>4</ele>
        <time>2018-04-21T09:08:07Z</time>
      </trkpt>
      <trkpt lat="46.69394" lon="-1.93333">
        <ele>4</ele>
        <time>2018-04-21T09:09:07Z</time>
      </trkpt>
      <trkpt lat="46.69394" lon="-1.93334">
        <ele>4</ele>
        <time>2018-04-21T09:10:07Z</time>
      </trkpt>
      <trkpt lat="46.69394" lon="-1.93335">
        <ele>4</ele>
        <time>2018-04-21T09:11:07Z</time>
      </trkpt>
      <trkpt lat="46.69393" lon="-1.93335">
        <ele>4</ele>
        <time>2018-04-21T09:12:07Z</time>
      </trkpt>
      <trkpt lat="46.69393" lon="-1.93336">
        <ele>4</ele>
        <time>2018-04-21T09:13:07Z</time>
      </trkpt>
      <trkpt lat="46.69392" lon="-1.93336">
        <ele>4</ele>
        <time>2018-04-21T09:14:07Z</time>
      </trkpt>
      <trkpt lat="46.69392" lon="-1.93337">
        <ele>4</ele>
        <time>2018-04-21T09:15:07Z</time>
      </trkpt>
      <trkpt lat="46.69391" lon="-1.93337">
        <ele>4</ele>
        <time>2018-04-21T09:16:07Z</time>
      </trkpt>
      <trkpt lat="46.6939" lon="-1.93338">
        <ele>4</ele>
        <time>2018-04-21T09:17:07Z</time>
      </trkpt>
      <trkpt lat="46.69389" lon="-1.93338">
        <ele>4</ele>
        <time>2018-04-21T09:18:07Z</time>
      </trkpt>
      <trkpt lat="46.69388" lon="-1.93338">
        <ele>4</ele>
        <time>2018-04-21T09:19:07Z</time>
      </trkpt>
      <trkpt lat="46.69387" lon="-1.93338">
        <ele>4</ele>
        <time>2018-04-21T09:20:07Z</time>
      </trkpt>
      <trkpt lat="46.69386" lon="-1.93338">
        <ele>4</ele>
        <time>2018-04-21T09:21:07Z</time>
      </trkpt>
      <trkpt lat="46.69385" lon="-1.93338">
        <ele>4</ele>
        <time>2018-04-21T09:22:07Z</time>
      </trkpt>
      <trkpt lat="46.69384" lon="-1.93338">
        <ele>4</ele>
        <time>2018-04-21T09:23:07Z</time>
      </trkpt>
      <trkpt lat="46.69384" lon="-1.93337">
        <ele>4</ele>
        <time>2018-04-21T09:24:07Z</time>
      </trkpt>
      <trkpt lat="46.69383" lon="-1.93337">
        <ele>4</ele>
        <time>2018-04-21T09:25:07Z</time>
      </trkpt>
      <trkpt lat="46.69383" lon="-1.93336">
        <ele>4</ele>
        <time>2018-04-21T09:26:07Z</time>
      </trkpt>
      <trkpt lat="46.69382" lon="-1.93336">
        <ele>4</ele>
        <time>2018-04-21T09:27:07Z</time>
      </trkpt>
      <trkpt lat="46.69382" lon="-1.93335">
        <ele>4</ele>
        <time>2018-04-21T09:28:07Z</time>
      </trkpt>
      <trkpt lat="46.69381" lon="-1.93335">
        <ele>4</ele>
        <time>2018-04-21T09:29:07Z</time>
      </trkpt>
      <trkpt lat="46.69381" lon="-1.93334">
        <ele>4</ele>
        <time>2018-04-21T09:30:07Z</time>
      </trkpt>
      <trkpt lat="46.6938" lon="-1.93333">
        <ele>4</ele>
        <time>2018-04-21T09:31:07Z</time>
      </trkpt>
      <trkpt lat="46.6938" lon="-1.93332">
        <ele>4</ele>
        <time>2018-04-21T09:32:07Z</time>
      </trkpt>
      <trkpt lat="46.69379" lon="-1.93332">
        <ele>4</ele>
        <time>2018-04-21T09:33:07Z</time>
      </trkpt>
      <trkpt lat="46.69379" lon="-1.93331">
        <ele>4</ele>
        <time>2018-04-21T09:34:07Z</time>
      </trkpt>
      <trkpt lat="46.69379" lon="-1.9333">
        <ele>4</ele>
        <time>2018-04-21T09:35:07Z</time>
      </trkpt>
      <trkpt lat="46.69379" lon="-1.93329">
        <ele>4</ele>
        <time>2018-04-21T09:36:07Z</time>
      </trkpt>
      <trkpt lat="46.69376" lon="-1.93327">
        <ele>4</ele>
        <time>2018-04-21T09:37:07Z</time>
      </trkpt>
      <trkpt lat="46.69367" lon="-1.93325">
        <ele>4</ele>
        <time>2018-04-21T09:38:07Z</time>
      </trkpt>
      <trkpt lat="46.69363" lon="-1.93325">
        <ele>4</ele>
        <time>2018-04-21T09:39:07Z</time>
      </trkpt>
      <trkpt lat="46.69356" lon="-1.93325">
        <ele>4</ele>
        <time>2018-04-21T09:40:07Z</time>
      </trkpt>
      <trkpt lat="46.69353" lon="-1.93324">
        <ele>4</ele>
        <time>2018-04-21T09:41:07Z</time>
      </trkpt>
      <trkpt lat="46.69315" lon="-1.93317">
        <ele>4</ele>
        <time>2018-04-21T09:42:07Z</time>
      </trkpt>
      <trkpt lat="46.69286" lon="-1.93313">
        <ele>4</ele>
        <time>2018-04-21T09:43:07Z</time>
      </trkpt>
      <trkpt lat="46.6924" lon="-1.93303">
        <ele>3</ele>
        <time>2018-04-21T09:44:07Z</time>
      </trkpt>
      <trkpt lat="46.69218" lon="-1.933">
        <ele>3</ele>
        <time>2018-04-21T09:45:07Z</time>
      </trkpt>
      <trkpt lat="46.69217" lon="-1.933">
        <ele>3</ele>
        <time>2018-04-21T09:46:07Z</time>
      </trkpt>
      <trkpt lat="46.69209" lon="-1.93298">
        <ele>3</ele>
        <time>2018-04-21T09:47:07Z</time>
      </trkpt>
      <trkpt lat="46.69203" lon="-1.93298">
        <ele>3</ele>
        <time>2018-04-21T09:48:07Z</time>
      </trkpt>
      <trkpt lat="46.69197" lon="-1.93299">
        <ele>3</ele>
        <time>2018-04-21T09:49:07Z</time>
      </trkpt>
      <trkpt lat="46.69182" lon="-1.93301">
        <ele>3</ele>
        <time>2018-04-21T09:50:07Z</time>
      </trkpt>
      <trkpt lat="46.69182" lon="-1.93301">
        <ele>3</ele>
        <time>2018-04-21T09:51:07Z</time>
      </trkpt>
      <trkpt lat="46.6918" lon="-1.93305">
        <ele>3</ele>
        <time>2018-04-21T09:52:07Z</time>
      </trkpt>
      <trkpt lat="46.69177" lon="-1.93307">
        <ele>3</ele>
        <time>2018-04-21T09:53:07Z</time>
      </trkpt>
      <trkpt lat="46.69173" lon="-1.93307">
        <ele>3</ele>
        <time>2018-04-21T09:54:07Z</time>
      </trkpt>
      <trkpt lat="46.69169" lon="-1.93306">
        <ele>3</ele>
        <time>2018-04-21T09:55:07Z</time>
      </trkpt>
      <trkpt lat="46.69167" lon="-1.93304">
        <ele>3</ele>
        <time>2018-04-21T09:56:07Z</time>
      </trkpt>
      <trkpt lat="46.69165" lon="-1.93301">
        <ele>3</ele>
        <time>2018-04-21T09:57:07Z</time>
      </trkpt>
      <trkpt lat="46.69164" lon="-1.93298">
        <ele>3</ele>
        <time>2018-04-21T09:58:07Z</time>
      </trkpt>
      <trkpt lat="46.69163" lon="-1.93296">
        <ele>3</ele>
        <time>2018-04-21T09:59:07Z</time>
      </trkpt>
      <trkpt lat="46.69163" lon="-1.93293">
        <ele>2</ele>
        <time>2018-04-21T10:00:07Z</time>
      </trkpt>
      <trkpt lat="46.69163" lon="-1.93289">
        <ele>2</ele>
        <time>2018-04-21T10:01:07Z</time>
      </trkpt>
      <trkpt lat="46.69165" lon="-1.93285">
        <ele>2</ele>
        <time>2018-04-21T10:02:07Z</time>
      </trkpt>
      <trkpt lat="46.69169" lon="-1.9328">
        <ele>2</ele>
        <time>2018-04-21T10:03:07Z</time>
      </trkpt>
      <trkpt lat="46.69166" lon="-1.93273">
        <ele>2</ele>
        <time>2018-04-21T10:04:07Z</time>
      </trkpt>
      <trkpt lat="46.69166" lon="-1.93263">
        <ele>2</ele>
        <time>2018-04-21T10:05:07Z</time>
      </trkpt>
      <trkpt lat="46.69167" lon="-1.93252">
        <ele>2</ele>
        <time>2018-04-21T10:06:07Z</time>
      </trkpt>
      <trkpt lat="46.69169" lon="-1.93244">
        <ele>2</ele>
        <time>2018-04-21T10:07:07Z</time>
      </trkpt>
      <trkpt lat="46.69177" lon="-1.93193">
        <ele>4</ele>
        <time>2018-04-21T10:08:07Z</time>
      </trkpt>
      <trkpt lat="46.69179" lon="-1.9318">
        <ele>4</ele>
        <time>2018-04-21T10:09:07Z</time>
      </trkpt>
      <trkpt lat="46.69182" lon="-1.93159">
        <ele>4</ele>
        <time>2018-04-21T10:10:07Z</time>
      </trkpt>
      <trkpt lat="46.69183" lon="-1.9315">
        <ele>4</ele>
        <time>2018-04-21T10:11:07Z</time>
      </trkpt>
      <trkpt lat="46.69186" lon="-1.93138">
        <ele>4</ele>
        <time>2018-04-21T10:12:07Z</time>
      </trkpt>
      <trkpt lat="46.69187" lon="-1.93134">
        <ele>4</ele>
        <time>2018-04-21T10:13:07Z</time>
      </trkpt>
      <trkpt lat="46.6919" lon="-1.93125">
        <ele>4</ele>
        <time>2018-04-21T10:14:07Z</time>
      </trkpt>
      <trkpt lat="46.69194" lon="-1.93117">
        <ele>4</ele>
        <time>2018-04-21T10:15:07Z</time>
      </trkpt>
      <trkpt lat="46.69201" lon="-1.93103">
        <ele>4</ele>
        <time>2018-04-21T10:16:07Z</time>
      </trkpt>
      <trkpt lat="46.6921" lon="-1.93085">
        <ele>5</ele>
        <time>2018-04-21T10:17:07Z</time>
      </trkpt>
      <trkpt lat="46.69219" lon="-1.93065">
        <ele>5</ele>
        <time>2018-04-21T10:18:07Z</time>
      </trkpt>
      <trkpt lat="46.69224" lon="-1.93053">
        <ele>5</ele>
        <time>2018-04-21T10:19:07Z</time>
      </trkpt>
      <trkpt lat="46.69224" lon="-1.93053">
        <ele>5</ele>
        <time>2018-04-21T10:20:07Z</time>
      </trkpt>
      <trkpt lat="46.69217" lon="-1.93046">
        <ele>5</ele>
        <time>2018-04-21T10:21:07Z</time>
      </trkpt>
      <trkpt lat="46.69194" lon="-1.93026">
        <ele>5</ele>
        <time>2018-04-21T10:22:07Z</time>
      </trkpt>
      <trkpt lat="46.69175" lon="-1.93009">
        <ele>4</ele>
        <time>2018-04-21T10:23:07Z</time>
      </trkpt>
      <trkpt lat="46.6917" lon="-1.93005">
        <ele>4</ele>
        <time>2018-04-21T10:24:07Z</time>
      </trkpt>
      <trkpt lat="46.69154" lon="-1.92991">
        <ele>4</ele>
        <time>2018-04-21T10:25:07Z</time>
      </trkpt>
      <trkpt lat="46.69133" lon="-1.92971">
        <ele>4</ele>
        <time>2018-04-21T10:26:07Z</time>
      </trkpt>
      <trkpt lat="46.69107" lon="-1.92948">
        <ele>4</ele>
        <time>2018-04-21T10:27:07Z</time>
      </trkpt>
      <trkpt lat="46.69095" lon="-1.92938">
        <ele>4</ele>
        <time>2018-04-21T10:28:07Z</time>
      </trkpt>
      <trkpt lat="46.69068" lon="-1.92907">
        <ele>4</ele>
        <time>2018-04-21T10:29:07Z</time>
      </trkpt>
      <trkpt lat="46.69055" lon="-1.9289">
        <ele>4</ele>
        <time>2018-04-21T10:30:07Z</time>
      </trkpt>
      <trkpt lat="46.69038" lon="-1.92867">
        <ele>4</ele>
        <time>2018-04-21T10:31:07Z</time>
      </trkpt>
      <trkpt lat="46.69014" lon="-1.92836">
        <ele>4</ele>
        <time>2018-04-21T10:32:07Z</time>
      </trkpt>
      <trkpt lat="46.68993" lon="-1.92806">
        <ele>4</ele>
        <time>2018-04-21T10:33:07Z</time>
      </trkpt>
      <trkpt lat="46.68992" lon="-1.92805">
        <ele>4</ele>
        <time>2018-04-21T10:34:07Z</time>
      </trkpt>
      <trkpt lat="46.68977" lon="-1.92784">
        <ele>4</ele>
        <time>2018-04-21T10:35:07Z</time>
      </trkpt>
      <trkpt lat="46.68969" lon="-1.92774">
        <ele>4</ele>
        <time>2018-04-21T10:36:07Z</time>
      </trkpt>
      <trkpt lat="46.68965" lon="-1.92769">
        <ele>4</ele>
        <time>2018-04-21T10:37:07Z</time>
      </trkpt>
      <trkpt lat="46.68955" lon="-1.92755">
        <ele>4</ele>
        <time>2018-04-21T10:38:07Z</time>
      </trkpt>
      <trkpt lat="46.68947" lon="-1.92747">
        <ele>4</ele>
        <time>2018-04-21T10:39:07Z</time>
      </trkpt>
      <trkpt lat="46.68936" lon="-1.92737">
        <ele>4</ele>
        <time>2018-04-21T10:40:07Z</time>
      </trkpt>
      <trkpt lat="46.68926" lon="-1.9273">
        <ele>4</ele>
        <time>2018-04-21T10:41:07Z</time>
      </trkpt>
      <trkpt lat="46.68913" lon="-1.92723">
        <ele>4</ele>
        <time>2018-04-21T10:42:07Z</time>
      </trkpt>
      <trkpt lat="46.68897" lon="-1.92716">
        <ele>4</ele>
        <time>2018-04-21T10:43:07Z</time>
      </trkpt>
      <trkpt lat="46.68881" lon="-1.92711">
        <ele>5</ele>
        <time>2018-04-21T10:44:07Z</time>
      </trkpt>
      <trkpt lat="46.68869" lon="-1.92706">
        <ele>5</ele>
        <time>2018-04-21T10:45:07Z</time>
      </trkpt>
      <trkpt lat="46.6886" lon="-1.92704">
        <ele>6</ele>
        <time>2018-04-21T10:46:07Z</time>
      </trkpt>
      <trkpt lat="46.68859" lon="-1.92704">
        <ele>6</ele>
        <time>2018-04-21T10:47:07Z</time>
      </trkpt>
      <trkpt lat="46.68851" lon="-1.92698">
        <ele>6</ele>
        <time>2018-04-21T10:48:07Z</time>
      </trkpt>
      <trkpt lat="46.68851" lon="-1.92698">
        <ele>6</ele>
        <time>2018-04-21T10:49:07Z</time>
      </trkpt>
      <trkpt lat="46.68851" lon="-1.92699">
        <ele>6</ele>
        <time>2018-04-21T10:50:07Z</time>
      </trkpt>
      <trkpt lat="46.6885" lon="-1.92699">
        <ele>6</ele>
        <time>2018-04-21T10:51:07Z</time>
      </trkpt>
      <trkpt lat="46.68849" lon="-1.927">
        <ele>6</ele>
        <time>2018-04-21T10:52:07Z</time>
      </trkpt>
      <trkpt lat="46.68848" lon="-1.927">
        <ele>6</ele>
        <time>2018-04-21T10:53:07Z</time>
      </trkpt>
      <trkpt lat="46.68848" lon="-1.92701">
        <ele>6</ele>
        <time>2018-04-21T10:54:07Z</time>
      </trkpt>
      <trkpt lat="46.68847" lon="-1.92701">
        <ele>6</ele>
        <time>2018-04-21T10:55:07Z</time>
      </trkpt>
      <trkpt lat="46.68846" lon="-1.92701">
        <ele>6</ele>
        <time>2018-04-21T10:56:07Z</time>
      </trkpt>
      <trkpt lat="46.68845" lon="-1.92701">
        <ele>6</ele>
        <time>2018-04-21T10:57:07Z</time>
      </trkpt>
      <trkpt lat="46.68844" lon="-1.92701">
        <ele>7</ele>
        <time>2018-04-21T10:58:07Z</time>
      </trkpt>
      <trkpt lat="46.68844" lon="-1.927">
        <ele>7</ele>
        <time>2018-04-21T10:59:07Z</time>
      </trkpt>
      <trkpt lat="46.68843" lon="-1.927">
        <ele>7</ele>
        <time>2018-04-21T11:00:07Z</time>
      </trkpt>
      <trkpt lat="46.68842" lon="-1.92699">
        <ele>7</ele>
        <time>2018-04-21T11:01:07Z</time>
      </trkpt>
      <trkpt lat="46.68837" lon="-1.927">
        <ele>7</ele>
        <time>2018-04-21T11:02:07Z</time>
      </trkpt>
      <trkpt lat="46.68833" lon="-1.92701">
        <ele>7</ele>
        <time>2018-04-21T11:03:07Z</time>
      </trkpt>
      <trkpt lat="46.68828" lon="-1.927">
        <ele>7</ele>
        <time>2018-04-21T11:04:07Z</time>
      </trkpt>
      <trkpt lat="46.68827" lon="-1.927">
        <ele>7</ele>
        <time>2018-04-21T11:05:07Z</time>
      </trkpt>
      <trkpt lat="46.68827" lon="-1.92701">
        <ele>7</ele>
        <time>2018-04-21T11:06:07Z</time>
      </trkpt>
      <trkpt lat="46.68826" lon="-1.92701">
        <ele>7</ele>
        <time>2018-04-21T11:07:07Z</time>
      </trkpt>
      <trkpt lat="46.68826" lon="-1.92702">
        <ele>7</ele>
        <time>2018-04-21T11:08:07Z</time>
      </trkpt>
      <trkpt lat="46.68825" lon="-1.92702">
        <ele>7</ele>
        <time>2018-04-21T11:09:07Z</time>
      </trkpt>
      <trkpt lat="46.68825" lon="-1.92703">
        <ele>7</ele>
        <time>2018-04-21T11:10:07Z</time>
      </trkpt>
      <trkpt lat="46.68824" lon="-1.92703">
        <ele>7</ele>
        <time>2018-04-21T11:11:07Z</time>
      </trkpt>
      <trkpt lat="46.68823" lon="-1.92703">
        <ele>7</ele>
        <time>2018-04-21T11:12:07Z</time>
      </trkpt>
      <trkpt lat="46.68822" lon="-1.92703">
        <ele>7</ele>
        <time>2018-04-21T11:13:07Z</time>
      </trkpt>
      <trkpt lat="46.68821" lon="-1.92703">
        <ele>7</ele>
        <time>2018-04-21T11:14:07Z</time>
      </trkpt>
      <trkpt lat="46.68821" lon="-1.92702">
        <ele>7</ele>
        <time>2018-04-21T11:15:07Z</time>
      </trkpt>
      <trkpt lat="46.6882" lon="-1.92702">
        <ele>7</ele>
        <time>2018-04-21T11:16:07Z</time>
      </trkpt>
      <trkpt lat="46.6882" lon="-1.92701">
        <ele>7</ele>
        <time>2018-04-21T11:17:07Z</time>
      </trkpt>
      <trkpt lat="46.68819" lon="-1.92701">
        <ele>7</ele>
        <time>2018-04-21T11:18:07Z</time>
      </trkpt>
      <trkpt lat="46.68819" lon="-1.927">
        <ele>7</ele>
        <time>2018-04-21T11:19:07Z</time>
      </trkpt>
      <trkpt lat="46.68818" lon="-1.927">
        <ele>7</ele>
        <time>2018-04-21T11:20:07Z</time>
      </trkpt>
      <trkpt lat="46.68818" lon="-1.92699">
        <ele>7</ele>
        <time>2018-04-21T11:21:07Z</time>
      </trkpt>
      <trkpt lat="46.68818" lon="-1.92698">
        <ele>7</ele>
        <time>2018-04-21T11:22:07Z</time>
      </trkpt>
      <trkpt lat="46.68817" lon="-1.92698">
        <ele>7</ele>
        <time>2018-04-21T11:23:07Z</time>
      </trkpt>
      <trkpt lat="46.68817" lon="-1.92697">
        <ele>7</ele>
        <time>2018-04-21T11:24:07Z</time>
      </trkpt>
      <trkpt lat="46.68817" lon="-1.92696">
        <ele>7</ele>
        <time>2018-04-21T11:25:07Z</time>
      </trkpt>
      <trkpt lat="46.68817" lon="-1.92695">
        <ele>7</ele>
        <time>2018-04-21T11:26:07Z</time>
      </trkpt>
      <trkpt lat="46.68817" lon="-1.92694">
        <ele>7</ele>
        <time>2018-04-21T11:27:07Z</time>
      </trkpt>
      <trkpt lat="46.68817" lon="-1.92693">
        <ele>7</ele>
        <time>2018-04-21T11:28:07Z</time>
      </trkpt>
      <trkpt lat="46.68817" lon="-1.92692">
        <ele>7</ele>
        <time>2018-04-21T11:29:07Z</time>
      </trkpt>
      <trkpt lat="46.68817" lon="-1.92691">
        <ele>7</ele>
        <time>2018-04-21T11:30:07Z</time>
      </trkpt>
      <trkpt lat="46.68817" lon="-1.9269">
        <ele>7</ele>
        <time>2018-04-21T11:31:07Z</time>
      </trkpt>
      <trkpt lat="46.68804" lon="-1.92685">
        <ele>7</ele>
        <time>2018-04-21T11:32:07Z</time>
      </trkpt>
      <trkpt lat="46.68787" lon="-1.9268">
        <ele>8</ele>
        <time>2018-04-21T11:33:07Z</time>
      </trkpt>
      <trkpt lat="46.68776" lon="-1.92676">
        <ele>8</ele>
        <time>2018-04-21T11:34:07Z</time>
      </trkpt>
      <trkpt lat="46.6876" lon="-1.92669">
        <ele>8</ele>
        <time>2018-04-21T11:35:07Z</time>
      </trkpt>
      <trkpt lat="46.68759" lon="-1.92668">
        <ele>8</ele>
        <time>2018-04-21T11:36:07Z</time>
      </trkpt>
      <trkpt lat="46.68733" lon="-1.92654">
        <ele>8</ele>
        <time>2018-04-21T11:37:07Z</time>
      </trkpt>
      <trkpt lat="46.68732" lon="-1.92654">
        <ele>8</ele>
        <time>2018-04-21T11:38:07Z</time>
      </trkpt>
      <trkpt lat="46.68707" lon="-1.92638">
        <ele>9</ele>
        <time>2018-04-21T11:39:07Z</time>
      </trkpt>
      <trkpt lat="46.68669" lon="-1.92615">
        <ele>10</ele>
        <time>2018-04-21T11:40:07Z</time>
      </trkpt>
      <trkpt lat="46.68651" lon="-1.92602">
        <ele>10</ele>
        <time>2018-04-21T11:41:07Z</time>
      </trkpt>
      <trkpt lat="46.68644" lon="-1.92596">
        <ele>10</ele>
        <time>2018-04-21T11:42:07Z</time>
      </trkpt>
      <trkpt lat="46.68635" lon="-1.92588">
        <ele>10</ele>
        <time>2018-04-21T11:43:07Z</time>
      </trkpt>
      <trkpt lat="46.68634" lon="-1.92586">
        <ele>10</ele>
        <time>2018-04-21T11:44:07Z</time>
      </trkpt>
      <trkpt lat="46.68629" lon="-1.9258">
        <ele>10</ele>
        <time>2018-04-21T11:45:07Z</time>
      </trkpt>
      <trkpt lat="46.68625" lon="-1.92575">
        <ele>10</ele>
        <time>2018-04-21T11:46:07Z</time>
      </trkpt>
      <trkpt lat="46.68616" lon="-1.92563">
        <ele>10</ele>
        <time>2018-04-21T11:47:07Z</time>
      </trkpt>
      <trkpt lat="46.68605" lon="-1.92548">
        <ele>10</ele>
        <time>2018-04-21T11:48:07Z</time>
      </trkpt>
      <trkpt lat="46.68594" lon="-1.92534">
        <ele>10</ele>
        <time>2018-04-21T11:49:07Z</time>
      </trkpt>
      <trkpt lat="46.68589" lon="-1.92528">
        <ele>10</ele>
        <time>2018-04-21T11:50:07Z</time>
      </trkpt>
      <trkpt lat="46.68567" lon="-1.925">
        <ele>10</ele>
        <time>2018-04-21T11:51:07Z</time>
      </trkpt>
      <trkpt lat="46.68549" lon="-1.92476">
        <ele>10</ele>
        <time>2018-04-21T11:52:07Z</time>
      </trkpt>
      <trkpt lat="46.68538" lon="-1.92464">
        <ele>10</ele>
        <time>2018-04-21T11:53:07Z</time>
      </trkpt>
      <trkpt lat="46.68532" lon="-1.92456">
        <ele>10</ele>
        <time>2018-04-21T11:54:07Z</time>
      </trkpt>
      <trkpt lat="46.68528" lon="-1.9245">
        <ele>10</ele>
        <time>2018-04-21T11:55:07Z</time>
      </trkpt>
      <trkpt lat="46.68514" lon="-1.92436">
        <ele>10</ele>
        <time>2018-04-21T11:56:07Z</time>
      </trkpt>
      <trkpt lat="46.68505" lon="-1.92428">
        <ele>10</ele>
        <time>2018-04-21T11:57:07Z</time>
      </trkpt>
      <trkpt lat="46.68495" lon="-1.9242">
        <ele>10</ele>
        <time>2018-04-21T11:58:07Z</time>
      </trkpt>
      <trkpt lat="46.68487" lon="-1.92415">
        <ele>10</ele>
        <time>2018-04-21T11:59:07Z</time>
      </trkpt>
      <trkpt lat="46.68481" lon="-1.92411">
        <ele>10</ele>
        <time>2018-04-21T12:00:07Z</time>
      </trkpt>
      <trkpt lat="46.68472" lon="-1.92408">
        <ele>10</ele>
        <time>2018-04-21T12:01:07Z</time>
      </trkpt>
      <trkpt lat="46.68463" lon="-1.92406">
        <ele>10</ele>
        <time>2018-04-21T12:02:07Z</time>
      </trkpt>
      <trkpt lat="46.68454" lon="-1.92404">
        <ele>10</ele>
        <time>2018-04-21T12:03:07Z</time>
      </trkpt>
      <trkpt lat="46.68447" lon="-1.92403">
        <ele>10</ele>
        <time>2018-04-21T12:04:07Z</time>
      </trkpt>
      <trkpt lat="46.68435" lon="-1.924">
        <ele>10</ele>
        <time>2018-04-21T12:05:07Z</time>
      </trkpt>
      <trkpt lat="46.68426" lon="-1.92396">
        <ele>10</ele>
        <time>2018-04-21T12:06:07Z</time>
      </trkpt>
      <trkpt lat="46.68413" lon="-1.92388">
        <ele>10</ele>
        <time>2018-04-21T12:07:07Z</time>
      </trkpt>
      <trkpt lat="46.68403" lon="-1.9238">
        <ele>10</ele>
        <time>2018-04-21T12:08:07Z</time>
      </trkpt>
      <trkpt lat="46.68389" lon="-1.92363">
        <ele>10</ele>
        <time>2018-04-21T12:09:07Z</time>
      </trkpt>
      <trkpt lat="46.6838" lon="-1.92351">
        <ele>10</ele>
        <time>2018-04-21T12:10:07Z</time>
      </trkpt>
      <trkpt lat="46.68377" lon="-1.92346">
        <ele>10</ele>
        <time>2018-04-21T12:11:07Z</time>
      </trkpt>
      <trkpt lat="46.6837" lon="-1.92334">
        <ele>10</ele>
        <time>2018-04-21T12:12:07Z</time>
      </trkpt>
      <trkpt lat="46.68355" lon="-1.92305">
        <ele>10</ele>
        <time>2018-04-21T12:13:07Z</time>
      </trkpt>
      <trkpt lat="46.6833" lon="-1.92261">
        <ele>9</ele>
        <time>2018-04-21T12:14:07Z</time>
      </trkpt>
      <trkpt lat="46.6832" lon="-1.92245">
        <ele>9</ele>
        <time>2018-04-21T12:15:07Z</time>
      </trkpt>
      <trkpt lat="46.68306" lon="-1.92219">
        <ele>9</ele>
        <time>2018-04-21T12:16:07Z</time>
      </trkpt>
      <trkpt lat="46.68291" lon="-1.92193">
        <ele>8</ele>
        <time>2018-04-21T12:17:07Z</time>
      </trkpt>
      <trkpt lat="46.68286" lon="-1.92186">
        <ele>8</ele>
        <time>2018-04-21T12:18:07Z</time>
      </trkpt>
      <trkpt lat="46.68277" lon="-1.92172">
        <ele>8</ele>
        <time>2018-04-21T12:19:07Z</time>
      </trkpt>
      <trkpt lat="46.68267" lon="-1.92157">
        <ele>7</ele>
        <time>2018-04-21T12:20:07Z</time>
      </trkpt>
      <trkpt lat="46.68255" lon="-1.9214">
        <ele>7</ele>
        <time>2018-04-21T12:21:07Z</time>
      </trkpt>
      <trkpt lat="46.6823" lon="-1.92107">
        <ele>7</ele>
        <time>2018-04-21T12:22:07Z</time>
      </trkpt>
      <trkpt lat="46.68227" lon="-1.92103">
        <ele>7</ele>
        <time>2018-04-21T12:23:07Z</time>
      </trkpt>
      <trkpt lat="46.68224" lon="-1.92098">
        <ele>7</ele>
        <time>2018-04-21T12:24:07Z</time>
      </trkpt>
      <trkpt lat="46.68224" lon="-1.92097">
        <ele>7</ele>
        <time>2018-04-21T12:25:07Z</time>
      </trkpt>
      <trkpt lat="46.6822" lon="-1.92091">
        <ele>7</ele>
        <time>2018-04-21T12:26:07Z</time>
      </trkpt>
      <trkpt lat="46.68208" lon="-1.92073">
        <ele>7</ele>
        <time>2018-04-21T12:27:07Z</time>
      </trkpt>
      <trkpt lat="46.68198" lon="-1.92057">
        <ele>7</ele>
        <time>2018-04-21T12:28:07Z</time>
      </trkpt>
      <trkpt lat="46.68174" lon="-1.92025">
        <ele>8</ele>
        <time>2018-04-21T12:29:07Z</time>
      </trkpt>
      <trkpt lat="46.68158" lon="-1.92003">
        <ele>8</ele>
        <time>2018-04-21T12:30:07Z</time>
      </trkpt>
      <trkpt lat="46.68115" lon="-1.91941">
        <ele>8</ele>
        <time>2018-04-21T12:31:07Z</time>
      </trkpt>
      <trkpt lat="46.68083" lon="-1.91897">
        <ele>8</ele>
        <time>2018-04-21T12:32:07Z</time>
      </trkpt>
      <trkpt lat="46.68057" lon="-1.91858">
        <ele>8</ele>
        <time>2018-04-21T12:33:07Z</time>
      </trkpt>
      <trkpt lat="46.68041" lon="-1.91836">
        <ele>8</ele>
        <time>2018-04-21T12:34:07Z</time>
      </trkpt>
      <trkpt lat="46.68033" lon="-1.91825">
        <ele>8</ele>
        <time>2018-04-21T12:35:07Z</time>
      </trkpt>
      <trkpt lat="46.68022" lon="-1.91808">
        <ele>8</ele>
        <time>2018-04-21T12:36:07Z</time>
      </trkpt>
      <trkpt lat="46.68" lon="-1.91776">
        <ele>8</ele>
        <time>2018-04-21T12:37:07Z</time>
      </trkpt>
      <trkpt lat="46.67972" lon="-1.91737">
        <ele>7</ele>
        <time>2018-04-21T12:38:07Z</time>
      </trkpt>
      <trkpt lat="46.67947" lon="-1.91703">
        <ele>7</ele>
        <time>2018-04-21T12:39:07Z</time>
      </trkpt>
      <trkpt lat="46.67928" lon="-1.91675">
        <ele>7</ele>
        <time>2018-04-21T12:40:07Z</time>
      </trkpt>
      <trkpt lat="46.67898" lon="-1.91633">
        <ele>7</ele>
        <time>2018-04-21T12:41:07Z</time>
      </trkpt>
      <trkpt lat="46.67883" lon="-1.91611">
        <ele>6</ele>
        <time>2018-04-21T12:42:07Z</time>
      </trkpt>
      <trkpt lat="46.67864" lon="-1.91583">
        <ele>6</ele>
        <time>2018-04-21T12:43:07Z</time>
      </trkpt>
      <trkpt lat="46.6784" lon="-1.91552">
        <ele>6</ele>
        <time>2018-04-21T12:44:07Z</time>
      </trkpt>
      <trkpt lat="46.67831" lon="-1.91538">
        <ele>6</ele>
        <time>2018-04-21T12:45:07Z</time>
      </trkpt>
      <trkpt lat="46.67783" lon="-1.91471">
        <ele>6</ele>
        <time>2018-04-21T12:46:07Z</time>
      </trkpt>
      <trkpt lat="46.67747" lon="-1.9142">
        <ele>6</ele>
        <time>2018-04-21T12:47:07Z</time>
      </trkpt>
      <trkpt lat="46.67743" lon="-1.91414">
        <ele>6</ele>
        <time>2018-04-21T12:48:07Z</time>
      </trkpt>
      <trkpt lat="46.67704" lon="-1.91358">
        <ele>5</ele>
        <time>2018-04-21T12:49:07Z</time>
      </trkpt>
      <trkpt lat="46.67662" lon="-1.91298">
        <ele>5</ele>
        <time>2018-04-21T12:50:07Z</time>
      </trkpt>
      <trkpt lat="46.67634" lon="-1.91261">
        <ele>5</ele>
        <time>2018-04-21T12:51:07Z</time>
      </trkpt>
      <trkpt lat="46.67612" lon="-1.91228">
        <ele>5</ele>
        <time>2018-04-21T12:52:07Z</time>
      </trkpt>
      <trkpt lat="46.67587" lon="-1.91194">
        <ele>6</ele>
        <time>2018-04-21T12:53:07Z</time>
      </trkpt>
      <trkpt lat="46.67578" lon="-1.91181">
        <ele>6</ele>
        <time>2018-04-21T12:54:07Z</time>
      </trkpt>
      <trkpt lat="46.67546" lon="-1.91137">
        <ele>5</ele>
        <time>2018-04-21T12:55:07Z</time>
      </trkpt>
      <trkpt lat="46.67518" lon="-1.91097">
        <ele>5</ele>
        <time>2018-04-21T12:56:07Z</time>
      </trkpt>
      <trkpt lat="46.6749" lon="-1.9106">
        <ele>5</ele>
        <time>2018-04-21T12:57:07Z</time>
      </trkpt>
      <trkpt lat="46.67469" lon="-1.9103">
        <ele>4</ele>
        <time>2018-04-21T12:58:07Z</time>
      </trkpt>
      <trkpt lat="46.67456" lon="-1.9101">
        <ele>4</ele>
        <time>2018-04-21T12:59:07Z</time>
      </trkpt>
      <trkpt lat="46.67452" lon="-1.91005">
        <ele>4</ele>
        <time>2018-04-21T13:00:07Z</time>
      </trkpt>
      <trkpt lat="46.67446" lon="-1.90996">
        <ele>4</ele>
        <time>2018-04-21T13:01:07Z</time>
      </trkpt>
      <trkpt lat="46.6744" lon="-1.90984">
        <ele>4</ele>
        <time>2018-04-21T13:02:07Z</time>
      </trkpt>
      <trkpt lat="46.67435" lon="-1.90971">
        <ele>3</ele>
        <time>2018-04-21T13:03:07Z</time>
      </trkpt>
      <trkpt lat="46.67435" lon="-1.90971">
        <ele>3</ele>
        <time>2018-04-21T13:04:07Z</time>
      </trkpt>
      <trkpt lat="46.67432" lon="-1.90969">
        <ele>3</ele>
        <time>2018-04-21T13:05:07Z</time>
      </trkpt>
      <trkpt lat="46.6743" lon="-1.90968">
        <ele>3</ele>
        <time>2018-04-21T13:06:07Z</time>
      </trkpt>
      <trkpt lat="46.67429" lon="-1.90967">
        <ele>3</ele>
        <time>2018-04-21T13:07:07Z</time>
      </trkpt>
      <trkpt lat="46.67427" lon="-1.90965">
        <ele>3</ele>
        <time>2018-04-21T13:08:07Z</time>
      </trkpt>
      <trkpt lat="46.67426" lon="-1.90964">
        <ele>3</ele>
        <time>2018-04-21T13:09:07Z</time>
      </trkpt>
      <trkpt lat="46.67424" lon="-1.90962">
        <ele>3</ele>
        <time>2018-04-21T13:10:07Z</time>
      </trkpt>
      <trkpt lat="46.67423" lon="-1.9096">
        <ele>3</ele>
        <time>2018-04-21T13:11:07Z</time>
      </trkpt>
      <trkpt lat="46.67422" lon="-1.90958">
        <ele>3</ele>
        <time>2018-04-21T13:12:07Z</time>
      </trkpt>
      <trkpt lat="46.67421" lon="-1.90956">
        <ele>3</ele>
        <time>2018-04-21T13:13:07Z</time>
      </trkpt>
      <trkpt lat="46.6742" lon="-1.90953">
        <ele>3</ele>
        <time>2018-04-21T13:14:07Z</time>
      </trkpt>
      <trkpt lat="46.6742" lon="-1.90951">
        <ele>3</ele>
        <time>2018-04-21T13:15:07Z</time>
      </trkpt>
      <trkpt lat="46.6742" lon="-1.9095">
        <ele>3</ele>
        <time>2018-04-21T13:16:07Z</time>
      </trkpt>
      <trkpt lat="46.67419" lon="-1.9095">
        <ele>3</ele>
        <time>2018-04-21T13:17:07Z</time>
      </trkpt>
      <trkpt lat="46.67419" lon="-1.90949">
        <ele>3</ele>
        <time>2018-04-21T13:18:07Z</time>
      </trkpt>
      <trkpt lat="46.67419" lon="-1.90948">
        <ele>3</ele>
        <time>2018-04-21T13:19:07Z</time>
      </trkpt>
      <trkpt lat="46.67419" lon="-1.90947">
        <ele>3</ele>
        <time>2018-04-21T13:20:07Z</time>
      </trkpt>
      <trkpt lat="46.67419" lon="-1.90946">
        <ele>3</ele>
        <time>2018-04-21T13:21:07Z</time>
      </trkpt>
      <trkpt lat="46.67414" lon="-1.90938">
        <ele>3</ele>
        <time>2018-04-21T13:22:07Z</time>
      </trkpt>
      <trkpt lat="46.67409" lon="-1.90932">
        <ele>3</ele>
        <time>2018-04-21T13:23:07Z</time>
      </trkpt>
      <trkpt lat="46.67407" lon="-1.90929">
        <ele>3</ele>
        <time>2018-04-21T13:24:07Z</time>
      </trkpt>
      <trkpt lat="46.67405" lon="-1.90925">
        <ele>3</ele>
        <time>2018-04-21T13:25:07Z</time>
      </trkpt>
      <trkpt lat="46.67398" lon="-1.90917">
        <ele>3</ele>
        <time>2018-04-21T13:26:07Z</time>
      </trkpt>
      <trkpt lat="46.67384" lon="-1.90901">
        <ele>3</ele>
        <time>2018-04-21T13:27:07Z</time>
      </trkpt>
      <trkpt lat="46.67344" lon="-1.90854">
        <ele>2</ele>
        <time>2018-04-21T13:28:07Z</time>
      </trkpt>
      <trkpt lat="46.67339" lon="-1.90844">
        <ele>2</ele>
        <time>2018-04-21T13:29:07Z</time>
      </trkpt>
      <trkpt lat="46.67336" lon="-1.9084">
        <ele>2</ele>
        <time>2018-04-21T13:30:07Z</time>
      </trkpt>
      <trkpt lat="46.67333" lon="-1.90837">
        <ele>2</ele>
        <time>2018-04-21T13:31:07Z</time>
      </trkpt>
      <trkpt lat="46.6733" lon="-1.90833">
        <ele>2</ele>
        <time>2018-04-21T13:32:07Z</time>
      </trkpt>
      <trkpt lat="46.67327" lon="-1.90829">
        <ele>2</ele>
        <time>2018-04-21T13:33:07Z</time>
      </trkpt>
      <trkpt lat="46.67323" lon="-1.90824">
        <ele>2</ele>
        <time>2018-04-21T13:34:07Z</time>
      </trkpt>
      <trkpt lat="46.6732" lon="-1.90819">
        <ele>2</ele>
        <time>2018-04-21T13:35:07Z</time>
      </trkpt>
      <trkpt lat="46.67313" lon="-1.9081">
        <ele>2</ele>
        <time>2018-04-21T13:36:07Z</time>
      </trkpt>
      <trkpt lat="46.67301" lon="-1.90794">
        <ele>2</ele>
        <time>2018-04-21T13:37:07Z</time>
      </trkpt>
      <trkpt lat="46.67282" lon="-1.90767">
        <ele>3</ele>
        <time>2018-04-21T13:38:07Z</time>
      </trkpt>
      <trkpt lat="46.67255" lon="-1.90729">
        <ele>3</ele>
        <time>2018-04-21T13:39:07Z</time>
      </trkpt>
      <trkpt lat="46.67226" lon="-1.90688">
        <ele>4</ele>
        <time>2018-04-21T13:40:07Z</time>
      </trkpt>
      <trkpt lat="46.67205" lon="-1.90658">
        <ele>4</ele>
        <time>2018-04-21T13:41:07Z</time>
      </trkpt>
      <trkpt lat="46.67166" lon="-1.90604">
        <ele>5</ele>
        <time>2018-04-21T13:42:07Z</time>
      </trkpt>
      <trkpt lat="46.67105" lon="-1.90518">
        <ele>5</ele>
        <time>2018-04-21T13:43:07Z</time>
      </trkpt>
      <trkpt lat="46.67097" lon="-1.90511">
        <ele>5</ele>
        <time>2018-04-21T13:44:07Z</time>
      </trkpt>
      <trkpt lat="46.67055" lon="-1.90456">
        <ele>5</ele>
        <time>2018-04-21T13:45:07Z</time>
      </trkpt>
      <trkpt lat="46.67046" lon="-1.90444">
        <ele>5</ele>
        <time>2018-04-21T13:46:07Z</time>
      </trkpt>
      <trkpt lat="46.67037" lon="-1.9043">
        <ele>5</ele>
        <time>2018-04-21T13:47:07Z</time>
      </trkpt>
      <trkpt lat="46.67034" lon="-1.90427">
        <ele>5</ele>
        <time>2018-04-21T13:48:07Z</time>
      </trkpt>
      <trkpt lat="46.67019" lon="-1.90408">
        <ele>5</ele>
        <time>2018-04-21T13:49:07Z</time>
      </trkpt>
      <trkpt lat="46.67018" lon="-1.90407">
        <ele>5</ele>
        <time>2018-04-21T13:50:07Z</time>
      </trkpt>
      <trkpt lat="46.67017" lon="-1.90406">
        <ele>5</ele>
        <time>2018-04-21T13:51:07Z</time>
      </trkpt>
      <trkpt lat="46.67016" lon="-1.90404">
        <ele>5</ele>
        <time>2018-04-21T13:52:07Z</time>
      </trkpt>
      <trkpt lat="46.67014" lon="-1.90402">
        <ele>5</ele>
        <time>2018-04-21T13:53:07Z</time>
      </trkpt>
      <trkpt lat="46.67012" lon="-1.90399">
        <ele>5</ele>
        <time>2018-04-21T13:54:07Z</time>
      </trkpt>
      <trkpt lat="46.66999" lon="-1.9038">
        <ele>5</ele>
        <time>2018-04-21T13:55:07Z</time>
      </trkpt>
      <trkpt lat="46.66997" lon="-1.90377">
        <ele>5</ele>
        <time>2018-04-21T13:56:07Z</time>
      </trkpt>
      <trkpt lat="46.66995" lon="-1.90374">
        <ele>5</ele>
        <time>2018-04-21T13:57:07Z</time>
      </trkpt>
      <trkpt lat="46.66993" lon="-1.90372">
        <ele>5</ele>
        <time>2018-04-21T13:58:07Z</time>
      </trkpt>
      <trkpt lat="46.66982" lon="-1.90356">
        <ele>5</ele>
        <time>2018-04-21T13:59:07Z</time>
      </trkpt>
      <trkpt lat="46.66982" lon="-1.90356">
        <ele>5</ele>
        <time>2018-04-21T14:00:07Z</time>
      </trkpt>
      <trkpt lat="46.66981" lon="-1.90356">
        <ele>5</ele>
        <time>2018-04-21T14:01:07Z</time>
      </trkpt>
      <trkpt lat="46.66979" lon="-1.90355">
        <ele>5</ele>
        <time>2018-04-21T14:02:07Z</time>
      </trkpt>
      <trkpt lat="46.66978" lon="-1.90355">
        <ele>5</ele>
        <time>2018-04-21T14:03:07Z</time>
      </trkpt>
      <trkpt lat="46.66977" lon="-1.90354">
        <ele>5</ele>
        <time>2018-04-21T14:04:07Z</time>
      </trkpt>
      <trkpt lat="46.66976" lon="-1.90353">
        <ele>5</ele>
        <time>2018-04-21T14:05:07Z</time>
      </trkpt>
      <trkpt lat="46.66975" lon="-1.90352">
        <ele>5</ele>
        <time>2018-04-21T14:06:07Z</time>
      </trkpt>
      <trkpt lat="46.66974" lon="-1.90351">
        <ele>5</ele>
        <time>2018-04-21T14:07:07Z</time>
      </trkpt>
      <trkpt lat="46.66973" lon="-1.9035">
        <ele>5</ele>
        <time>2018-04-21T14:08:07Z</time>
      </trkpt>
      <trkpt lat="46.66972" lon="-1.90349">
        <ele>5</ele>
        <time>2018-04-21T14:09:07Z</time>
      </trkpt>
      <trkpt lat="46.66971" lon="-1.90348">
        <ele>5</ele>
        <time>2018-04-21T14:10:07Z</time>
      </trkpt>
      <trkpt lat="46.6697" lon="-1.90346">
        <ele>5</ele>
        <time>2018-04-21T14:11:07Z</time>
      </trkpt>
      <trkpt lat="46.66969" lon="-1.90345">
        <ele>5</ele>
        <time>2018-04-21T14:12:07Z</time>
      </trkpt>
      <trkpt lat="46.66969" lon="-1.90343">
        <ele>5</ele>
        <time>2018-04-21T14:13:07Z</time>
      </trkpt>
      <trkpt lat="46.66968" lon="-1.90341">
        <ele>5</ele>
        <time>2018-04-21T14:14:07Z</time>
      </trkpt>
      <trkpt lat="46.66968" lon="-1.9034">
        <ele>5</ele>
        <time>2018-04-21T14:15:07Z</time>
      </trkpt>
      <trkpt lat="46.66967" lon="-1.90338">
        <ele>5</ele>
        <time>2018-04-21T14:16:07Z</time>
      </trkpt>
      <trkpt lat="46.66967" lon="-1.90335">
        <ele>5</ele>
        <time>2018-04-21T14:17:07Z</time>
      </trkpt>
      <trkpt lat="46.66963" lon="-1.90329">
        <ele>5</ele>
        <time>2018-04-21T14:18:07Z</time>
      </trkpt>
      <trkpt lat="46.66956" lon="-1.90318">
        <ele>5</ele>
        <time>2018-04-21T14:19:07Z</time>
      </trkpt>
      <trkpt lat="46.66936" lon="-1.90291">
        <ele>5</ele>
        <time>2018-04-21T14:20:07Z</time>
      </trkpt>
      <trkpt lat="46.66926" lon="-1.90283">
        <ele>5</ele>
        <time>2018-04-21T14:21:07Z</time>
      </trkpt>
      <trkpt lat="46.66922" lon="-1.90279">
        <ele>5</ele>
        <time>2018-04-21T14:22:07Z</time>
      </trkpt>
      <trkpt lat="46.66917" lon="-1.90275">
        <ele>5</ele>
        <time>2018-04-21T14:23:07Z</time>
      </trkpt>
      <trkpt lat="46.66913" lon="-1.90272">
        <ele>5</ele>
        <time>2018-04-21T14:24:07Z</time>
      </trkpt>
      <trkpt lat="46.66908" lon="-1.90269">
        <ele>5</ele>
        <time>2018-04-21T14:25:07Z</time>
      </trkpt>
      <trkpt lat="46.66902" lon="-1.90265">
        <ele>5</ele>
        <time>2018-04-21T14:26:07Z</time>
      </trkpt>
      <trkpt lat="46.66895" lon="-1.90261">
        <ele>5</ele>
        <time>2018-04-21T14:27:07Z</time>
      </trkpt>
      <trkpt lat="46.66891" lon="-1.90258">
        <ele>5</ele>
        <time>2018-04-21T14:28:07Z</time>
      </trkpt>
      <trkpt lat="46.66887" lon="-1.90256">
        <ele>5</ele>
        <time>2018-04-21T14:29:07Z</time>
      </trkpt>
      <trkpt lat="46.66883" lon="-1.90253">
        <ele>5</ele>
        <time>2018-04-21T14:30:07Z</time>
      </trkpt>
      <trkpt lat="46.66878" lon="-1.90251">
        <ele>5</ele>
        <time>2018-04-21T14:31:07Z</time>
      </trkpt>
      <trkpt lat="46.66874" lon="-1.90248">
        <ele>5</ele>
        <time>2018-04-21T14:32:07Z</time>
      </trkpt>
      <trkpt lat="46.66868" lon="-1.90245">
        <ele>5</ele>
        <time>2018-04-21T14:33:07Z</time>
      </trkpt>
      <trkpt lat="46.66863" lon="-1.90243">
        <ele>5</ele>
        <time>2018-04-21T14:34:07Z</time>
      </trkpt>
      <trkpt lat="46.66848" lon="-1.90237">
        <ele>5</ele>
        <time>2018-04-21T14:35:07Z</time>
      </trkpt>
      <trkpt lat="46.66842" lon="-1.90237">
        <ele>5</ele>
        <time>2018-04-21T14:36:07Z</time>
      </trkpt>
      <trkpt lat="46.66834" lon="-1.90235">
        <ele>5</ele>
        <time>2018-04-21T14:37:07Z</time>
      </trkpt>
      <trkpt lat="46.66812" lon="-1.9023">
        <ele>5</ele>
        <time>2018-04-21T14:38:07Z</time>
      </trkpt>
      <trkpt lat="46.66774" lon="-1.90221">
        <ele>5</ele>
        <time>2018-04-21T14:39:07Z</time>
      </trkpt>
      <trkpt lat="46.66754" lon="-1.90216">
        <ele>5</ele>
        <time>2018-04-21T14:40:07Z</time>
      </trkpt>
      <trkpt lat="46.66747" lon="-1.90214">
        <ele>5</ele>
        <time>2018-04-21T14:41:07Z</time>
      </trkpt>
      <trkpt lat="46.66649" lon="-1.9019">
        <ele>5</ele>
        <time>2018-04-21T14:42:07Z</time>
      </trkpt>
      <trkpt lat="46.66644" lon="-1.90186">
        <ele>5</ele>
        <time>2018-04-21T14:43:07Z</time>
      </trkpt>
      <trkpt lat="46.66598" lon="-1.90175">
        <ele>4</ele>
        <time>2018-04-21T14:44:07Z</time>
      </trkpt>
      <trkpt lat="46.66556" lon="-1.90164">
        <ele>3</ele>
        <time>2018-04-21T14:45:07Z</time>
      </trkpt>
      <trkpt lat="46.66457" lon="-1.90141">
        <ele>3</ele>
        <time>2018-04-21T14:46:07Z</time>
      </trkpt>
      <trkpt lat="46.66365" lon="-1.90118">
        <ele>1</ele>
        <time>2018-04-21T14:47:07Z</time>
      </trkpt>
      <trkpt lat="46.6636" lon="-1.90117">
        <ele>1</ele>
        <time>2018-04-21T14:48:07Z</time>
      </trkpt>
      <trkpt lat="46.66354" lon="-1.90116">
        <ele>1</ele>
        <time>2018-04-21T14:49:07Z</time>
      </trkpt>
      <trkpt lat="46.66342" lon="-1.90113">
        <ele>1</ele>
        <time>2018-04-21T14:50:07Z</time>
      </trkpt>
      <trkpt lat="46.66335" lon="-1.90111">
        <ele>1</ele>
        <time>2018-04-21T14:51:07Z</time>
      </trkpt>
      <trkpt lat="46.66328" lon="-1.90109">
        <ele>1</ele>
        <time>2018-04-21T14:52:07Z</time>
      </trkpt>
      <trkpt lat="46.66301" lon="-1.90103">
        <ele>1</ele>
        <time>2018-04-21T14:53:07Z</time>
      </trkpt>
      <trkpt lat="46.66278" lon="-1.90097">
        <ele>2</ele>
        <time>2018-04-21T14:54:07Z</time>
      </trkpt>
      <trkpt lat="46.66265" lon="-1.90094">
        <ele>2</ele>
        <time>2018-04-21T14:55:07Z</time>
      </trkpt>
      <trkpt lat="46.66258" lon="-1.90092">
        <ele>2</ele>
        <time>2018-04-21T14:56:07Z</time>
      </trkpt>
      <trkpt lat="46.66254" lon="-1.90091">
        <ele>2</ele>
        <time>2018-04-21T14:57:07Z</time>
      </trkpt>
      <trkpt lat="46.66251" lon="-1.90089">
        <ele>2</ele>
        <time>2018-04-21T14:58:07Z</time>
      </trkpt>
      <trkpt lat="46.66244" lon="-1.90087">
        <ele>2</ele>
        <time>2018-04-21T14:59:07Z</time>
      </trkpt>
      <trkpt lat="46.66237" lon="-1.90084">
        <ele>2</ele>
        <time>2018-04-21T15:00:07Z</time>
      </trkpt>
      <trkpt lat="46.66229" lon="-1.9008">
        <ele>3</ele>
        <time>2018-04-21T15:01:07Z</time>
      </trkpt>
      <trkpt lat="46.66223" lon="-1.90077">
        <ele>3</ele>
        <time>2018-04-21T15:02:07Z</time>
      </trkpt>
      <trkpt lat="46.66216" lon="-1.90073">
        <ele>3</ele>
        <time>2018-04-21T15:03:07Z</time>
      </trkpt>
      <trkpt lat="46.66205" lon="-1.90067">
        <ele>3</ele>
        <time>2018-04-21T15:04:07Z</time>
      </trkpt>
      <trkpt lat="46.66183" lon="-1.90053">
        <ele>4</ele>
        <time>2018-04-21T15:05:07Z</time>
      </trkpt>
      <trkpt lat="46.6615" lon="-1.90033">
        <ele>5</ele>
        <time>2018-04-21T15:06:07Z</time>
      </trkpt>
      <trkpt lat="46.66116" lon="-1.90011">
        <ele>6</ele>
        <time>2018-04-21T15:07:07Z</time>
      </trkpt>
      <trkpt lat="46.6609" lon="-1.89996">
        <ele>7</ele>
        <time>2018-04-21T15:08:07Z</time>
      </trkpt>
      <trkpt lat="46.66074" lon="-1.89986">
        <ele>7</ele>
        <time>2018-04-21T15:09:07Z</time>
      </trkpt>
      <trkpt lat="46.66028" lon="-1.89956">
        <ele>8</ele>
        <time>2018-04-21T15:10:07Z</time>
      </trkpt>
      <trkpt lat="46.65975" lon="-1.89922">
        <ele>7</ele>
        <time>2018-04-21T15:11:07Z</time>
      </trkpt>
      <trkpt lat="46.65958" lon="-1.89911">
        <ele>6</ele>
        <time>2018-04-21T15:12:07Z</time>
      </trkpt>
      <trkpt lat="46.65944" lon="-1.89901">
        <ele>7</ele>
        <time>2018-04-21T15:13:07Z</time>
      </trkpt>
      <trkpt lat="46.65878" lon="-1.8986">
        <ele>7</ele>
        <time>2018-04-21T15:14:07Z</time>
      </trkpt>
      <trkpt lat="46.65759" lon="-1.89784">
        <ele>8</ele>
        <time>2018-04-21T15:15:07Z</time>
      </trkpt>
      <trkpt lat="46.65631" lon="-1.89698">
        <ele>8</ele>
        <time>2018-04-21T15:16:07Z</time>
      </trkpt>
      <trkpt lat="46.65546" lon="-1.89643">
        <ele>7</ele>
        <time>2018-04-21T15:17:07Z</time>
      </trkpt>
      <trkpt lat="46.65541" lon="-1.89641">
        <ele>7</ele>
        <time>2018-04-21T15:18:07Z</time>
      </trkpt>
      <trkpt lat="46.65489" lon="-1.89605">
        <ele>7</ele>
        <time>2018-04-21T15:19:07Z</time>
      </trkpt>
      <trkpt lat="46.65461" lon="-1.89586">
        <ele>8</ele>
        <time>2018-04-21T15:20:07Z</time>
      </trkpt>
      <trkpt lat="46.65438" lon="-1.89566">
        <ele>7</ele>
        <time>2018-04-21T15:21:07Z</time>
      </trkpt>
      <trkpt lat="46.65434" lon="-1.89563">
        <ele>7</ele>
        <time>2018-04-21T15:22:07Z</time>
      </trkpt>
      <trkpt lat="46.65366" lon="-1.89503">
        <ele>6</ele>
        <time>2018-04-21T15:23:07Z</time>
      </trkpt>
      <trkpt lat="46.65299" lon="-1.8943">
        <ele>6</ele>
        <time>2018-04-21T15:24:07Z</time>
      </trkpt>
      <trkpt lat="46.65293" lon="-1.8942">
        <ele>6</ele>
        <time>2018-04-21T15:25:07Z</time>
      </trkpt>
      <trkpt lat="46.65265" lon="-1.89391">
        <ele>6</ele>
        <time>2018-04-21T15:26:07Z</time>
      </trkpt>
      <trkpt lat="46.6525" lon="-1.89376">
        <ele>6</ele>
        <time>2018-04-21T15:27:07Z</time>
      </trkpt>
      <trkpt lat="46.65231" lon="-1.89359">
        <ele>7</ele>
        <time>2018-04-21T15:28:07Z</time>
      </trkpt>
      <trkpt lat="46.65215" lon="-1.89348">
        <ele>8</ele>
        <time>2018-04-21T15:29:07Z</time>
      </trkpt>
      <trkpt lat="46.65193" lon="-1.89334">
        <ele>9</ele>
        <time>2018-04-21T15:30:07Z</time>
      </trkpt>
      <trkpt lat="46.65156" lon="-1.89313">
        <ele>11</ele>
        <time>2018-04-21T15:31:07Z</time>
      </trkpt>
      <trkpt lat="46.65124" lon="-1.89296">
        <ele>12</ele>
        <time>2018-04-21T15:32:07Z</time>
      </trkpt>
      <trkpt lat="46.65045" lon="-1.89253">
        <ele>13</ele>
        <time>2018-04-21T15:33:07Z</time>
      </trkpt>
      <trkpt lat="46.65005" lon="-1.89232">
        <ele>14</ele>
        <time>2018-04-21T15:34:07Z</time>
      </trkpt>
      <trkpt lat="46.6496" lon="-1.89207">
        <ele>15</ele>
        <time>2018-04-21T15:35:07Z</time>
      </trkpt>
      <trkpt lat="46.6489" lon="-1.89171">
        <ele>16</ele>
        <time>2018-04-21T15:36:07Z</time>
      </trkpt>
      <trkpt lat="46.6486" lon="-1.89155">
        <ele>17</ele>
        <time>2018-04-21T15:37:07Z</time>
      </trkpt>
      <trkpt lat="46.64822" lon="-1.89134">
        <ele>17</ele>
        <time>2018-04-21T15:38:07Z</time>
      </trkpt>
      <trkpt lat="46.64788" lon="-1.89116">
        <ele>18</ele>
        <time>2018-04-21T15:39:07Z</time>
      </trkpt>
      <trkpt lat="46.64754" lon="-1.89098">
        <ele>18</ele>
        <time>2018-04-21T15:40:07Z</time>
      </trkpt>
      <trkpt lat="46.64722" lon="-1.8908">
        <ele>18</ele>
        <time>2018-04-21T15:41:07Z</time>
      </trkpt>
      <trkpt lat="46.64692" lon="-1.89065">
        <ele>17</ele>
        <time>2018-04-21T15:42:07Z</time>
      </trkpt>
      <trkpt lat="46.64673" lon="-1.89055">
        <ele>17</ele>
        <time>2018-04-21T15:43:07Z</time>
      </trkpt>
      <trkpt lat="46.64665" lon="-1.89053">
        <ele>17</ele>
        <time>2018-04-21T15:44:07Z</time>
      </trkpt>
      <trkpt lat="46.64655" lon="-1.89047">
        <ele>17</ele>
        <time>2018-04-21T15:45:07Z</time>
      </trkpt>
      <trkpt lat="46.64646" lon="-1.89042">
        <ele>16</ele>
        <time>2018-04-21T15:46:07Z</time>
      </trkpt>
      <trkpt lat="46.64639" lon="-1.89039">
        <ele>16</ele>
        <time>2018-04-21T15:47:07Z</time>
      </trkpt>
      <trkpt lat="46.64632" lon="-1.89035">
        <ele>16</ele>
        <time>2018-04-21T15:48:07Z</time>
      </trkpt>
      <trkpt lat="46.64623" lon="-1.8903">
        <ele>16</ele>
        <time>2018-04-21T15:49:07Z</time>
      </trkpt>
      <trkpt lat="46.64619" lon="-1.89028">
        <ele>16</ele>
        <time>2018-04-21T15:50:07Z</time>
      </trkpt>
      <trkpt lat="46.64616" lon="-1.89026">
        <ele>16</ele>
        <time>2018-04-21T15:51:07Z</time>
      </trkpt>
      <trkpt lat="46.64614" lon="-1.89025">
        <ele>16</ele>
        <time>2018-04-21T15:52:07Z</time>
      </trkpt>
      <trkpt lat="46.64604" lon="-1.8902">
        <ele>16</ele>
        <time>2018-04-21T15:53:07Z</time>
      </trkpt>
      <trkpt lat="46.64604" lon="-1.8902">
        <ele>16</ele>
        <time>2018-04-21T15:54:07Z</time>
      </trkpt>
      <trkpt lat="46.64603" lon="-1.8902">
        <ele>16</ele>
        <time>2018-04-21T15:55:07Z</time>
      </trkpt>
      <trkpt lat="46.64603" lon="-1.89021">
        <ele>16</ele>
        <time>2018-04-21T15:56:07Z</time>
      </trkpt>
      <trkpt lat="46.64602" lon="-1.89021">
        <ele>16</ele>
        <time>2018-04-21T15:57:07Z</time>
      </trkpt>
      <trkpt lat="46.64601" lon="-1.89021">
        <ele>16</ele>
        <time>2018-04-21T15:58:07Z</time>
      </trkpt>
      <trkpt lat="46.646" lon="-1.89021">
        <ele>16</ele>
        <time>2018-04-21T15:59:07Z</time>
      </trkpt>
      <trkpt lat="46.64599" lon="-1.89021">
        <ele>16</ele>
        <time>2018-04-21T16:00:07Z</time>
      </trkpt>
      <trkpt lat="46.64598" lon="-1.89021">
        <ele>16</ele>
        <time>2018-04-21T16:01:07Z</time>
      </trkpt>
      <trkpt lat="46.64597" lon="-1.8902">
        <ele>16</ele>
        <time>2018-04-21T16:02:07Z</time>
      </trkpt>
      <trkpt lat="46.64596" lon="-1.8902">
        <ele>16</ele>
        <time>2018-04-21T16:03:07Z</time>
      </trkpt>
      <trkpt lat="46.64587" lon="-1.89023">
        <ele>16</ele>
        <time>2018-04-21T16:04:07Z</time>
      </trkpt>
      <trkpt lat="46.64578" lon="-1.89025">
        <ele>16</ele>
        <time>2018-04-21T16:05:07Z</time>
      </trkpt>
      <trkpt lat="46.64578" lon="-1.89025">
        <ele>16</ele>
        <time>2018-04-21T16:06:07Z</time>
      </trkpt>
      <trkpt lat="46.64572" lon="-1.89028">
        <ele>16</ele>
        <time>2018-04-21T16:07:07Z</time>
      </trkpt>
      <trkpt lat="46.64567" lon="-1.89029">
        <ele>16</ele>
        <time>2018-04-21T16:08:07Z</time>
      </trkpt>
      <trkpt lat="46.6455" lon="-1.8903">
        <ele>16</ele>
        <time>2018-04-21T16:09:07Z</time>
      </trkpt>
      <trkpt lat="46.64538" lon="-1.89032">
        <ele>16</ele>
        <time>2018-04-21T16:10:07Z</time>
      </trkpt>
      <trkpt lat="46.64531" lon="-1.89032">
        <ele>16</ele>
        <time>2018-04-21T16:11:07Z</time>
      </trkpt>
      <trkpt lat="46.64521" lon="-1.89032">
        <ele>16</ele>
        <time>2018-04-21T16:12:07Z</time>
      </trkpt>
      <trkpt lat="46.64508" lon="-1.8903">
        <ele>16</ele>
        <time>2018-04-21T16:13:07Z</time>
      </trkpt>
      <trkpt lat="46.64492" lon="-1.89026">
        <ele>16</ele>
        <time>2018-04-21T16:14:07Z</time>
      </trkpt>
      <trkpt lat="46.64478" lon="-1.89024">
        <ele>16</ele>
        <time>2018-04-21T16:15:07Z</time>
      </trkpt>
      <trkpt lat="46.64476" lon="-1.89024">
        <ele>16</ele>
        <time>2018-04-21T16:16:07Z</time>
      </trkpt>
      <trkpt lat="46.64463" lon="-1.89023">
        <ele>16</ele>
        <time>2018-04-21T16:17:07Z</time>
      </trkpt>
      <trkpt lat="46.64446" lon="-1.89023">
        <ele>16</ele>
        <time>2018-04-21T16:18:07Z</time>
      </trkpt>
      <trkpt lat="46.64431" lon="-1.89023">
        <ele>16</ele>
        <time>2018-04-21T16:19:07Z</time>
      </trkpt>
      <trkpt lat="46.6442" lon="-1.89024">
        <ele>16</ele>
        <time>2018-04-21T16:20:07Z</time>
      </trkpt>
      <trkpt lat="46.64411" lon="-1.89025">
        <ele>16</ele>
        <time>2018-04-21T16:21:07Z</time>
      </trkpt>
      <trkpt lat="46.64389" lon="-1.89028">
        <ele>16</ele>
        <time>2018-04-21T16:22:07Z</time>
      </trkpt>
      <trkpt lat="46.64363" lon="-1.89032">
        <ele>15</ele>
        <time>2018-04-21T16:23:07Z</time>
      </trkpt>
      <trkpt lat="46.64346" lon="-1.89036">
        <ele>15</ele>
        <time>2018-04-21T16:24:07Z</time>
      </trkpt>
      <trkpt lat="46.64322" lon="-1.89039">
        <ele>15</ele>
        <time>2018-04-21T16:25:07Z</time>
      </trkpt>
      <trkpt lat="46.64302" lon="-1.89042">
        <ele>15</ele>
        <time>2018-04-21T16:26:07Z</time>
      </trkpt>
      <trkpt lat="46.64288" lon="-1.89044">
        <ele>15</ele>
        <time>2018-04-21T16:27:07Z</time>
      </trkpt>
      <trkpt lat="46.64272" lon="-1.89045">
        <ele>15</ele>
        <time>2018-04-21T16:28:07Z</time>
      </trkpt>
      <trkpt lat="46.64266" lon="-1.89045">
        <ele>15</ele>
        <time>2018-04-21T16:29:07Z</time>
      </trkpt>
      <trkpt lat="46.64254" lon="-1.89044">
        <ele>15</ele>
        <time>2018-04-21T16:30:07Z</time>
      </trkpt>
      <trkpt lat="46.64241" lon="-1.89043">
        <ele>15</ele>
        <time>2018-04-21T16:31:07Z</time>
      </trkpt>
      <trkpt lat="46.64238" lon="-1.89043">
        <ele>15</ele>
        <time>2018-04-21T16:32:07Z</time>
      </trkpt>
      <trkpt lat="46.64233" lon="-1.89042">
        <ele>15</ele>
        <time>2018-04-21T16:33:07Z</time>
      </trkpt>
      <trkpt lat="46.64228" lon="-1.89041">
        <ele>15</ele>
        <time>2018-04-21T16:34:07Z</time>
      </trkpt>
      <trkpt lat="46.64223" lon="-1.89041">
        <ele>15</ele>
        <time>2018-04-21T16:35:07Z</time>
      </trkpt>
      <trkpt lat="46.6422" lon="-1.89043">
        <ele>14</ele>
        <time>2018-04-21T16:36:07Z</time>
      </trkpt>
      <trkpt lat="46.6422" lon="-1.89043">
        <ele>14</ele>
        <time>2018-04-21T16:37:07Z</time>
      </trkpt>
      <trkpt lat="46.64217" lon="-1.8905">
        <ele>14</ele>
        <time>2018-04-21T16:38:07Z</time>
      </trkpt>
      <trkpt lat="46.64214" lon="-1.89064">
        <ele>14</ele>
        <time>2018-04-21T16:39:07Z</time>
      </trkpt>
      <trkpt lat="46.6421" lon="-1.89074">
        <ele>14</ele>
        <time>2018-04-21T16:40:07Z</time>
      </trkpt>
      <trkpt lat="46.64204" lon="-1.89084">
        <ele>14</ele>
        <time>2018-04-21T16:41:07Z</time>
      </trkpt>
      <trkpt lat="46.64198" lon="-1.89091">
        <ele>14</ele>
        <time>2018-04-21T16:42:07Z</time>
      </trkpt>
      <trkpt lat="46.64193" lon="-1.89095">
        <ele>14</ele>
        <time>2018-04-21T16:43:07Z</time>
      </trkpt>
      <trkpt lat="46.64188" lon="-1.89101">
        <ele>14</ele>
        <time>2018-04-21T16:44:07Z</time>
      </trkpt>
      <trkpt lat="46.64187" lon="-1.89101">
        <ele>13</ele>
        <time>2018-04-21T16:45:07Z</time>
      </trkpt>
      <trkpt lat="46.64175" lon="-1.8911">
        <ele>13</ele>
        <time>2018-04-21T16:46:07Z</time>
      </trkpt>
      <trkpt lat="46.64161" lon="-1.89123">
        <ele>13</ele>
        <time>2018-04-21T16:47:07Z</time>
      </trkpt>
      <trkpt lat="46.64147" lon="-1.89136">
        <ele>13</ele>
        <time>2018-04-21T16:48:07Z</time>
      </trkpt>
      <trkpt lat="46.64135" lon="-1.89148">
        <ele>13</ele>
        <time>2018-04-21T16:49:07Z</time>
      </trkpt>
      <trkpt lat="46.64133" lon="-1.89149">
        <ele>13</ele>
        <time>2018-04-21T16:50:07Z</time>
      </trkpt>
      <trkpt lat="46.64126" lon="-1.8916">
        <ele>13</ele>
        <time>2018-04-21T16:51:07Z</time>
      </trkpt>
      <trkpt lat="46.64121" lon="-1.8917">
        <ele>12</ele>
        <time>2018-04-21T16:52:07Z</time>
      </trkpt>
      <trkpt lat="46.64107" lon="-1.892">
        <ele>12</ele>
        <time>2018-04-21T16:53:07Z</time>
      </trkpt>
      <trkpt lat="46.64078" lon="-1.89253">
        <ele>11</ele>
        <time>2018-04-21T16:54:07Z</time>
      </trkpt>
      <trkpt lat="46.64061" lon="-1.89283">
        <ele>11</ele>
        <time>2018-04-21T16:55:07Z</time>
      </trkpt>
      <trkpt lat="46.64056" lon="-1.89296">
        <ele>10</ele>
        <time>2018-04-21T16:56:07Z</time>
      </trkpt>
      <trkpt lat="46.64043" lon="-1.89336">
        <ele>10</ele>
        <time>2018-04-21T16:57:07Z</time>
      </trkpt>
      <trkpt lat="46.64032" lon="-1.89371">
        <ele>9</ele>
        <time>2018-04-21T16:58:07Z</time>
      </trkpt>
      <trkpt lat="46.64014" lon="-1.89408">
        <ele>8</ele>
        <time>2018-04-21T16:59:07Z</time>
      </trkpt>
      <trkpt lat="46.64001" lon="-1.89419">
        <ele>7</ele>
        <time>2018-04-21T17:00:07Z</time>
      </trkpt>
      <trkpt lat="46.63993" lon="-1.8942">
        <ele>7</ele>
        <time>2018-04-21T17:01:07Z</time>
      </trkpt>
      <trkpt lat="46.6398" lon="-1.89421">
        <ele>6</ele>
        <time>2018-04-21T17:02:07Z</time>
      </trkpt>
      <trkpt lat="46.63967" lon="-1.89421">
        <ele>6</ele>
        <time>2018-04-21T17:03:07Z</time>
      </trkpt>
      <trkpt lat="46.63967" lon="-1.89421">
        <ele>6</ele>
        <time>2018-04-21T17:04:07Z</time>
      </trkpt>
      <trkpt lat="46.6395" lon="-1.89424">
        <ele>6</ele>
        <time>2018-04-21T17:05:07Z</time>
      </trkpt>
      <trkpt lat="46.63935" lon="-1.89424">
        <ele>5</ele>
        <time>2018-04-21T17:06:07Z</time>
      </trkpt>
      <trkpt lat="46.63925" lon="-1.89422">
        <ele>5</ele>
        <time>2018-04-21T17:07:07Z</time>
      </trkpt>
      <trkpt lat="46.63919" lon="-1.89416">
        <ele>5</ele>
        <time>2018-04-21T17:08:07Z</time>
      </trkpt>
      <trkpt lat="46.63915" lon="-1.89412">
        <ele>5</ele>
        <time>2018-04-21T17:09:07Z</time>
      </trkpt>
      <trkpt lat="46.6391" lon="-1.89405">
        <ele>5</ele>
        <time>2018-04-21T17:10:07Z</time>
      </trkpt>
      <trkpt lat="46.63888" lon="-1.89374">
        <ele>6</ele>
        <time>2018-04-21T17:11:07Z</time>
      </trkpt>
      <trkpt lat="46.63884" lon="-1.89368">
        <ele>6</ele>
        <time>2018-04-21T17:12:07Z</time>
      </trkpt>
      <trkpt lat="46.63865" lon="-1.89341">
        <ele>7</ele>
        <time>2018-04-21T17:13:07Z</time>
      </trkpt>
      <trkpt lat="46.63852" lon="-1.89324">
        <ele>7</ele>
        <time>2018-04-21T17:14:07Z</time>
      </trkpt>
      <trkpt lat="46.63847" lon="-1.89315">
        <ele>7</ele>
        <time>2018-04-21T17:15:07Z</time>
      </trkpt>
      <trkpt lat="46.63831" lon="-1.89294">
        <ele>7</ele>
        <time>2018-04-21T17:16:07Z</time>
      </trkpt>
      <trkpt lat="46.63817" lon="-1.89276">
        <ele>7</ele>
        <time>2018-04-21T17:17:07Z</time>
      </trkpt>
      <trkpt lat="46.63807" lon="-1.89261">
        <ele>7</ele>
        <time>2018-04-21T17:18:07Z</time>
      </trkpt>
      <trkpt lat="46.63802" lon="-1.89252">
        <ele>8</ele>
        <time>2018-04-21T17:19:07Z</time>
      </trkpt>
      <trkpt lat="46.63789" lon="-1.89237">
        <ele>8</ele>
        <time>2018-04-21T17:20:07Z</time>
      </trkpt>
      <trkpt lat="46.6374" lon="-1.892">
        <ele>9</ele>
        <time>2018-04-21T17:21:07Z</time>
      </trkpt>
      <trkpt lat="46.63718" lon="-1.89185">
        <ele>8</ele>
        <time>2018-04-21T17:22:07Z</time>
      </trkpt>
      <trkpt lat="46.63712" lon="-1.89179">
        <ele>9</ele>
        <time>2018-04-21T17:23:07Z</time>
      </trkpt>
      <trkpt lat="46.63686" lon="-1.89162">
        <ele>9</ele>
        <time>2018-04-21T17:24:07Z</time>
      </trkpt>
      <trkpt lat="46.63657" lon="-1.89143">
        <ele>9</ele>
        <time>2018-04-21T17:25:07Z</time>
      </trkpt>
      <trkpt lat="46.63632" lon="-1.89124">
        <ele>8</ele>
        <time>2018-04-21T17:26:07Z</time>
      </trkpt>
      <trkpt lat="46.6363" lon="-1.89123">
        <ele>8</ele>
        <time>2018-04-21T17:27:07Z</time>
      </trkpt>
      <trkpt lat="46.63629" lon="-1.89121">
        <ele>8</ele>
        <time>2018-04-21T17:28:07Z</time>
      </trkpt>
      <trkpt lat="46.63619" lon="-1.89114">
        <ele>8</ele>
        <time>2018-04-21T17:29:07Z</time>
      </trkpt>
      <trkpt lat="46.63543" lon="-1.89061">
        <ele>6</ele>
        <time>2018-04-21T17:30:07Z</time>
      </trkpt>
      <trkpt lat="46.63536" lon="-1.89053">
        <ele>6</ele>
        <time>2018-04-21T17:31:07Z</time>
      </trkpt>
      <trkpt lat="46.63534" lon="-1.89049">
        <ele>6</ele>
        <time>2018-04-21T17:32:07Z</time>
      </trkpt>
      <trkpt lat="46.6353" lon="-1.89043">
        <ele>6</ele>
        <time>2018-04-21T17:33:07Z</time>
      </trkpt>
      <trkpt lat="46.63524" lon="-1.89032">
        <ele>6</ele>
        <time>2018-04-21T17:34:07Z</time>
      </trkpt>
      <trkpt lat="46.6352" lon="-1.89022">
        <ele>6</ele>
        <time>2018-04-21T17:35:07Z</time>
      </trkpt>
      <trkpt lat="46.63518" lon="-1.89017">
        <ele>6</ele>
        <time>2018-04-21T17:36:07Z</time>
      </trkpt>
      <trkpt lat="46.63504" lon="-1.88984">
        <ele>7</ele>
        <time>2018-04-21T17:37:07Z</time>
      </trkpt>
      <trkpt lat="46.63494" lon="-1.88958">
        <ele>8</ele>
        <time>2018-04-21T17:38:07Z</time>
      </trkpt>
      <trkpt lat="46.63479" lon="-1.88922">
        <ele>8</ele>
        <time>2018-04-21T17:39:07Z</time>
      </trkpt>
      <trkpt lat="46.63465" lon="-1.88888">
        <ele>8</ele>
        <time>2018-04-21T17:40:07Z</time>
      </trkpt>
      <trkpt lat="46.63453" lon="-1.88859">
        <ele>8</ele>
        <time>2018-04-21T17:41:07Z</time>
      </trkpt>
      <trkpt lat="46.63442" lon="-1.88833">
        <ele>8</ele>
        <time>2018-04-21T17:42:07Z</time>
      </trkpt>
      <trkpt lat="46.63433" lon="-1.88811">
        <ele>7</ele>
        <time>2018-04-21T17:43:07Z</time>
      </trkpt>
      <trkpt lat="46.63423" lon="-1.88789">
        <ele>7</ele>
        <time>2018-04-21T17:44:07Z</time>
      </trkpt>
      <trkpt lat="46.6342" lon="-1.88781">
        <ele>7</ele>
        <time>2018-04-21T17:45:07Z</time>
      </trkpt>
      <trkpt lat="46.63413" lon="-1.88765">
        <ele>7</ele>
        <time>2018-04-21T17:46:07Z</time>
      </trkpt>
      <trkpt lat="46.63406" lon="-1.88754">
        <ele>7</ele>
        <time>2018-04-21T17:47:07Z</time>
      </trkpt>
      <trkpt lat="46.63396" lon="-1.88741">
        <ele>7</ele>
        <time>2018-04-21T17:48:07Z</time>
      </trkpt>
      <trkpt lat="46.63385" lon="-1.8873">
        <ele>7</ele>
        <time>2018-04-21T17:49:07Z</time>
      </trkpt>
      <trkpt lat="46.63368" lon="-1.88714">
        <ele>7</ele>
        <time>2018-04-21T17:50:07Z</time>
      </trkpt>
      <trkpt lat="46.63344" lon="-1.88693">
        <ele>7</ele>
        <time>2018-04-21T17:51:07Z</time>
      </trkpt>
      <trkpt lat="46.63322" lon="-1.8867">
        <ele>7</ele>
        <time>2018-04-21T17:52:07Z</time>
      </trkpt>
      <trkpt lat="46.63312" lon="-1.88658">
        <ele>6</ele>
        <time>2018-04-21T17:53:07Z</time>
      </trkpt>
      <trkpt lat="46.63303" lon="-1.88642">
        <ele>6</ele>
        <time>2018-04-21T17:54:07Z</time>
      </trkpt>
      <trkpt lat="46.63292" lon="-1.88623">
        <ele>6</ele>
        <time>2018-04-21T17:55:07Z</time>
      </trkpt>
      <trkpt lat="46.63289" lon="-1.88618">
        <ele>6</ele>
        <time>2018-04-21T17:56:07Z</time>
      </trkpt>
      <trkpt lat="46.6328" lon="-1.88599">
        <ele>6</ele>
        <time>2018-04-21T17:57:07Z</time>
      </trkpt>
      <trkpt lat="46.63273" lon="-1.88585">
        <ele>6</ele>
        <time>2018-04-21T17:58:07Z</time>
      </trkpt>
      <trkpt lat="46.63268" lon="-1.88575">
        <ele>6</ele>
        <time>2018-04-21T17:59:07Z</time>
      </trkpt>
      <trkpt lat="46.63263" lon="-1.88567">
        <ele>6</ele>
        <time>2018-04-21T18:00:07Z</time>
      </trkpt>
      <trkpt lat="46.63252" lon="-1.88548">
        <ele>6</ele>
        <time>2018-04-21T18:01:07Z</time>
      </trkpt>
      <trkpt lat="46.63234" lon="-1.88515">
        <ele>6</ele>
        <time>2018-04-21T18:02:07Z</time>
      </trkpt>
      <trkpt lat="46.6322" lon="-1.88488">
        <ele>6</ele>
        <time>2018-04-21T18:03:07Z</time>
      </trkpt>
      <trkpt lat="46.63208" lon="-1.88464">
        <ele>6</ele>
        <time>2018-04-21T18:04:07Z</time>
      </trkpt>
      <trkpt lat="46.632" lon="-1.88448">
        <ele>6</ele>
        <time>2018-04-21T18:05:07Z</time>
      </trkpt>
      <trkpt lat="46.63195" lon="-1.88434">
        <ele>6</ele>
        <time>2018-04-21T18:06:07Z</time>
      </trkpt>
      <trkpt lat="46.6319" lon="-1.88402">
        <ele>6</ele>
        <time>2018-04-21T18:07:07Z</time>
      </trkpt>
      <trkpt lat="46.63183" lon="-1.88351">
        <ele>6</ele>
        <time>2018-04-21T18:08:07Z</time>
      </trkpt>
      <trkpt lat="46.63176" lon="-1.88306">
        <ele>6</ele>
        <time>2018-04-21T18:09:07Z</time>
      </trkpt>
      <trkpt lat="46.63173" lon="-1.88287">
        <ele>6</ele>
        <time>2018-04-21T18:10:07Z</time>
      </trkpt>
      <trkpt lat="46.63168" lon="-1.88249">
        <ele>7</ele>
        <time>2018-04-21T18:11:07Z</time>
      </trkpt>
      <trkpt lat="46.63164" lon="-1.8822">
        <ele>8</ele>
        <time>2018-04-21T18:12:07Z</time>
      </trkpt>
      <trkpt lat="46.63161" lon="-1.88202">
        <ele>8</ele>
        <time>2018-04-21T18:13:07Z</time>
      </trkpt>
      <trkpt lat="46.63157" lon="-1.8817">
        <ele>9</ele>
        <time>2018-04-21T18:14:07Z</time>
      </trkpt>
      <trkpt lat="46.63154" lon="-1.88152">
        <ele>9</ele>
        <time>2018-04-21T18:15:07Z</time>
      </trkpt>
      <trkpt lat="46.63151" lon="-1.88138">
        <ele>9</ele>
        <time>2018-04-21T18:16:07Z</time>
      </trkpt>
      <trkpt lat="46.63146" lon="-1.88123">
        <ele>9</ele>
        <time>2018-04-21T18:17:07Z</time>
      </trkpt>
      <trkpt lat="46.63146" lon="-1.88123">
        <ele>9</ele>
        <time>2018-04-21T18:18:07Z</time>
      </trkpt>
      <trkpt lat="46.63139" lon="-1.8811">
        <ele>9</ele>
        <time>2018-04-21T18:19:07Z</time>
      </trkpt>
      <trkpt lat="46.63126" lon="-1.88085">
        <ele>9</ele>
        <time>2018-04-21T18:20:07Z</time>
      </trkpt>
      <trkpt lat="46.63118" lon="-1.88071">
        <ele>9</ele>
        <time>2018-04-21T18:21:07Z</time>
      </trkpt>
      <trkpt lat="46.63104" lon="-1.88049">
        <ele>10</ele>
        <time>2018-04-21T18:22:07Z</time>
      </trkpt>
      <trkpt lat="46.63085" lon="-1.88018">
        <ele>12</ele>
        <time>2018-04-21T18:23:07Z</time>
      </trkpt>
      <trkpt lat="46.63075" lon="-1.88003">
        <ele>12</ele>
        <time>2018-04-21T18:24:07Z</time>
      </trkpt>
      <trkpt lat="46.63066" lon="-1.87991">
        <ele>11</ele>
        <time>2018-04-21T18:25:07Z</time>
      </trkpt>
      <trkpt lat="46.63059" lon="-1.8798">
        <ele>11</ele>
        <time>2018-04-21T18:26:07Z</time>
      </trkpt>
      <trkpt lat="46.6305" lon="-1.87961">
        <ele>10</ele>
        <time>2018-04-21T18:27:07Z</time>
      </trkpt>
      <trkpt lat="46.63043" lon="-1.87942">
        <ele>10</ele>
        <time>2018-04-21T18:28:07Z</time>
      </trkpt>
      <trkpt lat="46.63032" lon="-1.87907">
        <ele>10</ele>
        <time>2018-04-21T18:29:07Z</time>
      </trkpt>
      <trkpt lat="46.63022" lon="-1.87871">
        <ele>10</ele>
        <time>2018-04-21T18:30:07Z</time>
      </trkpt>
      <trkpt lat="46.63022" lon="-1.87869">
        <ele>10</ele>
        <time>2018-04-21T18:31:07Z</time>
      </trkpt>
      <trkpt lat="46.63013" lon="-1.87838">
        <ele>10</ele>
        <time>2018-04-21T18:32:07Z</time>
      </trkpt>
      <trkpt lat="46.63001" lon="-1.87801">
        <ele>10</ele>
        <time>2018-04-21T18:33:07Z</time>
      </trkpt>
      <trkpt lat="46.62994" lon="-1.87775">
        <ele>10</ele>
        <time>2018-04-21T18:34:07Z</time>
      </trkpt>
      <trkpt lat="46.62989" lon="-1.87763">
        <ele>10</ele>
        <time>2018-04-21T18:35:07Z</time>
      </trkpt>
      <trkpt lat="46.62988" lon="-1.87761">
        <ele>10</ele>
        <time>2018-04-21T18:36:07Z</time>
      </trkpt>
      <trkpt lat="46.62984" lon="-1.87753">
        <ele>9</ele>
        <time>2018-04-21T18:37:07Z</time>
      </trkpt>
      <trkpt lat="46.62975" lon="-1.87736">
        <ele>9</ele>
        <time>2018-04-21T18:38:07Z</time>
      </trkpt>
      <trkpt lat="46.62969" lon="-1.87725">
        <ele>9</ele>
        <time>2018-04-21T18:39:07Z</time>
      </trkpt>
      <trkpt lat="46.62955" lon="-1.87701">
        <ele>9</ele>
        <time>2018-04-21T18:40:07Z</time>
      </trkpt>
      <trkpt lat="46.62903" lon="-1.87611">
        <ele>8</ele>
        <time>2018-04-21T18:41:07Z</time>
      </trkpt>
      <trkpt lat="46.62898" lon="-1.87599">
        <ele>8</ele>
        <time>2018-04-21T18:42:07Z</time>
      </trkpt>
      <trkpt lat="46.62897" lon="-1.87596">
        <ele>8</ele>
        <time>2018-04-21T18:43:07Z</time>
      </trkpt>
      <trkpt lat="46.62886" lon="-1.87578">
        <ele>8</ele>
        <time>2018-04-21T18:44:07Z</time>
      </trkpt>
      <trkpt lat="46.62875" lon="-1.87559">
        <ele>8</ele>
        <time>2018-04-21T18:45:07Z</time>
      </trkpt>
      <trkpt lat="46.62872" lon="-1.87553">
        <ele>8</ele>
        <time>2018-04-21T18:46:07Z</time>
      </trkpt>
      <trkpt lat="46.62856" lon="-1.87526">
        <ele>8</ele>
        <time>2018-04-21T18:47:07Z</time>
      </trkpt>
      <trkpt lat="46.62846" lon="-1.87513">
        <ele>9</ele>
        <time>2018-04-21T18:48:07Z</time>
      </trkpt>
      <trkpt lat="46.62837" lon="-1.87501">
        <ele>9</ele>
        <time>2018-04-21T18:49:07Z</time>
      </trkpt>
      <trkpt lat="46.62821" lon="-1.87488">
        <ele>9</ele>
        <time>2018-04-21T18:50:07Z</time>
      </trkpt>
      <trkpt lat="46.62802" lon="-1.87477">
        <ele>9</ele>
        <time>2018-04-21T18:51:07Z</time>
      </trkpt>
      <trkpt lat="46.62783" lon="-1.87467">
        <ele>9</ele>
        <time>2018-04-21T18:52:07Z</time>
      </trkpt>
      <trkpt lat="46.62763" lon="-1.87455">
        <ele>9</ele>
        <time>2018-04-21T18:53:07Z</time>
      </trkpt>
      <trkpt lat="46.62744" lon="-1.87442">
        <ele>9</ele>
        <time>2018-04-21T18:54:07Z</time>
      </trkpt>
      <trkpt lat="46.62725" lon="-1.87429">
        <ele>8</ele>
        <time>2018-04-21T18:55:07Z</time>
      </trkpt>
      <trkpt lat="46.62713" lon="-1.87419">
        <ele>8</ele>
        <time>2018-04-21T18:56:07Z</time>
      </trkpt>
      <trkpt lat="46.62711" lon="-1.87416">
        <ele>8</ele>
        <time>2018-04-21T18:57:07Z</time>
      </trkpt>
      <trkpt lat="46.62691" lon="-1.87387">
        <ele>7</ele>
        <time>2018-04-21T18:58:07Z</time>
      </trkpt>
      <trkpt lat="46.62679" lon="-1.87374">
        <ele>7</ele>
        <time>2018-04-21T18:59:07Z</time>
      </trkpt>
      <trkpt lat="46.62668" lon="-1.87368">
        <ele>6</ele>
        <time>2018-04-21T19:00:07Z</time>
      </trkpt>
      <trkpt lat="46.62665" lon="-1.87367">
        <ele>6</ele>
        <time>2018-04-21T19:01:07Z</time>
      </trkpt>
      <trkpt lat="46.62658" lon="-1.87364">
        <ele>6</ele>
        <time>2018-04-21T19:02:07Z</time>
      </trkpt>
      <trkpt lat="46.62646" lon="-1.87362">
        <ele>7</ele>
        <time>2018-04-21T19:03:07Z</time>
      </trkpt>
      <trkpt lat="46.62635" lon="-1.87358">
        <ele>7</ele>
        <time>2018-04-21T19:04:07Z</time>
      </trkpt>
      <trkpt lat="46.62626" lon="-1.87354">
        <ele>7</ele>
        <time>2018-04-21T19:05:07Z</time>
      </trkpt>
      <trkpt lat="46.62626" lon="-1.87354">
        <ele>7</ele>
        <time>2018-04-21T19:06:07Z</time>
      </trkpt>
      <trkpt lat="46.62626" lon="-1.87355">
        <ele>7</ele>
        <time>2018-04-21T19:07:07Z</time>
      </trkpt>
      <trkpt lat="46.62625" lon="-1.87355">
        <ele>7</ele>
        <time>2018-04-21T19:08:07Z</time>
      </trkpt>
      <trkpt lat="46.62625" lon="-1.87356">
        <ele>7</ele>
        <time>2018-04-21T19:09:07Z</time>
      </trkpt>
      <trkpt lat="46.62624" lon="-1.87356">
        <ele>7</ele>
        <time>2018-04-21T19:10:07Z</time>
      </trkpt>
      <trkpt lat="46.62624" lon="-1.87357">
        <ele>7</ele>
        <time>2018-04-21T19:11:07Z</time>
      </trkpt>
      <trkpt lat="46.62623" lon="-1.87357">
        <ele>7</ele>
        <time>2018-04-21T19:12:07Z</time>
      </trkpt>
      <trkpt lat="46.62622" lon="-1.87357">
        <ele>7</ele>
        <time>2018-04-21T19:13:07Z</time>
      </trkpt>
      <trkpt lat="46.62621" lon="-1.87357">
        <ele>7</ele>
        <time>2018-04-21T19:14:07Z</time>
      </trkpt>
      <trkpt lat="46.6262" lon="-1.87357">
        <ele>7</ele>
        <time>2018-04-21T19:15:07Z</time>
      </trkpt>
      <trkpt lat="46.6262" lon="-1.87356">
        <ele>7</ele>
        <time>2018-04-21T19:16:07Z</time>
      </trkpt>
      <trkpt lat="46.62619" lon="-1.87356">
        <ele>7</ele>
        <time>2018-04-21T19:17:07Z</time>
      </trkpt>
      <trkpt lat="46.62619" lon="-1.87355">
        <ele>7</ele>
        <time>2018-04-21T19:18:07Z</time>
      </trkpt>
      <trkpt lat="46.62618" lon="-1.87355">
        <ele>7</ele>
        <time>2018-04-21T19:19:07Z</time>
      </trkpt>
      <trkpt lat="46.62618" lon="-1.87354">
        <ele>7</ele>
        <time>2018-04-21T19:20:07Z</time>
      </trkpt>
      <trkpt lat="46.62618" lon="-1.87353">
        <ele>7</ele>
        <time>2018-04-21T19:21:07Z</time>
      </trkpt>
      <trkpt lat="46.62606" lon="-1.87359">
        <ele>7</ele>
        <time>2018-04-21T19:22:07Z</time>
      </trkpt>
      <trkpt lat="46.62599" lon="-1.87362">
        <ele>7</ele>
        <time>2018-04-21T19:23:07Z</time>
      </trkpt>
      <trkpt lat="46.62586" lon="-1.87364">
        <ele>8</ele>
        <time>2018-04-21T19:24:07Z</time>
      </trkpt>
      <trkpt lat="46.62579" lon="-1.87365">
        <ele>8</ele>
        <time>2018-04-21T19:25:07Z</time>
      </trkpt>
      <trkpt lat="46.62579" lon="-1.87365">
        <ele>8</ele>
        <time>2018-04-21T19:26:07Z</time>
      </trkpt>
      <trkpt lat="46.62568" lon="-1.87368">
        <ele>7</ele>
        <time>2018-04-21T19:27:07Z</time>
      </trkpt>
      <trkpt lat="46.62552" lon="-1.87366">
        <ele>7</ele>
        <time>2018-04-21T19:28:07Z</time>
      </trkpt>
      <trkpt lat="46.62533" lon="-1.87363">
        <ele>7</ele>
        <time>2018-04-21T19:29:07Z</time>
      </trkpt>
      <trkpt lat="46.62515" lon="-1.87359">
        <ele>7</ele>
        <time>2018-04-21T19:30:07Z</time>
      </trkpt>
      <trkpt lat="46.62506" lon="-1.87357">
        <ele>7</ele>
        <time>2018-04-21T19:31:07Z</time>
      </trkpt>
      <trkpt lat="46.62483" lon="-1.87359">
        <ele>7</ele>
        <time>2018-04-21T19:32:07Z</time>
      </trkpt>
      <trkpt lat="46.6247" lon="-1.87361">
        <ele>7</ele>
        <time>2018-04-21T19:33:07Z</time>
      </trkpt>
      <trkpt lat="46.6246" lon="-1.87361">
        <ele>7</ele>
        <time>2018-04-21T19:34:07Z</time>
      </trkpt>
      <trkpt lat="46.62451" lon="-1.87362">
        <ele>7</ele>
        <time>2018-04-21T19:35:07Z</time>
      </trkpt>
      <trkpt lat="46.62443" lon="-1.87362">
        <ele>7</ele>
        <time>2018-04-21T19:36:07Z</time>
      </trkpt>
      <trkpt lat="46.62428" lon="-1.87358">
        <ele>7</ele>
        <time>2018-04-21T19:37:07Z</time>
      </trkpt>
      <trkpt lat="46.62422" lon="-1.87356">
        <ele>7</ele>
        <time>2018-04-21T19:38:07Z</time>
      </trkpt>
      <trkpt lat="46.62416" lon="-1.87355">
        <ele>7</ele>
        <time>2018-04-21T19:39:07Z</time>
      </trkpt>
      <trkpt lat="46.62411" lon="-1.87353">
        <ele>7</ele>
        <time>2018-04-21T19:40:07Z</time>
      </trkpt>
      <trkpt lat="46.62406" lon="-1.87352">
        <ele>7</ele>
        <time>2018-04-21T19:41:07Z</time>
      </trkpt>
      <trkpt lat="46.62404" lon="-1.87351">
        <ele>7</ele>
        <time>2018-04-21T19:42:07Z</time>
      </trkpt>
      <trkpt lat="46.624" lon="-1.87352">
        <ele>7</ele>
        <time>2018-04-21T19:43:07Z</time>
      </trkpt>
      <trkpt lat="46.62398" lon="-1.87352">
        <ele>7</ele>
        <time>2018-04-21T19:44:07Z</time>
      </trkpt>
      <trkpt lat="46.62397" lon="-1.87352">
        <ele>7</ele>
        <time>2018-04-21T19:45:07Z</time>
      </trkpt>
      <trkpt lat="46.62391" lon="-1.8735">
        <ele>7</ele>
        <time>2018-04-21T19:46:07Z</time>
      </trkpt>
      <trkpt lat="46.62379" lon="-1.87345">
        <ele>7</ele>
        <time>2018-04-21T19:47:07Z</time>
      </trkpt>
      <trkpt lat="46.62375" lon="-1.87344">
        <ele>7</ele>
        <time>2018-04-21T19:48:07Z</time>
      </trkpt>
      <trkpt lat="46.62329" lon="-1.87324">
        <ele>8</ele>
        <time>2018-04-21T19:49:07Z</time>
      </trkpt>
      <trkpt lat="46.62309" lon="-1.87316">
        <ele>7</ele>
        <time>2018-04-21T19:50:07Z</time>
      </trkpt>
      <trkpt lat="46.62295" lon="-1.87309">
        <ele>7</ele>
        <time>2018-04-21T19:51:07Z</time>
      </trkpt>
      <trkpt lat="46.62279" lon="-1.87297">
        <ele>6</ele>
        <time>2018-04-21T19:52:07Z</time>
      </trkpt>
      <trkpt lat="46.62267" lon="-1.8729">
        <ele>6</ele>
        <time>2018-04-21T19:53:07Z</time>
      </trkpt>
      <trkpt lat="46.62237" lon="-1.87268">
        <ele>7</ele>
        <time>2018-04-21T19:54:07Z</time>
      </trkpt>
      <trkpt lat="46.62209" lon="-1.87249">
        <ele>8</ele>
        <time>2018-04-21T19:55:07Z</time>
      </trkpt>
      <trkpt lat="46.62191" lon="-1.87236">
        <ele>8</ele>
        <time>2018-04-21T19:56:07Z</time>
      </trkpt>
      <trkpt lat="46.62178" lon="-1.87228">
        <ele>8</ele>
        <time>2018-04-21T19:57:07Z</time>
      </trkpt>
      <trkpt lat="46.62178" lon="-1.87228">
        <ele>8</ele>
        <time>2018-04-21T19:58:07Z</time>
      </trkpt>
      <trkpt lat="46.62171" lon="-1.87222">
        <ele>8</ele>
        <time>2018-04-21T19:59:07Z</time>
      </trkpt>
      <trkpt lat="46.62156" lon="-1.87213">
        <ele>8</ele>
        <time>2018-04-21T20:00:07Z</time>
      </trkpt>
      <trkpt lat="46.62144" lon="-1.87208">
        <ele>8</ele>
        <time>2018-04-21T20:01:07Z</time>
      </trkpt>
      <trkpt lat="46.62133" lon="-1.87206">
        <ele>8</ele>
        <time>2018-04-21T20:02:07Z</time>
      </trkpt>
      <trkpt lat="46.62126" lon="-1.87206">
        <ele>8</ele>
        <time>2018-04-21T20:03:07Z</time>
      </trkpt>
      <trkpt lat="46.62111" lon="-1.87211">
        <ele>7</ele>
        <time>2018-04-21T20:04:07Z</time>
      </trkpt>
      <trkpt lat="46.62098" lon="-1.87217">
        <ele>7</ele>
        <time>2018-04-21T20:05:07Z</time>
      </trkpt>
      <trkpt lat="46.62091" lon="-1.8722">
        <ele>7</ele>
        <time>2018-04-21T20:06:07Z</time>
      </trkpt>
      <trkpt lat="46.62087" lon="-1.87223">
        <ele>6</ele>
        <time>2018-04-21T20:07:07Z</time>
      </trkpt>
      <trkpt lat="46.6207" lon="-1.87232">
        <ele>6</ele>
        <time>2018-04-21T20:08:07Z</time>
      </trkpt>
      <trkpt lat="46.62061" lon="-1.87235">
        <ele>6</ele>
        <time>2018-04-21T20:09:07Z</time>
      </trkpt>
      <trkpt lat="46.62053" lon="-1.87238">
        <ele>6</ele>
        <time>2018-04-21T20:10:07Z</time>
      </trkpt>
      <trkpt lat="46.62043" lon="-1.87238">
        <ele>6</ele>
        <time>2018-04-21T20:11:07Z</time>
      </trkpt>
      <trkpt lat="46.62032" lon="-1.87236">
        <ele>6</ele>
        <time>2018-04-21T20:12:07Z</time>
      </trkpt>
      <trkpt lat="46.62022" lon="-1.8723">
        <ele>6</ele>
        <time>2018-04-21T20:13:07Z</time>
      </trkpt>
      <trkpt lat="46.6201" lon="-1.87223">
        <ele>6</ele>
        <time>2018-04-21T20:14:07Z</time>
      </trkpt>
      <trkpt lat="46.61985" lon="-1.87208">
        <ele>6</ele>
        <time>2018-04-21T20:15:07Z</time>
      </trkpt>
      <trkpt lat="46.61973" lon="-1.87201">
        <ele>6</ele>
        <time>2018-04-21T20:16:07Z</time>
      </trkpt>
      <trkpt lat="46.61957" lon="-1.87192">
        <ele>6</ele>
        <time>2018-04-21T20:17:07Z</time>
      </trkpt>
      <trkpt lat="46.61936" lon="-1.87179">
        <ele>7</ele>
        <time>2018-04-21T20:18:07Z</time>
      </trkpt>
      <trkpt lat="46.61925" lon="-1.87172">
        <ele>7</ele>
        <time>2018-04-21T20:19:07Z</time>
      </trkpt>
      <trkpt lat="46.61923" lon="-1.8717">
        <ele>7</ele>
        <time>2018-04-21T20:20:07Z</time>
      </trkpt>
      <trkpt lat="46.61919" lon="-1.87168">
        <ele>7</ele>
        <time>2018-04-21T20:21:07Z</time>
      </trkpt>
      <trkpt lat="46.61915" lon="-1.87165">
        <ele>7</ele>
        <time>2018-04-21T20:22:07Z</time>
      </trkpt>
      <trkpt lat="46.61912" lon="-1.87162">
        <ele>7</ele>
        <time>2018-04-21T20:23:07Z</time>
      </trkpt>
      <trkpt lat="46.61912" lon="-1.87162">
        <ele>7</ele>
        <time>2018-04-21T20:24:07Z</time>
      </trkpt>
      <trkpt lat="46.61911" lon="-1.87162">
        <ele>7</ele>
        <time>2018-04-21T20:25:07Z</time>
      </trkpt>
      <trkpt lat="46.61911" lon="-1.87163">
        <ele>7</ele>
        <time>2018-04-21T20:26:07Z</time>
      </trkpt>
      <trkpt lat="46.6191" lon="-1.87163">
        <ele>7</ele>
        <time>2018-04-21T20:27:07Z</time>
      </trkpt>
      <trkpt lat="46.61909" lon="-1.87163">
        <ele>7</ele>
        <time>2018-04-21T20:28:07Z</time>
      </trkpt>
      <trkpt lat="46.61908" lon="-1.87163">
        <ele>7</ele>
        <time>2018-04-21T20:29:07Z</time>
      </trkpt>
      <trkpt lat="46.61907" lon="-1.87162">
        <ele>7</ele>
        <time>2018-04-21T20:30:07Z</time>
      </trkpt>
      <trkpt lat="46.61906" lon="-1.87162">
        <ele>7</ele>
        <time>2018-04-21T20:31:07Z</time>
      </trkpt>
      <trkpt lat="46.61905" lon="-1.87161">
        <ele>7</ele>
        <time>2018-04-21T20:32:07Z</time>
      </trkpt>
      <trkpt lat="46.61904" lon="-1.87161">
        <ele>6</ele>
        <time>2018-04-21T20:33:07Z</time>
      </trkpt>
      <trkpt lat="46.61904" lon="-1.8716">
        <ele>7</ele>
        <time>2018-04-21T20:34:07Z</time>
      </trkpt>
      <trkpt lat="46.61903" lon="-1.87159">
        <ele>6</ele>
        <time>2018-04-21T20:35:07Z</time>
      </trkpt>
      <trkpt lat="46.61903" lon="-1.87158">
        <ele>6</ele>
        <time>2018-04-21T20:36:07Z</time>
      </trkpt>
      <trkpt lat="46.61902" lon="-1.87158">
        <ele>6</ele>
        <time>2018-04-21T20:37:07Z</time>
      </trkpt>
      <trkpt lat="46.61902" lon="-1.87157">
        <ele>6</ele>
        <time>2018-04-21T20:38:07Z</time>
      </trkpt>
      <trkpt lat="46.61902" lon="-1.87156">
        <ele>6</ele>
        <time>2018-04-21T20:39:07Z</time>
      </trkpt>
      <trkpt lat="46.61901" lon="-1.87156">
        <ele>6</ele>
        <time>2018-04-21T20:40:07Z</time>
      </trkpt>
      <trkpt lat="46.61901" lon="-1.87155">
        <ele>6</ele>
        <time>2018-04-21T20:41:07Z</time>
      </trkpt>
      <trkpt lat="46.61901" lon="-1.87154">
        <ele>6</ele>
        <time>2018-04-21T20:42:07Z</time>
      </trkpt>
      <trkpt lat="46.61901" lon="-1.87153">
        <ele>7</ele>
        <time>2018-04-21T20:43:07Z</time>
      </trkpt>
      <trkpt lat="46.61901" lon="-1.87152">
        <ele>7</ele>
        <time>2018-04-21T20:44:07Z</time>
      </trkpt>
      <trkpt lat="46.619" lon="-1.87152">
        <ele>6</ele>
        <time>2018-04-21T20:45:07Z</time>
      </trkpt>
      <trkpt lat="46.619" lon="-1.87151">
        <ele>7</ele>
        <time>2018-04-21T20:46:07Z</time>
      </trkpt>
      <trkpt lat="46.619" lon="-1.8715">
        <ele>7</ele>
        <time>2018-04-21T20:47:07Z</time>
      </trkpt>
      <trkpt lat="46.619" lon="-1.87149">
        <ele>7</ele>
        <time>2018-04-21T20:48:07Z</time>
      </trkpt>
      <trkpt lat="46.61861" lon="-1.87113">
        <ele>6</ele>
        <time>2018-04-21T20:49:07Z</time>
      </trkpt>
      <trkpt lat="46.61842" lon="-1.87096">
        <ele>7</ele>
        <time>2018-04-21T20:50:07Z</time>
      </trkpt>
      <trkpt lat="46.61833" lon="-1.87088">
        <ele>7</ele>
        <time>2018-04-21T20:51:07Z</time>
      </trkpt>
      <trkpt lat="46.6183" lon="-1.87085">
        <ele>7</ele>
        <time>2018-04-21T20:52:07Z</time>
      </trkpt>
      <trkpt lat="46.61819" lon="-1.87074">
        <ele>7</ele>
        <time>2018-04-21T20:53:07Z</time>
      </trkpt>
      <trkpt lat="46.61805" lon="-1.87061">
        <ele>7</ele>
        <time>2018-04-21T20:54:07Z</time>
      </trkpt>
      <trkpt lat="46.61785" lon="-1.87042">
        <ele>7</ele>
        <time>2018-04-21T20:55:07Z</time>
      </trkpt>
      <trkpt lat="46.61766" lon="-1.87024">
        <ele>7</ele>
        <time>2018-04-21T20:56:07Z</time>
      </trkpt>
      <trkpt lat="46.61759" lon="-1.87018">
        <ele>7</ele>
        <time>2018-04-21T20:57:07Z</time>
      </trkpt>
      <trkpt lat="46.61745" lon="-1.87005">
        <ele>4</ele>
        <time>2018-04-21T20:58:07Z</time>
      </trkpt>
      <trkpt lat="46.61736" lon="-1.86996">
        <ele>7</ele>
        <time>2018-04-21T20:59:07Z</time>
      </trkpt>
      <trkpt lat="46.61729" lon="-1.86988">
        <ele>6</ele>
        <time>2018-04-21T21:00:07Z</time>
      </trkpt>
      <trkpt lat="46.61696" lon="-1.86948">
        <ele>5</ele>
        <time>2018-04-21T21:01:07Z</time>
      </trkpt>
      <trkpt lat="46.61688" lon="-1.86935">
        <ele>5</ele>
        <time>2018-04-21T21:02:07Z</time>
      </trkpt>
      <trkpt lat="46.61677" lon="-1.8691">
        <ele>5</ele>
        <time>2018-04-21T21:03:07Z</time>
      </trkpt>
      <trkpt lat="46.61669" lon="-1.86889">
        <ele>4</ele>
        <time>2018-04-21T21:04:07Z</time>
      </trkpt>
      <trkpt lat="46.61662" lon="-1.86867">
        <ele>4</ele>
        <time>2018-04-21T21:05:07Z</time>
      </trkpt>
      <trkpt lat="46.61654" lon="-1.86833">
        <ele>4</ele>
        <time>2018-04-21T21:06:07Z</time>
      </trkpt>
      <trkpt lat="46.61647" lon="-1.86798">
        <ele>4</ele>
        <time>2018-04-21T21:07:07Z</time>
      </trkpt>
      <trkpt lat="46.61641" lon="-1.86767">
        <ele>4</ele>
        <time>2018-04-21T21:08:07Z</time>
      </trkpt>
      <trkpt lat="46.61636" lon="-1.86737">
        <ele>4</ele>
        <time>2018-04-21T21:09:07Z</time>
      </trkpt>
      <trkpt lat="46.6163" lon="-1.8671">
        <ele>4</ele>
        <time>2018-04-21T21:10:07Z</time>
      </trkpt>
      <trkpt lat="46.61627" lon="-1.86689">
        <ele>4</ele>
        <time>2018-04-21T21:11:07Z</time>
      </trkpt>
      <trkpt lat="46.61625" lon="-1.86671">
        <ele>4</ele>
        <time>2018-04-21T21:12:07Z</time>
      </trkpt>
      <trkpt lat="46.61624" lon="-1.86662">
        <ele>4</ele>
        <time>2018-04-21T21:13:07Z</time>
      </trkpt>
      <trkpt lat="46.61625" lon="-1.86645">
        <ele>4</ele>
        <time>2018-04-21T21:14:07Z</time>
      </trkpt>
      <trkpt lat="46.61625" lon="-1.86643">
        <ele>4</ele>
        <time>2018-04-21T21:15:07Z</time>
      </trkpt>
      <trkpt lat="46.61626" lon="-1.8662">
        <ele>5</ele>
        <time>2018-04-21T21:16:07Z</time>
      </trkpt>
      <trkpt lat="46.6163" lon="-1.86577">
        <ele>5</ele>
        <time>2018-04-21T21:17:07Z</time>
      </trkpt>
      <trkpt lat="46.61631" lon="-1.86562">
        <ele>6</ele>
        <time>2018-04-21T21:18:07Z</time>
      </trkpt>
      <trkpt lat="46.61632" lon="-1.86547">
        <ele>6</ele>
        <time>2018-04-21T21:19:07Z</time>
      </trkpt>
      <trkpt lat="46.61632" lon="-1.86541">
        <ele>6</ele>
        <time>2018-04-21T21:20:07Z</time>
      </trkpt>
      <trkpt lat="46.61632" lon="-1.86529">
        <ele>6</ele>
        <time>2018-04-21T21:21:07Z</time>
      </trkpt>
      <trkpt lat="46.61635" lon="-1.86494">
        <ele>7</ele>
        <time>2018-04-21T21:22:07Z</time>
      </trkpt>
      <trkpt lat="46.61637" lon="-1.86463">
        <ele>7</ele>
        <time>2018-04-21T21:23:07Z</time>
      </trkpt>
      <trkpt lat="46.61638" lon="-1.86454">
        <ele>7</ele>
        <time>2018-04-21T21:24:07Z</time>
      </trkpt>
      <trkpt lat="46.61638" lon="-1.86452">
        <ele>7</ele>
        <time>2018-04-21T21:25:07Z</time>
      </trkpt>
      <trkpt lat="46.6164" lon="-1.86447">
        <ele>7</ele>
        <time>2018-04-21T21:26:07Z</time>
      </trkpt>
      <trkpt lat="46.61641" lon="-1.86444">
        <ele>8</ele>
        <time>2018-04-21T21:27:07Z</time>
      </trkpt>
      <trkpt lat="46.61646" lon="-1.86434">
        <ele>8</ele>
        <time>2018-04-21T21:28:07Z</time>
      </trkpt>
      <trkpt lat="46.61653" lon="-1.86424">
        <ele>8</ele>
        <time>2018-04-21T21:29:07Z</time>
      </trkpt>
      <trkpt lat="46.61664" lon="-1.86415">
        <ele>9</ele>
        <time>2018-04-21T21:30:07Z</time>
      </trkpt>
      <trkpt lat="46.61677" lon="-1.86407">
        <ele>9</ele>
        <time>2018-04-21T21:31:07Z</time>
      </trkpt>
      <trkpt lat="46.61677" lon="-1.86407">
        <ele>9</ele>
        <time>2018-04-21T21:32:07Z</time>
      </trkpt>
      <trkpt lat="46.61691" lon="-1.86396">
        <ele>9</ele>
        <time>2018-04-21T21:33:07Z</time>
      </trkpt>
      <trkpt lat="46.61703" lon="-1.86388">
        <ele>9</ele>
        <time>2018-04-21T21:34:07Z</time>
      </trkpt>
      <trkpt lat="46.61723" lon="-1.86374">
        <ele>8</ele>
        <time>2018-04-21T21:35:07Z</time>
      </trkpt>
      <trkpt lat="46.61725" lon="-1.86373">
        <ele>8</ele>
        <time>2018-04-21T21:36:07Z</time>
      </trkpt>
      <trkpt lat="46.61739" lon="-1.86363">
        <ele>8</ele>
        <time>2018-04-21T21:37:07Z</time>
      </trkpt>
      <trkpt lat="46.61747" lon="-1.86358">
        <ele>8</ele>
        <time>2018-04-21T21:38:07Z</time>
      </trkpt>
      <trkpt lat="46.61754" lon="-1.86353">
        <ele>8</ele>
        <time>2018-04-21T21:39:07Z</time>
      </trkpt>
      <trkpt lat="46.61754" lon="-1.86353">
        <ele>8</ele>
        <time>2018-04-21T21:40:07Z</time>
      </trkpt>
      <trkpt lat="46.6176" lon="-1.86343">
        <ele>8</ele>
        <time>2018-04-21T21:41:07Z</time>
      </trkpt>
      <trkpt lat="46.61763" lon="-1.86334">
        <ele>8</ele>
        <time>2018-04-21T21:42:07Z</time>
      </trkpt>
      <trkpt lat="46.61764" lon="-1.8633">
        <ele>8</ele>
        <time>2018-04-21T21:43:07Z</time>
      </trkpt>
      <trkpt lat="46.61765" lon="-1.86325">
        <ele>8</ele>
        <time>2018-04-21T21:44:07Z</time>
      </trkpt>
      <trkpt lat="46.61765" lon="-1.8632">
        <ele>8</ele>
        <time>2018-04-21T21:45:07Z</time>
      </trkpt>
      <trkpt lat="46.61766" lon="-1.86307">
        <ele>8</ele>
        <time>2018-04-21T21:46:07Z</time>
      </trkpt>
      <trkpt lat="46.61766" lon="-1.86296">
        <ele>8</ele>
        <time>2018-04-21T21:47:07Z</time>
      </trkpt>
      <trkpt lat="46.61764" lon="-1.86258">
        <ele>8</ele>
        <time>2018-04-21T21:48:07Z</time>
      </trkpt>
      <trkpt lat="46.61764" lon="-1.86243">
        <ele>8</ele>
        <time>2018-04-21T21:49:07Z</time>
      </trkpt>
      <trkpt lat="46.61763" lon="-1.86228">
        <ele>8</ele>
        <time>2018-04-21T21:50:07Z</time>
      </trkpt>
      <trkpt lat="46.61761" lon="-1.86215">
        <ele>8</ele>
        <time>2018-04-21T21:51:07Z</time>
      </trkpt>
      <trkpt lat="46.6176" lon="-1.86208">
        <ele>8</ele>
        <time>2018-04-21T21:52:07Z</time>
      </trkpt>
      <trkpt lat="46.61756" lon="-1.86197">
        <ele>8</ele>
        <time>2018-04-21T21:53:07Z</time>
      </trkpt>
      <trkpt lat="46.61752" lon="-1.86188">
        <ele>8</ele>
        <time>2018-04-21T21:54:07Z</time>
      </trkpt>
      <trkpt lat="46.61744" lon="-1.86173">
        <ele>8</ele>
        <time>2018-04-21T21:55:07Z</time>
      </trkpt>
      <trkpt lat="46.61736" lon="-1.86158">
        <ele>8</ele>
        <time>2018-04-21T21:56:07Z</time>
      </trkpt>
      <trkpt lat="46.61722" lon="-1.86132">
        <ele>8</ele>
        <time>2018-04-21T21:57:07Z</time>
      </trkpt>
      <trkpt lat="46.61707" lon="-1.86101">
        <ele>8</ele>
        <time>2018-04-21T21:58:07Z</time>
      </trkpt>
      <trkpt lat="46.61695" lon="-1.86079">
        <ele>8</ele>
        <time>2018-04-21T21:59:07Z</time>
      </trkpt>
      <trkpt lat="46.61685" lon="-1.86063">
        <ele>8</ele>
        <time>2018-04-21T22:00:07Z</time>
      </trkpt>
      <trkpt lat="46.6168" lon="-1.86054">
        <ele>8</ele>
        <time>2018-04-21T22:01:07Z</time>
      </trkpt>
      <trkpt lat="46.61672" lon="-1.86042">
        <ele>8</ele>
        <time>2018-04-21T22:02:07Z</time>
      </trkpt>
      <trkpt lat="46.61669" lon="-1.86038">
        <ele>8</ele>
        <time>2018-04-21T22:03:07Z</time>
      </trkpt>
      <trkpt lat="46.61653" lon="-1.86016">
        <ele>8</ele>
        <time>2018-04-21T22:04:07Z</time>
      </trkpt>
      <trkpt lat="46.61643" lon="-1.86003">
        <ele>7</ele>
        <time>2018-04-21T22:05:07Z</time>
      </trkpt>
      <trkpt lat="46.61642" lon="-1.86002">
        <ele>7</ele>
        <time>2018-04-21T22:06:07Z</time>
      </trkpt>
      <trkpt lat="46.61624" lon="-1.85975">
        <ele>7</ele>
        <time>2018-04-21T22:07:07Z</time>
      </trkpt>
      <trkpt lat="46.61617" lon="-1.85966">
        <ele>7</ele>
        <time>2018-04-21T22:08:07Z</time>
      </trkpt>
      <trkpt lat="46.61601" lon="-1.85945">
        <ele>7</ele>
        <time>2018-04-21T22:09:07Z</time>
      </trkpt>
      <trkpt lat="46.61588" lon="-1.85926">
        <ele>7</ele>
        <time>2018-04-21T22:10:07Z</time>
      </trkpt>
      <trkpt lat="46.61577" lon="-1.8591">
        <ele>7</ele>
        <time>2018-04-21T22:11:07Z</time>
      </trkpt>
      <trkpt lat="46.61565" lon="-1.85887">
        <ele>7</ele>
        <time>2018-04-21T22:12:07Z</time>
      </trkpt>
      <trkpt lat="46.61554" lon="-1.85862">
        <ele>7</ele>
        <time>2018-04-21T22:13:07Z</time>
      </trkpt>
      <trkpt lat="46.61552" lon="-1.85855">
        <ele>7</ele>
        <time>2018-04-21T22:14:07Z</time>
      </trkpt>
      <trkpt lat="46.61549" lon="-1.85849">
        <ele>7</ele>
        <time>2018-04-21T22:15:07Z</time>
      </trkpt>
      <trkpt lat="46.61546" lon="-1.85843">
        <ele>7</ele>
        <time>2018-04-21T22:16:07Z</time>
      </trkpt>
      <trkpt lat="46.61543" lon="-1.85837">
        <ele>7</ele>
        <time>2018-04-21T22:17:07Z</time>
      </trkpt>
      <trkpt lat="46.61539" lon="-1.8583">
        <ele>7</ele>
        <time>2018-04-21T22:18:07Z</time>
      </trkpt>
      <trkpt lat="46.61535" lon="-1.85823">
        <ele>7</ele>
        <time>2018-04-21T22:19:07Z</time>
      </trkpt>
      <trkpt lat="46.61529" lon="-1.85815">
        <ele>7</ele>
        <time>2018-04-21T22:20:07Z</time>
      </trkpt>
      <trkpt lat="46.6152" lon="-1.85809">
        <ele>7</ele>
        <time>2018-04-21T22:21:07Z</time>
      </trkpt>
      <trkpt lat="46.61518" lon="-1.85808">
        <ele>7</ele>
        <time>2018-04-21T22:22:07Z</time>
      </trkpt>
      <trkpt lat="46.61514" lon="-1.85807">
        <ele>7</ele>
        <time>2018-04-21T22:23:07Z</time>
      </trkpt>
      <trkpt lat="46.61506" lon="-1.85805">
        <ele>7</ele>
        <time>2018-04-21T22:24:07Z</time>
      </trkpt>
      <trkpt lat="46.61506" lon="-1.85805">
        <ele>7</ele>
        <time>2018-04-21T22:25:07Z</time>
      </trkpt>
      <trkpt lat="46.61503" lon="-1.85806">
        <ele>7</ele>
        <time>2018-04-21T22:26:07Z</time>
      </trkpt>
      <trkpt lat="46.61502" lon="-1.85807">
        <ele>7</ele>
        <time>2018-04-21T22:27:07Z</time>
      </trkpt>
      <trkpt lat="46.61499" lon="-1.85807">
        <ele>7</ele>
        <time>2018-04-21T22:28:07Z</time>
      </trkpt>
      <trkpt lat="46.61497" lon="-1.85807">
        <ele>7</ele>
        <time>2018-04-21T22:29:07Z</time>
      </trkpt>
      <trkpt lat="46.61496" lon="-1.85807">
        <ele>7</ele>
        <time>2018-04-21T22:30:07Z</time>
      </trkpt>
      <trkpt lat="46.61493" lon="-1.85805">
        <ele>7</ele>
        <time>2018-04-21T22:31:07Z</time>
      </trkpt>
      <trkpt lat="46.61492" lon="-1.85804">
        <ele>7</ele>
        <time>2018-04-21T22:32:07Z</time>
      </trkpt>
      <trkpt lat="46.6149" lon="-1.85802">
        <ele>7</ele>
        <time>2018-04-21T22:33:07Z</time>
      </trkpt>
      <trkpt lat="46.61489" lon="-1.858">
        <ele>8</ele>
        <time>2018-04-21T22:34:07Z</time>
      </trkpt>
      <trkpt lat="46.61488" lon="-1.85798">
        <ele>8</ele>
        <time>2018-04-21T22:35:07Z</time>
      </trkpt>
      <trkpt lat="46.61487" lon="-1.85796">
        <ele>8</ele>
        <time>2018-04-21T22:36:07Z</time>
      </trkpt>
      <trkpt lat="46.61486" lon="-1.85792">
        <ele>8</ele>
        <time>2018-04-21T22:37:07Z</time>
      </trkpt>
      <trkpt lat="46.61485" lon="-1.85788">
        <ele>8</ele>
        <time>2018-04-21T22:38:07Z</time>
      </trkpt>
      <trkpt lat="46.61486" lon="-1.85783">
        <ele>8</ele>
        <time>2018-04-21T22:39:07Z</time>
      </trkpt>
      <trkpt lat="46.61486" lon="-1.85781">
        <ele>8</ele>
        <time>2018-04-21T22:40:07Z</time>
      </trkpt>
      <trkpt lat="46.61486" lon="-1.85779">
        <ele>8</ele>
        <time>2018-04-21T22:41:07Z</time>
      </trkpt>
      <trkpt lat="46.61487" lon="-1.85778">
        <ele>8</ele>
        <time>2018-04-21T22:42:07Z</time>
      </trkpt>
      <trkpt lat="46.61488" lon="-1.85775">
        <ele>8</ele>
        <time>2018-04-21T22:43:07Z</time>
      </trkpt>
      <trkpt lat="46.6149" lon="-1.85772">
        <ele>8</ele>
        <time>2018-04-21T22:44:07Z</time>
      </trkpt>
      <trkpt lat="46.61493" lon="-1.85769">
        <ele>8</ele>
        <time>2018-04-21T22:45:07Z</time>
      </trkpt>
      <trkpt lat="46.61493" lon="-1.8575">
        <ele>8</ele>
        <time>2018-04-21T22:46:07Z</time>
      </trkpt>
      <trkpt lat="46.61494" lon="-1.85729">
        <ele>8</ele>
        <time>2018-04-21T22:47:07Z</time>
      </trkpt>
      <trkpt lat="46.61492" lon="-1.85716">
        <ele>9</ele>
        <time>2018-04-21T22:48:07Z</time>
      </trkpt>
      <trkpt lat="46.61489" lon="-1.85696">
        <ele>9</ele>
        <time>2018-04-21T22:49:07Z</time>
      </trkpt>
      <trkpt lat="46.61486" lon="-1.8568">
        <ele>9</ele>
        <time>2018-04-21T22:50:07Z</time>
      </trkpt>
      <trkpt lat="46.61483" lon="-1.85661">
        <ele>9</ele>
        <time>2018-04-21T22:51:07Z</time>
      </trkpt>
      <trkpt lat="46.61476" lon="-1.85631">
        <ele>10</ele>
        <time>2018-04-21T22:52:07Z</time>
      </trkpt>
      <trkpt lat="46.61469" lon="-1.85604">
        <ele>10</ele>
        <time>2018-04-21T22:53:07Z</time>
      </trkpt>
      <trkpt lat="46.61462" lon="-1.85579">
        <ele>10</ele>
        <time>2018-04-21T22:54:07Z</time>
      </trkpt>
      <trkpt lat="46.61453" lon="-1.85553">
        <ele>10</ele>
        <time>2018-04-21T22:55:07Z</time>
      </trkpt>
      <trkpt lat="46.61445" lon="-1.85531">
        <ele>11</ele>
        <time>2018-04-21T22:56:07Z</time>
      </trkpt>
      <trkpt lat="46.61438" lon="-1.85514">
        <ele>11</ele>
        <time>2018-04-21T22:57:07Z</time>
      </trkpt>
      <trkpt lat="46.61427" lon="-1.85492">
        <ele>12</ele>
        <time>2018-04-21T22:58:07Z</time>
      </trkpt>
      <trkpt lat="46.61418" lon="-1.85467">
        <ele>13</ele>
        <time>2018-04-21T22:59:07Z</time>
      </trkpt>
      <trkpt lat="46.6141" lon="-1.8544">
        <ele>13</ele>
        <time>2018-04-21T23:00:07Z</time>
      </trkpt>
      <trkpt lat="46.61401" lon="-1.85409">
        <ele>14</ele>
        <time>2018-04-21T23:01:07Z</time>
      </trkpt>
      <trkpt lat="46.61392" lon="-1.85372">
        <ele>14</ele>
        <time>2018-04-21T23:02:07Z</time>
      </trkpt>
      <trkpt lat="46.61384" lon="-1.8534">
        <ele>15</ele>
        <time>2018-04-21T23:03:07Z</time>
      </trkpt>
      <trkpt lat="46.61376" lon="-1.85305">
        <ele>15</ele>
        <time>2018-04-21T23:04:07Z</time>
      </trkpt>
      <trkpt lat="46.61369" lon="-1.85279">
        <ele>15</ele>
        <time>2018-04-21T23:05:07Z</time>
      </trkpt>
      <trkpt lat="46.61362" lon="-1.8526">
        <ele>15</ele>
        <time>2018-04-21T23:06:07Z</time>
      </trkpt>
      <trkpt lat="46.61353" lon="-1.85242">
        <ele>15</ele>
        <time>2018-04-21T23:07:07Z</time>
      </trkpt>
      <trkpt lat="46.61348" lon="-1.85235">
        <ele>16</ele>
        <time>2018-04-21T23:08:07Z</time>
      </trkpt>
      <trkpt lat="46.61332" lon="-1.85213">
        <ele>16</ele>
        <time>2018-04-21T23:09:07Z</time>
      </trkpt>
      <trkpt lat="46.61313" lon="-1.85197">
        <ele>16</ele>
        <time>2018-04-21T23:10:07Z</time>
      </trkpt>
      <trkpt lat="46.61294" lon="-1.85178">
        <ele>16</ele>
        <time>2018-04-21T23:11:07Z</time>
      </trkpt>
      <trkpt lat="46.61273" lon="-1.85149">
        <ele>17</ele>
        <time>2018-04-21T23:12:07Z</time>
      </trkpt>
      <trkpt lat="46.61258" lon="-1.85125">
        <ele>17</ele>
        <time>2018-04-21T23:13:07Z</time>
      </trkpt>
      <trkpt lat="46.61247" lon="-1.85103">
        <ele>18</ele>
        <time>2018-04-21T23:14:07Z</time>
      </trkpt>
      <trkpt lat="46.61236" lon="-1.85081">
        <ele>18</ele>
        <time>2018-04-21T23:15:07Z</time>
      </trkpt>
      <trkpt lat="46.61222" lon="-1.85059">
        <ele>18</ele>
        <time>2018-04-21T23:16:07Z</time>
      </trkpt>
      <trkpt lat="46.61204" lon="-1.85035">
        <ele>19</ele>
        <time>2018-04-21T23:17:07Z</time>
      </trkpt>
      <trkpt lat="46.61188" lon="-1.85018">
        <ele>19</ele>
        <time>2018-04-21T23:18:07Z</time>
      </trkpt>
      <trkpt lat="46.61167" lon="-1.84994">
        <ele>19</ele>
        <time>2018-04-21T23:19:07Z</time>
      </trkpt>
      <trkpt lat="46.61152" lon="-1.84973">
        <ele>20</ele>
        <time>2018-04-21T23:20:07Z</time>
      </trkpt>
      <trkpt lat="46.61149" lon="-1.84967">
        <ele>21</ele>
        <time>2018-04-21T23:21:07Z</time>
      </trkpt>
      <trkpt lat="46.61144" lon="-1.84955">
        <ele>21</ele>
        <time>2018-04-21T23:22:07Z</time>
      </trkpt>
      <trkpt lat="46.61139" lon="-1.84937">
        <ele>21</ele>
        <time>2018-04-21T23:23:07Z</time>
      </trkpt>
      <trkpt lat="46.61138" lon="-1.84922">
        <ele>22</ele>
        <time>2018-04-21T23:24:07Z</time>
      </trkpt>
      <trkpt lat="46.61136" lon="-1.84903">
        <ele>22</ele>
        <time>2018-04-21T23:25:07Z</time>
      </trkpt>
      <trkpt lat="46.61135" lon="-1.8487">
        <ele>21</ele>
        <time>2018-04-21T23:26:07Z</time>
      </trkpt>
      <trkpt lat="46.61134" lon="-1.84843">
        <ele>20</ele>
        <time>2018-04-21T23:27:07Z</time>
      </trkpt>
      <trkpt lat="46.61135" lon="-1.84824">
        <ele>20</ele>
        <time>2018-04-21T23:28:07Z</time>
      </trkpt>
      <trkpt lat="46.61131" lon="-1.84811">
        <ele>20</ele>
        <time>2018-04-21T23:29:07Z</time>
      </trkpt>
      <trkpt lat="46.61128" lon="-1.84805">
        <ele>20</ele>
        <time>2018-04-21T23:30:07Z</time>
      </trkpt>
      <trkpt lat="46.61128" lon="-1.84805">
        <ele>20</ele>
        <time>2018-04-21T23:31:07Z</time>
      </trkpt>
      <trkpt lat="46.61126" lon="-1.84805">
        <ele>20</ele>
        <time>2018-04-21T23:32:07Z</time>
      </trkpt>
      <trkpt lat="46.61124" lon="-1.84805">
        <ele>20</ele>
        <time>2018-04-21T23:33:07Z</time>
      </trkpt>
      <trkpt lat="46.61122" lon="-1.84805">
        <ele>20</ele>
        <time>2018-04-21T23:34:07Z</time>
      </trkpt>
      <trkpt lat="46.6112" lon="-1.84804">
        <ele>20</ele>
        <time>2018-04-21T23:35:07Z</time>
      </trkpt>
      <trkpt lat="46.61118" lon="-1.84803">
        <ele>20</ele>
        <time>2018-04-21T23:36:07Z</time>
      </trkpt>
      <trkpt lat="46.61117" lon="-1.84802">
        <ele>20</ele>
        <time>2018-04-21T23:37:07Z</time>
      </trkpt>
      <trkpt lat="46.61115" lon="-1.84801">
        <ele>20</ele>
        <time>2018-04-21T23:38:07Z</time>
      </trkpt>
      <trkpt lat="46.61113" lon="-1.848">
        <ele>20</ele>
        <time>2018-04-21T23:39:07Z</time>
      </trkpt>
      <trkpt lat="46.61113" lon="-1.84799">
        <ele>20</ele>
        <time>2018-04-21T23:40:07Z</time>
      </trkpt>
      <trkpt lat="46.61112" lon="-1.84798">
        <ele>20</ele>
        <time>2018-04-21T23:41:07Z</time>
      </trkpt>
      <trkpt lat="46.61111" lon="-1.84797">
        <ele>20</ele>
        <time>2018-04-21T23:42:07Z</time>
      </trkpt>
      <trkpt lat="46.6111" lon="-1.84796">
        <ele>20</ele>
        <time>2018-04-21T23:43:07Z</time>
      </trkpt>
      <trkpt lat="46.6111" lon="-1.84795">
        <ele>20</ele>
        <time>2018-04-21T23:44:07Z</time>
      </trkpt>
      <trkpt lat="46.61109" lon="-1.84794">
        <ele>20</ele>
        <time>2018-04-21T23:45:07Z</time>
      </trkpt>
      <trkpt lat="46.61108" lon="-1.84793">
        <ele>20</ele>
        <time>2018-04-21T23:46:07Z</time>
      </trkpt>
      <trkpt lat="46.61108" lon="-1.84792">
        <ele>20</ele>
        <time>2018-04-21T23:47:07Z</time>
      </trkpt>
      <trkpt lat="46.61107" lon="-1.84789">
        <ele>20</ele>
        <time>2018-04-21T23:48:07Z</time>
      </trkpt>
      <trkpt lat="46.61106" lon="-1.84787">
        <ele>20</ele>
        <time>2018-04-21T23:49:07Z</time>
      </trkpt>
      <trkpt lat="46.61105" lon="-1.84784">
        <ele>20</ele>
        <time>2018-04-21T23:50:07Z</time>
      </trkpt>
      <trkpt lat="46.61104" lon="-1.84781">
        <ele>20</ele>
        <time>2018-04-21T23:51:07Z</time>
      </trkpt>
      <trkpt lat="46.61104" lon="-1.84778">
        <ele>20</ele>
        <time>2018-04-21T23:52:07Z</time>
      </trkpt>
      <trkpt lat="46.61104" lon="-1.84775">
        <ele>20</ele>
        <time>2018-04-21T23:53:07Z</time>
      </trkpt>
      <trkpt lat="46.61104" lon="-1.84772">
        <ele>20</ele>
        <time>2018-04-21T23:54:07Z</time>
      </trkpt>
      <trkpt lat="46.61104" lon="-1.84769">
        <ele>20</ele>
        <time>2018-04-21T23:55:07Z</time>
      </trkpt>
      <trkpt lat="46.61104" lon="-1.84766">
        <ele>20</ele>
        <time>2018-04-21T23:56:07Z</time>
      </trkpt>
      <trkpt lat="46.61105" lon="-1.84763">
        <ele>20</ele>
        <time>2018-04-21T23:57:07Z</time>
      </trkpt>
      <trkpt lat="46.61106" lon="-1.8476">
        <ele>20</ele>
        <time>2018-04-21T23:58:07Z</time>
      </trkpt>
      <trkpt lat="46.61107" lon="-1.84758">
        <ele>20</ele>
        <time>2018-04-21T23:59:07Z</time>
      </trkpt>
      <trkpt lat="46.61108" lon="-1.84754">
        <ele>20</ele>
        <time>2018-04-22T00:00:07Z</time>
      </trkpt>
      <trkpt lat="46.61106" lon="-1.84746">
        <ele>20</ele>
        <time>2018-04-22T00:01:07Z</time>
      </trkpt>
      <trkpt lat="46.61105" lon="-1.8474">
        <ele>20</ele>
        <time>2018-04-22T00:02:07Z</time>
      </trkpt>
      <trkpt lat="46.611" lon="-1.84726">
        <ele>19</ele>
        <time>2018-04-22T00:03:07Z</time>
      </trkpt>
      <trkpt lat="46.61089" lon="-1.84707">
        <ele>19</ele>
        <time>2018-04-22T00:04:07Z</time>
      </trkpt>
      <trkpt lat="46.61083" lon="-1.84699">
        <ele>19</ele>
        <time>2018-04-22T00:05:07Z</time>
      </trkpt>
      <trkpt lat="46.61077" lon="-1.84693">
        <ele>19</ele>
        <time>2018-04-22T00:06:07Z</time>
      </trkpt>
      <trkpt lat="46.61072" lon="-1.84688">
        <ele>19</ele>
        <time>2018-04-22T00:07:07Z</time>
      </trkpt>
      <trkpt lat="46.61062" lon="-1.84679">
        <ele>19</ele>
        <time>2018-04-22T00:08:07Z</time>
      </trkpt>
      <trkpt lat="46.6105" lon="-1.8467">
        <ele>19</ele>
        <time>2018-04-22T00:09:07Z</time>
      </trkpt>
      <trkpt lat="46.61021" lon="-1.84645">
        <ele>19</ele>
        <time>2018-04-22T00:10:07Z</time>
      </trkpt>
      <trkpt lat="46.60999" lon="-1.84627">
        <ele>19</ele>
        <time>2018-04-22T00:11:07Z</time>
      </trkpt>
      <trkpt lat="46.60984" lon="-1.84615">
        <ele>18</ele>
        <time>2018-04-22T00:12:07Z</time>
      </trkpt>
      <trkpt lat="46.60963" lon="-1.84597">
        <ele>18</ele>
        <time>2018-04-22T00:13:07Z</time>
      </trkpt>
      <trkpt lat="46.60943" lon="-1.8458">
        <ele>16</ele>
        <time>2018-04-22T00:14:07Z</time>
      </trkpt>
      <trkpt lat="46.60936" lon="-1.84575">
        <ele>16</ele>
        <time>2018-04-22T00:15:07Z</time>
      </trkpt>
      <trkpt lat="46.60929" lon="-1.84568">
        <ele>16</ele>
        <time>2018-04-22T00:16:07Z</time>
      </trkpt>
      <trkpt lat="46.60922" lon="-1.84564">
        <ele>15</ele>
        <time>2018-04-22T00:17:07Z</time>
      </trkpt>
      <trkpt lat="46.60916" lon="-1.84559">
        <ele>15</ele>
        <time>2018-04-22T00:18:07Z</time>
      </trkpt>
      <trkpt lat="46.6091" lon="-1.84554">
        <ele>15</ele>
        <time>2018-04-22T00:19:07Z</time>
      </trkpt>
      <trkpt lat="46.60904" lon="-1.84548">
        <ele>14</ele>
        <time>2018-04-22T00:20:07Z</time>
      </trkpt>
      <trkpt lat="46.60883" lon="-1.84524">
        <ele>13</ele>
        <time>2018-04-22T00:21:07Z</time>
      </trkpt>
      <trkpt lat="46.60873" lon="-1.84511">
        <ele>13</ele>
        <time>2018-04-22T00:22:07Z</time>
      </trkpt>
      <trkpt lat="46.60862" lon="-1.84495">
        <ele>12</ele>
        <time>2018-04-22T00:23:07Z</time>
      </trkpt>
      <trkpt lat="46.60854" lon="-1.84485">
        <ele>12</ele>
        <time>2018-04-22T00:24:07Z</time>
      </trkpt>
      <trkpt lat="46.6084" lon="-1.84461">
        <ele>11</ele>
        <time>2018-04-22T00:25:07Z</time>
      </trkpt>
      <trkpt lat="46.60831" lon="-1.84444">
        <ele>11</ele>
        <time>2018-04-22T00:26:07Z</time>
      </trkpt>
      <trkpt lat="46.60824" lon="-1.84429">
        <ele>10</ele>
        <time>2018-04-22T00:27:07Z</time>
      </trkpt>
      <trkpt lat="46.60819" lon="-1.84416">
        <ele>9</ele>
        <time>2018-04-22T00:28:07Z</time>
      </trkpt>
      <trkpt lat="46.60817" lon="-1.84408">
        <ele>9</ele>
        <time>2018-04-22T00:29:07Z</time>
      </trkpt>
      <trkpt lat="46.60816" lon="-1.84403">
        <ele>9</ele>
        <time>2018-04-22T00:30:07Z</time>
      </trkpt>
      <trkpt lat="46.60813" lon="-1.84385">
        <ele>9</ele>
        <time>2018-04-22T00:31:07Z</time>
      </trkpt>
      <trkpt lat="46.60786" lon="-1.84277">
        <ele>7</ele>
        <time>2018-04-22T00:32:07Z</time>
      </trkpt>
      <trkpt lat="46.60743" lon="-1.84111">
        <ele>4</ele>
        <time>2018-04-22T00:33:07Z</time>
      </trkpt>
      <trkpt lat="46.60738" lon="-1.84102">
        <ele>4</ele>
        <time>2018-04-22T00:34:07Z</time>
      </trkpt>
      <trkpt lat="46.60723" lon="-1.84051">
        <ele>8</ele>
        <time>2018-04-22T00:35:07Z</time>
      </trkpt>
      <trkpt lat="46.60718" lon="-1.84029">
        <ele>8</ele>
        <time>2018-04-22T00:36:07Z</time>
      </trkpt>
      <trkpt lat="46.60718" lon="-1.84027">
        <ele>8</ele>
        <time>2018-04-22T00:37:07Z</time>
      </trkpt>
      <trkpt lat="46.60707" lon="-1.83989">
        <ele>11</ele>
        <time>2018-04-22T00:38:07Z</time>
      </trkpt>
      <trkpt lat="46.60701" lon="-1.83966">
        <ele>13</ele>
        <time>2018-04-22T00:39:07Z</time>
      </trkpt>
      <trkpt lat="46.60695" lon="-1.8394">
        <ele>15</ele>
        <time>2018-04-22T00:40:07Z</time>
      </trkpt>
      <trkpt lat="46.60685" lon="-1.83895">
        <ele>18</ele>
        <time>2018-04-22T00:41:07Z</time>
      </trkpt>
      <trkpt lat="46.60685" lon="-1.83884">
        <ele>18</ele>
        <time>2018-04-22T00:42:07Z</time>
      </trkpt>
      <trkpt lat="46.60681" lon="-1.83865">
        <ele>18</ele>
        <time>2018-04-22T00:43:07Z</time>
      </trkpt>
      <trkpt lat="46.60674" lon="-1.83841">
        <ele>18</ele>
        <time>2018-04-22T00:44:07Z</time>
      </trkpt>
      <trkpt lat="46.60669" lon="-1.83823">
        <ele>18</ele>
        <time>2018-04-22T00:45:07Z</time>
      </trkpt>
      <trkpt lat="46.60664" lon="-1.83802">
        <ele>18</ele>
        <time>2018-04-22T00:46:07Z</time>
      </trkpt>
      <trkpt lat="46.60655" lon="-1.83766">
        <ele>17</ele>
        <time>2018-04-22T00:47:07Z</time>
      </trkpt>
      <trkpt lat="46.60651" lon="-1.83748">
        <ele>17</ele>
        <time>2018-04-22T00:48:07Z</time>
      </trkpt>
      <trkpt lat="46.60646" lon="-1.83728">
        <ele>17</ele>
        <time>2018-04-22T00:49:07Z</time>
      </trkpt>
      <trkpt lat="46.6064" lon="-1.83701">
        <ele>17</ele>
        <time>2018-04-22T00:50:07Z</time>
      </trkpt>
      <trkpt lat="46.60631" lon="-1.83667">
        <ele>18</ele>
        <time>2018-04-22T00:51:07Z</time>
      </trkpt>
      <trkpt lat="46.60624" lon="-1.83638">
        <ele>18</ele>
        <time>2018-04-22T00:52:07Z</time>
      </trkpt>
      <trkpt lat="46.60617" lon="-1.8361">
        <ele>18</ele>
        <time>2018-04-22T00:53:07Z</time>
      </trkpt>
      <trkpt lat="46.60612" lon="-1.83592">
        <ele>18</ele>
        <time>2018-04-22T00:54:07Z</time>
      </trkpt>
      <trkpt lat="46.6061" lon="-1.83585">
        <ele>18</ele>
        <time>2018-04-22T00:55:07Z</time>
      </trkpt>
      <trkpt lat="46.60609" lon="-1.83583">
        <ele>18</ele>
        <time>2018-04-22T00:56:07Z</time>
      </trkpt>
      <trkpt lat="46.60606" lon="-1.83575">
        <ele>18</ele>
        <time>2018-04-22T00:57:07Z</time>
      </trkpt>
      <trkpt lat="46.60601" lon="-1.8355">
        <ele>19</ele>
        <time>2018-04-22T00:58:07Z</time>
      </trkpt>
      <trkpt lat="46.606" lon="-1.83549">
        <ele>19</ele>
        <time>2018-04-22T00:59:07Z</time>
      </trkpt>
      <trkpt lat="46.60599" lon="-1.83548">
        <ele>19</ele>
        <time>2018-04-22T01:00:07Z</time>
      </trkpt>
      <trkpt lat="46.60598" lon="-1.83547">
        <ele>19</ele>
        <time>2018-04-22T01:01:07Z</time>
      </trkpt>
      <trkpt lat="46.60597" lon="-1.83546">
        <ele>19</ele>
        <time>2018-04-22T01:02:07Z</time>
      </trkpt>
      <trkpt lat="46.60597" lon="-1.83545">
        <ele>19</ele>
        <time>2018-04-22T01:03:07Z</time>
      </trkpt>
      <trkpt lat="46.60596" lon="-1.83545">
        <ele>19</ele>
        <time>2018-04-22T01:04:07Z</time>
      </trkpt>
      <trkpt lat="46.60596" lon="-1.83544">
        <ele>19</ele>
        <time>2018-04-22T01:05:07Z</time>
      </trkpt>
      <trkpt lat="46.60596" lon="-1.83543">
        <ele>19</ele>
        <time>2018-04-22T01:06:07Z</time>
      </trkpt>
      <trkpt lat="46.60595" lon="-1.83542">
        <ele>19</ele>
        <time>2018-04-22T01:07:07Z</time>
      </trkpt>
      <trkpt lat="46.60595" lon="-1.83541">
        <ele>19</ele>
        <time>2018-04-22T01:08:07Z</time>
      </trkpt>
      <trkpt lat="46.60595" lon="-1.8354">
        <ele>19</ele>
        <time>2018-04-22T01:09:07Z</time>
      </trkpt>
      <trkpt lat="46.60594" lon="-1.8354">
        <ele>19</ele>
        <time>2018-04-22T01:10:07Z</time>
      </trkpt>
      <trkpt lat="46.60594" lon="-1.83539">
        <ele>19</ele>
        <time>2018-04-22T01:11:07Z</time>
      </trkpt>
      <trkpt lat="46.60594" lon="-1.83538">
        <ele>19</ele>
        <time>2018-04-22T01:12:07Z</time>
      </trkpt>
      <trkpt lat="46.60594" lon="-1.83537">
        <ele>19</ele>
        <time>2018-04-22T01:13:07Z</time>
      </trkpt>
      <trkpt lat="46.60594" lon="-1.83536">
        <ele>19</ele>
        <time>2018-04-22T01:14:07Z</time>
      </trkpt>
      <trkpt lat="46.60594" lon="-1.83535">
        <ele>19</ele>
        <time>2018-04-22T01:15:07Z</time>
      </trkpt>
      <trkpt lat="46.60594" lon="-1.83534">
        <ele>19</ele>
        <time>2018-04-22T01:16:07Z</time>
      </trkpt>
      <trkpt lat="46.60594" lon="-1.83533">
        <ele>19</ele>
        <time>2018-04-22T01:17:07Z</time>
      </trkpt>
      <trkpt lat="46.60594" lon="-1.83532">
        <ele>19</ele>
        <time>2018-04-22T01:18:07Z</time>
      </trkpt>
      <trkpt lat="46.60594" lon="-1.83531">
        <ele>19</ele>
        <time>2018-04-22T01:19:07Z</time>
      </trkpt>
      <trkpt lat="46.60595" lon="-1.8353">
        <ele>19</ele>
        <time>2018-04-22T01:20:07Z</time>
      </trkpt>
      <trkpt lat="46.60595" lon="-1.83529">
        <ele>19</ele>
        <time>2018-04-22T01:21:07Z</time>
      </trkpt>
      <trkpt lat="46.60595" lon="-1.83528">
        <ele>19</ele>
        <time>2018-04-22T01:22:07Z</time>
      </trkpt>
      <trkpt lat="46.60596" lon="-1.83527">
        <ele>19</ele>
        <time>2018-04-22T01:23:07Z</time>
      </trkpt>
      <trkpt lat="46.60596" lon="-1.83526">
        <ele>19</ele>
        <time>2018-04-22T01:24:07Z</time>
      </trkpt>
      <trkpt lat="46.60597" lon="-1.83525">
        <ele>20</ele>
        <time>2018-04-22T01:25:07Z</time>
      </trkpt>
      <trkpt lat="46.60597" lon="-1.83524">
        <ele>20</ele>
        <time>2018-04-22T01:26:07Z</time>
      </trkpt>
      <trkpt lat="46.60592" lon="-1.83501">
        <ele>20</ele>
        <time>2018-04-22T01:27:07Z</time>
      </trkpt>
      <trkpt lat="46.60591" lon="-1.83491">
        <ele>20</ele>
        <time>2018-04-22T01:28:07Z</time>
      </trkpt>
      <trkpt lat="46.6059" lon="-1.83484">
        <ele>20</ele>
        <time>2018-04-22T01:29:07Z</time>
      </trkpt>
      <trkpt lat="46.60583" lon="-1.83452">
        <ele>20</ele>
        <time>2018-04-22T01:30:07Z</time>
      </trkpt>
      <trkpt lat="46.60575" lon="-1.83408">
        <ele>20</ele>
        <time>2018-04-22T01:31:07Z</time>
      </trkpt>
      <trkpt lat="46.60568" lon="-1.83373">
        <ele>20</ele>
        <time>2018-04-22T01:32:07Z</time>
      </trkpt>
      <trkpt lat="46.60567" lon="-1.83367">
        <ele>20</ele>
        <time>2018-04-22T01:33:07Z</time>
      </trkpt>
      <trkpt lat="46.60564" lon="-1.83348">
        <ele>20</ele>
        <time>2018-04-22T01:34:07Z</time>
      </trkpt>
      <trkpt lat="46.60561" lon="-1.83337">
        <ele>21</ele>
        <time>2018-04-22T01:35:07Z</time>
      </trkpt>
      <trkpt lat="46.60561" lon="-1.83337">
        <ele>21</ele>
        <time>2018-04-22T01:36:07Z</time>
      </trkpt>
      <trkpt lat="46.60553" lon="-1.83325">
        <ele>20</ele>
        <time>2018-04-22T01:37:07Z</time>
      </trkpt>
      <trkpt lat="46.60541" lon="-1.83305">
        <ele>20</ele>
        <time>2018-04-22T01:38:07Z</time>
      </trkpt>
      <trkpt lat="46.60537" lon="-1.83298">
        <ele>19</ele>
        <time>2018-04-22T01:39:07Z</time>
      </trkpt>
      <trkpt lat="46.60534" lon="-1.83295">
        <ele>19</ele>
        <time>2018-04-22T01:40:07Z</time>
      </trkpt>
      <trkpt lat="46.60531" lon="-1.83291">
        <ele>19</ele>
        <time>2018-04-22T01:41:07Z</time>
      </trkpt>
      <trkpt lat="46.60524" lon="-1.83284">
        <ele>19</ele>
        <time>2018-04-22T01:42:07Z</time>
      </trkpt>
      <trkpt lat="46.60516" lon="-1.83278">
        <ele>18</ele>
        <time>2018-04-22T01:43:07Z</time>
      </trkpt>
      <trkpt lat="46.60506" lon="-1.83271">
        <ele>18</ele>
        <time>2018-04-22T01:44:07Z</time>
      </trkpt>
      <trkpt lat="46.60488" lon="-1.83261">
        <ele>17</ele>
        <time>2018-04-22T01:45:07Z</time>
      </trkpt>
      <trkpt lat="46.60463" lon="-1.83245">
        <ele>17</ele>
        <time>2018-04-22T01:46:07Z</time>
      </trkpt>
      <trkpt lat="46.60447" lon="-1.83233">
        <ele>16</ele>
        <time>2018-04-22T01:47:07Z</time>
      </trkpt>
      <trkpt lat="46.60435" lon="-1.83222">
        <ele>16</ele>
        <time>2018-04-22T01:48:07Z</time>
      </trkpt>
      <trkpt lat="46.60429" lon="-1.83214">
        <ele>16</ele>
        <time>2018-04-22T01:49:07Z</time>
      </trkpt>
      <trkpt lat="46.60424" lon="-1.83207">
        <ele>16</ele>
        <time>2018-04-22T01:50:07Z</time>
      </trkpt>
      <trkpt lat="46.60419" lon="-1.83197">
        <ele>16</ele>
        <time>2018-04-22T01:51:07Z</time>
      </trkpt>
      <trkpt lat="46.60413" lon="-1.83185">
        <ele>16</ele>
        <time>2018-04-22T01:52:07Z</time>
      </trkpt>
      <trkpt lat="46.60406" lon="-1.83164">
        <ele>16</ele>
        <time>2018-04-22T01:53:07Z</time>
      </trkpt>
      <trkpt lat="46.60399" lon="-1.8314">
        <ele>16</ele>
        <time>2018-04-22T01:54:07Z</time>
      </trkpt>
      <trkpt lat="46.60394" lon="-1.83125">
        <ele>17</ele>
        <time>2018-04-22T01:55:07Z</time>
      </trkpt>
      <trkpt lat="46.6039" lon="-1.83111">
        <ele>17</ele>
        <time>2018-04-22T01:56:07Z</time>
      </trkpt>
      <trkpt lat="46.60376" lon="-1.8307">
        <ele>18</ele>
        <time>2018-04-22T01:57:07Z</time>
      </trkpt>
      <trkpt lat="46.6037" lon="-1.83056">
        <ele>18</ele>
        <time>2018-04-22T01:58:07Z</time>
      </trkpt>
      <trkpt lat="46.60366" lon="-1.83044">
        <ele>18</ele>
        <time>2018-04-22T01:59:07Z</time>
      </trkpt>
      <trkpt lat="46.60362" lon="-1.83033">
        <ele>19</ele>
        <time>2018-04-22T02:00:07Z</time>
      </trkpt>
      <trkpt lat="46.6036" lon="-1.8302">
        <ele>19</ele>
        <time>2018-04-22T02:01:07Z</time>
      </trkpt>
      <trkpt lat="46.60359" lon="-1.83012">
        <ele>19</ele>
        <time>2018-04-22T02:02:07Z</time>
      </trkpt>
      <trkpt lat="46.60358" lon="-1.83006">
        <ele>19</ele>
        <time>2018-04-22T02:03:07Z</time>
      </trkpt>
      <trkpt lat="46.60358" lon="-1.83006">
        <ele>19</ele>
        <time>2018-04-22T02:04:07Z</time>
      </trkpt>
      <trkpt lat="46.60357" lon="-1.83006">
        <ele>19</ele>
        <time>2018-04-22T02:05:07Z</time>
      </trkpt>
      <trkpt lat="46.60357" lon="-1.83007">
        <ele>19</ele>
        <time>2018-04-22T02:06:07Z</time>
      </trkpt>
      <trkpt lat="46.60356" lon="-1.83007">
        <ele>19</ele>
        <time>2018-04-22T02:07:07Z</time>
      </trkpt>
      <trkpt lat="46.60355" lon="-1.83007">
        <ele>19</ele>
        <time>2018-04-22T02:08:07Z</time>
      </trkpt>
      <trkpt lat="46.60354" lon="-1.83006">
        <ele>19</ele>
        <time>2018-04-22T02:09:07Z</time>
      </trkpt>
      <trkpt lat="46.60353" lon="-1.83006">
        <ele>19</ele>
        <time>2018-04-22T02:10:07Z</time>
      </trkpt>
      <trkpt lat="46.60352" lon="-1.83006">
        <ele>19</ele>
        <time>2018-04-22T02:11:07Z</time>
      </trkpt>
      <trkpt lat="46.60352" lon="-1.83005">
        <ele>19</ele>
        <time>2018-04-22T02:12:07Z</time>
      </trkpt>
      <trkpt lat="46.60351" lon="-1.83005">
        <ele>19</ele>
        <time>2018-04-22T02:13:07Z</time>
      </trkpt>
      <trkpt lat="46.60351" lon="-1.83004">
        <ele>19</ele>
        <time>2018-04-22T02:14:07Z</time>
      </trkpt>
      <trkpt lat="46.6035" lon="-1.83004">
        <ele>19</ele>
        <time>2018-04-22T02:15:07Z</time>
      </trkpt>
      <trkpt lat="46.6035" lon="-1.83003">
        <ele>19</ele>
        <time>2018-04-22T02:16:07Z</time>
      </trkpt>
      <trkpt lat="46.60349" lon="-1.83003">
        <ele>19</ele>
        <time>2018-04-22T02:17:07Z</time>
      </trkpt>
      <trkpt lat="46.60349" lon="-1.83002">
        <ele>19</ele>
        <time>2018-04-22T02:18:07Z</time>
      </trkpt>
      <trkpt lat="46.60344" lon="-1.83001">
        <ele>19</ele>
        <time>2018-04-22T02:19:07Z</time>
      </trkpt>
      <trkpt lat="46.6034" lon="-1.83">
        <ele>19</ele>
        <time>2018-04-22T02:20:07Z</time>
      </trkpt>
      <trkpt lat="46.60335" lon="-1.82998">
        <ele>19</ele>
        <time>2018-04-22T02:21:07Z</time>
      </trkpt>
      <trkpt lat="46.60322" lon="-1.82995">
        <ele>19</ele>
        <time>2018-04-22T02:22:07Z</time>
      </trkpt>
      <trkpt lat="46.60319" lon="-1.82994">
        <ele>19</ele>
        <time>2018-04-22T02:23:07Z</time>
      </trkpt>
      <trkpt lat="46.60312" lon="-1.82994">
        <ele>18</ele>
        <time>2018-04-22T02:24:07Z</time>
      </trkpt>
      <trkpt lat="46.60303" lon="-1.82995">
        <ele>18</ele>
        <time>2018-04-22T02:25:07Z</time>
      </trkpt>
      <trkpt lat="46.6029" lon="-1.82997">
        <ele>18</ele>
        <time>2018-04-22T02:26:07Z</time>
      </trkpt>
      <trkpt lat="46.60268" lon="-1.83001">
        <ele>17</ele>
        <time>2018-04-22T02:27:07Z</time>
      </trkpt>
      <trkpt lat="46.60261" lon="-1.83003">
        <ele>17</ele>
        <time>2018-04-22T02:28:07Z</time>
      </trkpt>
      <trkpt lat="46.60251" lon="-1.83007">
        <ele>17</ele>
        <time>2018-04-22T02:29:07Z</time>
      </trkpt>
      <trkpt lat="46.6024" lon="-1.83014">
        <ele>17</ele>
        <time>2018-04-22T02:30:07Z</time>
      </trkpt>
      <trkpt lat="46.60213" lon="-1.83031">
        <ele>17</ele>
        <time>2018-04-22T02:31:07Z</time>
      </trkpt>
      <trkpt lat="46.60188" lon="-1.83048">
        <ele>17</ele>
        <time>2018-04-22T02:32:07Z</time>
      </trkpt>
      <trkpt lat="46.60164" lon="-1.83065">
        <ele>16</ele>
        <time>2018-04-22T02:33:07Z</time>
      </trkpt>
      <trkpt lat="46.60151" lon="-1.83073">
        <ele>16</ele>
        <time>2018-04-22T02:34:07Z</time>
      </trkpt>
      <trkpt lat="46.60137" lon="-1.83081">
        <ele>15</ele>
        <time>2018-04-22T02:35:07Z</time>
      </trkpt>
      <trkpt lat="46.60123" lon="-1.83087">
        <ele>15</ele>
        <time>2018-04-22T02:36:07Z</time>
      </trkpt>
      <trkpt lat="46.60116" lon="-1.83089">
        <ele>15</ele>
        <time>2018-04-22T02:37:07Z</time>
      </trkpt>
      <trkpt lat="46.60098" lon="-1.83094">
        <ele>14</ele>
        <time>2018-04-22T02:38:07Z</time>
      </trkpt>
      <trkpt lat="46.60078" lon="-1.83094">
        <ele>14</ele>
        <time>2018-04-22T02:39:07Z</time>
      </trkpt>
      <trkpt lat="46.60045" lon="-1.83092">
        <ele>12</ele>
        <time>2018-04-22T02:40:07Z</time>
      </trkpt>
      <trkpt lat="46.60038" lon="-1.83091">
        <ele>12</ele>
        <time>2018-04-22T02:41:07Z</time>
      </trkpt>
      <trkpt lat="46.60027" lon="-1.8309">
        <ele>12</ele>
        <time>2018-04-22T02:42:07Z</time>
      </trkpt>
      <trkpt lat="46.60002" lon="-1.83088">
        <ele>11</ele>
        <time>2018-04-22T02:43:07Z</time>
      </trkpt>
      <trkpt lat="46.59975" lon="-1.83086">
        <ele>10</ele>
        <time>2018-04-22T02:44:07Z</time>
      </trkpt>
      <trkpt lat="46.59961" lon="-1.83087">
        <ele>10</ele>
        <time>2018-04-22T02:45:07Z</time>
      </trkpt>
      <trkpt lat="46.59937" lon="-1.8309">
        <ele>9</ele>
        <time>2018-04-22T02:46:07Z</time>
      </trkpt>
      <trkpt lat="46.59914" lon="-1.83098">
        <ele>9</ele>
        <time>2018-04-22T02:47:07Z</time>
      </trkpt>
      <trkpt lat="46.59891" lon="-1.83106">
        <ele>8</ele>
        <time>2018-04-22T02:48:07Z</time>
      </trkpt>
      <trkpt lat="46.59864" lon="-1.83116">
        <ele>7</ele>
        <time>2018-04-22T02:49:07Z</time>
      </trkpt>
      <trkpt lat="46.59836" lon="-1.83129">
        <ele>6</ele>
        <time>2018-04-22T02:50:07Z</time>
      </trkpt>
      <trkpt lat="46.59806" lon="-1.83144">
        <ele>5</ele>
        <time>2018-04-22T02:51:07Z</time>
      </trkpt>
      <trkpt lat="46.59792" lon="-1.83152">
        <ele>5</ele>
        <time>2018-04-22T02:52:07Z</time>
      </trkpt>
      <trkpt lat="46.59777" lon="-1.83161">
        <ele>5</ele>
        <time>2018-04-22T02:53:07Z</time>
      </trkpt>
      <trkpt lat="46.59774" lon="-1.83162">
        <ele>5</ele>
        <time>2018-04-22T02:54:07Z</time>
      </trkpt>
      <trkpt lat="46.59759" lon="-1.83171">
        <ele>5</ele>
        <time>2018-04-22T02:55:07Z</time>
      </trkpt>
      <trkpt lat="46.59742" lon="-1.83179">
        <ele>5</ele>
        <time>2018-04-22T02:56:07Z</time>
      </trkpt>
      <trkpt lat="46.59733" lon="-1.83185">
        <ele>5</ele>
        <time>2018-04-22T02:57:07Z</time>
      </trkpt>
      <trkpt lat="46.59719" lon="-1.83192">
        <ele>4</ele>
        <time>2018-04-22T02:58:07Z</time>
      </trkpt>
      <trkpt lat="46.59696" lon="-1.83207">
        <ele>4</ele>
        <time>2018-04-22T02:59:07Z</time>
      </trkpt>
      <trkpt lat="46.59667" lon="-1.83226">
        <ele>4</ele>
        <time>2018-04-22T03:00:07Z</time>
      </trkpt>
      <trkpt lat="46.59628" lon="-1.83252">
        <ele>4</ele>
        <time>2018-04-22T03:01:07Z</time>
      </trkpt>
      <trkpt lat="46.59574" lon="-1.83287">
        <ele>4</ele>
        <time>2018-04-22T03:02:07Z</time>
      </trkpt>
      <trkpt lat="46.59573" lon="-1.83288">
        <ele>4</ele>
        <time>2018-04-22T03:03:07Z</time>
      </trkpt>
      <trkpt lat="46.59539" lon="-1.83311">
        <ele>4</ele>
        <time>2018-04-22T03:04:07Z</time>
      </trkpt>
      <trkpt lat="46.59527" lon="-1.83316">
        <ele>3</ele>
        <time>2018-04-22T03:05:07Z</time>
      </trkpt>
      <trkpt lat="46.59525" lon="-1.83318">
        <ele>3</ele>
        <time>2018-04-22T03:06:07Z</time>
      </trkpt>
      <trkpt lat="46.59518" lon="-1.83322">
        <ele>3</ele>
        <time>2018-04-22T03:07:07Z</time>
      </trkpt>
      <trkpt lat="46.59518" lon="-1.83322">
        <ele>3</ele>
        <time>2018-04-22T03:08:07Z</time>
      </trkpt>
      <trkpt lat="46.59489" lon="-1.83342">
        <ele>3</ele>
        <time>2018-04-22T03:09:07Z</time>
      </trkpt>
      <trkpt lat="46.59483" lon="-1.83345">
        <ele>3</ele>
        <time>2018-04-22T03:10:07Z</time>
      </trkpt>
      <trkpt lat="46.59481" lon="-1.83347">
        <ele>2</ele>
        <time>2018-04-22T03:11:07Z</time>
      </trkpt>
      <trkpt lat="46.5946" lon="-1.8336">
        <ele>2</ele>
        <time>2018-04-22T03:12:07Z</time>
      </trkpt>
      <trkpt lat="46.59444" lon="-1.8337">
        <ele>2</ele>
        <time>2018-04-22T03:13:07Z</time>
      </trkpt>
      <trkpt lat="46.59444" lon="-1.83371">
        <ele>2</ele>
        <time>2018-04-22T03:14:07Z</time>
      </trkpt>
      <trkpt lat="46.59439" lon="-1.83374">
        <ele>2</ele>
        <time>2018-04-22T03:15:07Z</time>
      </trkpt>
      <trkpt lat="46.59433" lon="-1.83375">
        <ele>2</ele>
        <time>2018-04-22T03:16:07Z</time>
      </trkpt>
      <trkpt lat="46.59425" lon="-1.83376">
        <ele>2</ele>
        <time>2018-04-22T03:17:07Z</time>
      </trkpt>
      <trkpt lat="46.59415" lon="-1.83374">
        <ele>2</ele>
        <time>2018-04-22T03:18:07Z</time>
      </trkpt>
      <trkpt lat="46.59404" lon="-1.83368">
        <ele>2</ele>
        <time>2018-04-22T03:19:07Z</time>
      </trkpt>
      <trkpt lat="46.59394" lon="-1.83361">
        <ele>2</ele>
        <time>2018-04-22T03:20:07Z</time>
      </trkpt>
      <trkpt lat="46.59382" lon="-1.83355">
        <ele>2</ele>
        <time>2018-04-22T03:21:07Z</time>
      </trkpt>
      <trkpt lat="46.59373" lon="-1.8335">
        <ele>2</ele>
        <time>2018-04-22T03:22:07Z</time>
      </trkpt>
      <trkpt lat="46.59357" lon="-1.83342">
        <ele>2</ele>
        <time>2018-04-22T03:23:07Z</time>
      </trkpt>
      <trkpt lat="46.59343" lon="-1.83336">
        <ele>2</ele>
        <time>2018-04-22T03:24:07Z</time>
      </trkpt>
      <trkpt lat="46.59325" lon="-1.8333">
        <ele>2</ele>
        <time>2018-04-22T03:25:07Z</time>
      </trkpt>
      <trkpt lat="46.59305" lon="-1.83323">
        <ele>2</ele>
        <time>2018-04-22T03:26:07Z</time>
      </trkpt>
      <trkpt lat="46.59287" lon="-1.83319">
        <ele>2</ele>
        <time>2018-04-22T03:27:07Z</time>
      </trkpt>
      <trkpt lat="46.59273" lon="-1.83318">
        <ele>2</ele>
        <time>2018-04-22T03:28:07Z</time>
      </trkpt>
      <trkpt lat="46.5926" lon="-1.83318">
        <ele>2</ele>
        <time>2018-04-22T03:29:07Z</time>
      </trkpt>
      <trkpt lat="46.5925" lon="-1.83319">
        <ele>2</ele>
        <time>2018-04-22T03:30:07Z</time>
      </trkpt>
      <trkpt lat="46.59239" lon="-1.83321">
        <ele>2</ele>
        <time>2018-04-22T03:31:07Z</time>
      </trkpt>
      <trkpt lat="46.59227" lon="-1.83323">
        <ele>2</ele>
        <time>2018-04-22T03:32:07Z</time>
      </trkpt>
      <trkpt lat="46.59218" lon="-1.83322">
        <ele>2</ele>
        <time>2018-04-22T03:33:07Z</time>
      </trkpt>
      <trkpt lat="46.59208" lon="-1.83322">
        <ele>3</ele>
        <time>2018-04-22T03:34:07Z</time>
      </trkpt>
      <trkpt lat="46.592" lon="-1.8332">
        <ele>3</ele>
        <time>2018-04-22T03:35:07Z</time>
      </trkpt>
      <trkpt lat="46.59197" lon="-1.8332">
        <ele>3</ele>
        <time>2018-04-22T03:36:07Z</time>
      </trkpt>
      <trkpt lat="46.59183" lon="-1.83316">
        <ele>3</ele>
        <time>2018-04-22T03:37:07Z</time>
      </trkpt>
      <trkpt lat="46.5918" lon="-1.83315">
        <ele>3</ele>
        <time>2018-04-22T03:38:07Z</time>
      </trkpt>
      <trkpt lat="46.59167" lon="-1.8331">
        <ele>4</ele>
        <time>2018-04-22T03:39:07Z</time>
      </trkpt>
      <trkpt lat="46.59152" lon="-1.83305">
        <ele>4</ele>
        <time>2018-04-22T03:40:07Z</time>
      </trkpt>
      <trkpt lat="46.59104" lon="-1.83289">
        <ele>6</ele>
        <time>2018-04-22T03:41:07Z</time>
      </trkpt>
      <trkpt lat="46.59038" lon="-1.83265">
        <ele>8</ele>
        <time>2018-04-22T03:42:07Z</time>
      </trkpt>
      <trkpt lat="46.59026" lon="-1.83261">
        <ele>9</ele>
        <time>2018-04-22T03:43:07Z</time>
      </trkpt>
      <trkpt lat="46.58982" lon="-1.83247">
        <ele>9</ele>
        <time>2018-04-22T03:44:07Z</time>
      </trkpt>
      <trkpt lat="46.58924" lon="-1.83227">
        <ele>10</ele>
        <time>2018-04-22T03:45:07Z</time>
      </trkpt>
      <trkpt lat="46.58882" lon="-1.83213">
        <ele>10</ele>
        <time>2018-04-22T03:46:07Z</time>
      </trkpt>
      <trkpt lat="46.58877" lon="-1.83211">
        <ele>9</ele>
        <time>2018-04-22T03:47:07Z</time>
      </trkpt>
      <trkpt lat="46.58849" lon="-1.83199">
        <ele>8</ele>
        <time>2018-04-22T03:48:07Z</time>
      </trkpt>
      <trkpt lat="46.58838" lon="-1.83193">
        <ele>8</ele>
        <time>2018-04-22T03:49:07Z</time>
      </trkpt>
      <trkpt lat="46.58829" lon="-1.83184">
        <ele>7</ele>
        <time>2018-04-22T03:50:07Z</time>
      </trkpt>
      <trkpt lat="46.58817" lon="-1.83173">
        <ele>7</ele>
        <time>2018-04-22T03:51:07Z</time>
      </trkpt>
      <trkpt lat="46.58808" lon="-1.83158">
        <ele>7</ele>
        <time>2018-04-22T03:52:07Z</time>
      </trkpt>
      <trkpt lat="46.58802" lon="-1.83149">
        <ele>7</ele>
        <time>2018-04-22T03:53:07Z</time>
      </trkpt>
      <trkpt lat="46.58793" lon="-1.83129">
        <ele>7</ele>
        <time>2018-04-22T03:54:07Z</time>
      </trkpt>
      <trkpt lat="46.58783" lon="-1.83109">
        <ele>6</ele>
        <time>2018-04-22T03:55:07Z</time>
      </trkpt>
      <trkpt lat="46.58772" lon="-1.83083">
        <ele>6</ele>
        <time>2018-04-22T03:56:07Z</time>
      </trkpt>
      <trkpt lat="46.58759" lon="-1.83057">
        <ele>7</ele>
        <time>2018-04-22T03:57:07Z</time>
      </trkpt>
      <trkpt lat="46.58742" lon="-1.83022">
        <ele>8</ele>
        <time>2018-04-22T03:58:07Z</time>
      </trkpt>
      <trkpt lat="46.58725" lon="-1.8299">
        <ele>9</ele>
        <time>2018-04-22T03:59:07Z</time>
      </trkpt>
      <trkpt lat="46.5871" lon="-1.82964">
        <ele>10</ele>
        <time>2018-04-22T04:00:07Z</time>
      </trkpt>
      <trkpt lat="46.58701" lon="-1.8295">
        <ele>11</ele>
        <time>2018-04-22T04:01:07Z</time>
      </trkpt>
      <trkpt lat="46.58694" lon="-1.82943">
        <ele>11</ele>
        <time>2018-04-22T04:02:07Z</time>
      </trkpt>
      <trkpt lat="46.58685" lon="-1.82933">
        <ele>12</ele>
        <time>2018-04-22T04:03:07Z</time>
      </trkpt>
      <trkpt lat="46.5868" lon="-1.82928">
        <ele>12</ele>
        <time>2018-04-22T04:04:07Z</time>
      </trkpt>
      <trkpt lat="46.58673" lon="-1.82918">
        <ele>12</ele>
        <time>2018-04-22T04:05:07Z</time>
      </trkpt>
      <trkpt lat="46.58667" lon="-1.82912">
        <ele>13</ele>
        <time>2018-04-22T04:06:07Z</time>
      </trkpt>
      <trkpt lat="46.58661" lon="-1.82906">
        <ele>13</ele>
        <time>2018-04-22T04:07:07Z</time>
      </trkpt>
      <trkpt lat="46.5865" lon="-1.82895">
        <ele>13</ele>
        <time>2018-04-22T04:08:07Z</time>
      </trkpt>
      <trkpt lat="46.58638" lon="-1.82883">
        <ele>12</ele>
        <time>2018-04-22T04:09:07Z</time>
      </trkpt>
      <trkpt lat="46.58624" lon="-1.8287">
        <ele>12</ele>
        <time>2018-04-22T04:10:07Z</time>
      </trkpt>
      <trkpt lat="46.58597" lon="-1.82858">
        <ele>12</ele>
        <time>2018-04-22T04:11:07Z</time>
      </trkpt>
      <trkpt lat="46.58572" lon="-1.82846">
        <ele>12</ele>
        <time>2018-04-22T04:12:07Z</time>
      </trkpt>
      <trkpt lat="46.58558" lon="-1.82838">
        <ele>12</ele>
        <time>2018-04-22T04:13:07Z</time>
      </trkpt>
      <trkpt lat="46.58558" lon="-1.82838">
        <ele>12</ele>
        <time>2018-04-22T04:14:07Z</time>
      </trkpt>
      <trkpt lat="46.58541" lon="-1.82827">
        <ele>11</ele>
        <time>2018-04-22T04:15:07Z</time>
      </trkpt>
      <trkpt lat="46.58531" lon="-1.82818">
        <ele>11</ele>
        <time>2018-04-22T04:16:07Z</time>
      </trkpt>
      <trkpt lat="46.58514" lon="-1.82801">
        <ele>10</ele>
        <time>2018-04-22T04:17:07Z</time>
      </trkpt>
      <trkpt lat="46.58497" lon="-1.82781">
        <ele>9</ele>
        <time>2018-04-22T04:18:07Z</time>
      </trkpt>
      <trkpt lat="46.58479" lon="-1.8276">
        <ele>8</ele>
        <time>2018-04-22T04:19:07Z</time>
      </trkpt>
      <trkpt lat="46.58472" lon="-1.82752">
        <ele>7</ele>
        <time>2018-04-22T04:20:07Z</time>
      </trkpt>
      <trkpt lat="46.58468" lon="-1.82747">
        <ele>7</ele>
        <time>2018-04-22T04:21:07Z</time>
      </trkpt>
      <trkpt lat="46.58452" lon="-1.82728">
        <ele>7</ele>
        <time>2018-04-22T04:22:07Z</time>
      </trkpt>
      <trkpt lat="46.58434" lon="-1.82707">
        <ele>6</ele>
        <time>2018-04-22T04:23:07Z</time>
      </trkpt>
      <trkpt lat="46.58412" lon="-1.82682">
        <ele>6</ele>
        <time>2018-04-22T04:24:07Z</time>
      </trkpt>
      <trkpt lat="46.58409" lon="-1.82678">
        <ele>6</ele>
        <time>2018-04-22T04:25:07Z</time>
      </trkpt>
      <trkpt lat="46.584" lon="-1.8267">
        <ele>6</ele>
        <time>2018-04-22T04:26:07Z</time>
      </trkpt>
      <trkpt lat="46.58393" lon="-1.8266">
        <ele>6</ele>
        <time>2018-04-22T04:27:07Z</time>
      </trkpt>
      <trkpt lat="46.58374" lon="-1.82637">
        <ele>7</ele>
        <time>2018-04-22T04:28:07Z</time>
      </trkpt>
      <trkpt lat="46.58352" lon="-1.82614">
        <ele>7</ele>
        <time>2018-04-22T04:29:07Z</time>
      </trkpt>
      <trkpt lat="46.58323" lon="-1.82579">
        <ele>8</ele>
        <time>2018-04-22T04:30:07Z</time>
      </trkpt>
      <trkpt lat="46.5829" lon="-1.82541">
        <ele>8</ele>
        <time>2018-04-22T04:31:07Z</time>
      </trkpt>
      <trkpt lat="46.58249" lon="-1.82493">
        <ele>9</ele>
        <time>2018-04-22T04:32:07Z</time>
      </trkpt>
      <trkpt lat="46.58232" lon="-1.82473">
        <ele>9</ele>
        <time>2018-04-22T04:33:07Z</time>
      </trkpt>
      <trkpt lat="46.58206" lon="-1.82442">
        <ele>10</ele>
        <time>2018-04-22T04:34:07Z</time>
      </trkpt>
      <trkpt lat="46.58189" lon="-1.82426">
        <ele>11</ele>
        <time>2018-04-22T04:35:07Z</time>
      </trkpt>
      <trkpt lat="46.58176" lon="-1.82414">
        <ele>11</ele>
        <time>2018-04-22T04:36:07Z</time>
      </trkpt>
      <trkpt lat="46.58164" lon="-1.82406">
        <ele>12</ele>
        <time>2018-04-22T04:37:07Z</time>
      </trkpt>
      <trkpt lat="46.58154" lon="-1.824">
        <ele>12</ele>
        <time>2018-04-22T04:38:07Z</time>
      </trkpt>
      <trkpt lat="46.58144" lon="-1.82394">
        <ele>12</ele>
        <time>2018-04-22T04:39:07Z</time>
      </trkpt>
      <trkpt lat="46.5813" lon="-1.8239">
        <ele>12</ele>
        <time>2018-04-22T04:40:07Z</time>
      </trkpt>
      <trkpt lat="46.58114" lon="-1.82384">
        <ele>12</ele>
        <time>2018-04-22T04:41:07Z</time>
      </trkpt>
      <trkpt lat="46.58096" lon="-1.82377">
        <ele>12</ele>
        <time>2018-04-22T04:42:07Z</time>
      </trkpt>
      <trkpt lat="46.58066" lon="-1.82367">
        <ele>11</ele>
        <time>2018-04-22T04:43:07Z</time>
      </trkpt>
      <trkpt lat="46.58021" lon="-1.82352">
        <ele>10</ele>
        <time>2018-04-22T04:44:07Z</time>
      </trkpt>
      <trkpt lat="46.57969" lon="-1.82334">
        <ele>10</ele>
        <time>2018-04-22T04:45:07Z</time>
      </trkpt>
      <trkpt lat="46.57932" lon="-1.82322">
        <ele>11</ele>
        <time>2018-04-22T04:46:07Z</time>
      </trkpt>
      <trkpt lat="46.57913" lon="-1.82317">
        <ele>11</ele>
        <time>2018-04-22T04:47:07Z</time>
      </trkpt>
      <trkpt lat="46.57889" lon="-1.82311">
        <ele>11</ele>
        <time>2018-04-22T04:48:07Z</time>
      </trkpt>
      <trkpt lat="46.57868" lon="-1.82304">
        <ele>11</ele>
        <time>2018-04-22T04:49:07Z</time>
      </trkpt>
      <trkpt lat="46.57846" lon="-1.82299">
        <ele>10</ele>
        <time>2018-04-22T04:50:07Z</time>
      </trkpt>
      <trkpt lat="46.57825" lon="-1.82295">
        <ele>10</ele>
        <time>2018-04-22T04:51:07Z</time>
      </trkpt>
      <trkpt lat="46.57807" lon="-1.82293">
        <ele>10</ele>
        <time>2018-04-22T04:52:07Z</time>
      </trkpt>
      <trkpt lat="46.57793" lon="-1.82291">
        <ele>10</ele>
        <time>2018-04-22T04:53:07Z</time>
      </trkpt>
      <trkpt lat="46.57776" lon="-1.8229">
        <ele>10</ele>
        <time>2018-04-22T04:54:07Z</time>
      </trkpt>
      <trkpt lat="46.57752" lon="-1.8229">
        <ele>10</ele>
        <time>2018-04-22T04:55:07Z</time>
      </trkpt>
      <trkpt lat="46.57736" lon="-1.8229">
        <ele>10</ele>
        <time>2018-04-22T04:56:07Z</time>
      </trkpt>
      <trkpt lat="46.57726" lon="-1.82291">
        <ele>10</ele>
        <time>2018-04-22T04:57:07Z</time>
      </trkpt>
      <trkpt lat="46.57687" lon="-1.82294">
        <ele>11</ele>
        <time>2018-04-22T04:58:07Z</time>
      </trkpt>
      <trkpt lat="46.57636" lon="-1.82299">
        <ele>12</ele>
        <time>2018-04-22T04:59:07Z</time>
      </trkpt>
      <trkpt lat="46.57631" lon="-1.823">
        <ele>12</ele>
        <time>2018-04-22T05:00:07Z</time>
      </trkpt>
      <trkpt lat="46.5763" lon="-1.823">
        <ele>12</ele>
        <time>2018-04-22T05:01:07Z</time>
      </trkpt>
      <trkpt lat="46.57625" lon="-1.82301">
        <ele>12</ele>
        <time>2018-04-22T05:02:07Z</time>
      </trkpt>
      <trkpt lat="46.57618" lon="-1.82301">
        <ele>12</ele>
        <time>2018-04-22T05:03:07Z</time>
      </trkpt>
      <trkpt lat="46.57582" lon="-1.82304">
        <ele>13</ele>
        <time>2018-04-22T05:04:07Z</time>
      </trkpt>
      <trkpt lat="46.5756" lon="-1.82306">
        <ele>13</ele>
        <time>2018-04-22T05:05:07Z</time>
      </trkpt>
      <trkpt lat="46.57491" lon="-1.82313">
        <ele>13</ele>
        <time>2018-04-22T05:06:07Z</time>
      </trkpt>
      <trkpt lat="46.57416" lon="-1.8232">
        <ele>13</ele>
        <time>2018-04-22T05:07:07Z</time>
      </trkpt>
      <trkpt lat="46.57385" lon="-1.82323">
        <ele>13</ele>
        <time>2018-04-22T05:08:07Z</time>
      </trkpt>
      <trkpt lat="46.57364" lon="-1.82325">
        <ele>13</ele>
        <time>2018-04-22T05:09:07Z</time>
      </trkpt>
      <trkpt lat="46.57347" lon="-1.82326">
        <ele>13</ele>
        <time>2018-04-22T05:10:07Z</time>
      </trkpt>
      <trkpt lat="46.5733" lon="-1.82327">
        <ele>13</ele>
        <time>2018-04-22T05:11:07Z</time>
      </trkpt>
      <trkpt lat="46.57315" lon="-1.82327">
        <ele>13</ele>
        <time>2018-04-22T05:12:07Z</time>
      </trkpt>
      <trkpt lat="46.57301" lon="-1.82325">
        <ele>12</ele>
        <time>2018-04-22T05:13:07Z</time>
      </trkpt>
      <trkpt lat="46.57284" lon="-1.82322">
        <ele>12</ele>
        <time>2018-04-22T05:14:07Z</time>
      </trkpt>
      <trkpt lat="46.5727" lon="-1.82318">
        <ele>12</ele>
        <time>2018-04-22T05:15:07Z</time>
      </trkpt>
      <trkpt lat="46.57256" lon="-1.82312">
        <ele>12</ele>
        <time>2018-04-22T05:16:07Z</time>
      </trkpt>
      <trkpt lat="46.57254" lon="-1.82311">
        <ele>12</ele>
        <time>2018-04-22T05:17:07Z</time>
      </trkpt>
      <trkpt lat="46.57242" lon="-1.82306">
        <ele>12</ele>
        <time>2018-04-22T05:18:07Z</time>
      </trkpt>
      <trkpt lat="46.57224" lon="-1.82297">
        <ele>12</ele>
        <time>2018-04-22T05:19:07Z</time>
      </trkpt>
      <trkpt lat="46.57207" lon="-1.82284">
        <ele>12</ele>
        <time>2018-04-22T05:20:07Z</time>
      </trkpt>
      <trkpt lat="46.57182" lon="-1.82265">
        <ele>12</ele>
        <time>2018-04-22T05:21:07Z</time>
      </trkpt>
      <trkpt lat="46.57167" lon="-1.82252">
        <ele>12</ele>
        <time>2018-04-22T05:22:07Z</time>
      </trkpt>
      <trkpt lat="46.57145" lon="-1.82234">
        <ele>12</ele>
        <time>2018-04-22T05:23:07Z</time>
      </trkpt>
      <trkpt lat="46.57145" lon="-1.82234">
        <ele>12</ele>
        <time>2018-04-22T05:24:07Z</time>
      </trkpt>
      <trkpt lat="46.57116" lon="-1.82209">
        <ele>11</ele>
        <time>2018-04-22T05:25:07Z</time>
      </trkpt>
      <trkpt lat="46.57081" lon="-1.82179">
        <ele>9</ele>
        <time>2018-04-22T05:26:07Z</time>
      </trkpt>
      <trkpt lat="46.57032" lon="-1.82138">
        <ele>10</ele>
        <time>2018-04-22T05:27:07Z</time>
      </trkpt>
      <trkpt lat="46.5701" lon="-1.82118">
        <ele>10</ele>
        <time>2018-04-22T05:28:07Z</time>
      </trkpt>
      <trkpt lat="46.56995" lon="-1.82105">
        <ele>10</ele>
        <time>2018-04-22T05:29:07Z</time>
      </trkpt>
      <trkpt lat="46.56918" lon="-1.82046">
        <ele>12</ele>
        <time>2018-04-22T05:30:07Z</time>
      </trkpt>
      <trkpt lat="46.56833" lon="-1.81994">
        <ele>13</ele>
        <time>2018-04-22T05:31:07Z</time>
      </trkpt>
      <trkpt lat="46.5681" lon="-1.81976">
        <ele>12</ele>
        <time>2018-04-22T05:32:07Z</time>
      </trkpt>
      <trkpt lat="46.56783" lon="-1.81952">
        <ele>11</ele>
        <time>2018-04-22T05:33:07Z</time>
      </trkpt>
      <trkpt lat="46.56761" lon="-1.81932">
        <ele>11</ele>
        <time>2018-04-22T05:34:07Z</time>
      </trkpt>
      <trkpt lat="46.56741" lon="-1.81914">
        <ele>12</ele>
        <time>2018-04-22T05:35:07Z</time>
      </trkpt>
      <trkpt lat="46.56685" lon="-1.81861">
        <ele>15</ele>
        <time>2018-04-22T05:36:07Z</time>
      </trkpt>
      <trkpt lat="46.56651" lon="-1.8183">
        <ele>16</ele>
        <time>2018-04-22T05:37:07Z</time>
      </trkpt>
      <trkpt lat="46.5663" lon="-1.8181">
        <ele>16</ele>
        <time>2018-04-22T05:38:07Z</time>
      </trkpt>
      <trkpt lat="46.5658" lon="-1.8176">
        <ele>13</ele>
        <time>2018-04-22T05:39:07Z</time>
      </trkpt>
      <trkpt lat="46.56516" lon="-1.81693">
        <ele>14</ele>
        <time>2018-04-22T05:40:07Z</time>
      </trkpt>
      <trkpt lat="46.56475" lon="-1.8165">
        <ele>13</ele>
        <time>2018-04-22T05:41:07Z</time>
      </trkpt>
      <trkpt lat="46.56457" lon="-1.81632">
        <ele>13</ele>
        <time>2018-04-22T05:42:07Z</time>
      </trkpt>
      <trkpt lat="46.56436" lon="-1.81612">
        <ele>13</ele>
        <time>2018-04-22T05:43:07Z</time>
      </trkpt>
      <trkpt lat="46.56421" lon="-1.81598">
        <ele>13</ele>
        <time>2018-04-22T05:44:07Z</time>
      </trkpt>
      <trkpt lat="46.56384" lon="-1.8156">
        <ele>14</ele>
        <time>2018-04-22T05:45:07Z</time>
      </trkpt>
      <trkpt lat="46.56339" lon="-1.81516">
        <ele>14</ele>
        <time>2018-04-22T05:46:07Z</time>
      </trkpt>
      <trkpt lat="46.56287" lon="-1.81463">
        <ele>17</ele>
        <time>2018-04-22T05:47:07Z</time>
      </trkpt>
      <trkpt lat="46.56276" lon="-1.8145">
        <ele>17</ele>
        <time>2018-04-22T05:48:07Z</time>
      </trkpt>
      <trkpt lat="46.56267" lon="-1.81441">
        <ele>18</ele>
        <time>2018-04-22T05:49:07Z</time>
      </trkpt>
      <trkpt lat="46.56258" lon="-1.81431">
        <ele>18</ele>
        <time>2018-04-22T05:50:07Z</time>
      </trkpt>
      <trkpt lat="46.56247" lon="-1.81417">
        <ele>18</ele>
        <time>2018-04-22T05:51:07Z</time>
      </trkpt>
      <trkpt lat="46.56238" lon="-1.81405">
        <ele>19</ele>
        <time>2018-04-22T05:52:07Z</time>
      </trkpt>
      <trkpt lat="46.56228" lon="-1.81392">
        <ele>19</ele>
        <time>2018-04-22T05:53:07Z</time>
      </trkpt>
      <trkpt lat="46.56218" lon="-1.81378">
        <ele>19</ele>
        <time>2018-04-22T05:54:07Z</time>
      </trkpt>
      <trkpt lat="46.56197" lon="-1.8135">
        <ele>20</ele>
        <time>2018-04-22T05:55:07Z</time>
      </trkpt>
      <trkpt lat="46.56163" lon="-1.81304">
        <ele>20</ele>
        <time>2018-04-22T05:56:07Z</time>
      </trkpt>
      <trkpt lat="46.56142" lon="-1.81277">
        <ele>19</ele>
        <time>2018-04-22T05:57:07Z</time>
      </trkpt>
      <trkpt lat="46.56073" lon="-1.81192">
        <ele>14</ele>
        <time>2018-04-22T05:58:07Z</time>
      </trkpt>
      <trkpt lat="46.56052" lon="-1.81165">
        <ele>14</ele>
        <time>2018-04-22T05:59:07Z</time>
      </trkpt>
      <trkpt lat="46.55959" lon="-1.81063">
        <ele>13</ele>
        <time>2018-04-22T06:00:07Z</time>
      </trkpt>
      <trkpt lat="46.55932" lon="-1.81034">
        <ele>12</ele>
        <time>2018-04-22T06:01:07Z</time>
      </trkpt>
      <trkpt lat="46.55915" lon="-1.81015">
        <ele>11</ele>
        <time>2018-04-22T06:02:07Z</time>
      </trkpt>
      <trkpt lat="46.55903" lon="-1.81003">
        <ele>11</ele>
        <time>2018-04-22T06:03:07Z</time>
      </trkpt>
      <trkpt lat="46.55898" lon="-1.80999">
        <ele>10</ele>
        <time>2018-04-22T06:04:07Z</time>
      </trkpt>
      <trkpt lat="46.55891" lon="-1.80997">
        <ele>10</ele>
        <time>2018-04-22T06:05:07Z</time>
      </trkpt>
      <trkpt lat="46.55883" lon="-1.80996">
        <ele>11</ele>
        <time>2018-04-22T06:06:07Z</time>
      </trkpt>
      <trkpt lat="46.55875" lon="-1.80995">
        <ele>11</ele>
        <time>2018-04-22T06:07:07Z</time>
      </trkpt>
      <trkpt lat="46.55868" lon="-1.80996">
        <ele>11</ele>
        <time>2018-04-22T06:08:07Z</time>
      </trkpt>
      <trkpt lat="46.5586" lon="-1.80999">
        <ele>11</ele>
        <time>2018-04-22T06:09:07Z</time>
      </trkpt>
      <trkpt lat="46.55853" lon="-1.81002">
        <ele>12</ele>
        <time>2018-04-22T06:10:07Z</time>
      </trkpt>
      <trkpt lat="46.55847" lon="-1.81005">
        <ele>12</ele>
        <time>2018-04-22T06:11:07Z</time>
      </trkpt>
      <trkpt lat="46.55842" lon="-1.81011">
        <ele>12</ele>
        <time>2018-04-22T06:12:07Z</time>
      </trkpt>
      <trkpt lat="46.55826" lon="-1.81029">
        <ele>12</ele>
        <time>2018-04-22T06:13:07Z</time>
      </trkpt>
      <trkpt lat="46.55803" lon="-1.81067">
        <ele>13</ele>
        <time>2018-04-22T06:14:07Z</time>
      </trkpt>
      <trkpt lat="46.55785" lon="-1.81096">
        <ele>13</ele>
        <time>2018-04-22T06:15:07Z</time>
      </trkpt>
      <trkpt lat="46.55767" lon="-1.81124">
        <ele>13</ele>
        <time>2018-04-22T06:16:07Z</time>
      </trkpt>
      <trkpt lat="46.55762" lon="-1.81132">
        <ele>13</ele>
        <time>2018-04-22T06:17:07Z</time>
      </trkpt>
      <trkpt lat="46.55757" lon="-1.81139">
        <ele>13</ele>
        <time>2018-04-22T06:18:07Z</time>
      </trkpt>
      <trkpt lat="46.55751" lon="-1.81145">
        <ele>13</ele>
        <time>2018-04-22T06:19:07Z</time>
      </trkpt>
      <trkpt lat="46.55746" lon="-1.8115">
        <ele>12</ele>
        <time>2018-04-22T06:20:07Z</time>
      </trkpt>
      <trkpt lat="46.55742" lon="-1.81153">
        <ele>12</ele>
        <time>2018-04-22T06:21:07Z</time>
      </trkpt>
      <trkpt lat="46.55738" lon="-1.81155">
        <ele>12</ele>
        <time>2018-04-22T06:22:07Z</time>
      </trkpt>
      <trkpt lat="46.55734" lon="-1.81156">
        <ele>12</ele>
        <time>2018-04-22T06:23:07Z</time>
      </trkpt>
      <trkpt lat="46.55731" lon="-1.81156">
        <ele>12</ele>
        <time>2018-04-22T06:24:07Z</time>
      </trkpt>
      <trkpt lat="46.55727" lon="-1.81156">
        <ele>12</ele>
        <time>2018-04-22T06:25:07Z</time>
      </trkpt>
      <trkpt lat="46.55722" lon="-1.81154">
        <ele>12</ele>
        <time>2018-04-22T06:26:07Z</time>
      </trkpt>
      <trkpt lat="46.55707" lon="-1.81147">
        <ele>11</ele>
        <time>2018-04-22T06:27:07Z</time>
      </trkpt>
      <trkpt lat="46.55688" lon="-1.81138">
        <ele>10</ele>
        <time>2018-04-22T06:28:07Z</time>
      </trkpt>
      <trkpt lat="46.55684" lon="-1.81138">
        <ele>10</ele>
        <time>2018-04-22T06:29:07Z</time>
      </trkpt>
      <trkpt lat="46.55681" lon="-1.81138">
        <ele>10</ele>
        <time>2018-04-22T06:30:07Z</time>
      </trkpt>
      <trkpt lat="46.55674" lon="-1.81135">
        <ele>10</ele>
        <time>2018-04-22T06:31:07Z</time>
      </trkpt>
      <trkpt lat="46.55664" lon="-1.81131">
        <ele>9</ele>
        <time>2018-04-22T06:32:07Z</time>
      </trkpt>
      <trkpt lat="46.55659" lon="-1.81129">
        <ele>9</ele>
        <time>2018-04-22T06:33:07Z</time>
      </trkpt>
      <trkpt lat="46.5565" lon="-1.81125">
        <ele>8</ele>
        <time>2018-04-22T06:34:07Z</time>
      </trkpt>
      <trkpt lat="46.55635" lon="-1.81118">
        <ele>8</ele>
        <time>2018-04-22T06:35:07Z</time>
      </trkpt>
      <trkpt lat="46.55633" lon="-1.81118">
        <ele>7</ele>
        <time>2018-04-22T06:36:07Z</time>
      </trkpt>
      <trkpt lat="46.55606" lon="-1.81104">
        <ele>6</ele>
        <time>2018-04-22T06:37:07Z</time>
      </trkpt>
      <trkpt lat="46.55596" lon="-1.811">
        <ele>6</ele>
        <time>2018-04-22T06:38:07Z</time>
      </trkpt>
      <trkpt lat="46.55589" lon="-1.81095">
        <ele>5</ele>
        <time>2018-04-22T06:39:07Z</time>
      </trkpt>
      <trkpt lat="46.55573" lon="-1.81088">
        <ele>5</ele>
        <time>2018-04-22T06:40:07Z</time>
      </trkpt>
      <trkpt lat="46.55543" lon="-1.81075">
        <ele>6</ele>
        <time>2018-04-22T06:41:07Z</time>
      </trkpt>
      <trkpt lat="46.55527" lon="-1.81068">
        <ele>6</ele>
        <time>2018-04-22T06:42:07Z</time>
      </trkpt>
      <trkpt lat="46.55515" lon="-1.81062">
        <ele>6</ele>
        <time>2018-04-22T06:43:07Z</time>
      </trkpt>
      <trkpt lat="46.55496" lon="-1.81054">
        <ele>6</ele>
        <time>2018-04-22T06:44:07Z</time>
      </trkpt>
      <trkpt lat="46.55474" lon="-1.81043">
        <ele>6</ele>
        <time>2018-04-22T06:45:07Z</time>
      </trkpt>
      <trkpt lat="46.55467" lon="-1.81039">
        <ele>6</ele>
        <time>2018-04-22T06:46:07Z</time>
      </trkpt>
      <trkpt lat="46.55459" lon="-1.81033">
        <ele>6</ele>
        <time>2018-04-22T06:47:07Z</time>
      </trkpt>
      <trkpt lat="46.55452" lon="-1.81026">
        <ele>6</ele>
        <time>2018-04-22T06:48:07Z</time>
      </trkpt>
      <trkpt lat="46.55441" lon="-1.81013">
        <ele>6</ele>
        <time>2018-04-22T06:49:07Z</time>
      </trkpt>
      <trkpt lat="46.55434" lon="-1.81003">
        <ele>6</ele>
        <time>2018-04-22T06:50:07Z</time>
      </trkpt>
      <trkpt lat="46.55432" lon="-1.80998">
        <ele>6</ele>
        <time>2018-04-22T06:51:07Z</time>
      </trkpt>
      <trkpt lat="46.55428" lon="-1.80992">
        <ele>6</ele>
        <time>2018-04-22T06:52:07Z</time>
      </trkpt>
      <trkpt lat="46.55425" lon="-1.80985">
        <ele>6</ele>
        <time>2018-04-22T06:53:07Z</time>
      </trkpt>
      <trkpt lat="46.5542" lon="-1.80974">
        <ele>6</ele>
        <time>2018-04-22T06:54:07Z</time>
      </trkpt>
      <trkpt lat="46.55416" lon="-1.80962">
        <ele>6</ele>
        <time>2018-04-22T06:55:07Z</time>
      </trkpt>
      <trkpt lat="46.5541" lon="-1.80942">
        <ele>5</ele>
        <time>2018-04-22T06:56:07Z</time>
      </trkpt>
      <trkpt lat="46.55404" lon="-1.80923">
        <ele>5</ele>
        <time>2018-04-22T06:57:07Z</time>
      </trkpt>
      <trkpt lat="46.554" lon="-1.80911">
        <ele>5</ele>
        <time>2018-04-22T06:58:07Z</time>
      </trkpt>
      <trkpt lat="46.55399" lon="-1.80908">
        <ele>5</ele>
        <time>2018-04-22T06:59:07Z</time>
      </trkpt>
      <trkpt lat="46.5539" lon="-1.80885">
        <ele>5</ele>
        <time>2018-04-22T07:00:07Z</time>
      </trkpt>
      <trkpt lat="46.55387" lon="-1.80877">
        <ele>5</ele>
        <time>2018-04-22T07:01:07Z</time>
      </trkpt>
      <trkpt lat="46.55382" lon="-1.80865">
        <ele>5</ele>
        <time>2018-04-22T07:02:07Z</time>
      </trkpt>
      <trkpt lat="46.55376" lon="-1.80853">
        <ele>5</ele>
        <time>2018-04-22T07:03:07Z</time>
      </trkpt>
      <trkpt lat="46.55371" lon="-1.80844">
        <ele>4</ele>
        <time>2018-04-22T07:04:07Z</time>
      </trkpt>
      <trkpt lat="46.55362" lon="-1.80828">
        <ele>4</ele>
        <time>2018-04-22T07:05:07Z</time>
      </trkpt>
      <trkpt lat="46.55352" lon="-1.80813">
        <ele>4</ele>
        <time>2018-04-22T07:06:07Z</time>
      </trkpt>
      <trkpt lat="46.55338" lon="-1.80794">
        <ele>5</ele>
        <time>2018-04-22T07:07:07Z</time>
      </trkpt>
      <trkpt lat="46.55335" lon="-1.80791">
        <ele>5</ele>
        <time>2018-04-22T07:08:07Z</time>
      </trkpt>
      <trkpt lat="46.55326" lon="-1.8078">
        <ele>5</ele>
        <time>2018-04-22T07:09:07Z</time>
      </trkpt>
      <trkpt lat="46.55317" lon="-1.80771">
        <ele>5</ele>
        <time>2018-04-22T07:10:07Z</time>
      </trkpt>
      <trkpt lat="46.55307" lon="-1.8076">
        <ele>5</ele>
        <time>2018-04-22T07:11:07Z</time>
      </trkpt>
      <trkpt lat="46.55285" lon="-1.80738">
        <ele>4</ele>
        <time>2018-04-22T07:12:07Z</time>
      </trkpt>
      <trkpt lat="46.55267" lon="-1.80721">
        <ele>4</ele>
        <time>2018-04-22T07:13:07Z</time>
      </trkpt>
      <trkpt lat="46.55245" lon="-1.807">
        <ele>4</ele>
        <time>2018-04-22T07:14:07Z</time>
      </trkpt>
      <trkpt lat="46.55232" lon="-1.80688">
        <ele>4</ele>
        <time>2018-04-22T07:15:07Z</time>
      </trkpt>
      <trkpt lat="46.55219" lon="-1.80677">
        <ele>4</ele>
        <time>2018-04-22T07:16:07Z</time>
      </trkpt>
      <trkpt lat="46.55209" lon="-1.80669">
        <ele>4</ele>
        <time>2018-04-22T07:17:07Z</time>
      </trkpt>
      <trkpt lat="46.55201" lon="-1.80664">
        <ele>4</ele>
        <time>2018-04-22T07:18:07Z</time>
      </trkpt>
      <trkpt lat="46.55194" lon="-1.8066">
        <ele>4</ele>
        <time>2018-04-22T07:19:07Z</time>
      </trkpt>
      <trkpt lat="46.55187" lon="-1.80657">
        <ele>4</ele>
        <time>2018-04-22T07:20:07Z</time>
      </trkpt>
      <trkpt lat="46.55178" lon="-1.80654">
        <ele>4</ele>
        <time>2018-04-22T07:21:07Z</time>
      </trkpt>
      <trkpt lat="46.55169" lon="-1.80651">
        <ele>4</ele>
        <time>2018-04-22T07:22:07Z</time>
      </trkpt>
      <trkpt lat="46.55158" lon="-1.80647">
        <ele>5</ele>
        <time>2018-04-22T07:23:07Z</time>
      </trkpt>
      <trkpt lat="46.55152" lon="-1.80647">
        <ele>5</ele>
        <time>2018-04-22T07:24:07Z</time>
      </trkpt>
      <trkpt lat="46.55134" lon="-1.80645">
        <ele>5</ele>
        <time>2018-04-22T07:25:07Z</time>
      </trkpt>
      <trkpt lat="46.55123" lon="-1.80644">
        <ele>5</ele>
        <time>2018-04-22T07:26:07Z</time>
      </trkpt>
      <trkpt lat="46.55112" lon="-1.80644">
        <ele>5</ele>
        <time>2018-04-22T07:27:07Z</time>
      </trkpt>
      <trkpt lat="46.55096" lon="-1.80645">
        <ele>5</ele>
        <time>2018-04-22T07:28:07Z</time>
      </trkpt>
      <trkpt lat="46.55073" lon="-1.80649">
        <ele>5</ele>
        <time>2018-04-22T07:29:07Z</time>
      </trkpt>
      <trkpt lat="46.55071" lon="-1.8065">
        <ele>5</ele>
        <time>2018-04-22T07:30:07Z</time>
      </trkpt>
      <trkpt lat="46.55051" lon="-1.80654">
        <ele>6</ele>
        <time>2018-04-22T07:31:07Z</time>
      </trkpt>
      <trkpt lat="46.55037" lon="-1.80656">
        <ele>6</ele>
        <time>2018-04-22T07:32:07Z</time>
      </trkpt>
      <trkpt lat="46.55019" lon="-1.80656">
        <ele>6</ele>
        <time>2018-04-22T07:33:07Z</time>
      </trkpt>
      <trkpt lat="46.55003" lon="-1.80656">
        <ele>6</ele>
        <time>2018-04-22T07:34:07Z</time>
      </trkpt>
      <trkpt lat="46.54987" lon="-1.80654">
        <ele>6</ele>
        <time>2018-04-22T07:35:07Z</time>
      </trkpt>
      <trkpt lat="46.54974" lon="-1.80651">
        <ele>6</ele>
        <time>2018-04-22T07:36:07Z</time>
      </trkpt>
      <trkpt lat="46.54957" lon="-1.80644">
        <ele>6</ele>
        <time>2018-04-22T07:37:07Z</time>
      </trkpt>
      <trkpt lat="46.54946" lon="-1.80638">
        <ele>6</ele>
        <time>2018-04-22T07:38:07Z</time>
      </trkpt>
      <trkpt lat="46.54939" lon="-1.80635">
        <ele>6</ele>
        <time>2018-04-22T07:39:07Z</time>
      </trkpt>
      <trkpt lat="46.54931" lon="-1.80631">
        <ele>6</ele>
        <time>2018-04-22T07:40:07Z</time>
      </trkpt>
      <trkpt lat="46.54913" lon="-1.80622">
        <ele>6</ele>
        <time>2018-04-22T07:41:07Z</time>
      </trkpt>
      <trkpt lat="46.54903" lon="-1.80616">
        <ele>6</ele>
        <time>2018-04-22T07:42:07Z</time>
      </trkpt>
      <trkpt lat="46.54887" lon="-1.80604">
        <ele>5</ele>
        <time>2018-04-22T07:43:07Z</time>
      </trkpt>
      <trkpt lat="46.54886" lon="-1.80603">
        <ele>5</ele>
        <time>2018-04-22T07:44:07Z</time>
      </trkpt>
      <trkpt lat="46.54865" lon="-1.80585">
        <ele>5</ele>
        <time>2018-04-22T07:45:07Z</time>
      </trkpt>
      <trkpt lat="46.54847" lon="-1.80572">
        <ele>5</ele>
        <time>2018-04-22T07:46:07Z</time>
      </trkpt>
      <trkpt lat="46.54828" lon="-1.80554">
        <ele>5</ele>
        <time>2018-04-22T07:47:07Z</time>
      </trkpt>
      <trkpt lat="46.54812" lon="-1.80541">
        <ele>6</ele>
        <time>2018-04-22T07:48:07Z</time>
      </trkpt>
      <trkpt lat="46.54798" lon="-1.80528">
        <ele>6</ele>
        <time>2018-04-22T07:49:07Z</time>
      </trkpt>
      <trkpt lat="46.54786" lon="-1.80518">
        <ele>5</ele>
        <time>2018-04-22T07:50:07Z</time>
      </trkpt>
      <trkpt lat="46.54767" lon="-1.80503">
        <ele>5</ele>
        <time>2018-04-22T07:51:07Z</time>
      </trkpt>
      <trkpt lat="46.54754" lon="-1.80493">
        <ele>5</ele>
        <time>2018-04-22T07:52:07Z</time>
      </trkpt>
      <trkpt lat="46.54748" lon="-1.80489">
        <ele>5</ele>
        <time>2018-04-22T07:53:07Z</time>
      </trkpt>
      <trkpt lat="46.54722" lon="-1.8047">
        <ele>6</ele>
        <time>2018-04-22T07:54:07Z</time>
      </trkpt>
      <trkpt lat="46.54718" lon="-1.80469">
        <ele>6</ele>
        <time>2018-04-22T07:55:07Z</time>
      </trkpt>
      <trkpt lat="46.54716" lon="-1.80468">
        <ele>6</ele>
        <time>2018-04-22T07:56:07Z</time>
      </trkpt>
      <trkpt lat="46.54707" lon="-1.80463">
        <ele>6</ele>
        <time>2018-04-22T07:57:07Z</time>
      </trkpt>
      <trkpt lat="46.54696" lon="-1.80457">
        <ele>6</ele>
        <time>2018-04-22T07:58:07Z</time>
      </trkpt>
      <trkpt lat="46.5469" lon="-1.80455">
        <ele>6</ele>
        <time>2018-04-22T07:59:07Z</time>
      </trkpt>
      <trkpt lat="46.54685" lon="-1.80454">
        <ele>6</ele>
        <time>2018-04-22T08:00:07Z</time>
      </trkpt>
      <trkpt lat="46.54685" lon="-1.80454">
        <ele>6</ele>
        <time>2018-04-22T08:01:07Z</time>
      </trkpt>
      <trkpt lat="46.54685" lon="-1.80455">
        <ele>6</ele>
        <time>2018-04-22T08:02:07Z</time>
      </trkpt>
      <trkpt lat="46.54684" lon="-1.80456">
        <ele>6</ele>
        <time>2018-04-22T08:03:07Z</time>
      </trkpt>
      <trkpt lat="46.54684" lon="-1.80457">
        <ele>6</ele>
        <time>2018-04-22T08:04:07Z</time>
      </trkpt>
      <trkpt lat="46.54683" lon="-1.80457">
        <ele>6</ele>
        <time>2018-04-22T08:05:07Z</time>
      </trkpt>
      <trkpt lat="46.54683" lon="-1.80458">
        <ele>6</ele>
        <time>2018-04-22T08:06:07Z</time>
      </trkpt>
      <trkpt lat="46.54682" lon="-1.80459">
        <ele>6</ele>
        <time>2018-04-22T08:07:07Z</time>
      </trkpt>
      <trkpt lat="46.54681" lon="-1.8046">
        <ele>6</ele>
        <time>2018-04-22T08:08:07Z</time>
      </trkpt>
      <trkpt lat="46.54669" lon="-1.80484">
        <ele>6</ele>
        <time>2018-04-22T08:09:07Z</time>
      </trkpt>
      <trkpt lat="46.54665" lon="-1.80494">
        <ele>6</ele>
        <time>2018-04-22T08:10:07Z</time>
      </trkpt>
      <trkpt lat="46.54658" lon="-1.80518">
        <ele>6</ele>
        <time>2018-04-22T08:11:07Z</time>
      </trkpt>
      <trkpt lat="46.54655" lon="-1.80524">
        <ele>6</ele>
        <time>2018-04-22T08:12:07Z</time>
      </trkpt>
      <trkpt lat="46.54646" lon="-1.80551">
        <ele>6</ele>
        <time>2018-04-22T08:13:07Z</time>
      </trkpt>
      <trkpt lat="46.5464" lon="-1.80569">
        <ele>6</ele>
        <time>2018-04-22T08:14:07Z</time>
      </trkpt>
      <trkpt lat="46.54634" lon="-1.80584">
        <ele>5</ele>
        <time>2018-04-22T08:15:07Z</time>
      </trkpt>
      <trkpt lat="46.54627" lon="-1.80603">
        <ele>5</ele>
        <time>2018-04-22T08:16:07Z</time>
      </trkpt>
      <trkpt lat="46.54618" lon="-1.8063">
        <ele>5</ele>
        <time>2018-04-22T08:17:07Z</time>
      </trkpt>
      <trkpt lat="46.54607" lon="-1.80659">
        <ele>4</ele>
        <time>2018-04-22T08:18:07Z</time>
      </trkpt>
      <trkpt lat="46.54599" lon="-1.80682">
        <ele>4</ele>
        <time>2018-04-22T08:19:07Z</time>
      </trkpt>
      <trkpt lat="46.54593" lon="-1.807">
        <ele>4</ele>
        <time>2018-04-22T08:20:07Z</time>
      </trkpt>
      <trkpt lat="46.54588" lon="-1.80722">
        <ele>4</ele>
        <time>2018-04-22T08:21:07Z</time>
      </trkpt>
      <trkpt lat="46.54582" lon="-1.80747">
        <ele>4</ele>
        <time>2018-04-22T08:22:07Z</time>
      </trkpt>
      <trkpt lat="46.54576" lon="-1.80782">
        <ele>4</ele>
        <time>2018-04-22T08:23:07Z</time>
      </trkpt>
      <trkpt lat="46.54571" lon="-1.80813">
        <ele>4</ele>
        <time>2018-04-22T08:24:07Z</time>
      </trkpt>
      <trkpt lat="46.54564" lon="-1.80861">
        <ele>3</ele>
        <time>2018-04-22T08:25:07Z</time>
      </trkpt>
      <trkpt lat="46.54562" lon="-1.80872">
        <ele>3</ele>
        <time>2018-04-22T08:26:07Z</time>
      </trkpt>
      <trkpt lat="46.54552" lon="-1.80943">
        <ele>4</ele>
        <time>2018-04-22T08:27:07Z</time>
      </trkpt>
      <trkpt lat="46.54548" lon="-1.80968">
        <ele>4</ele>
        <time>2018-04-22T08:28:07Z</time>
      </trkpt>
      <trkpt lat="46.54545" lon="-1.80991">
        <ele>5</ele>
        <time>2018-04-22T08:29:07Z</time>
      </trkpt>
      <trkpt lat="46.54543" lon="-1.80997">
        <ele>5</ele>
        <time>2018-04-22T08:30:07Z</time>
      </trkpt>
      <trkpt lat="46.54541" lon="-1.81003">
        <ele>6</ele>
        <time>2018-04-22T08:31:07Z</time>
      </trkpt>
      <trkpt lat="46.54537" lon="-1.8101">
        <ele>7</ele>
        <time>2018-04-22T08:32:07Z</time>
      </trkpt>
      <trkpt lat="46.54534" lon="-1.81014">
        <ele>7</ele>
        <time>2018-04-22T08:33:07Z</time>
      </trkpt>
      <trkpt lat="46.54531" lon="-1.81017">
        <ele>7</ele>
        <time>2018-04-22T08:34:07Z</time>
      </trkpt>
      <trkpt lat="46.54525" lon="-1.81021">
        <ele>8</ele>
        <time>2018-04-22T08:35:07Z</time>
      </trkpt>
      <trkpt lat="46.54521" lon="-1.81022">
        <ele>8</ele>
        <time>2018-04-22T08:36:07Z</time>
      </trkpt>
      <trkpt lat="46.54517" lon="-1.81022">
        <ele>8</ele>
        <time>2018-04-22T08:37:07Z</time>
      </trkpt>
      <trkpt lat="46.54511" lon="-1.81022">
        <ele>8</ele>
        <time>2018-04-22T08:38:07Z</time>
      </trkpt>
      <trkpt lat="46.54505" lon="-1.81021">
        <ele>8</ele>
        <time>2018-04-22T08:39:07Z</time>
      </trkpt>
      <trkpt lat="46.54497" lon="-1.81019">
        <ele>8</ele>
        <time>2018-04-22T08:40:07Z</time>
      </trkpt>
      <trkpt lat="46.5449" lon="-1.81018">
        <ele>8</ele>
        <time>2018-04-22T08:41:07Z</time>
      </trkpt>
      <trkpt lat="46.54481" lon="-1.81017">
        <ele>8</ele>
        <time>2018-04-22T08:42:07Z</time>
      </trkpt>
      <trkpt lat="46.54476" lon="-1.81016">
        <ele>7</ele>
        <time>2018-04-22T08:43:07Z</time>
      </trkpt>
      <trkpt lat="46.54471" lon="-1.81016">
        <ele>7</ele>
        <time>2018-04-22T08:44:07Z</time>
      </trkpt>
      <trkpt lat="46.54467" lon="-1.81016">
        <ele>7</ele>
        <time>2018-04-22T08:45:07Z</time>
      </trkpt>
      <trkpt lat="46.5446" lon="-1.81017">
        <ele>7</ele>
        <time>2018-04-22T08:46:07Z</time>
      </trkpt>
      <trkpt lat="46.54455" lon="-1.81018">
        <ele>7</ele>
        <time>2018-04-22T08:47:07Z</time>
      </trkpt>
      <trkpt lat="46.54449" lon="-1.81021">
        <ele>7</ele>
        <time>2018-04-22T08:48:07Z</time>
      </trkpt>
      <trkpt lat="46.54441" lon="-1.81025">
        <ele>8</ele>
        <time>2018-04-22T08:49:07Z</time>
      </trkpt>
      <trkpt lat="46.54432" lon="-1.81031">
        <ele>8</ele>
        <time>2018-04-22T08:50:07Z</time>
      </trkpt>
      <trkpt lat="46.54425" lon="-1.81037">
        <ele>8</ele>
        <time>2018-04-22T08:51:07Z</time>
      </trkpt>
      <trkpt lat="46.54424" lon="-1.81038">
        <ele>8</ele>
        <time>2018-04-22T08:52:07Z</time>
      </trkpt>
      <trkpt lat="46.54418" lon="-1.81043">
        <ele>8</ele>
        <time>2018-04-22T08:53:07Z</time>
      </trkpt>
      <trkpt lat="46.54415" lon="-1.81047">
        <ele>8</ele>
        <time>2018-04-22T08:54:07Z</time>
      </trkpt>
      <trkpt lat="46.54401" lon="-1.81063">
        <ele>8</ele>
        <time>2018-04-22T08:55:07Z</time>
      </trkpt>
      <trkpt lat="46.54393" lon="-1.81075">
        <ele>8</ele>
        <time>2018-04-22T08:56:07Z</time>
      </trkpt>
      <trkpt lat="46.54388" lon="-1.81083">
        <ele>9</ele>
        <time>2018-04-22T08:57:07Z</time>
      </trkpt>
      <trkpt lat="46.54385" lon="-1.81088">
        <ele>9</ele>
        <time>2018-04-22T08:58:07Z</time>
      </trkpt>
      <trkpt lat="46.54373" lon="-1.81106">
        <ele>9</ele>
        <time>2018-04-22T08:59:07Z</time>
      </trkpt>
      <trkpt lat="46.5437" lon="-1.81115">
        <ele>10</ele>
        <time>2018-04-22T09:00:07Z</time>
      </trkpt>
      <trkpt lat="46.54363" lon="-1.81128">
        <ele>10</ele>
        <time>2018-04-22T09:01:07Z</time>
      </trkpt>
      <trkpt lat="46.54358" lon="-1.81141">
        <ele>11</ele>
        <time>2018-04-22T09:02:07Z</time>
      </trkpt>
      <trkpt lat="46.54354" lon="-1.81153">
        <ele>12</ele>
        <time>2018-04-22T09:03:07Z</time>
      </trkpt>
      <trkpt lat="46.54348" lon="-1.81169">
        <ele>13</ele>
        <time>2018-04-22T09:04:07Z</time>
      </trkpt>
      <trkpt lat="46.54339" lon="-1.81189">
        <ele>14</ele>
        <time>2018-04-22T09:05:07Z</time>
      </trkpt>
      <trkpt lat="46.5432" lon="-1.81216">
        <ele>15</ele>
        <time>2018-04-22T09:06:07Z</time>
      </trkpt>
      <trkpt lat="46.54309" lon="-1.81228">
        <ele>15</ele>
        <time>2018-04-22T09:07:07Z</time>
      </trkpt>
      <trkpt lat="46.54302" lon="-1.81234">
        <ele>15</ele>
        <time>2018-04-22T09:08:07Z</time>
      </trkpt>
      <trkpt lat="46.54295" lon="-1.81236">
        <ele>15</ele>
        <time>2018-04-22T09:09:07Z</time>
      </trkpt>
      <trkpt lat="46.5429" lon="-1.81238">
        <ele>15</ele>
        <time>2018-04-22T09:10:07Z</time>
      </trkpt>
      <trkpt lat="46.54285" lon="-1.81239">
        <ele>15</ele>
        <time>2018-04-22T09:11:07Z</time>
      </trkpt>
      <trkpt lat="46.5428" lon="-1.81239">
        <ele>14</ele>
        <time>2018-04-22T09:12:07Z</time>
      </trkpt>
      <trkpt lat="46.54276" lon="-1.81238">
        <ele>14</ele>
        <time>2018-04-22T09:13:07Z</time>
      </trkpt>
      <trkpt lat="46.54272" lon="-1.81237">
        <ele>13</ele>
        <time>2018-04-22T09:14:07Z</time>
      </trkpt>
      <trkpt lat="46.54269" lon="-1.81236">
        <ele>13</ele>
        <time>2018-04-22T09:15:07Z</time>
      </trkpt>
      <trkpt lat="46.54258" lon="-1.81232">
        <ele>12</ele>
        <time>2018-04-22T09:16:07Z</time>
      </trkpt>
      <trkpt lat="46.54248" lon="-1.81229">
        <ele>11</ele>
        <time>2018-04-22T09:17:07Z</time>
      </trkpt>
      <trkpt lat="46.54241" lon="-1.81229">
        <ele>11</ele>
        <time>2018-04-22T09:18:07Z</time>
      </trkpt>
      <trkpt lat="46.54235" lon="-1.81229">
        <ele>10</ele>
        <time>2018-04-22T09:19:07Z</time>
      </trkpt>
      <trkpt lat="46.54228" lon="-1.81229">
        <ele>10</ele>
        <time>2018-04-22T09:20:07Z</time>
      </trkpt>
      <trkpt lat="46.54219" lon="-1.8123">
        <ele>10</ele>
        <time>2018-04-22T09:21:07Z</time>
      </trkpt>
      <trkpt lat="46.5421" lon="-1.81232">
        <ele>10</ele>
        <time>2018-04-22T09:22:07Z</time>
      </trkpt>
      <trkpt lat="46.54201" lon="-1.81235">
        <ele>10</ele>
        <time>2018-04-22T09:23:07Z</time>
      </trkpt>
      <trkpt lat="46.54188" lon="-1.81239">
        <ele>9</ele>
        <time>2018-04-22T09:24:07Z</time>
      </trkpt>
      <trkpt lat="46.54179" lon="-1.81243">
        <ele>9</ele>
        <time>2018-04-22T09:25:07Z</time>
      </trkpt>
      <trkpt lat="46.54173" lon="-1.81246">
        <ele>9</ele>
        <time>2018-04-22T09:26:07Z</time>
      </trkpt>
      <trkpt lat="46.54161" lon="-1.8125">
        <ele>9</ele>
        <time>2018-04-22T09:27:07Z</time>
      </trkpt>
      <trkpt lat="46.54143" lon="-1.81258">
        <ele>9</ele>
        <time>2018-04-22T09:28:07Z</time>
      </trkpt>
      <trkpt lat="46.54131" lon="-1.81263">
        <ele>9</ele>
        <time>2018-04-22T09:29:07Z</time>
      </trkpt>
      <trkpt lat="46.54114" lon="-1.81269">
        <ele>9</ele>
        <time>2018-04-22T09:30:07Z</time>
      </trkpt>
      <trkpt lat="46.54101" lon="-1.81274">
        <ele>10</ele>
        <time>2018-04-22T09:31:07Z</time>
      </trkpt>
      <trkpt lat="46.5409" lon="-1.81275">
        <ele>10</ele>
        <time>2018-04-22T09:32:07Z</time>
      </trkpt>
      <trkpt lat="46.54083" lon="-1.81276">
        <ele>10</ele>
        <time>2018-04-22T09:33:07Z</time>
      </trkpt>
      <trkpt lat="46.54078" lon="-1.81277">
        <ele>10</ele>
        <time>2018-04-22T09:34:07Z</time>
      </trkpt>
      <trkpt lat="46.5407" lon="-1.81276">
        <ele>10</ele>
        <time>2018-04-22T09:35:07Z</time>
      </trkpt>
      <trkpt lat="46.54062" lon="-1.81274">
        <ele>10</ele>
        <time>2018-04-22T09:36:07Z</time>
      </trkpt>
      <trkpt lat="46.54053" lon="-1.81271">
        <ele>10</ele>
        <time>2018-04-22T09:37:07Z</time>
      </trkpt>
      <trkpt lat="46.54033" lon="-1.81264">
        <ele>10</ele>
        <time>2018-04-22T09:38:07Z</time>
      </trkpt>
      <trkpt lat="46.53996" lon="-1.81249">
        <ele>9</ele>
        <time>2018-04-22T09:39:07Z</time>
      </trkpt>
      <trkpt lat="46.53962" lon="-1.81237">
        <ele>8</ele>
        <time>2018-04-22T09:40:07Z</time>
      </trkpt>
      <trkpt lat="46.53945" lon="-1.8123">
        <ele>8</ele>
        <time>2018-04-22T09:41:07Z</time>
      </trkpt>
      <trkpt lat="46.53932" lon="-1.81225">
        <ele>7</ele>
        <time>2018-04-22T09:42:07Z</time>
      </trkpt>
      <trkpt lat="46.53925" lon="-1.81223">
        <ele>7</ele>
        <time>2018-04-22T09:43:07Z</time>
      </trkpt>
      <trkpt lat="46.53918" lon="-1.81222">
        <ele>7</ele>
        <time>2018-04-22T09:44:07Z</time>
      </trkpt>
      <trkpt lat="46.53911" lon="-1.81221">
        <ele>7</ele>
        <time>2018-04-22T09:45:07Z</time>
      </trkpt>
      <trkpt lat="46.53903" lon="-1.81222">
        <ele>7</ele>
        <time>2018-04-22T09:46:07Z</time>
      </trkpt>
      <trkpt lat="46.53892" lon="-1.81223">
        <ele>7</ele>
        <time>2018-04-22T09:47:07Z</time>
      </trkpt>
      <trkpt lat="46.53882" lon="-1.81226">
        <ele>7</ele>
        <time>2018-04-22T09:48:07Z</time>
      </trkpt>
      <trkpt lat="46.5387" lon="-1.81228">
        <ele>7</ele>
        <time>2018-04-22T09:49:07Z</time>
      </trkpt>
      <trkpt lat="46.53859" lon="-1.81232">
        <ele>7</ele>
        <time>2018-04-22T09:50:07Z</time>
      </trkpt>
      <trkpt lat="46.53851" lon="-1.81237">
        <ele>7</ele>
        <time>2018-04-22T09:51:07Z</time>
      </trkpt>
      <trkpt lat="46.53842" lon="-1.81243">
        <ele>7</ele>
        <time>2018-04-22T09:52:07Z</time>
      </trkpt>
      <trkpt lat="46.53832" lon="-1.8125">
        <ele>7</ele>
        <time>2018-04-22T09:53:07Z</time>
      </trkpt>
      <trkpt lat="46.5382" lon="-1.81261">
        <ele>8</ele>
        <time>2018-04-22T09:54:07Z</time>
      </trkpt>
      <trkpt lat="46.53808" lon="-1.81271">
        <ele>8</ele>
        <time>2018-04-22T09:55:07Z</time>
      </trkpt>
      <trkpt lat="46.53793" lon="-1.81282">
        <ele>9</ele>
        <time>2018-04-22T09:56:07Z</time>
      </trkpt>
      <trkpt lat="46.53783" lon="-1.81287">
        <ele>9</ele>
        <time>2018-04-22T09:57:07Z</time>
      </trkpt>
      <trkpt lat="46.53775" lon="-1.8129">
        <ele>9</ele>
        <time>2018-04-22T09:58:07Z</time>
      </trkpt>
      <trkpt lat="46.53771" lon="-1.81291">
        <ele>9</ele>
        <time>2018-04-22T09:59:07Z</time>
      </trkpt>
      <trkpt lat="46.53767" lon="-1.81292">
        <ele>9</ele>
        <time>2018-04-22T10:00:07Z</time>
      </trkpt>
      <trkpt lat="46.53758" lon="-1.81293">
        <ele>9</ele>
        <time>2018-04-22T10:01:07Z</time>
      </trkpt>
      <trkpt lat="46.53748" lon="-1.81293">
        <ele>9</ele>
        <time>2018-04-22T10:02:07Z</time>
      </trkpt>
      <trkpt lat="46.53736" lon="-1.81294">
        <ele>9</ele>
        <time>2018-04-22T10:03:07Z</time>
      </trkpt>
      <trkpt lat="46.53718" lon="-1.81293">
        <ele>10</ele>
        <time>2018-04-22T10:04:07Z</time>
      </trkpt>
      <trkpt lat="46.53701" lon="-1.8129">
        <ele>10</ele>
        <time>2018-04-22T10:05:07Z</time>
      </trkpt>
      <trkpt lat="46.53685" lon="-1.81286">
        <ele>10</ele>
        <time>2018-04-22T10:06:07Z</time>
      </trkpt>
      <trkpt lat="46.53672" lon="-1.81281">
        <ele>9</ele>
        <time>2018-04-22T10:07:07Z</time>
      </trkpt>
      <trkpt lat="46.53654" lon="-1.81274">
        <ele>9</ele>
        <time>2018-04-22T10:08:07Z</time>
      </trkpt>
      <trkpt lat="46.53642" lon="-1.8127">
        <ele>8</ele>
        <time>2018-04-22T10:09:07Z</time>
      </trkpt>
      <trkpt lat="46.53631" lon="-1.81268">
        <ele>8</ele>
        <time>2018-04-22T10:10:07Z</time>
      </trkpt>
      <trkpt lat="46.53613" lon="-1.81266">
        <ele>7</ele>
        <time>2018-04-22T10:11:07Z</time>
      </trkpt>
      <trkpt lat="46.53594" lon="-1.81267">
        <ele>7</ele>
        <time>2018-04-22T10:12:07Z</time>
      </trkpt>
      <trkpt lat="46.53569" lon="-1.81271">
        <ele>7</ele>
        <time>2018-04-22T10:13:07Z</time>
      </trkpt>
      <trkpt lat="46.53548" lon="-1.81276">
        <ele>7</ele>
        <time>2018-04-22T10:14:07Z</time>
      </trkpt>
      <trkpt lat="46.53539" lon="-1.81279">
        <ele>7</ele>
        <time>2018-04-22T10:15:07Z</time>
      </trkpt>
      <trkpt lat="46.53533" lon="-1.81282">
        <ele>7</ele>
        <time>2018-04-22T10:16:07Z</time>
      </trkpt>
      <trkpt lat="46.53526" lon="-1.81286">
        <ele>7</ele>
        <time>2018-04-22T10:17:07Z</time>
      </trkpt>
      <trkpt lat="46.53509" lon="-1.813">
        <ele>8</ele>
        <time>2018-04-22T10:18:07Z</time>
      </trkpt>
      <trkpt lat="46.53492" lon="-1.81315">
        <ele>9</ele>
        <time>2018-04-22T10:19:07Z</time>
      </trkpt>
      <trkpt lat="46.53486" lon="-1.81319">
        <ele>9</ele>
        <time>2018-04-22T10:20:07Z</time>
      </trkpt>
      <trkpt lat="46.5348" lon="-1.81323">
        <ele>9</ele>
        <time>2018-04-22T10:21:07Z</time>
      </trkpt>
      <trkpt lat="46.53475" lon="-1.81326">
        <ele>9</ele>
        <time>2018-04-22T10:22:07Z</time>
      </trkpt>
      <trkpt lat="46.53474" lon="-1.81326">
        <ele>9</ele>
        <time>2018-04-22T10:23:07Z</time>
      </trkpt>
      <trkpt lat="46.53467" lon="-1.81327">
        <ele>10</ele>
        <time>2018-04-22T10:24:07Z</time>
      </trkpt>
      <trkpt lat="46.53463" lon="-1.81328">
        <ele>10</ele>
        <time>2018-04-22T10:25:07Z</time>
      </trkpt>
      <trkpt lat="46.53449" lon="-1.81328">
        <ele>10</ele>
        <time>2018-04-22T10:26:07Z</time>
      </trkpt>
      <trkpt lat="46.53434" lon="-1.81327">
        <ele>10</ele>
        <time>2018-04-22T10:27:07Z</time>
      </trkpt>
      <trkpt lat="46.5343" lon="-1.81326">
        <ele>10</ele>
        <time>2018-04-22T10:28:07Z</time>
      </trkpt>
      <trkpt lat="46.53426" lon="-1.81325">
        <ele>9</ele>
        <time>2018-04-22T10:29:07Z</time>
      </trkpt>
      <trkpt lat="46.53416" lon="-1.81321">
        <ele>9</ele>
        <time>2018-04-22T10:30:07Z</time>
      </trkpt>
      <trkpt lat="46.53411" lon="-1.81317">
        <ele>9</ele>
        <time>2018-04-22T10:31:07Z</time>
      </trkpt>
      <trkpt lat="46.53402" lon="-1.81305">
        <ele>9</ele>
        <time>2018-04-22T10:32:07Z</time>
      </trkpt>
      <trkpt lat="46.53395" lon="-1.81295">
        <ele>9</ele>
        <time>2018-04-22T10:33:07Z</time>
      </trkpt>
      <trkpt lat="46.53386" lon="-1.81279">
        <ele>9</ele>
        <time>2018-04-22T10:34:07Z</time>
      </trkpt>
      <trkpt lat="46.53381" lon="-1.81271">
        <ele>8</ele>
        <time>2018-04-22T10:35:07Z</time>
      </trkpt>
      <trkpt lat="46.53371" lon="-1.81264">
        <ele>9</ele>
        <time>2018-04-22T10:36:07Z</time>
      </trkpt>
      <trkpt lat="46.53367" lon="-1.81261">
        <ele>9</ele>
        <time>2018-04-22T10:37:07Z</time>
      </trkpt>
      <trkpt lat="46.5336" lon="-1.81257">
        <ele>9</ele>
        <time>2018-04-22T10:38:07Z</time>
      </trkpt>
      <trkpt lat="46.53355" lon="-1.81255">
        <ele>9</ele>
        <time>2018-04-22T10:39:07Z</time>
      </trkpt>
      <trkpt lat="46.53348" lon="-1.81255">
        <ele>9</ele>
        <time>2018-04-22T10:40:07Z</time>
      </trkpt>
      <trkpt lat="46.53344" lon="-1.81255">
        <ele>10</ele>
        <time>2018-04-22T10:41:07Z</time>
      </trkpt>
      <trkpt lat="46.53329" lon="-1.81257">
        <ele>11</ele>
        <time>2018-04-22T10:42:07Z</time>
      </trkpt>
      <trkpt lat="46.53314" lon="-1.81261">
        <ele>11</ele>
        <time>2018-04-22T10:43:07Z</time>
      </trkpt>
      <trkpt lat="46.53301" lon="-1.81261">
        <ele>11</ele>
        <time>2018-04-22T10:44:07Z</time>
      </trkpt>
      <trkpt lat="46.53283" lon="-1.8126">
        <ele>12</ele>
        <time>2018-04-22T10:45:07Z</time>
      </trkpt>
      <trkpt lat="46.53258" lon="-1.81251">
        <ele>12</ele>
        <time>2018-04-22T10:46:07Z</time>
      </trkpt>
      <trkpt lat="46.53237" lon="-1.81242">
        <ele>12</ele>
        <time>2018-04-22T10:47:07Z</time>
      </trkpt>
      <trkpt lat="46.53222" lon="-1.81236">
        <ele>11</ele>
        <time>2018-04-22T10:48:07Z</time>
      </trkpt>
      <trkpt lat="46.53212" lon="-1.81232">
        <ele>11</ele>
        <time>2018-04-22T10:49:07Z</time>
      </trkpt>
      <trkpt lat="46.53192" lon="-1.81223">
        <ele>11</ele>
        <time>2018-04-22T10:50:07Z</time>
      </trkpt>
      <trkpt lat="46.5318" lon="-1.81219">
        <ele>11</ele>
        <time>2018-04-22T10:51:07Z</time>
      </trkpt>
      <trkpt lat="46.53166" lon="-1.81216">
        <ele>11</ele>
        <time>2018-04-22T10:52:07Z</time>
      </trkpt>
      <trkpt lat="46.5315" lon="-1.81214">
        <ele>10</ele>
        <time>2018-04-22T10:53:07Z</time>
      </trkpt>
      <trkpt lat="46.53129" lon="-1.81215">
        <ele>10</ele>
        <time>2018-04-22T10:54:07Z</time>
      </trkpt>
      <trkpt lat="46.531" lon="-1.81212">
        <ele>10</ele>
        <time>2018-04-22T10:55:07Z</time>
      </trkpt>
      <trkpt lat="46.53068" lon="-1.81211">
        <ele>9</ele>
        <time>2018-04-22T10:56:07Z</time>
      </trkpt>
      <trkpt lat="46.53046" lon="-1.81209">
        <ele>9</ele>
        <time>2018-04-22T10:57:07Z</time>
      </trkpt>
      <trkpt lat="46.53025" lon="-1.81209">
        <ele>9</ele>
        <time>2018-04-22T10:58:07Z</time>
      </trkpt>
      <trkpt lat="46.53006" lon="-1.8121">
        <ele>9</ele>
        <time>2018-04-22T10:59:07Z</time>
      </trkpt>
      <trkpt lat="46.52991" lon="-1.8121">
        <ele>9</ele>
        <time>2018-04-22T11:00:07Z</time>
      </trkpt>
      <trkpt lat="46.52986" lon="-1.8121">
        <ele>9</ele>
        <time>2018-04-22T11:01:07Z</time>
      </trkpt>
      <trkpt lat="46.52976" lon="-1.81208">
        <ele>10</ele>
        <time>2018-04-22T11:02:07Z</time>
      </trkpt>
      <trkpt lat="46.52968" lon="-1.81204">
        <ele>9</ele>
        <time>2018-04-22T11:03:07Z</time>
      </trkpt>
      <trkpt lat="46.52956" lon="-1.81199">
        <ele>10</ele>
        <time>2018-04-22T11:04:07Z</time>
      </trkpt>
      <trkpt lat="46.52952" lon="-1.81196">
        <ele>9</ele>
        <time>2018-04-22T11:05:07Z</time>
      </trkpt>
      <trkpt lat="46.52943" lon="-1.81187">
        <ele>9</ele>
        <time>2018-04-22T11:06:07Z</time>
      </trkpt>
      <trkpt lat="46.5292" lon="-1.81162">
        <ele>9</ele>
        <time>2018-04-22T11:07:07Z</time>
      </trkpt>
      <trkpt lat="46.52855" lon="-1.81093">
        <ele>8</ele>
        <time>2018-04-22T11:08:07Z</time>
      </trkpt>
      <trkpt lat="46.52845" lon="-1.81084">
        <ele>8</ele>
        <time>2018-04-22T11:09:07Z</time>
      </trkpt>
      <trkpt lat="46.52843" lon="-1.81082">
        <ele>8</ele>
        <time>2018-04-22T11:10:07Z</time>
      </trkpt>
      <trkpt lat="46.52834" lon="-1.81075">
        <ele>8</ele>
        <time>2018-04-22T11:11:07Z</time>
      </trkpt>
      <trkpt lat="46.52822" lon="-1.81068">
        <ele>8</ele>
        <time>2018-04-22T11:12:07Z</time>
      </trkpt>
      <trkpt lat="46.52819" lon="-1.81067">
        <ele>8</ele>
        <time>2018-04-22T11:13:07Z</time>
      </trkpt>
      <trkpt lat="46.52806" lon="-1.81062">
        <ele>8</ele>
        <time>2018-04-22T11:14:07Z</time>
      </trkpt>
      <trkpt lat="46.52799" lon="-1.8106">
        <ele>8</ele>
        <time>2018-04-22T11:15:07Z</time>
      </trkpt>
      <trkpt lat="46.5279" lon="-1.81058">
        <ele>8</ele>
        <time>2018-04-22T11:16:07Z</time>
      </trkpt>
      <trkpt lat="46.52778" lon="-1.81057">
        <ele>8</ele>
        <time>2018-04-22T11:17:07Z</time>
      </trkpt>
      <trkpt lat="46.52763" lon="-1.81057">
        <ele>9</ele>
        <time>2018-04-22T11:18:07Z</time>
      </trkpt>
      <trkpt lat="46.52748" lon="-1.81058">
        <ele>9</ele>
        <time>2018-04-22T11:19:07Z</time>
      </trkpt>
      <trkpt lat="46.52723" lon="-1.81059">
        <ele>8</ele>
        <time>2018-04-22T11:20:07Z</time>
      </trkpt>
      <trkpt lat="46.52708" lon="-1.81059">
        <ele>8</ele>
        <time>2018-04-22T11:21:07Z</time>
      </trkpt>
      <trkpt lat="46.52677" lon="-1.81059">
        <ele>7</ele>
        <time>2018-04-22T11:22:07Z</time>
      </trkpt>
      <trkpt lat="46.52659" lon="-1.81059">
        <ele>7</ele>
        <time>2018-04-22T11:23:07Z</time>
      </trkpt>
      <trkpt lat="46.52648" lon="-1.81058">
        <ele>6</ele>
        <time>2018-04-22T11:24:07Z</time>
      </trkpt>
      <trkpt lat="46.52626" lon="-1.81058">
        <ele>5</ele>
        <time>2018-04-22T11:25:07Z</time>
      </trkpt>
      <trkpt lat="46.52616" lon="-1.81057">
        <ele>5</ele>
        <time>2018-04-22T11:26:07Z</time>
      </trkpt>
      <trkpt lat="46.52604" lon="-1.81055">
        <ele>4</ele>
        <time>2018-04-22T11:27:07Z</time>
      </trkpt>
      <trkpt lat="46.52585" lon="-1.81051">
        <ele>3</ele>
        <time>2018-04-22T11:28:07Z</time>
      </trkpt>
      <trkpt lat="46.52567" lon="-1.81047">
        <ele>3</ele>
        <time>2018-04-22T11:29:07Z</time>
      </trkpt>
      <trkpt lat="46.52548" lon="-1.81044">
        <ele>3</ele>
        <time>2018-04-22T11:30:07Z</time>
      </trkpt>
      <trkpt lat="46.5254" lon="-1.81044">
        <ele>3</ele>
        <time>2018-04-22T11:31:07Z</time>
      </trkpt>
      <trkpt lat="46.52534" lon="-1.81043">
        <ele>3</ele>
        <time>2018-04-22T11:32:07Z</time>
      </trkpt>
      <trkpt lat="46.52514" lon="-1.81042">
        <ele>3</ele>
        <time>2018-04-22T11:33:07Z</time>
      </trkpt>
      <trkpt lat="46.525" lon="-1.81042">
        <ele>4</ele>
        <time>2018-04-22T11:34:07Z</time>
      </trkpt>
      <trkpt lat="46.52483" lon="-1.8104">
        <ele>4</ele>
        <time>2018-04-22T11:35:07Z</time>
      </trkpt>
      <trkpt lat="46.5247" lon="-1.81037">
        <ele>4</ele>
        <time>2018-04-22T11:36:07Z</time>
      </trkpt>
      <trkpt lat="46.52459" lon="-1.81033">
        <ele>4</ele>
        <time>2018-04-22T11:37:07Z</time>
      </trkpt>
      <trkpt lat="46.52455" lon="-1.81031">
        <ele>4</ele>
        <time>2018-04-22T11:38:07Z</time>
      </trkpt>
      <trkpt lat="46.52451" lon="-1.81028">
        <ele>4</ele>
        <time>2018-04-22T11:39:07Z</time>
      </trkpt>
      <trkpt lat="46.52445" lon="-1.81023">
        <ele>4</ele>
        <time>2018-04-22T11:40:07Z</time>
      </trkpt>
      <trkpt lat="46.52439" lon="-1.81018">
        <ele>4</ele>
        <time>2018-04-22T11:41:07Z</time>
      </trkpt>
      <trkpt lat="46.52436" lon="-1.81013">
        <ele>3</ele>
        <time>2018-04-22T11:42:07Z</time>
      </trkpt>
      <trkpt lat="46.52431" lon="-1.81008">
        <ele>3</ele>
        <time>2018-04-22T11:43:07Z</time>
      </trkpt>
      <trkpt lat="46.52431" lon="-1.81007">
        <ele>3</ele>
        <time>2018-04-22T11:44:07Z</time>
      </trkpt>
      <trkpt lat="46.52425" lon="-1.81">
        <ele>3</ele>
        <time>2018-04-22T11:45:07Z</time>
      </trkpt>
      <trkpt lat="46.52408" lon="-1.80983">
        <ele>3</ele>
        <time>2018-04-22T11:46:07Z</time>
      </trkpt>
      <trkpt lat="46.52407" lon="-1.80982">
        <ele>4</ele>
        <time>2018-04-22T11:47:07Z</time>
      </trkpt>
      <trkpt lat="46.52393" lon="-1.8097">
        <ele>4</ele>
        <time>2018-04-22T11:48:07Z</time>
      </trkpt>
      <trkpt lat="46.52381" lon="-1.80961">
        <ele>5</ele>
        <time>2018-04-22T11:49:07Z</time>
      </trkpt>
      <trkpt lat="46.52377" lon="-1.80959">
        <ele>5</ele>
        <time>2018-04-22T11:50:07Z</time>
      </trkpt>
      <trkpt lat="46.52364" lon="-1.80953">
        <ele>6</ele>
        <time>2018-04-22T11:51:07Z</time>
      </trkpt>
      <trkpt lat="46.52351" lon="-1.80949">
        <ele>6</ele>
        <time>2018-04-22T11:52:07Z</time>
      </trkpt>
      <trkpt lat="46.52336" lon="-1.80947">
        <ele>7</ele>
        <time>2018-04-22T11:53:07Z</time>
      </trkpt>
      <trkpt lat="46.52319" lon="-1.80944">
        <ele>8</ele>
        <time>2018-04-22T11:54:07Z</time>
      </trkpt>
      <trkpt lat="46.52306" lon="-1.80942">
        <ele>9</ele>
        <time>2018-04-22T11:55:07Z</time>
      </trkpt>
      <trkpt lat="46.52295" lon="-1.80938">
        <ele>9</ele>
        <time>2018-04-22T11:56:07Z</time>
      </trkpt>
      <trkpt lat="46.52284" lon="-1.80932">
        <ele>9</ele>
        <time>2018-04-22T11:57:07Z</time>
      </trkpt>
      <trkpt lat="46.52268" lon="-1.80923">
        <ele>10</ele>
        <time>2018-04-22T11:58:07Z</time>
      </trkpt>
      <trkpt lat="46.52256" lon="-1.80914">
        <ele>10</ele>
        <time>2018-04-22T11:59:07Z</time>
      </trkpt>
      <trkpt lat="46.52229" lon="-1.80891">
        <ele>10</ele>
        <time>2018-04-22T12:00:07Z</time>
      </trkpt>
      <trkpt lat="46.52217" lon="-1.80881">
        <ele>10</ele>
        <time>2018-04-22T12:01:07Z</time>
      </trkpt>
      <trkpt lat="46.52197" lon="-1.80864">
        <ele>10</ele>
        <time>2018-04-22T12:02:07Z</time>
      </trkpt>
      <trkpt lat="46.52178" lon="-1.80847">
        <ele>10</ele>
        <time>2018-04-22T12:03:07Z</time>
      </trkpt>
      <trkpt lat="46.52162" lon="-1.80837">
        <ele>10</ele>
        <time>2018-04-22T12:04:07Z</time>
      </trkpt>
      <trkpt lat="46.52148" lon="-1.80831">
        <ele>10</ele>
        <time>2018-04-22T12:05:07Z</time>
      </trkpt>
      <trkpt lat="46.52134" lon="-1.80825">
        <ele>10</ele>
        <time>2018-04-22T12:06:07Z</time>
      </trkpt>
      <trkpt lat="46.52114" lon="-1.8082">
        <ele>9</ele>
        <time>2018-04-22T12:07:07Z</time>
      </trkpt>
      <trkpt lat="46.52092" lon="-1.80814">
        <ele>9</ele>
        <time>2018-04-22T12:08:07Z</time>
      </trkpt>
      <trkpt lat="46.52071" lon="-1.8081">
        <ele>10</ele>
        <time>2018-04-22T12:09:07Z</time>
      </trkpt>
      <trkpt lat="46.52046" lon="-1.80806">
        <ele>10</ele>
        <time>2018-04-22T12:10:07Z</time>
      </trkpt>
      <trkpt lat="46.52037" lon="-1.80806">
        <ele>11</ele>
        <time>2018-04-22T12:11:07Z</time>
      </trkpt>
      <trkpt lat="46.52006" lon="-1.80805">
        <ele>12</ele>
        <time>2018-04-22T12:12:07Z</time>
      </trkpt>
      <trkpt lat="46.51984" lon="-1.80806">
        <ele>11</ele>
        <time>2018-04-22T12:13:07Z</time>
      </trkpt>
      <trkpt lat="46.51966" lon="-1.80804">
        <ele>11</ele>
        <time>2018-04-22T12:14:07Z</time>
      </trkpt>
      <trkpt lat="46.51954" lon="-1.80801">
        <ele>10</ele>
        <time>2018-04-22T12:15:07Z</time>
      </trkpt>
      <trkpt lat="46.51941" lon="-1.80794">
        <ele>9</ele>
        <time>2018-04-22T12:16:07Z</time>
      </trkpt>
      <trkpt lat="46.51924" lon="-1.80781">
        <ele>7</ele>
        <time>2018-04-22T12:17:07Z</time>
      </trkpt>
      <trkpt lat="46.51904" lon="-1.80761">
        <ele>5</ele>
        <time>2018-04-22T12:18:07Z</time>
      </trkpt>
      <trkpt lat="46.51875" lon="-1.80737">
        <ele>4</ele>
        <time>2018-04-22T12:19:07Z</time>
      </trkpt>
      <trkpt lat="46.51852" lon="-1.8072">
        <ele>3</ele>
        <time>2018-04-22T12:20:07Z</time>
      </trkpt>
      <trkpt lat="46.51832" lon="-1.80706">
        <ele>2</ele>
        <time>2018-04-22T12:21:07Z</time>
      </trkpt>
      <trkpt lat="46.51825" lon="-1.80701">
        <ele>2</ele>
        <time>2018-04-22T12:22:07Z</time>
      </trkpt>
      <trkpt lat="46.51819" lon="-1.80698">
        <ele>2</ele>
        <time>2018-04-22T12:23:07Z</time>
      </trkpt>
      <trkpt lat="46.51808" lon="-1.80696">
        <ele>2</ele>
        <time>2018-04-22T12:24:07Z</time>
      </trkpt>
      <trkpt lat="46.51803" lon="-1.80696">
        <ele>2</ele>
        <time>2018-04-22T12:25:07Z</time>
      </trkpt>
      <trkpt lat="46.51763" lon="-1.807">
        <ele>2</ele>
        <time>2018-04-22T12:26:07Z</time>
      </trkpt>
      <trkpt lat="46.51746" lon="-1.80704">
        <ele>2</ele>
        <time>2018-04-22T12:27:07Z</time>
      </trkpt>
      <trkpt lat="46.51742" lon="-1.80704">
        <ele>2</ele>
        <time>2018-04-22T12:28:07Z</time>
      </trkpt>
      <trkpt lat="46.5174" lon="-1.80704">
        <ele>2</ele>
        <time>2018-04-22T12:29:07Z</time>
      </trkpt>
      <trkpt lat="46.51737" lon="-1.80703">
        <ele>2</ele>
        <time>2018-04-22T12:30:07Z</time>
      </trkpt>
      <trkpt lat="46.51733" lon="-1.80702">
        <ele>2</ele>
        <time>2018-04-22T12:31:07Z</time>
      </trkpt>
      <trkpt lat="46.51727" lon="-1.80699">
        <ele>2</ele>
        <time>2018-04-22T12:32:07Z</time>
      </trkpt>
      <trkpt lat="46.51721" lon="-1.80694">
        <ele>2</ele>
        <time>2018-04-22T12:33:07Z</time>
      </trkpt>
      <trkpt lat="46.51719" lon="-1.80691">
        <ele>2</ele>
        <time>2018-04-22T12:34:07Z</time>
      </trkpt>
      <trkpt lat="46.51716" lon="-1.80687">
        <ele>2</ele>
        <time>2018-04-22T12:35:07Z</time>
      </trkpt>
      <trkpt lat="46.51708" lon="-1.80676">
        <ele>3</ele>
        <time>2018-04-22T12:36:07Z</time>
      </trkpt>
      <trkpt lat="46.51698" lon="-1.80657">
        <ele>2</ele>
        <time>2018-04-22T12:37:07Z</time>
      </trkpt>
      <trkpt lat="46.51689" lon="-1.8064">
        <ele>2</ele>
        <time>2018-04-22T12:38:07Z</time>
      </trkpt>
      <trkpt lat="46.51685" lon="-1.80635">
        <ele>2</ele>
        <time>2018-04-22T12:39:07Z</time>
      </trkpt>
      <trkpt lat="46.51678" lon="-1.80628">
        <ele>2</ele>
        <time>2018-04-22T12:40:07Z</time>
      </trkpt>
      <trkpt lat="46.51671" lon="-1.80622">
        <ele>2</ele>
        <time>2018-04-22T12:41:07Z</time>
      </trkpt>
      <trkpt lat="46.51664" lon="-1.80618">
        <ele>2</ele>
        <time>2018-04-22T12:42:07Z</time>
      </trkpt>
      <trkpt lat="46.51581" lon="-1.80573">
        <ele>2</ele>
        <time>2018-04-22T12:43:07Z</time>
      </trkpt>
      <trkpt lat="46.51554" lon="-1.8056">
        <ele>2</ele>
        <time>2018-04-22T12:44:07Z</time>
      </trkpt>
      <trkpt lat="46.51444" lon="-1.80506">
        <ele>1</ele>
        <time>2018-04-22T12:45:07Z</time>
      </trkpt>
      <trkpt lat="46.5144" lon="-1.80504">
        <ele>1</ele>
        <time>2018-04-22T12:46:07Z</time>
      </trkpt>
      <trkpt lat="46.51436" lon="-1.80503">
        <ele>1</ele>
        <time>2018-04-22T12:47:07Z</time>
      </trkpt>
      <trkpt lat="46.51432" lon="-1.80504">
        <ele>1</ele>
        <time>2018-04-22T12:48:07Z</time>
      </trkpt>
      <trkpt lat="46.51423" lon="-1.80508">
        <ele>1</ele>
        <time>2018-04-22T12:49:07Z</time>
      </trkpt>
      <trkpt lat="46.51423" lon="-1.80508">
        <ele>1</ele>
        <time>2018-04-22T12:50:07Z</time>
      </trkpt>
      <trkpt lat="46.51423" lon="-1.80509">
        <ele>1</ele>
        <time>2018-04-22T12:51:07Z</time>
      </trkpt>
      <trkpt lat="46.51423" lon="-1.80513">
        <ele>1</ele>
        <time>2018-04-22T12:52:07Z</time>
      </trkpt>
      <trkpt lat="46.51421" lon="-1.80516">
        <ele>1</ele>
        <time>2018-04-22T12:53:07Z</time>
      </trkpt>
      <trkpt lat="46.5142" lon="-1.80518">
        <ele>1</ele>
        <time>2018-04-22T12:54:07Z</time>
      </trkpt>
      <trkpt lat="46.51418" lon="-1.80519">
        <ele>1</ele>
        <time>2018-04-22T12:55:07Z</time>
      </trkpt>
      <trkpt lat="46.51416" lon="-1.80519">
        <ele>1</ele>
        <time>2018-04-22T12:56:07Z</time>
      </trkpt>
      <trkpt lat="46.51414" lon="-1.80519">
        <ele>1</ele>
        <time>2018-04-22T12:57:07Z</time>
      </trkpt>
      <trkpt lat="46.51412" lon="-1.80516">
        <ele>1</ele>
        <time>2018-04-22T12:58:07Z</time>
      </trkpt>
      <trkpt lat="46.51411" lon="-1.80514">
        <ele>1</ele>
        <time>2018-04-22T12:59:07Z</time>
      </trkpt>
      <trkpt lat="46.5141" lon="-1.8051">
        <ele>1</ele>
        <time>2018-04-22T13:00:07Z</time>
      </trkpt>
      <trkpt lat="46.51411" lon="-1.80507">
        <ele>1</ele>
        <time>2018-04-22T13:01:07Z</time>
      </trkpt>
      <trkpt lat="46.51412" lon="-1.80504">
        <ele>1</ele>
        <time>2018-04-22T13:02:07Z</time>
      </trkpt>
      <trkpt lat="46.51413" lon="-1.80502">
        <ele>1</ele>
        <time>2018-04-22T13:03:07Z</time>
      </trkpt>
      <trkpt lat="46.51415" lon="-1.80501">
        <ele>1</ele>
        <time>2018-04-22T13:04:07Z</time>
      </trkpt>
      <trkpt lat="46.51412" lon="-1.80492">
        <ele>1</ele>
        <time>2018-04-22T13:05:07Z</time>
      </trkpt>
      <trkpt lat="46.51411" lon="-1.80488">
        <ele>1</ele>
        <time>2018-04-22T13:06:07Z</time>
      </trkpt>
      <trkpt lat="46.51408" lon="-1.80482">
        <ele>1</ele>
        <time>2018-04-22T13:07:07Z</time>
      </trkpt>
      <trkpt lat="46.51406" lon="-1.80479">
        <ele>1</ele>
        <time>2018-04-22T13:08:07Z</time>
      </trkpt>
      <trkpt lat="46.51401" lon="-1.80474">
        <ele>1</ele>
        <time>2018-04-22T13:09:07Z</time>
      </trkpt>
      <trkpt lat="46.51357" lon="-1.80436">
        <ele>2</ele>
        <time>2018-04-22T13:10:07Z</time>
      </trkpt>
      <trkpt lat="46.51345" lon="-1.80428">
        <ele>2</ele>
        <time>2018-04-22T13:11:07Z</time>
      </trkpt>
      <trkpt lat="46.51334" lon="-1.80422">
        <ele>2</ele>
        <time>2018-04-22T13:12:07Z</time>
      </trkpt>
      <trkpt lat="46.51322" lon="-1.80417">
        <ele>2</ele>
        <time>2018-04-22T13:13:07Z</time>
      </trkpt>
      <trkpt lat="46.51306" lon="-1.80412">
        <ele>2</ele>
        <time>2018-04-22T13:14:07Z</time>
      </trkpt>
      <trkpt lat="46.51275" lon="-1.80405">
        <ele>2</ele>
        <time>2018-04-22T13:15:07Z</time>
      </trkpt>
      <trkpt lat="46.51253" lon="-1.80399">
        <ele>2</ele>
        <time>2018-04-22T13:16:07Z</time>
      </trkpt>
      <trkpt lat="46.51224" lon="-1.8039">
        <ele>3</ele>
        <time>2018-04-22T13:17:07Z</time>
      </trkpt>
      <trkpt lat="46.51171" lon="-1.80374">
        <ele>3</ele>
        <time>2018-04-22T13:18:07Z</time>
      </trkpt>
      <trkpt lat="46.51101" lon="-1.80355">
        <ele>2</ele>
        <time>2018-04-22T13:19:07Z</time>
      </trkpt>
      <trkpt lat="46.51052" lon="-1.80337">
        <ele>2</ele>
        <time>2018-04-22T13:20:07Z</time>
      </trkpt>
      <trkpt lat="46.51004" lon="-1.8032">
        <ele>3</ele>
        <time>2018-04-22T13:21:07Z</time>
      </trkpt>
      <trkpt lat="46.50955" lon="-1.80303">
        <ele>3</ele>
        <time>2018-04-22T13:22:07Z</time>
      </trkpt>
      <trkpt lat="46.5092" lon="-1.80291">
        <ele>3</ele>
        <time>2018-04-22T13:23:07Z</time>
      </trkpt>
      <trkpt lat="46.50911" lon="-1.80288">
        <ele>4</ele>
        <time>2018-04-22T13:24:07Z</time>
      </trkpt>
      <trkpt lat="46.50908" lon="-1.80287">
        <ele>4</ele>
        <time>2018-04-22T13:25:07Z</time>
      </trkpt>
      <trkpt lat="46.50908" lon="-1.80288">
        <ele>4</ele>
        <time>2018-04-22T13:26:07Z</time>
      </trkpt>
      <trkpt lat="46.50908" lon="-1.80289">
        <ele>4</ele>
        <time>2018-04-22T13:27:07Z</time>
      </trkpt>
      <trkpt lat="46.50908" lon="-1.8029">
        <ele>4</ele>
        <time>2018-04-22T13:28:07Z</time>
      </trkpt>
      <trkpt lat="46.50908" lon="-1.80291">
        <ele>4</ele>
        <time>2018-04-22T13:29:07Z</time>
      </trkpt>
      <trkpt lat="46.50908" lon="-1.80292">
        <ele>4</ele>
        <time>2018-04-22T13:30:07Z</time>
      </trkpt>
      <trkpt lat="46.50908" lon="-1.80293">
        <ele>4</ele>
        <time>2018-04-22T13:31:07Z</time>
      </trkpt>
      <trkpt lat="46.50907" lon="-1.80294">
        <ele>4</ele>
        <time>2018-04-22T13:32:07Z</time>
      </trkpt>
      <trkpt lat="46.50907" lon="-1.80295">
        <ele>4</ele>
        <time>2018-04-22T13:33:07Z</time>
      </trkpt>
      <trkpt lat="46.50907" lon="-1.80296">
        <ele>4</ele>
        <time>2018-04-22T13:34:07Z</time>
      </trkpt>
      <trkpt lat="46.50907" lon="-1.80297">
        <ele>4</ele>
        <time>2018-04-22T13:35:07Z</time>
      </trkpt>
      <trkpt lat="46.50906" lon="-1.80297">
        <ele>4</ele>
        <time>2018-04-22T13:36:07Z</time>
      </trkpt>
      <trkpt lat="46.50906" lon="-1.80298">
        <ele>4</ele>
        <time>2018-04-22T13:37:07Z</time>
      </trkpt>
      <trkpt lat="46.50906" lon="-1.80299">
        <ele>4</ele>
        <time>2018-04-22T13:38:07Z</time>
      </trkpt>
      <trkpt lat="46.50905" lon="-1.80299">
        <ele>4</ele>
        <time>2018-04-22T13:39:07Z</time>
      </trkpt>
      <trkpt lat="46.50905" lon="-1.803">
        <ele>4</ele>
        <time>2018-04-22T13:40:07Z</time>
      </trkpt>
      <trkpt lat="46.50904" lon="-1.80301">
        <ele>4</ele>
        <time>2018-04-22T13:41:07Z</time>
      </trkpt>
      <trkpt lat="46.50903" lon="-1.80302">
        <ele>4</ele>
        <time>2018-04-22T13:42:07Z</time>
      </trkpt>
      <trkpt lat="46.50902" lon="-1.80302">
        <ele>4</ele>
        <time>2018-04-22T13:43:07Z</time>
      </trkpt>
      <trkpt lat="46.50902" lon="-1.80303">
        <ele>4</ele>
        <time>2018-04-22T13:44:07Z</time>
      </trkpt>
      <trkpt lat="46.50901" lon="-1.80303">
        <ele>4</ele>
        <time>2018-04-22T13:45:07Z</time>
      </trkpt>
      <trkpt lat="46.509" lon="-1.80303">
        <ele>4</ele>
        <time>2018-04-22T13:46:07Z</time>
      </trkpt>
      <trkpt lat="46.509" lon="-1.80304">
        <ele>4</ele>
        <time>2018-04-22T13:47:07Z</time>
      </trkpt>
      <trkpt lat="46.50899" lon="-1.80304">
        <ele>4</ele>
        <time>2018-04-22T13:48:07Z</time>
      </trkpt>
      <trkpt lat="46.50898" lon="-1.80304">
        <ele>4</ele>
        <time>2018-04-22T13:49:07Z</time>
      </trkpt>
      <trkpt lat="46.50897" lon="-1.80304">
        <ele>4</ele>
        <time>2018-04-22T13:50:07Z</time>
      </trkpt>
      <trkpt lat="46.50897" lon="-1.80303">
        <ele>4</ele>
        <time>2018-04-22T13:51:07Z</time>
      </trkpt>
      <trkpt lat="46.50896" lon="-1.80303">
        <ele>4</ele>
        <time>2018-04-22T13:52:07Z</time>
      </trkpt>
      <trkpt lat="46.50895" lon="-1.80303">
        <ele>4</ele>
        <time>2018-04-22T13:53:07Z</time>
      </trkpt>
      <trkpt lat="46.50894" lon="-1.80302">
        <ele>4</ele>
        <time>2018-04-22T13:54:07Z</time>
      </trkpt>
      <trkpt lat="46.50893" lon="-1.80302">
        <ele>4</ele>
        <time>2018-04-22T13:55:07Z</time>
      </trkpt>
      <trkpt lat="46.50893" lon="-1.80301">
        <ele>4</ele>
        <time>2018-04-22T13:56:07Z</time>
      </trkpt>
      <trkpt lat="46.50892" lon="-1.80301">
        <ele>4</ele>
        <time>2018-04-22T13:57:07Z</time>
      </trkpt>
      <trkpt lat="46.50892" lon="-1.803">
        <ele>4</ele>
        <time>2018-04-22T13:58:07Z</time>
      </trkpt>
      <trkpt lat="46.50891" lon="-1.803">
        <ele>4</ele>
        <time>2018-04-22T13:59:07Z</time>
      </trkpt>
      <trkpt lat="46.50891" lon="-1.80299">
        <ele>4</ele>
        <time>2018-04-22T14:00:07Z</time>
      </trkpt>
      <trkpt lat="46.50891" lon="-1.80298">
        <ele>4</ele>
        <time>2018-04-22T14:01:07Z</time>
      </trkpt>
      <trkpt lat="46.5089" lon="-1.80298">
        <ele>4</ele>
        <time>2018-04-22T14:02:07Z</time>
      </trkpt>
      <trkpt lat="46.5089" lon="-1.80297">
        <ele>4</ele>
        <time>2018-04-22T14:03:07Z</time>
      </trkpt>
      <trkpt lat="46.5089" lon="-1.80296">
        <ele>4</ele>
        <time>2018-04-22T14:04:07Z</time>
      </trkpt>
      <trkpt lat="46.50889" lon="-1.80296">
        <ele>4</ele>
        <time>2018-04-22T14:05:07Z</time>
      </trkpt>
      <trkpt lat="46.50889" lon="-1.80295">
        <ele>4</ele>
        <time>2018-04-22T14:06:07Z</time>
      </trkpt>
      <trkpt lat="46.50889" lon="-1.80294">
        <ele>4</ele>
        <time>2018-04-22T14:07:07Z</time>
      </trkpt>
      <trkpt lat="46.50889" lon="-1.80293">
        <ele>4</ele>
        <time>2018-04-22T14:08:07Z</time>
      </trkpt>
      <trkpt lat="46.50889" lon="-1.80292">
        <ele>4</ele>
        <time>2018-04-22T14:09:07Z</time>
      </trkpt>
      <trkpt lat="46.50889" lon="-1.80291">
        <ele>4</ele>
        <time>2018-04-22T14:10:07Z</time>
      </trkpt>
      <trkpt lat="46.50889" lon="-1.8029">
        <ele>4</ele>
        <time>2018-04-22T14:11:07Z</time>
      </trkpt>
      <trkpt lat="46.50889" lon="-1.80289">
        <ele>4</ele>
        <time>2018-04-22T14:12:07Z</time>
      </trkpt>
      <trkpt lat="46.50889" lon="-1.80288">
        <ele>4</ele>
        <time>2018-04-22T14:13:07Z</time>
      </trkpt>
      <trkpt lat="46.50889" lon="-1.80287">
        <ele>4</ele>
        <time>2018-04-22T14:14:07Z</time>
      </trkpt>
      <trkpt lat="46.50889" lon="-1.80286">
        <ele>4</ele>
        <time>2018-04-22T14:15:07Z</time>
      </trkpt>
      <trkpt lat="46.50889" lon="-1.80285">
        <ele>4</ele>
        <time>2018-04-22T14:16:07Z</time>
      </trkpt>
      <trkpt lat="46.50889" lon="-1.80284">
        <ele>4</ele>
        <time>2018-04-22T14:17:07Z</time>
      </trkpt>
      <trkpt lat="46.5089" lon="-1.80283">
        <ele>4</ele>
        <time>2018-04-22T14:18:07Z</time>
      </trkpt>
      <trkpt lat="46.5089" lon="-1.80282">
        <ele>4</ele>
        <time>2018-04-22T14:19:07Z</time>
      </trkpt>
      <trkpt lat="46.5089" lon="-1.80281">
        <ele>4</ele>
        <time>2018-04-22T14:20:07Z</time>
      </trkpt>
      <trkpt lat="46.50876" lon="-1.8027">
        <ele>4</ele>
        <time>2018-04-22T14:21:07Z</time>
      </trkpt>
      <trkpt lat="46.50834" lon="-1.80253">
        <ele>4</ele>
        <time>2018-04-22T14:22:07Z</time>
      </trkpt>
      <trkpt lat="46.5082" lon="-1.80246">
        <ele>4</ele>
        <time>2018-04-22T14:23:07Z</time>
      </trkpt>
      <trkpt lat="46.5081" lon="-1.8024">
        <ele>4</ele>
        <time>2018-04-22T14:24:07Z</time>
      </trkpt>
      <trkpt lat="46.50808" lon="-1.80239">
        <ele>4</ele>
        <time>2018-04-22T14:25:07Z</time>
      </trkpt>
      <trkpt lat="46.50796" lon="-1.80231">
        <ele>4</ele>
        <time>2018-04-22T14:26:07Z</time>
      </trkpt>
      <trkpt lat="46.50791" lon="-1.80228">
        <ele>4</ele>
        <time>2018-04-22T14:27:07Z</time>
      </trkpt>
      <trkpt lat="46.50787" lon="-1.80224">
        <ele>4</ele>
        <time>2018-04-22T14:28:07Z</time>
      </trkpt>
      <trkpt lat="46.50759" lon="-1.80199">
        <ele>4</ele>
        <time>2018-04-22T14:29:07Z</time>
      </trkpt>
      <trkpt lat="46.50696" lon="-1.80148">
        <ele>3</ele>
        <time>2018-04-22T14:30:07Z</time>
      </trkpt>
      <trkpt lat="46.50659" lon="-1.80115">
        <ele>3</ele>
        <time>2018-04-22T14:31:07Z</time>
      </trkpt>
      <trkpt lat="46.5065" lon="-1.80108">
        <ele>3</ele>
        <time>2018-04-22T14:32:07Z</time>
      </trkpt>
      <trkpt lat="46.5064" lon="-1.801">
        <ele>3</ele>
        <time>2018-04-22T14:33:07Z</time>
      </trkpt>
      <trkpt lat="46.50625" lon="-1.80089">
        <ele>4</ele>
        <time>2018-04-22T14:34:07Z</time>
      </trkpt>
      <trkpt lat="46.50611" lon="-1.80079">
        <ele>4</ele>
        <time>2018-04-22T14:35:07Z</time>
      </trkpt>
      <trkpt lat="46.50598" lon="-1.80072">
        <ele>4</ele>
        <time>2018-04-22T14:36:07Z</time>
      </trkpt>
      <trkpt lat="46.50584" lon="-1.80065">
        <ele>4</ele>
        <time>2018-04-22T14:37:07Z</time>
      </trkpt>
      <trkpt lat="46.50574" lon="-1.8006">
        <ele>3</ele>
        <time>2018-04-22T14:38:07Z</time>
      </trkpt>
      <trkpt lat="46.5056" lon="-1.80053">
        <ele>3</ele>
        <time>2018-04-22T14:39:07Z</time>
      </trkpt>
      <trkpt lat="46.50549" lon="-1.80048">
        <ele>3</ele>
        <time>2018-04-22T14:40:07Z</time>
      </trkpt>
      <trkpt lat="46.50539" lon="-1.80045">
        <ele>3</ele>
        <time>2018-04-22T14:41:07Z</time>
      </trkpt>
      <trkpt lat="46.50509" lon="-1.80035">
        <ele>3</ele>
        <time>2018-04-22T14:42:07Z</time>
      </trkpt>
      <trkpt lat="46.50482" lon="-1.80028">
        <ele>3</ele>
        <time>2018-04-22T14:43:07Z</time>
      </trkpt>
      <trkpt lat="46.5047" lon="-1.80024">
        <ele>3</ele>
        <time>2018-04-22T14:44:07Z</time>
      </trkpt>
      <trkpt lat="46.5044" lon="-1.80011">
        <ele>3</ele>
        <time>2018-04-22T14:45:07Z</time>
      </trkpt>
      <trkpt lat="46.5041" lon="-1.79994">
        <ele>3</ele>
        <time>2018-04-22T14:46:07Z</time>
      </trkpt>
      <trkpt lat="46.504" lon="-1.79987">
        <ele>3</ele>
        <time>2018-04-22T14:47:07Z</time>
      </trkpt>
      <trkpt lat="46.5039" lon="-1.7998">
        <ele>3</ele>
        <time>2018-04-22T14:48:07Z</time>
      </trkpt>
      <trkpt lat="46.50359" lon="-1.79954">
        <ele>3</ele>
        <time>2018-04-22T14:49:07Z</time>
      </trkpt>
      <trkpt lat="46.50349" lon="-1.79946">
        <ele>3</ele>
        <time>2018-04-22T14:50:07Z</time>
      </trkpt>
      <trkpt lat="46.50334" lon="-1.79932">
        <ele>2</ele>
        <time>2018-04-22T14:51:07Z</time>
      </trkpt>
      <trkpt lat="46.50307" lon="-1.79913">
        <ele>2</ele>
        <time>2018-04-22T14:52:07Z</time>
      </trkpt>
      <trkpt lat="46.50301" lon="-1.79909">
        <ele>2</ele>
        <time>2018-04-22T14:53:07Z</time>
      </trkpt>
      <trkpt lat="46.50288" lon="-1.7989">
        <ele>2</ele>
        <time>2018-04-22T14:54:07Z</time>
      </trkpt>
      <trkpt lat="46.50285" lon="-1.79884">
        <ele>2</ele>
        <time>2018-04-22T14:55:07Z</time>
      </trkpt>
      <trkpt lat="46.50285" lon="-1.79884">
        <ele>2</ele>
        <time>2018-04-22T14:56:07Z</time>
      </trkpt>
      <trkpt lat="46.50281" lon="-1.79884">
        <ele>2</ele>
        <time>2018-04-22T14:57:07Z</time>
      </trkpt>
      <trkpt lat="46.50278" lon="-1.79883">
        <ele>2</ele>
        <time>2018-04-22T14:58:07Z</time>
      </trkpt>
      <trkpt lat="46.50272" lon="-1.79879">
        <ele>2</ele>
        <time>2018-04-22T14:59:07Z</time>
      </trkpt>
      <trkpt lat="46.50267" lon="-1.79873">
        <ele>2</ele>
        <time>2018-04-22T15:00:07Z</time>
      </trkpt>
      <trkpt lat="46.50264" lon="-1.79869">
        <ele>2</ele>
        <time>2018-04-22T15:01:07Z</time>
      </trkpt>
      <trkpt lat="46.50262" lon="-1.79865">
        <ele>3</ele>
        <time>2018-04-22T15:02:07Z</time>
      </trkpt>
      <trkpt lat="46.50261" lon="-1.79858">
        <ele>3</ele>
        <time>2018-04-22T15:03:07Z</time>
      </trkpt>
      <trkpt lat="46.5026" lon="-1.79853">
        <ele>3</ele>
        <time>2018-04-22T15:04:07Z</time>
      </trkpt>
      <trkpt lat="46.5026" lon="-1.79846">
        <ele>3</ele>
        <time>2018-04-22T15:05:07Z</time>
      </trkpt>
      <trkpt lat="46.50261" lon="-1.79841">
        <ele>3</ele>
        <time>2018-04-22T15:06:07Z</time>
      </trkpt>
      <trkpt lat="46.50263" lon="-1.79836">
        <ele>3</ele>
        <time>2018-04-22T15:07:07Z</time>
      </trkpt>
      <trkpt lat="46.50265" lon="-1.79831">
        <ele>3</ele>
        <time>2018-04-22T15:08:07Z</time>
      </trkpt>
      <trkpt lat="46.50268" lon="-1.79827">
        <ele>3</ele>
        <time>2018-04-22T15:09:07Z</time>
      </trkpt>
      <trkpt lat="46.50272" lon="-1.79823">
        <ele>3</ele>
        <time>2018-04-22T15:10:07Z</time>
      </trkpt>
      <trkpt lat="46.50275" lon="-1.7982">
        <ele>3</ele>
        <time>2018-04-22T15:11:07Z</time>
      </trkpt>
      <trkpt lat="46.5028" lon="-1.79818">
        <ele>3</ele>
        <time>2018-04-22T15:12:07Z</time>
      </trkpt>
      <trkpt lat="46.50289" lon="-1.79791">
        <ele>4</ele>
        <time>2018-04-22T15:13:07Z</time>
      </trkpt>
      <trkpt lat="46.50291" lon="-1.79782">
        <ele>4</ele>
        <time>2018-04-22T15:14:07Z</time>
      </trkpt>
      <trkpt lat="46.50306" lon="-1.79724">
        <ele>5</ele>
        <time>2018-04-22T15:15:07Z</time>
      </trkpt>
      <trkpt lat="46.50314" lon="-1.79701">
        <ele>5</ele>
        <time>2018-04-22T15:16:07Z</time>
      </trkpt>
      <trkpt lat="46.50381" lon="-1.79514">
        <ele>4</ele>
        <time>2018-04-22T15:17:07Z</time>
      </trkpt>
      <trkpt lat="46.50385" lon="-1.79504">
        <ele>4</ele>
        <time>2018-04-22T15:18:07Z</time>
      </trkpt>
      <trkpt lat="46.50401" lon="-1.7946">
        <ele>5</ele>
        <time>2018-04-22T15:19:07Z</time>
      </trkpt>
      <trkpt lat="46.50413" lon="-1.79427">
        <ele>5</ele>
        <time>2018-04-22T15:20:07Z</time>
      </trkpt>
      <trkpt lat="46.50415" lon="-1.7942">
        <ele>5</ele>
        <time>2018-04-22T15:21:07Z</time>
      </trkpt>
      <trkpt lat="46.50418" lon="-1.79413">
        <ele>3</ele>
        <time>2018-04-22T15:22:07Z</time>
      </trkpt>
      <trkpt lat="46.50423" lon="-1.79399">
        <ele>3</ele>
        <time>2018-04-22T15:23:07Z</time>
      </trkpt>
      <trkpt lat="46.50427" lon="-1.79385">
        <ele>3</ele>
        <time>2018-04-22T15:24:07Z</time>
      </trkpt>
      <trkpt lat="46.50435" lon="-1.79358">
        <ele>3</ele>
        <time>2018-04-22T15:25:07Z</time>
      </trkpt>
      <trkpt lat="46.50445" lon="-1.79321">
        <ele>3</ele>
        <time>2018-04-22T15:26:07Z</time>
      </trkpt>
      <trkpt lat="46.50453" lon="-1.7929">
        <ele>3</ele>
        <time>2018-04-22T15:27:07Z</time>
      </trkpt>
      <trkpt lat="46.50454" lon="-1.79286">
        <ele>3</ele>
        <time>2018-04-22T15:28:07Z</time>
      </trkpt>
      <trkpt lat="46.50458" lon="-1.79269">
        <ele>3</ele>
        <time>2018-04-22T15:29:07Z</time>
      </trkpt>
      <trkpt lat="46.50462" lon="-1.79257">
        <ele>3</ele>
        <time>2018-04-22T15:30:07Z</time>
      </trkpt>
      <trkpt lat="46.50469" lon="-1.79231">
        <ele>2</ele>
        <time>2018-04-22T15:31:07Z</time>
      </trkpt>
      <trkpt lat="46.50479" lon="-1.79196">
        <ele>2</ele>
        <time>2018-04-22T15:32:07Z</time>
      </trkpt>
      <trkpt lat="46.50482" lon="-1.79185">
        <ele>2</ele>
        <time>2018-04-22T15:33:07Z</time>
      </trkpt>
      <trkpt lat="46.50489" lon="-1.79157">
        <ele>1</ele>
        <time>2018-04-22T15:34:07Z</time>
      </trkpt>
      <trkpt lat="46.50496" lon="-1.79128">
        <ele>1</ele>
        <time>2018-04-22T15:35:07Z</time>
      </trkpt>
      <trkpt lat="46.50505" lon="-1.79084">
        <ele>4.5</ele>
        <time>2018-04-22T15:36:07Z</time>
      </trkpt>
      <trkpt lat="46.50512" lon="-1.79048">
        <ele>1</ele>
        <time>2018-04-22T15:37:07Z</time>
      </trkpt>
      <trkpt lat="46.50515" lon="-1.7903">
        <ele>1</ele>
        <time>2018-04-22T15:38:07Z</time>
      </trkpt>
      <trkpt lat="46.50515" lon="-1.79028">
        <ele>1</ele>
        <time>2018-04-22T15:39:07Z</time>
      </trkpt>
      <trkpt lat="46.50517" lon="-1.79017">
        <ele>2</ele>
        <time>2018-04-22T15:40:07Z</time>
      </trkpt>
      <trkpt lat="46.50518" lon="-1.79005">
        <ele>2</ele>
        <time>2018-04-22T15:41:07Z</time>
      </trkpt>
      <trkpt lat="46.50518" lon="-1.78999">
        <ele>2</ele>
        <time>2018-04-22T15:42:07Z</time>
      </trkpt>
      <trkpt lat="46.50518" lon="-1.78987">
        <ele>2</ele>
        <time>2018-04-22T15:43:07Z</time>
      </trkpt>
      <trkpt lat="46.50518" lon="-1.78987">
        <ele>2</ele>
        <time>2018-04-22T15:44:07Z</time>
      </trkpt>
      <trkpt lat="46.50516" lon="-1.78984">
        <ele>2</ele>
        <time>2018-04-22T15:45:07Z</time>
      </trkpt>
      <trkpt lat="46.50515" lon="-1.78982">
        <ele>2</ele>
        <time>2018-04-22T15:46:07Z</time>
      </trkpt>
      <trkpt lat="46.50515" lon="-1.7898">
        <ele>2</ele>
        <time>2018-04-22T15:47:07Z</time>
      </trkpt>
      <trkpt lat="46.50514" lon="-1.78978">
        <ele>2</ele>
        <time>2018-04-22T15:48:07Z</time>
      </trkpt>
      <trkpt lat="46.50514" lon="-1.78976">
        <ele>2</ele>
        <time>2018-04-22T15:49:07Z</time>
      </trkpt>
      <trkpt lat="46.50513" lon="-1.78973">
        <ele>2</ele>
        <time>2018-04-22T15:50:07Z</time>
      </trkpt>
      <trkpt lat="46.50513" lon="-1.78971">
        <ele>2</ele>
        <time>2018-04-22T15:51:07Z</time>
      </trkpt>
      <trkpt lat="46.50513" lon="-1.78969">
        <ele>2</ele>
        <time>2018-04-22T15:52:07Z</time>
      </trkpt>
      <trkpt lat="46.50513" lon="-1.78967">
        <ele>2</ele>
        <time>2018-04-22T15:53:07Z</time>
      </trkpt>
      <trkpt lat="46.50505" lon="-1.78954">
        <ele>3</ele>
        <time>2018-04-22T15:54:07Z</time>
      </trkpt>
      <trkpt lat="46.50499" lon="-1.78946">
        <ele>3</ele>
        <time>2018-04-22T15:55:07Z</time>
      </trkpt>
      <trkpt lat="46.50493" lon="-1.78939">
        <ele>3</ele>
        <time>2018-04-22T15:56:07Z</time>
      </trkpt>
      <trkpt lat="46.50477" lon="-1.78922">
        <ele>3</ele>
        <time>2018-04-22T15:57:07Z</time>
      </trkpt>
      <trkpt lat="46.50466" lon="-1.7891">
        <ele>3</ele>
        <time>2018-04-22T15:58:07Z</time>
      </trkpt>
      <trkpt lat="46.50437" lon="-1.7888">
        <ele>3</ele>
        <time>2018-04-22T15:59:07Z</time>
      </trkpt>
      <trkpt lat="46.50407" lon="-1.78848">
        <ele>2</ele>
        <time>2018-04-22T16:00:07Z</time>
      </trkpt>
      <trkpt lat="46.50374" lon="-1.78812">
        <ele>2</ele>
        <time>2018-04-22T16:01:07Z</time>
      </trkpt>
      <trkpt lat="46.50347" lon="-1.78782">
        <ele>1</ele>
        <time>2018-04-22T16:02:07Z</time>
      </trkpt>
      <trkpt lat="46.50343" lon="-1.78777">
        <ele>1</ele>
        <time>2018-04-22T16:03:07Z</time>
      </trkpt>
      <trkpt lat="46.50308" lon="-1.78739">
        <ele>1</ele>
        <time>2018-04-22T16:04:07Z</time>
      </trkpt>
      <trkpt lat="46.5028" lon="-1.78708">
        <ele>2</ele>
        <time>2018-04-22T16:05:07Z</time>
      </trkpt>
      <trkpt lat="46.50261" lon="-1.7869">
        <ele>3</ele>
        <time>2018-04-22T16:06:07Z</time>
      </trkpt>
      <trkpt lat="46.50248" lon="-1.78677">
        <ele>3</ele>
        <time>2018-04-22T16:07:07Z</time>
      </trkpt>
      <trkpt lat="46.50238" lon="-1.78667">
        <ele>3</ele>
        <time>2018-04-22T16:08:07Z</time>
      </trkpt>
      <trkpt lat="46.50234" lon="-1.78664">
        <ele>3</ele>
        <time>2018-04-22T16:09:07Z</time>
      </trkpt>
      <trkpt lat="46.50223" lon="-1.78654">
        <ele>3</ele>
        <time>2018-04-22T16:10:07Z</time>
      </trkpt>
      <trkpt lat="46.50213" lon="-1.78643">
        <ele>3</ele>
        <time>2018-04-22T16:11:07Z</time>
      </trkpt>
      <trkpt lat="46.50198" lon="-1.78631">
        <ele>3</ele>
        <time>2018-04-22T16:12:07Z</time>
      </trkpt>
      <trkpt lat="46.50181" lon="-1.78618">
        <ele>3</ele>
        <time>2018-04-22T16:13:07Z</time>
      </trkpt>
      <trkpt lat="46.50166" lon="-1.78608">
        <ele>3</ele>
        <time>2018-04-22T16:14:07Z</time>
      </trkpt>
      <trkpt lat="46.50152" lon="-1.78601">
        <ele>4</ele>
        <time>2018-04-22T16:15:07Z</time>
      </trkpt>
      <trkpt lat="46.50147" lon="-1.78599">
        <ele>4</ele>
        <time>2018-04-22T16:16:07Z</time>
      </trkpt>
      <trkpt lat="46.50135" lon="-1.78595">
        <ele>4</ele>
        <time>2018-04-22T16:17:07Z</time>
      </trkpt>
      <trkpt lat="46.50122" lon="-1.78592">
        <ele>4</ele>
        <time>2018-04-22T16:18:07Z</time>
      </trkpt>
      <trkpt lat="46.50113" lon="-1.78591">
        <ele>4</ele>
        <time>2018-04-22T16:19:07Z</time>
      </trkpt>
      <trkpt lat="46.50105" lon="-1.78589">
        <ele>5</ele>
        <time>2018-04-22T16:20:07Z</time>
      </trkpt>
      <trkpt lat="46.50098" lon="-1.78589">
        <ele>5</ele>
        <time>2018-04-22T16:21:07Z</time>
      </trkpt>
      <trkpt lat="46.50092" lon="-1.78588">
        <ele>5</ele>
        <time>2018-04-22T16:22:07Z</time>
      </trkpt>
      <trkpt lat="46.50083" lon="-1.78588">
        <ele>5</ele>
        <time>2018-04-22T16:23:07Z</time>
      </trkpt>
      <trkpt lat="46.50076" lon="-1.78587">
        <ele>5</ele>
        <time>2018-04-22T16:24:07Z</time>
      </trkpt>
      <trkpt lat="46.50071" lon="-1.78587">
        <ele>5</ele>
        <time>2018-04-22T16:25:07Z</time>
      </trkpt>
      <trkpt lat="46.50071" lon="-1.78587">
        <ele>5</ele>
        <time>2018-04-22T16:26:07Z</time>
      </trkpt>
      <trkpt lat="46.50062" lon="-1.78603">
        <ele>4</ele>
        <time>2018-04-22T16:27:07Z</time>
      </trkpt>
      <trkpt lat="46.50054" lon="-1.78615">
        <ele>4</ele>
        <time>2018-04-22T16:28:07Z</time>
      </trkpt>
      <trkpt lat="46.5005" lon="-1.7862">
        <ele>4</ele>
        <time>2018-04-22T16:29:07Z</time>
      </trkpt>
      <trkpt lat="46.50048" lon="-1.78621">
        <ele>4</ele>
        <time>2018-04-22T16:30:07Z</time>
      </trkpt>
      <trkpt lat="46.50047" lon="-1.78622">
        <ele>4</ele>
        <time>2018-04-22T16:31:07Z</time>
      </trkpt>
      <trkpt lat="46.50045" lon="-1.78622">
        <ele>4</ele>
        <time>2018-04-22T16:32:07Z</time>
      </trkpt>
      <trkpt lat="46.50044" lon="-1.78621">
        <ele>4</ele>
        <time>2018-04-22T16:33:07Z</time>
      </trkpt>
      <trkpt lat="46.50038" lon="-1.78619">
        <ele>4</ele>
        <time>2018-04-22T16:34:07Z</time>
      </trkpt>
      <trkpt lat="46.50034" lon="-1.78617">
        <ele>4</ele>
        <time>2018-04-22T16:35:07Z</time>
      </trkpt>
      <trkpt lat="46.50034" lon="-1.78616">
        <ele>4</ele>
        <time>2018-04-22T16:36:07Z</time>
      </trkpt>
      <trkpt lat="46.50032" lon="-1.78614">
        <ele>4</ele>
        <time>2018-04-22T16:37:07Z</time>
      </trkpt>
      <trkpt lat="46.50028" lon="-1.78608">
        <ele>4</ele>
        <time>2018-04-22T16:38:07Z</time>
      </trkpt>
      <trkpt lat="46.50025" lon="-1.78603">
        <ele>4</ele>
        <time>2018-04-22T16:39:07Z</time>
      </trkpt>
      <trkpt lat="46.50016" lon="-1.78582">
        <ele>4</ele>
        <time>2018-04-22T16:40:07Z</time>
      </trkpt>
      <trkpt lat="46.50015" lon="-1.78581">
        <ele>4</ele>
        <time>2018-04-22T16:41:07Z</time>
      </trkpt>
      <trkpt lat="46.50013" lon="-1.78577">
        <ele>4</ele>
        <time>2018-04-22T16:42:07Z</time>
      </trkpt>
      <trkpt lat="46.50012" lon="-1.78574">
        <ele>4</ele>
        <time>2018-04-22T16:43:07Z</time>
      </trkpt>
      <trkpt lat="46.50005" lon="-1.78562">
        <ele>4</ele>
        <time>2018-04-22T16:44:07Z</time>
      </trkpt>
      <trkpt lat="46.4999" lon="-1.78537">
        <ele>5</ele>
        <time>2018-04-22T16:45:07Z</time>
      </trkpt>
      <trkpt lat="46.49983" lon="-1.78528">
        <ele>5</ele>
        <time>2018-04-22T16:46:07Z</time>
      </trkpt>
      <trkpt lat="46.49975" lon="-1.7852">
        <ele>5</ele>
        <time>2018-04-22T16:47:07Z</time>
      </trkpt>
      <trkpt lat="46.49969" lon="-1.78515">
        <ele>5</ele>
        <time>2018-04-22T16:48:07Z</time>
      </trkpt>
      <trkpt lat="46.49963" lon="-1.78508">
        <ele>5</ele>
        <time>2018-04-22T16:49:07Z</time>
      </trkpt>
      <trkpt lat="46.49962" lon="-1.78508">
        <ele>5</ele>
        <time>2018-04-22T16:50:07Z</time>
      </trkpt>
      <trkpt lat="46.49962" lon="-1.78508">
        <ele>5</ele>
        <time>2018-04-22T16:51:07Z</time>
      </trkpt>
      <trkpt lat="46.49958" lon="-1.78505">
        <ele>5</ele>
        <time>2018-04-22T16:52:07Z</time>
      </trkpt>
      <trkpt lat="46.49956" lon="-1.78504">
        <ele>5</ele>
        <time>2018-04-22T16:53:07Z</time>
      </trkpt>
      <trkpt lat="46.49953" lon="-1.78504">
        <ele>5</ele>
        <time>2018-04-22T16:54:07Z</time>
      </trkpt>
      <trkpt lat="46.49943" lon="-1.78501">
        <ele>5</ele>
        <time>2018-04-22T16:55:07Z</time>
      </trkpt>
      <trkpt lat="46.49922" lon="-1.78497">
        <ele>5</ele>
        <time>2018-04-22T16:56:07Z</time>
      </trkpt>
      <trkpt lat="46.49892" lon="-1.7849">
        <ele>5</ele>
        <time>2018-04-22T16:57:07Z</time>
      </trkpt>
      <trkpt lat="46.49879" lon="-1.7849">
        <ele>5</ele>
        <time>2018-04-22T16:58:07Z</time>
      </trkpt>
      <trkpt lat="46.49877" lon="-1.7849">
        <ele>5</ele>
        <time>2018-04-22T16:59:07Z</time>
      </trkpt>
      <trkpt lat="46.49871" lon="-1.7849">
        <ele>5</ele>
        <time>2018-04-22T17:00:07Z</time>
      </trkpt>
      <trkpt lat="46.49871" lon="-1.7849">
        <ele>5</ele>
        <time>2018-04-22T17:01:07Z</time>
      </trkpt>
      <trkpt lat="46.49872" lon="-1.78493">
        <ele>5</ele>
        <time>2018-04-22T17:02:07Z</time>
      </trkpt>
      <trkpt lat="46.49872" lon="-1.78498">
        <ele>5</ele>
        <time>2018-04-22T17:03:07Z</time>
      </trkpt>
      <trkpt lat="46.4987" lon="-1.78503">
        <ele>5</ele>
        <time>2018-04-22T17:04:07Z</time>
      </trkpt>
      <trkpt lat="46.49868" lon="-1.78507">
        <ele>5</ele>
        <time>2018-04-22T17:05:07Z</time>
      </trkpt>
      <trkpt lat="46.49866" lon="-1.7851">
        <ele>5</ele>
        <time>2018-04-22T17:06:07Z</time>
      </trkpt>
      <trkpt lat="46.49862" lon="-1.78511">
        <ele>5</ele>
        <time>2018-04-22T17:07:07Z</time>
      </trkpt>
      <trkpt lat="46.49857" lon="-1.7851">
        <ele>5</ele>
        <time>2018-04-22T17:08:07Z</time>
      </trkpt>
      <trkpt lat="46.49853" lon="-1.78508">
        <ele>5</ele>
        <time>2018-04-22T17:09:07Z</time>
      </trkpt>
      <trkpt lat="46.4985" lon="-1.78503">
        <ele>5</ele>
        <time>2018-04-22T17:10:07Z</time>
      </trkpt>
      <trkpt lat="46.49849" lon="-1.78496">
        <ele>5</ele>
        <time>2018-04-22T17:11:07Z</time>
      </trkpt>
      <trkpt lat="46.49843" lon="-1.785">
        <ele>5</ele>
        <time>2018-04-22T17:12:07Z</time>
      </trkpt>
      <trkpt lat="46.49837" lon="-1.78503">
        <ele>5</ele>
        <time>2018-04-22T17:13:07Z</time>
      </trkpt>
      <trkpt lat="46.49827" lon="-1.78511">
        <ele>5</ele>
        <time>2018-04-22T17:14:07Z</time>
      </trkpt>
      <trkpt lat="46.49815" lon="-1.78524">
        <ele>6</ele>
        <time>2018-04-22T17:15:07Z</time>
      </trkpt>
      <trkpt lat="46.49803" lon="-1.78538">
        <ele>6</ele>
        <time>2018-04-22T17:16:07Z</time>
      </trkpt>
      <trkpt lat="46.49795" lon="-1.7855">
        <ele>6</ele>
        <time>2018-04-22T17:17:07Z</time>
      </trkpt>
      <trkpt lat="46.49783" lon="-1.78571">
        <ele>6</ele>
        <time>2018-04-22T17:18:07Z</time>
      </trkpt>
      <trkpt lat="46.49777" lon="-1.78578">
        <ele>7</ele>
        <time>2018-04-22T17:19:07Z</time>
      </trkpt>
      <trkpt lat="46.49775" lon="-1.7858">
        <ele>7</ele>
        <time>2018-04-22T17:20:07Z</time>
      </trkpt>
      <trkpt lat="46.49774" lon="-1.78581">
        <ele>7</ele>
        <time>2018-04-22T17:21:07Z</time>
      </trkpt>
      <trkpt lat="46.49774" lon="-1.78581">
        <ele>7</ele>
        <time>2018-04-22T17:22:07Z</time>
      </trkpt>
      <trkpt lat="46.49774" lon="-1.78584">
        <ele>7</ele>
        <time>2018-04-22T17:23:07Z</time>
      </trkpt>
      <trkpt lat="46.49774" lon="-1.78587">
        <ele>7</ele>
        <time>2018-04-22T17:24:07Z</time>
      </trkpt>
      <trkpt lat="46.49774" lon="-1.78588">
        <ele>7</ele>
        <time>2018-04-22T17:25:07Z</time>
      </trkpt>
      <trkpt lat="46.49774" lon="-1.7859">
        <ele>7</ele>
        <time>2018-04-22T17:26:07Z</time>
      </trkpt>
      <trkpt lat="46.49773" lon="-1.78592">
        <ele>7</ele>
        <time>2018-04-22T17:27:07Z</time>
      </trkpt>
      <trkpt lat="46.49772" lon="-1.78593">
        <ele>7</ele>
        <time>2018-04-22T17:28:07Z</time>
      </trkpt>
      <trkpt lat="46.49771" lon="-1.78594">
        <ele>7</ele>
        <time>2018-04-22T17:29:07Z</time>
      </trkpt>
      <trkpt lat="46.4977" lon="-1.78594">
        <ele>7</ele>
        <time>2018-04-22T17:30:07Z</time>
      </trkpt>
      <trkpt lat="46.49768" lon="-1.78594">
        <ele>7</ele>
        <time>2018-04-22T17:31:07Z</time>
      </trkpt>
      <trkpt lat="46.49767" lon="-1.78594">
        <ele>7</ele>
        <time>2018-04-22T17:32:07Z</time>
      </trkpt>
      <trkpt lat="46.49759" lon="-1.78605">
        <ele>7</ele>
        <time>2018-04-22T17:33:07Z</time>
      </trkpt>
      <trkpt lat="46.49756" lon="-1.78613">
        <ele>7</ele>
        <time>2018-04-22T17:34:07Z</time>
      </trkpt>
      <trkpt lat="46.49754" lon="-1.7862">
        <ele>6</ele>
        <time>2018-04-22T17:35:07Z</time>
      </trkpt>
      <trkpt lat="46.49746" lon="-1.78646">
        <ele>6</ele>
        <time>2018-04-22T17:36:07Z</time>
      </trkpt>
      <trkpt lat="46.49745" lon="-1.7865">
        <ele>6</ele>
        <time>2018-04-22T17:37:07Z</time>
      </trkpt>
      <trkpt lat="46.4974" lon="-1.78668">
        <ele>7</ele>
        <time>2018-04-22T17:38:07Z</time>
      </trkpt>
      <trkpt lat="46.49739" lon="-1.7867">
        <ele>7</ele>
        <time>2018-04-22T17:39:07Z</time>
      </trkpt>
      <trkpt lat="46.49736" lon="-1.78679">
        <ele>7</ele>
        <time>2018-04-22T17:40:07Z</time>
      </trkpt>
      <trkpt lat="46.49731" lon="-1.78695">
        <ele>7</ele>
        <time>2018-04-22T17:41:07Z</time>
      </trkpt>
      <trkpt lat="46.49725" lon="-1.78711">
        <ele>7</ele>
        <time>2018-04-22T17:42:07Z</time>
      </trkpt>
      <trkpt lat="46.49706" lon="-1.78753">
        <ele>8</ele>
        <time>2018-04-22T17:43:07Z</time>
      </trkpt>
      <trkpt lat="46.49695" lon="-1.7878">
        <ele>7</ele>
        <time>2018-04-22T17:44:07Z</time>
      </trkpt>
      <trkpt lat="46.49689" lon="-1.78795">
        <ele>6</ele>
        <time>2018-04-22T17:45:07Z</time>
      </trkpt>
      <trkpt lat="46.49672" lon="-1.78833">
        <ele>5</ele>
        <time>2018-04-22T17:46:07Z</time>
      </trkpt>
      <trkpt lat="46.49656" lon="-1.78871">
        <ele>5</ele>
        <time>2018-04-22T17:47:07Z</time>
      </trkpt>
      <trkpt lat="46.49656" lon="-1.78871">
        <ele>5</ele>
        <time>2018-04-22T17:48:07Z</time>
      </trkpt>
      <trkpt lat="46.49653" lon="-1.78877">
        <ele>5</ele>
        <time>2018-04-22T17:49:07Z</time>
      </trkpt>
      <trkpt lat="46.49645" lon="-1.78896">
        <ele>6</ele>
        <time>2018-04-22T17:50:07Z</time>
      </trkpt>
      <trkpt lat="46.49644" lon="-1.78899">
        <ele>6</ele>
        <time>2018-04-22T17:51:07Z</time>
      </trkpt>
      <trkpt lat="46.49631" lon="-1.78927">
        <ele>7</ele>
        <time>2018-04-22T17:52:07Z</time>
      </trkpt>
      <trkpt lat="46.49628" lon="-1.78938">
        <ele>7</ele>
        <time>2018-04-22T17:53:07Z</time>
      </trkpt>
      <trkpt lat="46.49626" lon="-1.78944">
        <ele>7</ele>
        <time>2018-04-22T17:54:07Z</time>
      </trkpt>
      <trkpt lat="46.49619" lon="-1.78979">
        <ele>7</ele>
        <time>2018-04-22T17:55:07Z</time>
      </trkpt>
      <trkpt lat="46.49615" lon="-1.79006">
        <ele>8</ele>
        <time>2018-04-22T17:56:07Z</time>
      </trkpt>
      <trkpt lat="46.49614" lon="-1.79015">
        <ele>7</ele>
        <time>2018-04-22T17:57:07Z</time>
      </trkpt>
      <trkpt lat="46.49612" lon="-1.79032">
        <ele>7</ele>
        <time>2018-04-22T17:58:07Z</time>
      </trkpt>
      <trkpt lat="46.49612" lon="-1.79039">
        <ele>7</ele>
        <time>2018-04-22T17:59:07Z</time>
      </trkpt>
      <trkpt lat="46.49615" lon="-1.79091">
        <ele>6</ele>
        <time>2018-04-22T18:00:07Z</time>
      </trkpt>
      <trkpt lat="46.49615" lon="-1.79091">
        <ele>6</ele>
        <time>2018-04-22T18:01:07Z</time>
      </trkpt>
      <trkpt lat="46.49621" lon="-1.79161">
        <ele>6</ele>
        <time>2018-04-22T18:02:07Z</time>
      </trkpt>
      <trkpt lat="46.49621" lon="-1.79162">
        <ele>6</ele>
        <time>2018-04-22T18:03:07Z</time>
      </trkpt>
      <trkpt lat="46.49626" lon="-1.7921">
        <ele>5</ele>
        <time>2018-04-22T18:04:07Z</time>
      </trkpt>
      <trkpt lat="46.49626" lon="-1.79218">
        <ele>5</ele>
        <time>2018-04-22T18:05:07Z</time>
      </trkpt>
      <trkpt lat="46.49628" lon="-1.79235">
        <ele>5</ele>
        <time>2018-04-22T18:06:07Z</time>
      </trkpt>
      <trkpt lat="46.4963" lon="-1.79258">
        <ele>4</ele>
        <time>2018-04-22T18:07:07Z</time>
      </trkpt>
      <trkpt lat="46.49633" lon="-1.79309">
        <ele>4</ele>
        <time>2018-04-22T18:08:07Z</time>
      </trkpt>
      <trkpt lat="46.49633" lon="-1.79312">
        <ele>4</ele>
        <time>2018-04-22T18:09:07Z</time>
      </trkpt>
      <trkpt lat="46.49634" lon="-1.79334">
        <ele>4</ele>
        <time>2018-04-22T18:10:07Z</time>
      </trkpt>
      <trkpt lat="46.49635" lon="-1.79355">
        <ele>4</ele>
        <time>2018-04-22T18:11:07Z</time>
      </trkpt>
      <trkpt lat="46.49635" lon="-1.79356">
        <ele>4</ele>
        <time>2018-04-22T18:12:07Z</time>
      </trkpt>
      <trkpt lat="46.49634" lon="-1.79366">
        <ele>3</ele>
        <time>2018-04-22T18:13:07Z</time>
      </trkpt>
      <trkpt lat="46.49625" lon="-1.79416">
        <ele>3</ele>
        <time>2018-04-22T18:14:07Z</time>
      </trkpt>
      <trkpt lat="46.4962" lon="-1.79441">
        <ele>3</ele>
        <time>2018-04-22T18:15:07Z</time>
      </trkpt>
      <trkpt lat="46.49611" lon="-1.79468">
        <ele>3</ele>
        <time>2018-04-22T18:16:07Z</time>
      </trkpt>
      <trkpt lat="46.49606" lon="-1.79477">
        <ele>3</ele>
        <time>2018-04-22T18:17:07Z</time>
      </trkpt>
      <trkpt lat="46.49604" lon="-1.79479">
        <ele>3</ele>
        <time>2018-04-22T18:18:07Z</time>
      </trkpt>
      <trkpt lat="46.49603" lon="-1.7948">
        <ele>3</ele>
        <time>2018-04-22T18:19:07Z</time>
      </trkpt>
      <trkpt lat="46.49602" lon="-1.79481">
        <ele>3</ele>
        <time>2018-04-22T18:20:07Z</time>
      </trkpt>
      <trkpt lat="46.496" lon="-1.79481">
        <ele>3</ele>
        <time>2018-04-22T18:21:07Z</time>
      </trkpt>
      <trkpt lat="46.49597" lon="-1.79482">
        <ele>3</ele>
        <time>2018-04-22T18:22:07Z</time>
      </trkpt>
      <trkpt lat="46.49587" lon="-1.79481">
        <ele>3</ele>
        <time>2018-04-22T18:23:07Z</time>
      </trkpt>
      <trkpt lat="46.49587" lon="-1.79481">
        <ele>3</ele>
        <time>2018-04-22T18:24:07Z</time>
      </trkpt>
      <trkpt lat="46.4956" lon="-1.79476">
        <ele>4</ele>
        <time>2018-04-22T18:25:07Z</time>
      </trkpt>
      <trkpt lat="46.49541" lon="-1.79468">
        <ele>5</ele>
        <time>2018-04-22T18:26:07Z</time>
      </trkpt>
      <trkpt lat="46.49534" lon="-1.79465">
        <ele>5</ele>
        <time>2018-04-22T18:27:07Z</time>
      </trkpt>
      <trkpt lat="46.49519" lon="-1.79458">
        <ele>6</ele>
        <time>2018-04-22T18:28:07Z</time>
      </trkpt>
      <trkpt lat="46.4951" lon="-1.79453">
        <ele>6</ele>
        <time>2018-04-22T18:29:07Z</time>
      </trkpt>
      <trkpt lat="46.49504" lon="-1.79446">
        <ele>7</ele>
        <time>2018-04-22T18:30:07Z</time>
      </trkpt>
      <trkpt lat="46.495" lon="-1.79439">
        <ele>7</ele>
        <time>2018-04-22T18:31:07Z</time>
      </trkpt>
      <trkpt lat="46.495" lon="-1.79439">
        <ele>7</ele>
        <time>2018-04-22T18:32:07Z</time>
      </trkpt>
      <trkpt lat="46.49499" lon="-1.7943">
        <ele>7</ele>
        <time>2018-04-22T18:33:07Z</time>
      </trkpt>
      <trkpt lat="46.49498" lon="-1.7942">
        <ele>8</ele>
        <time>2018-04-22T18:34:07Z</time>
      </trkpt>
      <trkpt lat="46.49499" lon="-1.79398">
        <ele>8</ele>
        <time>2018-04-22T18:35:07Z</time>
      </trkpt>
      <trkpt lat="46.495" lon="-1.79378">
        <ele>8</ele>
        <time>2018-04-22T18:36:07Z</time>
      </trkpt>
      <trkpt lat="46.495" lon="-1.79378">
        <ele>8</ele>
        <time>2018-04-22T18:37:07Z</time>
      </trkpt>
      <trkpt lat="46.495" lon="-1.79371">
        <ele>8</ele>
        <time>2018-04-22T18:38:07Z</time>
      </trkpt>
      <trkpt lat="46.495" lon="-1.79365">
        <ele>8</ele>
        <time>2018-04-22T18:39:07Z</time>
      </trkpt>
      <trkpt lat="46.495" lon="-1.79348">
        <ele>8</ele>
        <time>2018-04-22T18:40:07Z</time>
      </trkpt>
      <trkpt lat="46.49501" lon="-1.79334">
        <ele>8</ele>
        <time>2018-04-22T18:41:07Z</time>
      </trkpt>
      <trkpt lat="46.49502" lon="-1.79306">
        <ele>8</ele>
        <time>2018-04-22T18:42:07Z</time>
      </trkpt>
      <trkpt lat="46.49502" lon="-1.79294">
        <ele>8</ele>
        <time>2018-04-22T18:43:07Z</time>
      </trkpt>
      <trkpt lat="46.49502" lon="-1.79284">
        <ele>9</ele>
        <time>2018-04-22T18:44:07Z</time>
      </trkpt>
      <trkpt lat="46.49504" lon="-1.79242">
        <ele>9</ele>
        <time>2018-04-22T18:45:07Z</time>
      </trkpt>
      <trkpt lat="46.49504" lon="-1.79225">
        <ele>9</ele>
        <time>2018-04-22T18:46:07Z</time>
      </trkpt>
      <trkpt lat="46.49503" lon="-1.79218">
        <ele>10</ele>
        <time>2018-04-22T18:47:07Z</time>
      </trkpt>
      <trkpt lat="46.49503" lon="-1.79217">
        <ele>10</ele>
        <time>2018-04-22T18:48:07Z</time>
      </trkpt>
      <trkpt lat="46.49504" lon="-1.79195">
        <ele>10</ele>
        <time>2018-04-22T18:49:07Z</time>
      </trkpt>
      <trkpt lat="46.49502" lon="-1.79183">
        <ele>11</ele>
        <time>2018-04-22T18:50:07Z</time>
      </trkpt>
      <trkpt lat="46.49497" lon="-1.79175">
        <ele>11</ele>
        <time>2018-04-22T18:51:07Z</time>
      </trkpt>
      <trkpt lat="46.49482" lon="-1.7915">
        <ele>11</ele>
        <time>2018-04-22T18:52:07Z</time>
      </trkpt>
      <trkpt lat="46.49467" lon="-1.79134">
        <ele>10</ele>
        <time>2018-04-22T18:53:07Z</time>
      </trkpt>
      <trkpt lat="46.49467" lon="-1.79134">
        <ele>10</ele>
        <time>2018-04-22T18:54:07Z</time>
      </trkpt>
      <trkpt lat="46.49466" lon="-1.7912">
        <ele>10</ele>
        <time>2018-04-22T18:55:07Z</time>
      </trkpt>
      <trkpt lat="46.49467" lon="-1.79111">
        <ele>10</ele>
        <time>2018-04-22T18:56:07Z</time>
      </trkpt>
      <trkpt lat="46.49468" lon="-1.79064">
        <ele>10</ele>
        <time>2018-04-22T18:57:07Z</time>
      </trkpt>
      <trkpt lat="46.49468" lon="-1.79044">
        <ele>10</ele>
        <time>2018-04-22T18:58:07Z</time>
      </trkpt>
      <trkpt lat="46.4947" lon="-1.78987">
        <ele>10</ele>
        <time>2018-04-22T18:59:07Z</time>
      </trkpt>
      <trkpt lat="46.4947" lon="-1.78901">
        <ele>9</ele>
        <time>2018-04-22T19:00:07Z</time>
      </trkpt>
      <trkpt lat="46.49472" lon="-1.78868">
        <ele>8</ele>
        <time>2018-04-22T19:01:07Z</time>
      </trkpt>
      <trkpt lat="46.49472" lon="-1.78839">
        <ele>7</ele>
        <time>2018-04-22T19:02:07Z</time>
      </trkpt>
      <trkpt lat="46.49473" lon="-1.78719">
        <ele>9</ele>
        <time>2018-04-22T19:03:07Z</time>
      </trkpt>
      <trkpt lat="46.49473" lon="-1.78678">
        <ele>9</ele>
        <time>2018-04-22T19:04:07Z</time>
      </trkpt>
      <trkpt lat="46.49474" lon="-1.78664">
        <ele>9</ele>
        <time>2018-04-22T19:05:07Z</time>
      </trkpt>
      <trkpt lat="46.49474" lon="-1.78649">
        <ele>9</ele>
        <time>2018-04-22T19:06:07Z</time>
      </trkpt>
      <trkpt lat="46.49474" lon="-1.78643">
        <ele>9</ele>
        <time>2018-04-22T19:07:07Z</time>
      </trkpt>
      <trkpt lat="46.49474" lon="-1.78632">
        <ele>9</ele>
        <time>2018-04-22T19:08:07Z</time>
      </trkpt>
      <trkpt lat="46.49475" lon="-1.78623">
        <ele>9</ele>
        <time>2018-04-22T19:09:07Z</time>
      </trkpt>
      <trkpt lat="46.49475" lon="-1.78594">
        <ele>9</ele>
        <time>2018-04-22T19:10:07Z</time>
      </trkpt>
      <trkpt lat="46.49477" lon="-1.78521">
        <ele>10</ele>
        <time>2018-04-22T19:11:07Z</time>
      </trkpt>
      <trkpt lat="46.49477" lon="-1.78449">
        <ele>9</ele>
        <time>2018-04-22T19:12:07Z</time>
      </trkpt>
      <trkpt lat="46.49477" lon="-1.78446">
        <ele>9</ele>
        <time>2018-04-22T19:13:07Z</time>
      </trkpt>
      <trkpt lat="46.49478" lon="-1.78424">
        <ele>8</ele>
        <time>2018-04-22T19:14:07Z</time>
      </trkpt>
      <trkpt lat="46.49479" lon="-1.78412">
        <ele>8</ele>
        <time>2018-04-22T19:15:07Z</time>
      </trkpt>
      <trkpt lat="46.49479" lon="-1.78412">
        <ele>8</ele>
        <time>2018-04-22T19:16:07Z</time>
      </trkpt>
      <trkpt lat="46.49479" lon="-1.78398">
        <ele>9</ele>
        <time>2018-04-22T19:17:07Z</time>
      </trkpt>
      <trkpt lat="46.49471" lon="-1.78352">
        <ele>9</ele>
        <time>2018-04-22T19:18:07Z</time>
      </trkpt>
      <trkpt lat="46.49469" lon="-1.78343">
        <ele>9</ele>
        <time>2018-04-22T19:19:07Z</time>
      </trkpt>
      <trkpt lat="46.49459" lon="-1.78283">
        <ele>8</ele>
        <time>2018-04-22T19:20:07Z</time>
      </trkpt>
      <trkpt lat="46.49453" lon="-1.78245">
        <ele>8</ele>
        <time>2018-04-22T19:21:07Z</time>
      </trkpt>
      <trkpt lat="46.49445" lon="-1.78198">
        <ele>8</ele>
        <time>2018-04-22T19:22:07Z</time>
      </trkpt>
      <trkpt lat="46.49438" lon="-1.78161">
        <ele>9</ele>
        <time>2018-04-22T19:23:07Z</time>
      </trkpt>
      <trkpt lat="46.49432" lon="-1.78127">
        <ele>9</ele>
        <time>2018-04-22T19:24:07Z</time>
      </trkpt>
      <trkpt lat="46.49427" lon="-1.78098">
        <ele>10</ele>
        <time>2018-04-22T19:25:07Z</time>
      </trkpt>
      <trkpt lat="46.49424" lon="-1.78089">
        <ele>11</ele>
        <time>2018-04-22T19:26:07Z</time>
      </trkpt>
      <trkpt lat="46.49414" lon="-1.78064">
        <ele>11</ele>
        <time>2018-04-22T19:27:07Z</time>
      </trkpt>
      <trkpt lat="46.49391" lon="-1.77994">
        <ele>9</ele>
        <time>2018-04-22T19:28:07Z</time>
      </trkpt>
      <trkpt lat="46.49368" lon="-1.77925">
        <ele>8</ele>
        <time>2018-04-22T19:29:07Z</time>
      </trkpt>
      <trkpt lat="46.49347" lon="-1.77868">
        <ele>9</ele>
        <time>2018-04-22T19:30:07Z</time>
      </trkpt>
      <trkpt lat="46.4933" lon="-1.77818">
        <ele>9</ele>
        <time>2018-04-22T19:31:07Z</time>
      </trkpt>
      <trkpt lat="46.49319" lon="-1.7779">
        <ele>8</ele>
        <time>2018-04-22T19:32:07Z</time>
      </trkpt>
      <trkpt lat="46.49293" lon="-1.77725">
        <ele>6</ele>
        <time>2018-04-22T19:33:07Z</time>
      </trkpt>
      <trkpt lat="46.49256" lon="-1.77654">
        <ele>7</ele>
        <time>2018-04-22T19:34:07Z</time>
      </trkpt>
      <trkpt lat="46.49236" lon="-1.77629">
        <ele>7</ele>
        <time>2018-04-22T19:35:07Z</time>
      </trkpt>
      <trkpt lat="46.49228" lon="-1.77619">
        <ele>7</ele>
        <time>2018-04-22T19:36:07Z</time>
      </trkpt>
      <trkpt lat="46.49201" lon="-1.77579">
        <ele>8</ele>
        <time>2018-04-22T19:37:07Z</time>
      </trkpt>
      <trkpt lat="46.49184" lon="-1.77558">
        <ele>8</ele>
        <time>2018-04-22T19:38:07Z</time>
      </trkpt>
      <trkpt lat="46.49163" lon="-1.77531">
        <ele>8</ele>
        <time>2018-04-22T19:39:07Z</time>
      </trkpt>
      <trkpt lat="46.49153" lon="-1.77517">
        <ele>8</ele>
        <time>2018-04-22T19:40:07Z</time>
      </trkpt>
      <trkpt lat="46.49145" lon="-1.77506">
        <ele>7</ele>
        <time>2018-04-22T19:41:07Z</time>
      </trkpt>
      <trkpt lat="46.4913" lon="-1.77486">
        <ele>6</ele>
        <time>2018-04-22T19:42:07Z</time>
      </trkpt>
      <trkpt lat="46.49122" lon="-1.77472">
        <ele>6</ele>
        <time>2018-04-22T19:43:07Z</time>
      </trkpt>
      <trkpt lat="46.49121" lon="-1.77469">
        <ele>6</ele>
        <time>2018-04-22T19:44:07Z</time>
      </trkpt>
      <trkpt lat="46.49115" lon="-1.77456">
        <ele>6</ele>
        <time>2018-04-22T19:45:07Z</time>
      </trkpt>
      <trkpt lat="46.49109" lon="-1.77441">
        <ele>6</ele>
        <time>2018-04-22T19:46:07Z</time>
      </trkpt>
      <trkpt lat="46.49101" lon="-1.7742">
        <ele>6</ele>
        <time>2018-04-22T19:47:07Z</time>
      </trkpt>
      <trkpt lat="46.49096" lon="-1.77406">
        <ele>6</ele>
        <time>2018-04-22T19:48:07Z</time>
      </trkpt>
      <trkpt lat="46.49095" lon="-1.77403">
        <ele>6</ele>
        <time>2018-04-22T19:49:07Z</time>
      </trkpt>
      <trkpt lat="46.49092" lon="-1.77386">
        <ele>7</ele>
        <time>2018-04-22T19:50:07Z</time>
      </trkpt>
      <trkpt lat="46.49053" lon="-1.77276">
        <ele>7</ele>
        <time>2018-04-22T19:51:07Z</time>
      </trkpt>
      <trkpt lat="46.49053" lon="-1.77276">
        <ele>7</ele>
        <time>2018-04-22T19:52:07Z</time>
      </trkpt>
      <trkpt lat="46.49052" lon="-1.77276">
        <ele>7</ele>
        <time>2018-04-22T19:53:07Z</time>
      </trkpt>
      <trkpt lat="46.4905" lon="-1.77276">
        <ele>6</ele>
        <time>2018-04-22T19:54:07Z</time>
      </trkpt>
      <trkpt lat="46.49048" lon="-1.77275">
        <ele>6</ele>
        <time>2018-04-22T19:55:07Z</time>
      </trkpt>
      <trkpt lat="46.49046" lon="-1.77273">
        <ele>6</ele>
        <time>2018-04-22T19:56:07Z</time>
      </trkpt>
      <trkpt lat="46.49045" lon="-1.77271">
        <ele>6</ele>
        <time>2018-04-22T19:57:07Z</time>
      </trkpt>
      <trkpt lat="46.49044" lon="-1.77268">
        <ele>6</ele>
        <time>2018-04-22T19:58:07Z</time>
      </trkpt>
      <trkpt lat="46.49044" lon="-1.77265">
        <ele>6</ele>
        <time>2018-04-22T19:59:07Z</time>
      </trkpt>
      <trkpt lat="46.49039" lon="-1.77259">
        <ele>6</ele>
        <time>2018-04-22T20:00:07Z</time>
      </trkpt>
      <trkpt lat="46.4903" lon="-1.77246">
        <ele>5</ele>
        <time>2018-04-22T20:01:07Z</time>
      </trkpt>
      <trkpt lat="46.49012" lon="-1.77203">
        <ele>6</ele>
        <time>2018-04-22T20:02:07Z</time>
      </trkpt>
      <trkpt lat="46.48996" lon="-1.77168">
        <ele>7</ele>
        <time>2018-04-22T20:03:07Z</time>
      </trkpt>
      <trkpt lat="46.48983" lon="-1.77139">
        <ele>6</ele>
        <time>2018-04-22T20:04:07Z</time>
      </trkpt>
      <trkpt lat="46.48966" lon="-1.77101">
        <ele>6</ele>
        <time>2018-04-22T20:05:07Z</time>
      </trkpt>
      <trkpt lat="46.48958" lon="-1.77084">
        <ele>6</ele>
        <time>2018-04-22T20:06:07Z</time>
      </trkpt>
      <trkpt lat="46.48956" lon="-1.77077">
        <ele>6</ele>
        <time>2018-04-22T20:07:07Z</time>
      </trkpt>
      <trkpt lat="46.48954" lon="-1.77073">
        <ele>6</ele>
        <time>2018-04-22T20:08:07Z</time>
      </trkpt>
      <trkpt lat="46.4895" lon="-1.77064">
        <ele>6</ele>
        <time>2018-04-22T20:09:07Z</time>
      </trkpt>
      <trkpt lat="46.48938" lon="-1.77039">
        <ele>6</ele>
        <time>2018-04-22T20:10:07Z</time>
      </trkpt>
      <trkpt lat="46.48932" lon="-1.77023">
        <ele>6</ele>
        <time>2018-04-22T20:11:07Z</time>
      </trkpt>
      <trkpt lat="46.48923" lon="-1.77001">
        <ele>7</ele>
        <time>2018-04-22T20:12:07Z</time>
      </trkpt>
      <trkpt lat="46.4892" lon="-1.76992">
        <ele>7</ele>
        <time>2018-04-22T20:13:07Z</time>
      </trkpt>
      <trkpt lat="46.48915" lon="-1.76978">
        <ele>7</ele>
        <time>2018-04-22T20:14:07Z</time>
      </trkpt>
      <trkpt lat="46.48915" lon="-1.76978">
        <ele>7</ele>
        <time>2018-04-22T20:15:07Z</time>
      </trkpt>
      <trkpt lat="46.48903" lon="-1.76966">
        <ele>7</ele>
        <time>2018-04-22T20:16:07Z</time>
      </trkpt>
      <trkpt lat="46.48865" lon="-1.76923">
        <ele>8</ele>
        <time>2018-04-22T20:17:07Z</time>
      </trkpt>
      <trkpt lat="46.48852" lon="-1.76913">
        <ele>8</ele>
        <time>2018-04-22T20:18:07Z</time>
      </trkpt>
      <trkpt lat="46.48843" lon="-1.76903">
        <ele>8</ele>
        <time>2018-04-22T20:19:07Z</time>
      </trkpt>
      <trkpt lat="46.4881" lon="-1.76872">
        <ele>9</ele>
        <time>2018-04-22T20:20:07Z</time>
      </trkpt>
      <trkpt lat="46.48771" lon="-1.76835">
        <ele>10</ele>
        <time>2018-04-22T20:21:07Z</time>
      </trkpt>
      <trkpt lat="46.4876" lon="-1.76824">
        <ele>10</ele>
        <time>2018-04-22T20:22:07Z</time>
      </trkpt>
      <trkpt lat="46.48735" lon="-1.76801">
        <ele>10</ele>
        <time>2018-04-22T20:23:07Z</time>
      </trkpt>
      <trkpt lat="46.48717" lon="-1.76783">
        <ele>9</ele>
        <time>2018-04-22T20:24:07Z</time>
      </trkpt>
      <trkpt lat="46.48684" lon="-1.76752">
        <ele>10</ele>
        <time>2018-04-22T20:25:07Z</time>
      </trkpt>
      <trkpt lat="46.48647" lon="-1.76717">
        <ele>9</ele>
        <time>2018-04-22T20:26:07Z</time>
      </trkpt>
      <trkpt lat="46.48614" lon="-1.76685">
        <ele>9</ele>
        <time>2018-04-22T20:27:07Z</time>
      </trkpt>
      <trkpt lat="46.48574" lon="-1.76649">
        <ele>9</ele>
        <time>2018-04-22T20:28:07Z</time>
      </trkpt>
      <trkpt lat="46.48547" lon="-1.76622">
        <ele>8</ele>
        <time>2018-04-22T20:29:07Z</time>
      </trkpt>
      <trkpt lat="46.48539" lon="-1.76615">
        <ele>8</ele>
        <time>2018-04-22T20:30:07Z</time>
      </trkpt>
      <trkpt lat="46.48514" lon="-1.76592">
        <ele>8</ele>
        <time>2018-04-22T20:31:07Z</time>
      </trkpt>
      <trkpt lat="46.48507" lon="-1.76584">
        <ele>8</ele>
        <time>2018-04-22T20:32:07Z</time>
      </trkpt>
      <trkpt lat="46.48496" lon="-1.76574">
        <ele>8</ele>
        <time>2018-04-22T20:33:07Z</time>
      </trkpt>
      <trkpt lat="46.48491" lon="-1.76567">
        <ele>8</ele>
        <time>2018-04-22T20:34:07Z</time>
      </trkpt>
      <trkpt lat="46.48483" lon="-1.76557">
        <ele>7</ele>
        <time>2018-04-22T20:35:07Z</time>
      </trkpt>
      <trkpt lat="46.48482" lon="-1.76558">
        <ele>7</ele>
        <time>2018-04-22T20:36:07Z</time>
      </trkpt>
      <trkpt lat="46.4848" lon="-1.76558">
        <ele>7</ele>
        <time>2018-04-22T20:37:07Z</time>
      </trkpt>
      <trkpt lat="46.48477" lon="-1.76558">
        <ele>7</ele>
        <time>2018-04-22T20:38:07Z</time>
      </trkpt>
      <trkpt lat="46.48475" lon="-1.76557">
        <ele>6</ele>
        <time>2018-04-22T20:39:07Z</time>
      </trkpt>
      <trkpt lat="46.48472" lon="-1.76555">
        <ele>6</ele>
        <time>2018-04-22T20:40:07Z</time>
      </trkpt>
      <trkpt lat="46.4847" lon="-1.76553">
        <ele>6</ele>
        <time>2018-04-22T20:41:07Z</time>
      </trkpt>
      <trkpt lat="46.48467" lon="-1.76551">
        <ele>6</ele>
        <time>2018-04-22T20:42:07Z</time>
      </trkpt>
      <trkpt lat="46.48464" lon="-1.76548">
        <ele>6</ele>
        <time>2018-04-22T20:43:07Z</time>
      </trkpt>
      <trkpt lat="46.48462" lon="-1.76546">
        <ele>6</ele>
        <time>2018-04-22T20:44:07Z</time>
      </trkpt>
      <trkpt lat="46.4846" lon="-1.76544">
        <ele>6</ele>
        <time>2018-04-22T20:45:07Z</time>
      </trkpt>
      <trkpt lat="46.48459" lon="-1.76541">
        <ele>6</ele>
        <time>2018-04-22T20:46:07Z</time>
      </trkpt>
      <trkpt lat="46.48459" lon="-1.76538">
        <ele>6</ele>
        <time>2018-04-22T20:47:07Z</time>
      </trkpt>
      <trkpt lat="46.48459" lon="-1.76535">
        <ele>6</ele>
        <time>2018-04-22T20:48:07Z</time>
      </trkpt>
      <trkpt lat="46.48459" lon="-1.76534">
        <ele>6</ele>
        <time>2018-04-22T20:49:07Z</time>
      </trkpt>
      <trkpt lat="46.48449" lon="-1.76528">
        <ele>5</ele>
        <time>2018-04-22T20:50:07Z</time>
      </trkpt>
      <trkpt lat="46.48446" lon="-1.76525">
        <ele>5</ele>
        <time>2018-04-22T20:51:07Z</time>
      </trkpt>
      <trkpt lat="46.48442" lon="-1.76522">
        <ele>5</ele>
        <time>2018-04-22T20:52:07Z</time>
      </trkpt>
      <trkpt lat="46.48439" lon="-1.76519">
        <ele>5</ele>
        <time>2018-04-22T20:53:07Z</time>
      </trkpt>
      <trkpt lat="46.48436" lon="-1.76515">
        <ele>5</ele>
        <time>2018-04-22T20:54:07Z</time>
      </trkpt>
      <trkpt lat="46.48428" lon="-1.76506">
        <ele>5</ele>
        <time>2018-04-22T20:55:07Z</time>
      </trkpt>
      <trkpt lat="46.48416" lon="-1.76492">
        <ele>4</ele>
        <time>2018-04-22T20:56:07Z</time>
      </trkpt>
      <trkpt lat="46.48405" lon="-1.76477">
        <ele>4</ele>
        <time>2018-04-22T20:57:07Z</time>
      </trkpt>
      <trkpt lat="46.48397" lon="-1.76467">
        <ele>4</ele>
        <time>2018-04-22T20:58:07Z</time>
      </trkpt>
      <trkpt lat="46.48385" lon="-1.76452">
        <ele>4</ele>
        <time>2018-04-22T20:59:07Z</time>
      </trkpt>
      <trkpt lat="46.48329" lon="-1.76385">
        <ele>2</ele>
        <time>2018-04-22T21:00:07Z</time>
      </trkpt>
      <trkpt lat="46.48133" lon="-1.76156">
        <ele>5</ele>
        <time>2018-04-22T21:01:07Z</time>
      </trkpt>
      <trkpt lat="46.48128" lon="-1.76153">
        <ele>5</ele>
        <time>2018-04-22T21:02:07Z</time>
      </trkpt>
      <trkpt lat="46.48122" lon="-1.76147">
        <ele>5</ele>
        <time>2018-04-22T21:03:07Z</time>
      </trkpt>
      <trkpt lat="46.48116" lon="-1.76139">
        <ele>5</ele>
        <time>2018-04-22T21:04:07Z</time>
      </trkpt>
      <trkpt lat="46.48107" lon="-1.76129">
        <ele>5</ele>
        <time>2018-04-22T21:05:07Z</time>
      </trkpt>
      <trkpt lat="46.48102" lon="-1.76123">
        <ele>5</ele>
        <time>2018-04-22T21:06:07Z</time>
      </trkpt>
      <trkpt lat="46.48089" lon="-1.76109">
        <ele>6</ele>
        <time>2018-04-22T21:07:07Z</time>
      </trkpt>
      <trkpt lat="46.48079" lon="-1.761">
        <ele>6</ele>
        <time>2018-04-22T21:08:07Z</time>
      </trkpt>
      <trkpt lat="46.48071" lon="-1.76092">
        <ele>6</ele>
        <time>2018-04-22T21:09:07Z</time>
      </trkpt>
      <trkpt lat="46.48064" lon="-1.76086">
        <ele>6</ele>
        <time>2018-04-22T21:10:07Z</time>
      </trkpt>
      <trkpt lat="46.4806" lon="-1.76083">
        <ele>6</ele>
        <time>2018-04-22T21:11:07Z</time>
      </trkpt>
      <trkpt lat="46.48053" lon="-1.76078">
        <ele>6</ele>
        <time>2018-04-22T21:12:07Z</time>
      </trkpt>
      <trkpt lat="46.48053" lon="-1.76079">
        <ele>6</ele>
        <time>2018-04-22T21:13:07Z</time>
      </trkpt>
      <trkpt lat="46.48052" lon="-1.76079">
        <ele>6</ele>
        <time>2018-04-22T21:14:07Z</time>
      </trkpt>
      <trkpt lat="46.48051" lon="-1.7608">
        <ele>6</ele>
        <time>2018-04-22T21:15:07Z</time>
      </trkpt>
      <trkpt lat="46.4805" lon="-1.7608">
        <ele>6</ele>
        <time>2018-04-22T21:16:07Z</time>
      </trkpt>
      <trkpt lat="46.48049" lon="-1.7608">
        <ele>5</ele>
        <time>2018-04-22T21:17:07Z</time>
      </trkpt>
      <trkpt lat="46.48048" lon="-1.7608">
        <ele>5</ele>
        <time>2018-04-22T21:18:07Z</time>
      </trkpt>
      <trkpt lat="46.48048" lon="-1.76079">
        <ele>5</ele>
        <time>2018-04-22T21:19:07Z</time>
      </trkpt>
      <trkpt lat="46.48047" lon="-1.76079">
        <ele>5</ele>
        <time>2018-04-22T21:20:07Z</time>
      </trkpt>
      <trkpt lat="46.48046" lon="-1.76079">
        <ele>5</ele>
        <time>2018-04-22T21:21:07Z</time>
      </trkpt>
      <trkpt lat="46.48046" lon="-1.76078">
        <ele>5</ele>
        <time>2018-04-22T21:22:07Z</time>
      </trkpt>
      <trkpt lat="46.48045" lon="-1.76078">
        <ele>5</ele>
        <time>2018-04-22T21:23:07Z</time>
      </trkpt>
      <trkpt lat="46.48045" lon="-1.76077">
        <ele>5</ele>
        <time>2018-04-22T21:24:07Z</time>
      </trkpt>
      <trkpt lat="46.48045" lon="-1.76076">
        <ele>5</ele>
        <time>2018-04-22T21:25:07Z</time>
      </trkpt>
      <trkpt lat="46.48044" lon="-1.76076">
        <ele>5</ele>
        <time>2018-04-22T21:26:07Z</time>
      </trkpt>
      <trkpt lat="46.48044" lon="-1.76075">
        <ele>5</ele>
        <time>2018-04-22T21:27:07Z</time>
      </trkpt>
      <trkpt lat="46.4803" lon="-1.76072">
        <ele>5</ele>
        <time>2018-04-22T21:28:07Z</time>
      </trkpt>
      <trkpt lat="46.48019" lon="-1.76069">
        <ele>5</ele>
        <time>2018-04-22T21:29:07Z</time>
      </trkpt>
      <trkpt lat="46.4801" lon="-1.76067">
        <ele>5</ele>
        <time>2018-04-22T21:30:07Z</time>
      </trkpt>
      <trkpt lat="46.47982" lon="-1.76057">
        <ele>5</ele>
        <time>2018-04-22T21:31:07Z</time>
      </trkpt>
      <trkpt lat="46.47979" lon="-1.76055">
        <ele>5</ele>
        <time>2018-04-22T21:32:07Z</time>
      </trkpt>
      <trkpt lat="46.47946" lon="-1.76044">
        <ele>6</ele>
        <time>2018-04-22T21:33:07Z</time>
      </trkpt>
      <trkpt lat="46.47914" lon="-1.76033">
        <ele>8</ele>
        <time>2018-04-22T21:34:07Z</time>
      </trkpt>
      <trkpt lat="46.47885" lon="-1.76024">
        <ele>8</ele>
        <time>2018-04-22T21:35:07Z</time>
      </trkpt>
      <trkpt lat="46.47879" lon="-1.76021">
        <ele>8</ele>
        <time>2018-04-22T21:36:07Z</time>
      </trkpt>
      <trkpt lat="46.47874" lon="-1.76019">
        <ele>8</ele>
        <time>2018-04-22T21:37:07Z</time>
      </trkpt>
      <trkpt lat="46.47871" lon="-1.76017">
        <ele>8</ele>
        <time>2018-04-22T21:38:07Z</time>
      </trkpt>
      <trkpt lat="46.47869" lon="-1.76016">
        <ele>8</ele>
        <time>2018-04-22T21:39:07Z</time>
      </trkpt>
      <trkpt lat="46.47866" lon="-1.76015">
        <ele>8</ele>
        <time>2018-04-22T21:40:07Z</time>
      </trkpt>
      <trkpt lat="46.47856" lon="-1.76009">
        <ele>8</ele>
        <time>2018-04-22T21:41:07Z</time>
      </trkpt>
      <trkpt lat="46.47855" lon="-1.76009">
        <ele>8</ele>
        <time>2018-04-22T21:42:07Z</time>
      </trkpt>
      <trkpt lat="46.47847" lon="-1.76003">
        <ele>8</ele>
        <time>2018-04-22T21:43:07Z</time>
      </trkpt>
      <trkpt lat="46.47843" lon="-1.76">
        <ele>8</ele>
        <time>2018-04-22T21:44:07Z</time>
      </trkpt>
      <trkpt lat="46.47837" lon="-1.75994">
        <ele>8</ele>
        <time>2018-04-22T21:45:07Z</time>
      </trkpt>
      <trkpt lat="46.47818" lon="-1.75977">
        <ele>8</ele>
        <time>2018-04-22T21:46:07Z</time>
      </trkpt>
      <trkpt lat="46.47805" lon="-1.75965">
        <ele>8</ele>
        <time>2018-04-22T21:47:07Z</time>
      </trkpt>
      <trkpt lat="46.47783" lon="-1.75942">
        <ele>8</ele>
        <time>2018-04-22T21:48:07Z</time>
      </trkpt>
      <trkpt lat="46.47778" lon="-1.75937">
        <ele>8</ele>
        <time>2018-04-22T21:49:07Z</time>
      </trkpt>
      <trkpt lat="46.47769" lon="-1.75927">
        <ele>8</ele>
        <time>2018-04-22T21:50:07Z</time>
      </trkpt>
      <trkpt lat="46.47764" lon="-1.7592">
        <ele>8</ele>
        <time>2018-04-22T21:51:07Z</time>
      </trkpt>
      <trkpt lat="46.47759" lon="-1.75915">
        <ele>8</ele>
        <time>2018-04-22T21:52:07Z</time>
      </trkpt>
      <trkpt lat="46.47751" lon="-1.75902">
        <ele>8</ele>
        <time>2018-04-22T21:53:07Z</time>
      </trkpt>
      <trkpt lat="46.47747" lon="-1.75896">
        <ele>8</ele>
        <time>2018-04-22T21:54:07Z</time>
      </trkpt>
      <trkpt lat="46.47739" lon="-1.75883">
        <ele>8</ele>
        <time>2018-04-22T21:55:07Z</time>
      </trkpt>
      <trkpt lat="46.47723" lon="-1.75857">
        <ele>8</ele>
        <time>2018-04-22T21:56:07Z</time>
      </trkpt>
      <trkpt lat="46.47703" lon="-1.75825">
        <ele>8</ele>
        <time>2018-04-22T21:57:07Z</time>
      </trkpt>
      <trkpt lat="46.47695" lon="-1.75813">
        <ele>8</ele>
        <time>2018-04-22T21:58:07Z</time>
      </trkpt>
      <trkpt lat="46.47691" lon="-1.75806">
        <ele>8</ele>
        <time>2018-04-22T21:59:07Z</time>
      </trkpt>
      <trkpt lat="46.47687" lon="-1.75801">
        <ele>8</ele>
        <time>2018-04-22T22:00:07Z</time>
      </trkpt>
      <trkpt lat="46.47683" lon="-1.75795">
        <ele>8</ele>
        <time>2018-04-22T22:01:07Z</time>
      </trkpt>
      <trkpt lat="46.47679" lon="-1.7579">
        <ele>8</ele>
        <time>2018-04-22T22:02:07Z</time>
      </trkpt>
      <trkpt lat="46.47672" lon="-1.75782">
        <ele>8</ele>
        <time>2018-04-22T22:03:07Z</time>
      </trkpt>
      <trkpt lat="46.4766" lon="-1.75771">
        <ele>8</ele>
        <time>2018-04-22T22:04:07Z</time>
      </trkpt>
      <trkpt lat="46.47651" lon="-1.75762">
        <ele>8</ele>
        <time>2018-04-22T22:05:07Z</time>
      </trkpt>
      <trkpt lat="46.47641" lon="-1.75753">
        <ele>8</ele>
        <time>2018-04-22T22:06:07Z</time>
      </trkpt>
      <trkpt lat="46.47637" lon="-1.75749">
        <ele>8</ele>
        <time>2018-04-22T22:07:07Z</time>
      </trkpt>
      <trkpt lat="46.47632" lon="-1.75743">
        <ele>8</ele>
        <time>2018-04-22T22:08:07Z</time>
      </trkpt>
      <trkpt lat="46.47628" lon="-1.75737">
        <ele>8</ele>
        <time>2018-04-22T22:09:07Z</time>
      </trkpt>
      <trkpt lat="46.47624" lon="-1.75731">
        <ele>8</ele>
        <time>2018-04-22T22:10:07Z</time>
      </trkpt>
      <trkpt lat="46.4762" lon="-1.75726">
        <ele>8</ele>
        <time>2018-04-22T22:11:07Z</time>
      </trkpt>
      <trkpt lat="46.47617" lon="-1.75719">
        <ele>8</ele>
        <time>2018-04-22T22:12:07Z</time>
      </trkpt>
      <trkpt lat="46.47605" lon="-1.75702">
        <ele>8</ele>
        <time>2018-04-22T22:13:07Z</time>
      </trkpt>
      <trkpt lat="46.47601" lon="-1.75696">
        <ele>8</ele>
        <time>2018-04-22T22:14:07Z</time>
      </trkpt>
      <trkpt lat="46.47597" lon="-1.75691">
        <ele>8</ele>
        <time>2018-04-22T22:15:07Z</time>
      </trkpt>
      <trkpt lat="46.47592" lon="-1.75685">
        <ele>8</ele>
        <time>2018-04-22T22:16:07Z</time>
      </trkpt>
      <trkpt lat="46.47583" lon="-1.75674">
        <ele>9</ele>
        <time>2018-04-22T22:17:07Z</time>
      </trkpt>
      <trkpt lat="46.47565" lon="-1.75653">
        <ele>8</ele>
        <time>2018-04-22T22:18:07Z</time>
      </trkpt>
      <trkpt lat="46.4756" lon="-1.75647">
        <ele>8</ele>
        <time>2018-04-22T22:19:07Z</time>
      </trkpt>
      <trkpt lat="46.47553" lon="-1.75638">
        <ele>7</ele>
        <time>2018-04-22T22:20:07Z</time>
      </trkpt>
      <trkpt lat="46.47544" lon="-1.75623">
        <ele>7</ele>
        <time>2018-04-22T22:21:07Z</time>
      </trkpt>
      <trkpt lat="46.47539" lon="-1.75617">
        <ele>7</ele>
        <time>2018-04-22T22:22:07Z</time>
      </trkpt>
      <trkpt lat="46.47536" lon="-1.7561">
        <ele>7</ele>
        <time>2018-04-22T22:23:07Z</time>
      </trkpt>
      <trkpt lat="46.47531" lon="-1.75604">
        <ele>7</ele>
        <time>2018-04-22T22:24:07Z</time>
      </trkpt>
      <trkpt lat="46.47528" lon="-1.75597">
        <ele>7</ele>
        <time>2018-04-22T22:25:07Z</time>
      </trkpt>
      <trkpt lat="46.47525" lon="-1.7559">
        <ele>7</ele>
        <time>2018-04-22T22:26:07Z</time>
      </trkpt>
      <trkpt lat="46.47523" lon="-1.75582">
        <ele>7</ele>
        <time>2018-04-22T22:27:07Z</time>
      </trkpt>
      <trkpt lat="46.4752" lon="-1.75574">
        <ele>7</ele>
        <time>2018-04-22T22:28:07Z</time>
      </trkpt>
      <trkpt lat="46.47518" lon="-1.75567">
        <ele>7</ele>
        <time>2018-04-22T22:29:07Z</time>
      </trkpt>
      <trkpt lat="46.47517" lon="-1.75559">
        <ele>7</ele>
        <time>2018-04-22T22:30:07Z</time>
      </trkpt>
      <trkpt lat="46.47516" lon="-1.75551">
        <ele>7</ele>
        <time>2018-04-22T22:31:07Z</time>
      </trkpt>
      <trkpt lat="46.47515" lon="-1.75544">
        <ele>8</ele>
        <time>2018-04-22T22:32:07Z</time>
      </trkpt>
      <trkpt lat="46.47513" lon="-1.7553">
        <ele>8</ele>
        <time>2018-04-22T22:33:07Z</time>
      </trkpt>
      <trkpt lat="46.4751" lon="-1.75503">
        <ele>9</ele>
        <time>2018-04-22T22:34:07Z</time>
      </trkpt>
      <trkpt lat="46.47509" lon="-1.75494">
        <ele>9</ele>
        <time>2018-04-22T22:35:07Z</time>
      </trkpt>
      <trkpt lat="46.47508" lon="-1.75486">
        <ele>9</ele>
        <time>2018-04-22T22:36:07Z</time>
      </trkpt>
      <trkpt lat="46.47507" lon="-1.75478">
        <ele>9</ele>
        <time>2018-04-22T22:37:07Z</time>
      </trkpt>
      <trkpt lat="46.47506" lon="-1.7547">
        <ele>8</ele>
        <time>2018-04-22T22:38:07Z</time>
      </trkpt>
      <trkpt lat="46.47502" lon="-1.75448">
        <ele>8</ele>
        <time>2018-04-22T22:39:07Z</time>
      </trkpt>
      <trkpt lat="46.475" lon="-1.75441">
        <ele>8</ele>
        <time>2018-04-22T22:40:07Z</time>
      </trkpt>
      <trkpt lat="46.47498" lon="-1.75431">
        <ele>8</ele>
        <time>2018-04-22T22:41:07Z</time>
      </trkpt>
      <trkpt lat="46.47496" lon="-1.7542">
        <ele>8</ele>
        <time>2018-04-22T22:42:07Z</time>
      </trkpt>
      <trkpt lat="46.47495" lon="-1.75413">
        <ele>8</ele>
        <time>2018-04-22T22:43:07Z</time>
      </trkpt>
      <trkpt lat="46.47494" lon="-1.75404">
        <ele>8</ele>
        <time>2018-04-22T22:44:07Z</time>
      </trkpt>
      <trkpt lat="46.47492" lon="-1.75385">
        <ele>7</ele>
        <time>2018-04-22T22:45:07Z</time>
      </trkpt>
      <trkpt lat="46.47491" lon="-1.75385">
        <ele>7</ele>
        <time>2018-04-22T22:46:07Z</time>
      </trkpt>
      <trkpt lat="46.4749" lon="-1.75385">
        <ele>7</ele>
        <time>2018-04-22T22:47:07Z</time>
      </trkpt>
      <trkpt lat="46.4749" lon="-1.75386">
        <ele>7</ele>
        <time>2018-04-22T22:48:07Z</time>
      </trkpt>
      <trkpt lat="46.47489" lon="-1.75386">
        <ele>7</ele>
        <time>2018-04-22T22:49:07Z</time>
      </trkpt>
      <trkpt lat="46.47489" lon="-1.75385">
        <ele>7</ele>
        <time>2018-04-22T22:50:07Z</time>
      </trkpt>
      <trkpt lat="46.47488" lon="-1.75385">
        <ele>7</ele>
        <time>2018-04-22T22:51:07Z</time>
      </trkpt>
      <trkpt lat="46.47487" lon="-1.75385">
        <ele>7</ele>
        <time>2018-04-22T22:52:07Z</time>
      </trkpt>
      <trkpt lat="46.47486" lon="-1.75384">
        <ele>7</ele>
        <time>2018-04-22T22:53:07Z</time>
      </trkpt>
      <trkpt lat="46.47485" lon="-1.75384">
        <ele>7</ele>
        <time>2018-04-22T22:54:07Z</time>
      </trkpt>
      <trkpt lat="46.47485" lon="-1.75383">
        <ele>7</ele>
        <time>2018-04-22T22:55:07Z</time>
      </trkpt>
      <trkpt lat="46.47484" lon="-1.75382">
        <ele>7</ele>
        <time>2018-04-22T22:56:07Z</time>
      </trkpt>
      <trkpt lat="46.47484" lon="-1.75381">
        <ele>7</ele>
        <time>2018-04-22T22:57:07Z</time>
      </trkpt>
      <trkpt lat="46.47483" lon="-1.75381">
        <ele>7</ele>
        <time>2018-04-22T22:58:07Z</time>
      </trkpt>
      <trkpt lat="46.47483" lon="-1.7538">
        <ele>7</ele>
        <time>2018-04-22T22:59:07Z</time>
      </trkpt>
      <trkpt lat="46.47483" lon="-1.75379">
        <ele>7</ele>
        <time>2018-04-22T23:00:07Z</time>
      </trkpt>
      <trkpt lat="46.47483" lon="-1.75378">
        <ele>7</ele>
        <time>2018-04-22T23:01:07Z</time>
      </trkpt>
      <trkpt lat="46.47482" lon="-1.75378">
        <ele>7</ele>
        <time>2018-04-22T23:02:07Z</time>
      </trkpt>
      <trkpt lat="46.47482" lon="-1.75377">
        <ele>7</ele>
        <time>2018-04-22T23:03:07Z</time>
      </trkpt>
      <trkpt lat="46.47482" lon="-1.75376">
        <ele>7</ele>
        <time>2018-04-22T23:04:07Z</time>
      </trkpt>
      <trkpt lat="46.47482" lon="-1.75375">
        <ele>7</ele>
        <time>2018-04-22T23:05:07Z</time>
      </trkpt>
      <trkpt lat="46.47482" lon="-1.75374">
        <ele>7</ele>
        <time>2018-04-22T23:06:07Z</time>
      </trkpt>
      <trkpt lat="46.47482" lon="-1.75373">
        <ele>7</ele>
        <time>2018-04-22T23:07:07Z</time>
      </trkpt>
      <trkpt lat="46.47482" lon="-1.75372">
        <ele>7</ele>
        <time>2018-04-22T23:08:07Z</time>
      </trkpt>
      <trkpt lat="46.47482" lon="-1.75371">
        <ele>7</ele>
        <time>2018-04-22T23:09:07Z</time>
      </trkpt>
      <trkpt lat="46.47483" lon="-1.7537">
        <ele>7</ele>
        <time>2018-04-22T23:10:07Z</time>
      </trkpt>
      <trkpt lat="46.47483" lon="-1.75369">
        <ele>7</ele>
        <time>2018-04-22T23:11:07Z</time>
      </trkpt>
      <trkpt lat="46.47483" lon="-1.75368">
        <ele>7</ele>
        <time>2018-04-22T23:12:07Z</time>
      </trkpt>
      <trkpt lat="46.47484" lon="-1.75368">
        <ele>7</ele>
        <time>2018-04-22T23:13:07Z</time>
      </trkpt>
      <trkpt lat="46.47484" lon="-1.75367">
        <ele>7</ele>
        <time>2018-04-22T23:14:07Z</time>
      </trkpt>
      <trkpt lat="46.47484" lon="-1.75366">
        <ele>7</ele>
        <time>2018-04-22T23:15:07Z</time>
      </trkpt>
      <trkpt lat="46.47485" lon="-1.75366">
        <ele>7</ele>
        <time>2018-04-22T23:16:07Z</time>
      </trkpt>
      <trkpt lat="46.47485" lon="-1.75365">
        <ele>7</ele>
        <time>2018-04-22T23:17:07Z</time>
      </trkpt>
      <trkpt lat="46.47486" lon="-1.75365">
        <ele>7</ele>
        <time>2018-04-22T23:18:07Z</time>
      </trkpt>
      <trkpt lat="46.47486" lon="-1.75364">
        <ele>7</ele>
        <time>2018-04-22T23:19:07Z</time>
      </trkpt>
      <trkpt lat="46.47482" lon="-1.7535">
        <ele>7</ele>
        <time>2018-04-22T23:20:07Z</time>
      </trkpt>
      <trkpt lat="46.4748" lon="-1.7534">
        <ele>7</ele>
        <time>2018-04-22T23:21:07Z</time>
      </trkpt>
      <trkpt lat="46.47479" lon="-1.75336">
        <ele>6</ele>
        <time>2018-04-22T23:22:07Z</time>
      </trkpt>
      <trkpt lat="46.47477" lon="-1.75329">
        <ele>6</ele>
        <time>2018-04-22T23:23:07Z</time>
      </trkpt>
      <trkpt lat="46.47475" lon="-1.75316">
        <ele>7</ele>
        <time>2018-04-22T23:24:07Z</time>
      </trkpt>
      <trkpt lat="46.47471" lon="-1.75295">
        <ele>7</ele>
        <time>2018-04-22T23:25:07Z</time>
      </trkpt>
      <trkpt lat="46.47462" lon="-1.75249">
        <ele>7</ele>
        <time>2018-04-22T23:26:07Z</time>
      </trkpt>
      <trkpt lat="46.47453" lon="-1.75204">
        <ele>8</ele>
        <time>2018-04-22T23:27:07Z</time>
      </trkpt>
      <trkpt lat="46.47449" lon="-1.75184">
        <ele>8</ele>
        <time>2018-04-22T23:28:07Z</time>
      </trkpt>
      <trkpt lat="46.47447" lon="-1.75175">
        <ele>9</ele>
        <time>2018-04-22T23:29:07Z</time>
      </trkpt>
      <trkpt lat="46.47442" lon="-1.75149">
        <ele>9</ele>
        <time>2018-04-22T23:30:07Z</time>
      </trkpt>
      <trkpt lat="46.47435" lon="-1.75114">
        <ele>9</ele>
        <time>2018-04-22T23:31:07Z</time>
      </trkpt>
      <trkpt lat="46.47429" lon="-1.75087">
        <ele>9</ele>
        <time>2018-04-22T23:32:07Z</time>
      </trkpt>
      <trkpt lat="46.47412" lon="-1.74997">
        <ele>11</ele>
        <time>2018-04-22T23:33:07Z</time>
      </trkpt>
      <trkpt lat="46.47396" lon="-1.74919">
        <ele>11</ele>
        <time>2018-04-22T23:34:07Z</time>
      </trkpt>
      <trkpt lat="46.47392" lon="-1.74902">
        <ele>11</ele>
        <time>2018-04-22T23:35:07Z</time>
      </trkpt>
      <trkpt lat="46.47388" lon="-1.74886">
        <ele>11</ele>
        <time>2018-04-22T23:36:07Z</time>
      </trkpt>
      <trkpt lat="46.47384" lon="-1.74869">
        <ele>11</ele>
        <time>2018-04-22T23:37:07Z</time>
      </trkpt>
      <trkpt lat="46.4738" lon="-1.74853">
        <ele>11</ele>
        <time>2018-04-22T23:38:07Z</time>
      </trkpt>
      <trkpt lat="46.47375" lon="-1.74838">
        <ele>10</ele>
        <time>2018-04-22T23:39:07Z</time>
      </trkpt>
      <trkpt lat="46.47372" lon="-1.7483">
        <ele>10</ele>
        <time>2018-04-22T23:40:07Z</time>
      </trkpt>
      <trkpt lat="46.4737" lon="-1.74823">
        <ele>10</ele>
        <time>2018-04-22T23:41:07Z</time>
      </trkpt>
      <trkpt lat="46.47367" lon="-1.74815">
        <ele>10</ele>
        <time>2018-04-22T23:42:07Z</time>
      </trkpt>
      <trkpt lat="46.47364" lon="-1.74808">
        <ele>10</ele>
        <time>2018-04-22T23:43:07Z</time>
      </trkpt>
      <trkpt lat="46.47361" lon="-1.748">
        <ele>10</ele>
        <time>2018-04-22T23:44:07Z</time>
      </trkpt>
      <trkpt lat="46.47358" lon="-1.74793">
        <ele>10</ele>
        <time>2018-04-22T23:45:07Z</time>
      </trkpt>
      <trkpt lat="46.47354" lon="-1.74786">
        <ele>10</ele>
        <time>2018-04-22T23:46:07Z</time>
      </trkpt>
      <trkpt lat="46.47351" lon="-1.74779">
        <ele>10</ele>
        <time>2018-04-22T23:47:07Z</time>
      </trkpt>
      <trkpt lat="46.47348" lon="-1.74772">
        <ele>10</ele>
        <time>2018-04-22T23:48:07Z</time>
      </trkpt>
      <trkpt lat="46.47344" lon="-1.74765">
        <ele>10</ele>
        <time>2018-04-22T23:49:07Z</time>
      </trkpt>
      <trkpt lat="46.4734" lon="-1.74759">
        <ele>10</ele>
        <time>2018-04-22T23:50:07Z</time>
      </trkpt>
      <trkpt lat="46.47337" lon="-1.74753">
        <ele>10</ele>
        <time>2018-04-22T23:51:07Z</time>
      </trkpt>
      <trkpt lat="46.47333" lon="-1.74747">
        <ele>10</ele>
        <time>2018-04-22T23:52:07Z</time>
      </trkpt>
      <trkpt lat="46.47329" lon="-1.74742">
        <ele>10</ele>
        <time>2018-04-22T23:53:07Z</time>
      </trkpt>
      <trkpt lat="46.47326" lon="-1.74735">
        <ele>10</ele>
        <time>2018-04-22T23:54:07Z</time>
      </trkpt>
      <trkpt lat="46.47325" lon="-1.74734">
        <ele>10</ele>
        <time>2018-04-22T23:55:07Z</time>
      </trkpt>
      <trkpt lat="46.47313" lon="-1.74716">
        <ele>10</ele>
        <time>2018-04-22T23:56:07Z</time>
      </trkpt>
      <trkpt lat="46.47301" lon="-1.74697">
        <ele>10</ele>
        <time>2018-04-22T23:57:07Z</time>
      </trkpt>
      <trkpt lat="46.4729" lon="-1.74684">
        <ele>10</ele>
        <time>2018-04-22T23:58:07Z</time>
      </trkpt>
      <trkpt lat="46.47281" lon="-1.74669">
        <ele>11</ele>
        <time>2018-04-22T23:59:07Z</time>
      </trkpt>
      <trkpt lat="46.47278" lon="-1.74665">
        <ele>11</ele>
        <time>2018-04-23T00:00:07Z</time>
      </trkpt>
      <trkpt lat="46.47266" lon="-1.74648">
        <ele>11</ele>
        <time>2018-04-23T00:01:07Z</time>
      </trkpt>
      <trkpt lat="46.47264" lon="-1.74644">
        <ele>11</ele>
        <time>2018-04-23T00:02:07Z</time>
      </trkpt>
      <trkpt lat="46.47255" lon="-1.74628">
        <ele>12</ele>
        <time>2018-04-23T00:03:07Z</time>
      </trkpt>
      <trkpt lat="46.47252" lon="-1.74624">
        <ele>12</ele>
        <time>2018-04-23T00:04:07Z</time>
      </trkpt>
      <trkpt lat="46.47248" lon="-1.74617">
        <ele>12</ele>
        <time>2018-04-23T00:05:07Z</time>
      </trkpt>
      <trkpt lat="46.4724" lon="-1.74605">
        <ele>11</ele>
        <time>2018-04-23T00:06:07Z</time>
      </trkpt>
      <trkpt lat="46.4723" lon="-1.74586">
        <ele>11</ele>
        <time>2018-04-23T00:07:07Z</time>
      </trkpt>
      <trkpt lat="46.4722" lon="-1.7457">
        <ele>10</ele>
        <time>2018-04-23T00:08:07Z</time>
      </trkpt>
      <trkpt lat="46.4721" lon="-1.74551">
        <ele>9</ele>
        <time>2018-04-23T00:09:07Z</time>
      </trkpt>
      <trkpt lat="46.47195" lon="-1.74518">
        <ele>9</ele>
        <time>2018-04-23T00:10:07Z</time>
      </trkpt>
      <trkpt lat="46.4719" lon="-1.74508">
        <ele>8</ele>
        <time>2018-04-23T00:11:07Z</time>
      </trkpt>
      <trkpt lat="46.47185" lon="-1.74496">
        <ele>8</ele>
        <time>2018-04-23T00:12:07Z</time>
      </trkpt>
      <trkpt lat="46.47177" lon="-1.74479">
        <ele>9</ele>
        <time>2018-04-23T00:13:07Z</time>
      </trkpt>
      <trkpt lat="46.47169" lon="-1.74463">
        <ele>9</ele>
        <time>2018-04-23T00:14:07Z</time>
      </trkpt>
      <trkpt lat="46.47164" lon="-1.74455">
        <ele>9</ele>
        <time>2018-04-23T00:15:07Z</time>
      </trkpt>
      <trkpt lat="46.4716" lon="-1.74447">
        <ele>9</ele>
        <time>2018-04-23T00:16:07Z</time>
      </trkpt>
      <trkpt lat="46.47156" lon="-1.74439">
        <ele>9</ele>
        <time>2018-04-23T00:17:07Z</time>
      </trkpt>
      <trkpt lat="46.47151" lon="-1.74432">
        <ele>9</ele>
        <time>2018-04-23T00:18:07Z</time>
      </trkpt>
      <trkpt lat="46.47146" lon="-1.74424">
        <ele>9</ele>
        <time>2018-04-23T00:19:07Z</time>
      </trkpt>
      <trkpt lat="46.47141" lon="-1.74415">
        <ele>9</ele>
        <time>2018-04-23T00:20:07Z</time>
      </trkpt>
      <trkpt lat="46.47137" lon="-1.74409">
        <ele>8</ele>
        <time>2018-04-23T00:21:07Z</time>
      </trkpt>
      <trkpt lat="46.47123" lon="-1.74386">
        <ele>8</ele>
        <time>2018-04-23T00:22:07Z</time>
      </trkpt>
      <trkpt lat="46.47119" lon="-1.74378">
        <ele>8</ele>
        <time>2018-04-23T00:23:07Z</time>
      </trkpt>
      <trkpt lat="46.47114" lon="-1.74371">
        <ele>8</ele>
        <time>2018-04-23T00:24:07Z</time>
      </trkpt>
      <trkpt lat="46.47109" lon="-1.74363">
        <ele>8</ele>
        <time>2018-04-23T00:25:07Z</time>
      </trkpt>
      <trkpt lat="46.4709" lon="-1.74333">
        <ele>9</ele>
        <time>2018-04-23T00:26:07Z</time>
      </trkpt>
      <trkpt lat="46.47071" lon="-1.74303">
        <ele>9</ele>
        <time>2018-04-23T00:27:07Z</time>
      </trkpt>
      <trkpt lat="46.47066" lon="-1.74295">
        <ele>9</ele>
        <time>2018-04-23T00:28:07Z</time>
      </trkpt>
      <trkpt lat="46.47061" lon="-1.74288">
        <ele>9</ele>
        <time>2018-04-23T00:29:07Z</time>
      </trkpt>
      <trkpt lat="46.47056" lon="-1.74281">
        <ele>8</ele>
        <time>2018-04-23T00:30:07Z</time>
      </trkpt>
      <trkpt lat="46.47051" lon="-1.74274">
        <ele>8</ele>
        <time>2018-04-23T00:31:07Z</time>
      </trkpt>
      <trkpt lat="46.47046" lon="-1.74267">
        <ele>8</ele>
        <time>2018-04-23T00:32:07Z</time>
      </trkpt>
      <trkpt lat="46.47041" lon="-1.7426">
        <ele>8</ele>
        <time>2018-04-23T00:33:07Z</time>
      </trkpt>
      <trkpt lat="46.47032" lon="-1.74246">
        <ele>8</ele>
        <time>2018-04-23T00:34:07Z</time>
      </trkpt>
      <trkpt lat="46.47024" lon="-1.74236">
        <ele>8</ele>
        <time>2018-04-23T00:35:07Z</time>
      </trkpt>
      <trkpt lat="46.47017" lon="-1.74226">
        <ele>8</ele>
        <time>2018-04-23T00:36:07Z</time>
      </trkpt>
      <trkpt lat="46.47012" lon="-1.74219">
        <ele>8</ele>
        <time>2018-04-23T00:37:07Z</time>
      </trkpt>
      <trkpt lat="46.47007" lon="-1.74212">
        <ele>8</ele>
        <time>2018-04-23T00:38:07Z</time>
      </trkpt>
      <trkpt lat="46.47002" lon="-1.74206">
        <ele>8</ele>
        <time>2018-04-23T00:39:07Z</time>
      </trkpt>
      <trkpt lat="46.46997" lon="-1.74201">
        <ele>8</ele>
        <time>2018-04-23T00:40:07Z</time>
      </trkpt>
      <trkpt lat="46.46991" lon="-1.74196">
        <ele>8</ele>
        <time>2018-04-23T00:41:07Z</time>
      </trkpt>
      <trkpt lat="46.46986" lon="-1.74191">
        <ele>8</ele>
        <time>2018-04-23T00:42:07Z</time>
      </trkpt>
      <trkpt lat="46.4698" lon="-1.74187">
        <ele>8</ele>
        <time>2018-04-23T00:43:07Z</time>
      </trkpt>
      <trkpt lat="46.46973" lon="-1.74183">
        <ele>8</ele>
        <time>2018-04-23T00:44:07Z</time>
      </trkpt>
      <trkpt lat="46.46967" lon="-1.7418">
        <ele>8</ele>
        <time>2018-04-23T00:45:07Z</time>
      </trkpt>
      <trkpt lat="46.46961" lon="-1.74177">
        <ele>8</ele>
        <time>2018-04-23T00:46:07Z</time>
      </trkpt>
      <trkpt lat="46.46936" lon="-1.74165">
        <ele>6</ele>
        <time>2018-04-23T00:47:07Z</time>
      </trkpt>
      <trkpt lat="46.4693" lon="-1.74162">
        <ele>6</ele>
        <time>2018-04-23T00:48:07Z</time>
      </trkpt>
      <trkpt lat="46.46924" lon="-1.74159">
        <ele>6</ele>
        <time>2018-04-23T00:49:07Z</time>
      </trkpt>
      <trkpt lat="46.46918" lon="-1.74155">
        <ele>6</ele>
        <time>2018-04-23T00:50:07Z</time>
      </trkpt>
      <trkpt lat="46.46913" lon="-1.74151">
        <ele>6</ele>
        <time>2018-04-23T00:51:07Z</time>
      </trkpt>
      <trkpt lat="46.46906" lon="-1.74147">
        <ele>6</ele>
        <time>2018-04-23T00:52:07Z</time>
      </trkpt>
      <trkpt lat="46.46901" lon="-1.74142">
        <ele>6</ele>
        <time>2018-04-23T00:53:07Z</time>
      </trkpt>
      <trkpt lat="46.46896" lon="-1.74137">
        <ele>6</ele>
        <time>2018-04-23T00:54:07Z</time>
      </trkpt>
      <trkpt lat="46.46891" lon="-1.74131">
        <ele>6</ele>
        <time>2018-04-23T00:55:07Z</time>
      </trkpt>
      <trkpt lat="46.46886" lon="-1.74126">
        <ele>6</ele>
        <time>2018-04-23T00:56:07Z</time>
      </trkpt>
      <trkpt lat="46.46882" lon="-1.74119">
        <ele>6</ele>
        <time>2018-04-23T00:57:07Z</time>
      </trkpt>
      <trkpt lat="46.46877" lon="-1.74112">
        <ele>5</ele>
        <time>2018-04-23T00:58:07Z</time>
      </trkpt>
      <trkpt lat="46.46873" lon="-1.74104">
        <ele>5</ele>
        <time>2018-04-23T00:59:07Z</time>
      </trkpt>
      <trkpt lat="46.46869" lon="-1.74096">
        <ele>5</ele>
        <time>2018-04-23T01:00:07Z</time>
      </trkpt>
      <trkpt lat="46.46866" lon="-1.74088">
        <ele>5</ele>
        <time>2018-04-23T01:01:07Z</time>
      </trkpt>
      <trkpt lat="46.46863" lon="-1.74079">
        <ele>5</ele>
        <time>2018-04-23T01:02:07Z</time>
      </trkpt>
      <trkpt lat="46.4686" lon="-1.74069">
        <ele>5</ele>
        <time>2018-04-23T01:03:07Z</time>
      </trkpt>
      <trkpt lat="46.46858" lon="-1.7406">
        <ele>5</ele>
        <time>2018-04-23T01:04:07Z</time>
      </trkpt>
      <trkpt lat="46.46856" lon="-1.74051">
        <ele>5</ele>
        <time>2018-04-23T01:05:07Z</time>
      </trkpt>
      <trkpt lat="46.46854" lon="-1.74042">
        <ele>5</ele>
        <time>2018-04-23T01:06:07Z</time>
      </trkpt>
      <trkpt lat="46.46853" lon="-1.74033">
        <ele>6</ele>
        <time>2018-04-23T01:07:07Z</time>
      </trkpt>
      <trkpt lat="46.46852" lon="-1.74023">
        <ele>6</ele>
        <time>2018-04-23T01:08:07Z</time>
      </trkpt>
      <trkpt lat="46.46851" lon="-1.74013">
        <ele>6</ele>
        <time>2018-04-23T01:09:07Z</time>
      </trkpt>
      <trkpt lat="46.46851" lon="-1.74004">
        <ele>6</ele>
        <time>2018-04-23T01:10:07Z</time>
      </trkpt>
      <trkpt lat="46.46851" lon="-1.73995">
        <ele>7</ele>
        <time>2018-04-23T01:11:07Z</time>
      </trkpt>
      <trkpt lat="46.4685" lon="-1.73986">
        <ele>7</ele>
        <time>2018-04-23T01:12:07Z</time>
      </trkpt>
      <trkpt lat="46.4685" lon="-1.73977">
        <ele>7</ele>
        <time>2018-04-23T01:13:07Z</time>
      </trkpt>
      <trkpt lat="46.4685" lon="-1.73968">
        <ele>7</ele>
        <time>2018-04-23T01:14:07Z</time>
      </trkpt>
      <trkpt lat="46.46849" lon="-1.73959">
        <ele>7</ele>
        <time>2018-04-23T01:15:07Z</time>
      </trkpt>
      <trkpt lat="46.46848" lon="-1.7395">
        <ele>7</ele>
        <time>2018-04-23T01:16:07Z</time>
      </trkpt>
      <trkpt lat="46.46847" lon="-1.73942">
        <ele>7</ele>
        <time>2018-04-23T01:17:07Z</time>
      </trkpt>
      <trkpt lat="46.46845" lon="-1.73933">
        <ele>7</ele>
        <time>2018-04-23T01:18:07Z</time>
      </trkpt>
      <trkpt lat="46.46843" lon="-1.73925">
        <ele>7</ele>
        <time>2018-04-23T01:19:07Z</time>
      </trkpt>
      <trkpt lat="46.46841" lon="-1.73917">
        <ele>7</ele>
        <time>2018-04-23T01:20:07Z</time>
      </trkpt>
      <trkpt lat="46.46839" lon="-1.73909">
        <ele>6</ele>
        <time>2018-04-23T01:21:07Z</time>
      </trkpt>
      <trkpt lat="46.46837" lon="-1.73901">
        <ele>6</ele>
        <time>2018-04-23T01:22:07Z</time>
      </trkpt>
      <trkpt lat="46.46836" lon="-1.73893">
        <ele>6</ele>
        <time>2018-04-23T01:23:07Z</time>
      </trkpt>
      <trkpt lat="46.46835" lon="-1.73885">
        <ele>6</ele>
        <time>2018-04-23T01:24:07Z</time>
      </trkpt>
      <trkpt lat="46.46834" lon="-1.73877">
        <ele>6</ele>
        <time>2018-04-23T01:25:07Z</time>
      </trkpt>
      <trkpt lat="46.46834" lon="-1.73868">
        <ele>6</ele>
        <time>2018-04-23T01:26:07Z</time>
      </trkpt>
      <trkpt lat="46.46834" lon="-1.7386">
        <ele>6</ele>
        <time>2018-04-23T01:27:07Z</time>
      </trkpt>
      <trkpt lat="46.46835" lon="-1.73852">
        <ele>6</ele>
        <time>2018-04-23T01:28:07Z</time>
      </trkpt>
      <trkpt lat="46.46836" lon="-1.73845">
        <ele>6</ele>
        <time>2018-04-23T01:29:07Z</time>
      </trkpt>
      <trkpt lat="46.46837" lon="-1.73837">
        <ele>6</ele>
        <time>2018-04-23T01:30:07Z</time>
      </trkpt>
      <trkpt lat="46.46839" lon="-1.73829">
        <ele>6</ele>
        <time>2018-04-23T01:31:07Z</time>
      </trkpt>
      <trkpt lat="46.4684" lon="-1.73822">
        <ele>6</ele>
        <time>2018-04-23T01:32:07Z</time>
      </trkpt>
      <trkpt lat="46.46842" lon="-1.73814">
        <ele>6</ele>
        <time>2018-04-23T01:33:07Z</time>
      </trkpt>
      <trkpt lat="46.46844" lon="-1.73807">
        <ele>6</ele>
        <time>2018-04-23T01:34:07Z</time>
      </trkpt>
      <trkpt lat="46.46846" lon="-1.73799">
        <ele>6</ele>
        <time>2018-04-23T01:35:07Z</time>
      </trkpt>
      <trkpt lat="46.46847" lon="-1.73791">
        <ele>6</ele>
        <time>2018-04-23T01:36:07Z</time>
      </trkpt>
      <trkpt lat="46.46849" lon="-1.73784">
        <ele>6</ele>
        <time>2018-04-23T01:37:07Z</time>
      </trkpt>
      <trkpt lat="46.4685" lon="-1.73776">
        <ele>6</ele>
        <time>2018-04-23T01:38:07Z</time>
      </trkpt>
      <trkpt lat="46.4685" lon="-1.73767">
        <ele>6</ele>
        <time>2018-04-23T01:39:07Z</time>
      </trkpt>
      <trkpt lat="46.4685" lon="-1.7376">
        <ele>5</ele>
        <time>2018-04-23T01:40:07Z</time>
      </trkpt>
      <trkpt lat="46.4685" lon="-1.73752">
        <ele>5</ele>
        <time>2018-04-23T01:41:07Z</time>
      </trkpt>
      <trkpt lat="46.46848" lon="-1.73744">
        <ele>5</ele>
        <time>2018-04-23T01:42:07Z</time>
      </trkpt>
      <trkpt lat="46.46846" lon="-1.73736">
        <ele>5</ele>
        <time>2018-04-23T01:43:07Z</time>
      </trkpt>
      <trkpt lat="46.46844" lon="-1.73729">
        <ele>5</ele>
        <time>2018-04-23T01:44:07Z</time>
      </trkpt>
      <trkpt lat="46.46842" lon="-1.73722">
        <ele>5</ele>
        <time>2018-04-23T01:45:07Z</time>
      </trkpt>
      <trkpt lat="46.46839" lon="-1.73716">
        <ele>5</ele>
        <time>2018-04-23T01:46:07Z</time>
      </trkpt>
      <trkpt lat="46.46836" lon="-1.7371">
        <ele>5</ele>
        <time>2018-04-23T01:47:07Z</time>
      </trkpt>
      <trkpt lat="46.46832" lon="-1.73704">
        <ele>5</ele>
        <time>2018-04-23T01:48:07Z</time>
      </trkpt>
      <trkpt lat="46.46829" lon="-1.73699">
        <ele>5</ele>
        <time>2018-04-23T01:49:07Z</time>
      </trkpt>
      <trkpt lat="46.46825" lon="-1.73695">
        <ele>5</ele>
        <time>2018-04-23T01:50:07Z</time>
      </trkpt>
      <trkpt lat="46.46821" lon="-1.73691">
        <ele>5</ele>
        <time>2018-04-23T01:51:07Z</time>
      </trkpt>
      <trkpt lat="46.46817" lon="-1.73688">
        <ele>5</ele>
        <time>2018-04-23T01:52:07Z</time>
      </trkpt>
      <trkpt lat="46.46812" lon="-1.73685">
        <ele>5</ele>
        <time>2018-04-23T01:53:07Z</time>
      </trkpt>
      <trkpt lat="46.46807" lon="-1.73683">
        <ele>5</ele>
        <time>2018-04-23T01:54:07Z</time>
      </trkpt>
      <trkpt lat="46.46803" lon="-1.73682">
        <ele>5</ele>
        <time>2018-04-23T01:55:07Z</time>
      </trkpt>
      <trkpt lat="46.46796" lon="-1.73679">
        <ele>5</ele>
        <time>2018-04-23T01:56:07Z</time>
      </trkpt>
      <trkpt lat="46.46791" lon="-1.7368">
        <ele>5</ele>
        <time>2018-04-23T01:57:07Z</time>
      </trkpt>
      <trkpt lat="46.46786" lon="-1.73681">
        <ele>5</ele>
        <time>2018-04-23T01:58:07Z</time>
      </trkpt>
      <trkpt lat="46.46782" lon="-1.73682">
        <ele>4</ele>
        <time>2018-04-23T01:59:07Z</time>
      </trkpt>
      <trkpt lat="46.46777" lon="-1.73682">
        <ele>4</ele>
        <time>2018-04-23T02:00:07Z</time>
      </trkpt>
      <trkpt lat="46.46773" lon="-1.73682">
        <ele>4</ele>
        <time>2018-04-23T02:01:07Z</time>
      </trkpt>
      <trkpt lat="46.46768" lon="-1.73682">
        <ele>4</ele>
        <time>2018-04-23T02:02:07Z</time>
      </trkpt>
      <trkpt lat="46.46764" lon="-1.73681">
        <ele>4</ele>
        <time>2018-04-23T02:03:07Z</time>
      </trkpt>
      <trkpt lat="46.46759" lon="-1.73679">
        <ele>4</ele>
        <time>2018-04-23T02:04:07Z</time>
      </trkpt>
      <trkpt lat="46.46755" lon="-1.73676">
        <ele>5</ele>
        <time>2018-04-23T02:05:07Z</time>
      </trkpt>
      <trkpt lat="46.4675" lon="-1.73672">
        <ele>5</ele>
        <time>2018-04-23T02:06:07Z</time>
      </trkpt>
      <trkpt lat="46.46747" lon="-1.73668">
        <ele>5</ele>
        <time>2018-04-23T02:07:07Z</time>
      </trkpt>
      <trkpt lat="46.46743" lon="-1.73663">
        <ele>5</ele>
        <time>2018-04-23T02:08:07Z</time>
      </trkpt>
      <trkpt lat="46.46739" lon="-1.73657">
        <ele>5</ele>
        <time>2018-04-23T02:09:07Z</time>
      </trkpt>
      <trkpt lat="46.46735" lon="-1.73652">
        <ele>5</ele>
        <time>2018-04-23T02:10:07Z</time>
      </trkpt>
      <trkpt lat="46.46731" lon="-1.73646">
        <ele>5</ele>
        <time>2018-04-23T02:11:07Z</time>
      </trkpt>
      <trkpt lat="46.46728" lon="-1.7364">
        <ele>5</ele>
        <time>2018-04-23T02:12:07Z</time>
      </trkpt>
      <trkpt lat="46.46721" lon="-1.73629">
        <ele>5</ele>
        <time>2018-04-23T02:13:07Z</time>
      </trkpt>
      <trkpt lat="46.4672" lon="-1.73626">
        <ele>6</ele>
        <time>2018-04-23T02:14:07Z</time>
      </trkpt>
      <trkpt lat="46.46717" lon="-1.73623">
        <ele>6</ele>
        <time>2018-04-23T02:15:07Z</time>
      </trkpt>
      <trkpt lat="46.46699" lon="-1.73589">
        <ele>6</ele>
        <time>2018-04-23T02:16:07Z</time>
      </trkpt>
      <trkpt lat="46.46691" lon="-1.73575">
        <ele>6</ele>
        <time>2018-04-23T02:17:07Z</time>
      </trkpt>
      <trkpt lat="46.46687" lon="-1.73567">
        <ele>7</ele>
        <time>2018-04-23T02:18:07Z</time>
      </trkpt>
      <trkpt lat="46.46683" lon="-1.7356">
        <ele>7</ele>
        <time>2018-04-23T02:19:07Z</time>
      </trkpt>
      <trkpt lat="46.4668" lon="-1.73553">
        <ele>7</ele>
        <time>2018-04-23T02:20:07Z</time>
      </trkpt>
      <trkpt lat="46.46677" lon="-1.73545">
        <ele>7</ele>
        <time>2018-04-23T02:21:07Z</time>
      </trkpt>
      <trkpt lat="46.46674" lon="-1.73538">
        <ele>7</ele>
        <time>2018-04-23T02:22:07Z</time>
      </trkpt>
      <trkpt lat="46.46671" lon="-1.73529">
        <ele>7</ele>
        <time>2018-04-23T02:23:07Z</time>
      </trkpt>
      <trkpt lat="46.46669" lon="-1.73521">
        <ele>7</ele>
        <time>2018-04-23T02:24:07Z</time>
      </trkpt>
      <trkpt lat="46.46667" lon="-1.73513">
        <ele>8</ele>
        <time>2018-04-23T02:25:07Z</time>
      </trkpt>
      <trkpt lat="46.46665" lon="-1.73504">
        <ele>8</ele>
        <time>2018-04-23T02:26:07Z</time>
      </trkpt>
      <trkpt lat="46.46661" lon="-1.73486">
        <ele>8</ele>
        <time>2018-04-23T02:27:07Z</time>
      </trkpt>
      <trkpt lat="46.46654" lon="-1.73458">
        <ele>8</ele>
        <time>2018-04-23T02:28:07Z</time>
      </trkpt>
      <trkpt lat="46.4665" lon="-1.73439">
        <ele>8</ele>
        <time>2018-04-23T02:29:07Z</time>
      </trkpt>
      <trkpt lat="46.46647" lon="-1.73426">
        <ele>8</ele>
        <time>2018-04-23T02:30:07Z</time>
      </trkpt>
      <trkpt lat="46.46642" lon="-1.73402">
        <ele>8</ele>
        <time>2018-04-23T02:31:07Z</time>
      </trkpt>
      <trkpt lat="46.46632" lon="-1.73358">
        <ele>8</ele>
        <time>2018-04-23T02:32:07Z</time>
      </trkpt>
      <trkpt lat="46.46619" lon="-1.73298">
        <ele>8</ele>
        <time>2018-04-23T02:33:07Z</time>
      </trkpt>
      <trkpt lat="46.46609" lon="-1.73253">
        <ele>8</ele>
        <time>2018-04-23T02:34:07Z</time>
      </trkpt>
      <trkpt lat="46.46603" lon="-1.73228">
        <ele>9</ele>
        <time>2018-04-23T02:35:07Z</time>
      </trkpt>
      <trkpt lat="46.46601" lon="-1.73213">
        <ele>10</ele>
        <time>2018-04-23T02:36:07Z</time>
      </trkpt>
      <trkpt lat="46.46592" lon="-1.73197">
        <ele>10</ele>
        <time>2018-04-23T02:37:07Z</time>
      </trkpt>
      <trkpt lat="46.46592" lon="-1.73197">
        <ele>10</ele>
        <time>2018-04-23T02:38:07Z</time>
      </trkpt>
      <trkpt lat="46.46591" lon="-1.73196">
        <ele>10</ele>
        <time>2018-04-23T02:39:07Z</time>
      </trkpt>
      <trkpt lat="46.4659" lon="-1.73195">
        <ele>10</ele>
        <time>2018-04-23T02:40:07Z</time>
      </trkpt>
      <trkpt lat="46.4659" lon="-1.73193">
        <ele>10</ele>
        <time>2018-04-23T02:41:07Z</time>
      </trkpt>
      <trkpt lat="46.46589" lon="-1.73192">
        <ele>10</ele>
        <time>2018-04-23T02:42:07Z</time>
      </trkpt>
      <trkpt lat="46.46588" lon="-1.7319">
        <ele>10</ele>
        <time>2018-04-23T02:43:07Z</time>
      </trkpt>
      <trkpt lat="46.46588" lon="-1.73189">
        <ele>10</ele>
        <time>2018-04-23T02:44:07Z</time>
      </trkpt>
      <trkpt lat="46.46588" lon="-1.73187">
        <ele>10</ele>
        <time>2018-04-23T02:45:07Z</time>
      </trkpt>
      <trkpt lat="46.46588" lon="-1.73186">
        <ele>10</ele>
        <time>2018-04-23T02:46:07Z</time>
      </trkpt>
      <trkpt lat="46.46589" lon="-1.73184">
        <ele>10</ele>
        <time>2018-04-23T02:47:07Z</time>
      </trkpt>
      <trkpt lat="46.46589" lon="-1.73182">
        <ele>10</ele>
        <time>2018-04-23T02:48:07Z</time>
      </trkpt>
      <trkpt lat="46.4659" lon="-1.7318">
        <ele>11</ele>
        <time>2018-04-23T02:49:07Z</time>
      </trkpt>
      <trkpt lat="46.4659" lon="-1.73179">
        <ele>11</ele>
        <time>2018-04-23T02:50:07Z</time>
      </trkpt>
      <trkpt lat="46.46591" lon="-1.73179">
        <ele>11</ele>
        <time>2018-04-23T02:51:07Z</time>
      </trkpt>
      <trkpt lat="46.46592" lon="-1.73178">
        <ele>11</ele>
        <time>2018-04-23T02:52:07Z</time>
      </trkpt>
      <trkpt lat="46.46593" lon="-1.73178">
        <ele>11</ele>
        <time>2018-04-23T02:53:07Z</time>
      </trkpt>
      <trkpt lat="46.46594" lon="-1.73178">
        <ele>11</ele>
        <time>2018-04-23T02:54:07Z</time>
      </trkpt>
      <trkpt lat="46.46596" lon="-1.73178">
        <ele>11</ele>
        <time>2018-04-23T02:55:07Z</time>
      </trkpt>
      <trkpt lat="46.46597" lon="-1.73178">
        <ele>11</ele>
        <time>2018-04-23T02:56:07Z</time>
      </trkpt>
      <trkpt lat="46.46599" lon="-1.7318">
        <ele>11</ele>
        <time>2018-04-23T02:57:07Z</time>
      </trkpt>
      <trkpt lat="46.466" lon="-1.7318">
        <ele>11</ele>
        <time>2018-04-23T02:58:07Z</time>
      </trkpt>
      <trkpt lat="46.46616" lon="-1.73179">
        <ele>12</ele>
        <time>2018-04-23T02:59:07Z</time>
      </trkpt>
      <trkpt lat="46.46626" lon="-1.73171">
        <ele>13</ele>
        <time>2018-04-23T03:00:07Z</time>
      </trkpt>
      <trkpt lat="46.46663" lon="-1.73145">
        <ele>15</ele>
        <time>2018-04-23T03:01:07Z</time>
      </trkpt>
      <trkpt lat="46.46678" lon="-1.73136">
        <ele>15</ele>
        <time>2018-04-23T03:02:07Z</time>
      </trkpt>
      <trkpt lat="46.4671" lon="-1.73114">
        <ele>16</ele>
        <time>2018-04-23T03:03:07Z</time>
      </trkpt>
      <trkpt lat="46.46741" lon="-1.73094">
        <ele>17</ele>
        <time>2018-04-23T03:04:07Z</time>
      </trkpt>
      <trkpt lat="46.46775" lon="-1.73072">
        <ele>19</ele>
        <time>2018-04-23T03:05:07Z</time>
      </trkpt>
      <trkpt lat="46.46779" lon="-1.73069">
        <ele>19</ele>
        <time>2018-04-23T03:06:07Z</time>
      </trkpt>
      <trkpt lat="46.46782" lon="-1.73065">
        <ele>20</ele>
        <time>2018-04-23T03:07:07Z</time>
      </trkpt>
      <trkpt lat="46.46785" lon="-1.7306">
        <ele>20</ele>
        <time>2018-04-23T03:08:07Z</time>
      </trkpt>
      <trkpt lat="46.46788" lon="-1.73054">
        <ele>20</ele>
        <time>2018-04-23T03:09:07Z</time>
      </trkpt>
      <trkpt lat="46.4679" lon="-1.73048">
        <ele>20</ele>
        <time>2018-04-23T03:10:07Z</time>
      </trkpt>
      <trkpt lat="46.46792" lon="-1.73042">
        <ele>20</ele>
        <time>2018-04-23T03:11:07Z</time>
      </trkpt>
      <trkpt lat="46.46792" lon="-1.73036">
        <ele>20</ele>
        <time>2018-04-23T03:12:07Z</time>
      </trkpt>
      <trkpt lat="46.46792" lon="-1.7303">
        <ele>20</ele>
        <time>2018-04-23T03:13:07Z</time>
      </trkpt>
      <trkpt lat="46.46793" lon="-1.73022">
        <ele>21</ele>
        <time>2018-04-23T03:14:07Z</time>
      </trkpt>
      <trkpt lat="46.46792" lon="-1.73016">
        <ele>21</ele>
        <time>2018-04-23T03:15:07Z</time>
      </trkpt>
      <trkpt lat="46.46792" lon="-1.73008">
        <ele>21</ele>
        <time>2018-04-23T03:16:07Z</time>
      </trkpt>
      <trkpt lat="46.46791" lon="-1.73">
        <ele>21</ele>
        <time>2018-04-23T03:17:07Z</time>
      </trkpt>
      <trkpt lat="46.4679" lon="-1.72993">
        <ele>21</ele>
        <time>2018-04-23T03:18:07Z</time>
      </trkpt>
      <trkpt lat="46.46789" lon="-1.72986">
        <ele>21</ele>
        <time>2018-04-23T03:19:07Z</time>
      </trkpt>
      <trkpt lat="46.46788" lon="-1.72979">
        <ele>21</ele>
        <time>2018-04-23T03:20:07Z</time>
      </trkpt>
      <trkpt lat="46.46787" lon="-1.72971">
        <ele>21</ele>
        <time>2018-04-23T03:21:07Z</time>
      </trkpt>
      <trkpt lat="46.46786" lon="-1.72964">
        <ele>21</ele>
        <time>2018-04-23T03:22:07Z</time>
      </trkpt>
      <trkpt lat="46.46786" lon="-1.72957">
        <ele>21</ele>
        <time>2018-04-23T03:23:07Z</time>
      </trkpt>
      <trkpt lat="46.46786" lon="-1.72949">
        <ele>21</ele>
        <time>2018-04-23T03:24:07Z</time>
      </trkpt>
      <trkpt lat="46.46786" lon="-1.72943">
        <ele>21</ele>
        <time>2018-04-23T03:25:07Z</time>
      </trkpt>
      <trkpt lat="46.46786" lon="-1.72936">
        <ele>21</ele>
        <time>2018-04-23T03:26:07Z</time>
      </trkpt>
      <trkpt lat="46.46787" lon="-1.72928">
        <ele>21</ele>
        <time>2018-04-23T03:27:07Z</time>
      </trkpt>
      <trkpt lat="46.46789" lon="-1.72922">
        <ele>21</ele>
        <time>2018-04-23T03:28:07Z</time>
      </trkpt>
      <trkpt lat="46.46792" lon="-1.72916">
        <ele>21</ele>
        <time>2018-04-23T03:29:07Z</time>
      </trkpt>
      <trkpt lat="46.46795" lon="-1.72911">
        <ele>21</ele>
        <time>2018-04-23T03:30:07Z</time>
      </trkpt>
      <trkpt lat="46.46798" lon="-1.72906">
        <ele>21</ele>
        <time>2018-04-23T03:31:07Z</time>
      </trkpt>
      <trkpt lat="46.46802" lon="-1.72901">
        <ele>21</ele>
        <time>2018-04-23T03:32:07Z</time>
      </trkpt>
      <trkpt lat="46.46808" lon="-1.72894">
        <ele>22</ele>
        <time>2018-04-23T03:33:07Z</time>
      </trkpt>
      <trkpt lat="46.4685" lon="-1.72853">
        <ele>22</ele>
        <time>2018-04-23T03:34:07Z</time>
      </trkpt>
      <trkpt lat="46.46858" lon="-1.72846">
        <ele>22</ele>
        <time>2018-04-23T03:35:07Z</time>
      </trkpt>
      <trkpt lat="46.46868" lon="-1.72838">
        <ele>22</ele>
        <time>2018-04-23T03:36:07Z</time>
      </trkpt>
      <trkpt lat="46.46874" lon="-1.72834">
        <ele>22</ele>
        <time>2018-04-23T03:37:07Z</time>
      </trkpt>
      <trkpt lat="46.4688" lon="-1.72829">
        <ele>22</ele>
        <time>2018-04-23T03:38:07Z</time>
      </trkpt>
      <trkpt lat="46.46885" lon="-1.72826">
        <ele>22</ele>
        <time>2018-04-23T03:39:07Z</time>
      </trkpt>
      <trkpt lat="46.46891" lon="-1.72822">
        <ele>22</ele>
        <time>2018-04-23T03:40:07Z</time>
      </trkpt>
      <trkpt lat="46.46896" lon="-1.72818">
        <ele>22</ele>
        <time>2018-04-23T03:41:07Z</time>
      </trkpt>
      <trkpt lat="46.469" lon="-1.72813">
        <ele>22</ele>
        <time>2018-04-23T03:42:07Z</time>
      </trkpt>
      <trkpt lat="46.46904" lon="-1.72808">
        <ele>22</ele>
        <time>2018-04-23T03:43:07Z</time>
      </trkpt>
      <trkpt lat="46.46908" lon="-1.72803">
        <ele>22</ele>
        <time>2018-04-23T03:44:07Z</time>
      </trkpt>
      <trkpt lat="46.46911" lon="-1.72796">
        <ele>22</ele>
        <time>2018-04-23T03:45:07Z</time>
      </trkpt>
      <trkpt lat="46.46913" lon="-1.7279">
        <ele>22</ele>
        <time>2018-04-23T03:46:07Z</time>
      </trkpt>
      <trkpt lat="46.46915" lon="-1.72783">
        <ele>22</ele>
        <time>2018-04-23T03:47:07Z</time>
      </trkpt>
      <trkpt lat="46.46915" lon="-1.72777">
        <ele>22</ele>
        <time>2018-04-23T03:48:07Z</time>
      </trkpt>
      <trkpt lat="46.46916" lon="-1.7277">
        <ele>22</ele>
        <time>2018-04-23T03:49:07Z</time>
      </trkpt>
      <trkpt lat="46.46915" lon="-1.72762">
        <ele>22</ele>
        <time>2018-04-23T03:50:07Z</time>
      </trkpt>
      <trkpt lat="46.46915" lon="-1.72755">
        <ele>22</ele>
        <time>2018-04-23T03:51:07Z</time>
      </trkpt>
      <trkpt lat="46.46913" lon="-1.72748">
        <ele>22</ele>
        <time>2018-04-23T03:52:07Z</time>
      </trkpt>
      <trkpt lat="46.46912" lon="-1.72742">
        <ele>22</ele>
        <time>2018-04-23T03:53:07Z</time>
      </trkpt>
      <trkpt lat="46.4691" lon="-1.72735">
        <ele>22</ele>
        <time>2018-04-23T03:54:07Z</time>
      </trkpt>
      <trkpt lat="46.46909" lon="-1.72727">
        <ele>23</ele>
        <time>2018-04-23T03:55:07Z</time>
      </trkpt>
      <trkpt lat="46.46907" lon="-1.7272">
        <ele>23</ele>
        <time>2018-04-23T03:56:07Z</time>
      </trkpt>
      <trkpt lat="46.46907" lon="-1.72713">
        <ele>23</ele>
        <time>2018-04-23T03:57:07Z</time>
      </trkpt>
      <trkpt lat="46.46907" lon="-1.72706">
        <ele>23</ele>
        <time>2018-04-23T03:58:07Z</time>
      </trkpt>
      <trkpt lat="46.46907" lon="-1.72699">
        <ele>23</ele>
        <time>2018-04-23T03:59:07Z</time>
      </trkpt>
      <trkpt lat="46.46908" lon="-1.72693">
        <ele>23</ele>
        <time>2018-04-23T04:00:07Z</time>
      </trkpt>
      <trkpt lat="46.4691" lon="-1.72686">
        <ele>23</ele>
        <time>2018-04-23T04:01:07Z</time>
      </trkpt>
      <trkpt lat="46.46912" lon="-1.7268">
        <ele>23</ele>
        <time>2018-04-23T04:02:07Z</time>
      </trkpt>
      <trkpt lat="46.46914" lon="-1.72675">
        <ele>23</ele>
        <time>2018-04-23T04:03:07Z</time>
      </trkpt>
      <trkpt lat="46.46918" lon="-1.72669">
        <ele>23</ele>
        <time>2018-04-23T04:04:07Z</time>
      </trkpt>
      <trkpt lat="46.46921" lon="-1.72664">
        <ele>23</ele>
        <time>2018-04-23T04:05:07Z</time>
      </trkpt>
      <trkpt lat="46.46925" lon="-1.7266">
        <ele>23</ele>
        <time>2018-04-23T04:06:07Z</time>
      </trkpt>
      <trkpt lat="46.4693" lon="-1.72655">
        <ele>23</ele>
        <time>2018-04-23T04:07:07Z</time>
      </trkpt>
      <trkpt lat="46.46935" lon="-1.7265">
        <ele>23</ele>
        <time>2018-04-23T04:08:07Z</time>
      </trkpt>
      <trkpt lat="46.46941" lon="-1.72646">
        <ele>23</ele>
        <time>2018-04-23T04:09:07Z</time>
      </trkpt>
      <trkpt lat="46.4696" lon="-1.72629">
        <ele>23</ele>
        <time>2018-04-23T04:10:07Z</time>
      </trkpt>
      <trkpt lat="46.46976" lon="-1.72617">
        <ele>23</ele>
        <time>2018-04-23T04:11:07Z</time>
      </trkpt>
      <trkpt lat="46.46984" lon="-1.72612">
        <ele>23</ele>
        <time>2018-04-23T04:12:07Z</time>
      </trkpt>
      <trkpt lat="46.46992" lon="-1.72606">
        <ele>23</ele>
        <time>2018-04-23T04:13:07Z</time>
      </trkpt>
      <trkpt lat="46.47016" lon="-1.7259">
        <ele>22</ele>
        <time>2018-04-23T04:14:07Z</time>
      </trkpt>
      <trkpt lat="46.47024" lon="-1.72584">
        <ele>22</ele>
        <time>2018-04-23T04:15:07Z</time>
      </trkpt>
      <trkpt lat="46.47049" lon="-1.72568">
        <ele>22</ele>
        <time>2018-04-23T04:16:07Z</time>
      </trkpt>
      <trkpt lat="46.47058" lon="-1.72562">
        <ele>22</ele>
        <time>2018-04-23T04:17:07Z</time>
      </trkpt>
      <trkpt lat="46.47065" lon="-1.72555">
        <ele>22</ele>
        <time>2018-04-23T04:18:07Z</time>
      </trkpt>
      <trkpt lat="46.47081" lon="-1.72542">
        <ele>22</ele>
        <time>2018-04-23T04:19:07Z</time>
      </trkpt>
      <trkpt lat="46.47096" lon="-1.72526">
        <ele>22</ele>
        <time>2018-04-23T04:20:07Z</time>
      </trkpt>
      <trkpt lat="46.47103" lon="-1.72518">
        <ele>22</ele>
        <time>2018-04-23T04:21:07Z</time>
      </trkpt>
      <trkpt lat="46.47111" lon="-1.7251">
        <ele>22</ele>
        <time>2018-04-23T04:22:07Z</time>
      </trkpt>
      <trkpt lat="46.47118" lon="-1.72502">
        <ele>22</ele>
        <time>2018-04-23T04:23:07Z</time>
      </trkpt>
      <trkpt lat="46.4714" lon="-1.72476">
        <ele>23</ele>
        <time>2018-04-23T04:24:07Z</time>
      </trkpt>
      <trkpt lat="46.47168" lon="-1.72439">
        <ele>23</ele>
        <time>2018-04-23T04:25:07Z</time>
      </trkpt>
      <trkpt lat="46.47187" lon="-1.72409">
        <ele>23</ele>
        <time>2018-04-23T04:26:07Z</time>
      </trkpt>
      <trkpt lat="46.47193" lon="-1.72398">
        <ele>23</ele>
        <time>2018-04-23T04:27:07Z</time>
      </trkpt>
      <trkpt lat="46.47199" lon="-1.72388">
        <ele>23</ele>
        <time>2018-04-23T04:28:07Z</time>
      </trkpt>
      <trkpt lat="46.47205" lon="-1.72377">
        <ele>23</ele>
        <time>2018-04-23T04:29:07Z</time>
      </trkpt>
      <trkpt lat="46.4721" lon="-1.72366">
        <ele>23</ele>
        <time>2018-04-23T04:30:07Z</time>
      </trkpt>
      <trkpt lat="46.47216" lon="-1.72355">
        <ele>23</ele>
        <time>2018-04-23T04:31:07Z</time>
      </trkpt>
      <trkpt lat="46.4723" lon="-1.72321">
        <ele>23</ele>
        <time>2018-04-23T04:32:07Z</time>
      </trkpt>
      <trkpt lat="46.47241" lon="-1.72302">
        <ele>23</ele>
        <time>2018-04-23T04:33:07Z</time>
      </trkpt>
      <trkpt lat="46.47248" lon="-1.7229">
        <ele>23</ele>
        <time>2018-04-23T04:34:07Z</time>
      </trkpt>
      <trkpt lat="46.47261" lon="-1.72273">
        <ele>23</ele>
        <time>2018-04-23T04:35:07Z</time>
      </trkpt>
      <trkpt lat="46.47272" lon="-1.72259">
        <ele>24</ele>
        <time>2018-04-23T04:36:07Z</time>
      </trkpt>
      <trkpt lat="46.4729" lon="-1.7224">
        <ele>24</ele>
        <time>2018-04-23T04:37:07Z</time>
      </trkpt>
      <trkpt lat="46.47314" lon="-1.72215">
        <ele>25</ele>
        <time>2018-04-23T04:38:07Z</time>
      </trkpt>
      <trkpt lat="46.47329" lon="-1.72199">
        <ele>26</ele>
        <time>2018-04-23T04:39:07Z</time>
      </trkpt>
      <trkpt lat="46.47338" lon="-1.72186">
        <ele>26</ele>
        <time>2018-04-23T04:40:07Z</time>
      </trkpt>
      <trkpt lat="46.47384" lon="-1.72135">
        <ele>28</ele>
        <time>2018-04-23T04:41:07Z</time>
      </trkpt>
      <trkpt lat="46.47459" lon="-1.72063">
        <ele>28</ele>
        <time>2018-04-23T04:42:07Z</time>
      </trkpt>
      <trkpt lat="46.47465" lon="-1.72062">
        <ele>28</ele>
        <time>2018-04-23T04:43:07Z</time>
      </trkpt>
      <trkpt lat="46.47527" lon="-1.7201">
        <ele>29</ele>
        <time>2018-04-23T04:44:07Z</time>
      </trkpt>
      <trkpt lat="46.47583" lon="-1.71961">
        <ele>30</ele>
        <time>2018-04-23T04:45:07Z</time>
      </trkpt>
      <trkpt lat="46.47628" lon="-1.71921">
        <ele>30</ele>
        <time>2018-04-23T04:46:07Z</time>
      </trkpt>
      <trkpt lat="46.47635" lon="-1.71914">
        <ele>30</ele>
        <time>2018-04-23T04:47:07Z</time>
      </trkpt>
      <trkpt lat="46.47647" lon="-1.71907">
        <ele>30</ele>
        <time>2018-04-23T04:48:07Z</time>
      </trkpt>
      <trkpt lat="46.47662" lon="-1.71898">
        <ele>30</ele>
        <time>2018-04-23T04:49:07Z</time>
      </trkpt>
      <trkpt lat="46.47682" lon="-1.7189">
        <ele>30</ele>
        <time>2018-04-23T04:50:07Z</time>
      </trkpt>
      <trkpt lat="46.477" lon="-1.71882">
        <ele>30</ele>
        <time>2018-04-23T04:51:07Z</time>
      </trkpt>
      <trkpt lat="46.47706" lon="-1.71878">
        <ele>30</ele>
        <time>2018-04-23T04:52:07Z</time>
      </trkpt>
      <trkpt lat="46.47717" lon="-1.71871">
        <ele>30</ele>
        <time>2018-04-23T04:53:07Z</time>
      </trkpt>
      <trkpt lat="46.47717" lon="-1.7187">
        <ele>30</ele>
        <time>2018-04-23T04:54:07Z</time>
      </trkpt>
      <trkpt lat="46.47717" lon="-1.71869">
        <ele>30</ele>
        <time>2018-04-23T04:55:07Z</time>
      </trkpt>
      <trkpt lat="46.47717" lon="-1.71868">
        <ele>30</ele>
        <time>2018-04-23T04:56:07Z</time>
      </trkpt>
      <trkpt lat="46.47717" lon="-1.71867">
        <ele>30</ele>
        <time>2018-04-23T04:57:07Z</time>
      </trkpt>
      <trkpt lat="46.47717" lon="-1.71866">
        <ele>30</ele>
        <time>2018-04-23T04:58:07Z</time>
      </trkpt>
      <trkpt lat="46.47717" lon="-1.71865">
        <ele>30</ele>
        <time>2018-04-23T04:59:07Z</time>
      </trkpt>
      <trkpt lat="46.47717" lon="-1.71864">
        <ele>30</ele>
        <time>2018-04-23T05:00:07Z</time>
      </trkpt>
      <trkpt lat="46.47718" lon="-1.71864">
        <ele>30</ele>
        <time>2018-04-23T05:01:07Z</time>
      </trkpt>
      <trkpt lat="46.47718" lon="-1.71863">
        <ele>30</ele>
        <time>2018-04-23T05:02:07Z</time>
      </trkpt>
      <trkpt lat="46.47719" lon="-1.71863">
        <ele>30</ele>
        <time>2018-04-23T05:03:07Z</time>
      </trkpt>
      <trkpt lat="46.47719" lon="-1.71862">
        <ele>30</ele>
        <time>2018-04-23T05:04:07Z</time>
      </trkpt>
      <trkpt lat="46.4772" lon="-1.71862">
        <ele>30</ele>
        <time>2018-04-23T05:05:07Z</time>
      </trkpt>
      <trkpt lat="46.4772" lon="-1.71861">
        <ele>30</ele>
        <time>2018-04-23T05:06:07Z</time>
      </trkpt>
      <trkpt lat="46.47721" lon="-1.71861">
        <ele>30</ele>
        <time>2018-04-23T05:07:07Z</time>
      </trkpt>
      <trkpt lat="46.47722" lon="-1.71861">
        <ele>30</ele>
        <time>2018-04-23T05:08:07Z</time>
      </trkpt>
      <trkpt lat="46.47723" lon="-1.71861">
        <ele>30</ele>
        <time>2018-04-23T05:09:07Z</time>
      </trkpt>
      <trkpt lat="46.47723" lon="-1.7186">
        <ele>30</ele>
        <time>2018-04-23T05:10:07Z</time>
      </trkpt>
      <trkpt lat="46.47724" lon="-1.7186">
        <ele>30</ele>
        <time>2018-04-23T05:11:07Z</time>
      </trkpt>
      <trkpt lat="46.47725" lon="-1.7186">
        <ele>30</ele>
        <time>2018-04-23T05:12:07Z</time>
      </trkpt>
      <trkpt lat="46.47725" lon="-1.71861">
        <ele>30</ele>
        <time>2018-04-23T05:13:07Z</time>
      </trkpt>
      <trkpt lat="46.47726" lon="-1.71861">
        <ele>30</ele>
        <time>2018-04-23T05:14:07Z</time>
      </trkpt>
      <trkpt lat="46.47727" lon="-1.71861">
        <ele>30</ele>
        <time>2018-04-23T05:15:07Z</time>
      </trkpt>
      <trkpt lat="46.47728" lon="-1.71861">
        <ele>30</ele>
        <time>2018-04-23T05:16:07Z</time>
      </trkpt>
      <trkpt lat="46.47728" lon="-1.71862">
        <ele>30</ele>
        <time>2018-04-23T05:17:07Z</time>
      </trkpt>
      <trkpt lat="46.47729" lon="-1.71862">
        <ele>30</ele>
        <time>2018-04-23T05:18:07Z</time>
      </trkpt>
      <trkpt lat="46.47729" lon="-1.71863">
        <ele>30</ele>
        <time>2018-04-23T05:19:07Z</time>
      </trkpt>
      <trkpt lat="46.4773" lon="-1.71863">
        <ele>30</ele>
        <time>2018-04-23T05:20:07Z</time>
      </trkpt>
      <trkpt lat="46.4773" lon="-1.71864">
        <ele>30</ele>
        <time>2018-04-23T05:21:07Z</time>
      </trkpt>
      <trkpt lat="46.47751" lon="-1.71862">
        <ele>30</ele>
        <time>2018-04-23T05:22:07Z</time>
      </trkpt>
      <trkpt lat="46.47771" lon="-1.71854">
        <ele>30</ele>
        <time>2018-04-23T05:23:07Z</time>
      </trkpt>
      <trkpt lat="46.47781" lon="-1.71851">
        <ele>30</ele>
        <time>2018-04-23T05:24:07Z</time>
      </trkpt>
      <trkpt lat="46.47794" lon="-1.71846">
        <ele>30</ele>
        <time>2018-04-23T05:25:07Z</time>
      </trkpt>
      <trkpt lat="46.47814" lon="-1.71839">
        <ele>30</ele>
        <time>2018-04-23T05:26:07Z</time>
      </trkpt>
      <trkpt lat="46.4787" lon="-1.71819">
        <ele>29</ele>
        <time>2018-04-23T05:27:07Z</time>
      </trkpt>
      <trkpt lat="46.4789" lon="-1.71811">
        <ele>29</ele>
        <time>2018-04-23T05:28:07Z</time>
      </trkpt>
      <trkpt lat="46.47907" lon="-1.71805">
        <ele>29</ele>
        <time>2018-04-23T05:29:07Z</time>
      </trkpt>
      <trkpt lat="46.47941" lon="-1.71792">
        <ele>29</ele>
        <time>2018-04-23T05:30:07Z</time>
      </trkpt>
      <trkpt lat="46.47965" lon="-1.71781">
        <ele>29</ele>
        <time>2018-04-23T05:31:07Z</time>
      </trkpt>
      <trkpt lat="46.47978" lon="-1.71773">
        <ele>29</ele>
        <time>2018-04-23T05:32:07Z</time>
      </trkpt>
      <trkpt lat="46.47989" lon="-1.71765">
        <ele>29</ele>
        <time>2018-04-23T05:33:07Z</time>
      </trkpt>
      <trkpt lat="46.48001" lon="-1.71756">
        <ele>29</ele>
        <time>2018-04-23T05:34:07Z</time>
      </trkpt>
      <trkpt lat="46.48023" lon="-1.71738">
        <ele>29</ele>
        <time>2018-04-23T05:35:07Z</time>
      </trkpt>
      <trkpt lat="46.48025" lon="-1.71736">
        <ele>29</ele>
        <time>2018-04-23T05:36:07Z</time>
      </trkpt>
      <trkpt lat="46.48048" lon="-1.71717">
        <ele>28</ele>
        <time>2018-04-23T05:37:07Z</time>
      </trkpt>
      <trkpt lat="46.48075" lon="-1.71696">
        <ele>28</ele>
        <time>2018-04-23T05:38:07Z</time>
      </trkpt>
      <trkpt lat="46.48095" lon="-1.7168">
        <ele>28</ele>
        <time>2018-04-23T05:39:07Z</time>
      </trkpt>
      <trkpt lat="46.48096" lon="-1.71679">
        <ele>28</ele>
        <time>2018-04-23T05:40:07Z</time>
      </trkpt>
      <trkpt lat="46.48121" lon="-1.71657">
        <ele>28</ele>
        <time>2018-04-23T05:41:07Z</time>
      </trkpt>
      <trkpt lat="46.48136" lon="-1.71644">
        <ele>28</ele>
        <time>2018-04-23T05:42:07Z</time>
      </trkpt>
      <trkpt lat="46.48139" lon="-1.71637">
        <ele>28</ele>
        <time>2018-04-23T05:43:07Z</time>
      </trkpt>
      <trkpt lat="46.48144" lon="-1.71632">
        <ele>28</ele>
        <time>2018-04-23T05:44:07Z</time>
      </trkpt>
      <trkpt lat="46.48152" lon="-1.71621">
        <ele>28</ele>
        <time>2018-04-23T05:45:07Z</time>
      </trkpt>
      <trkpt lat="46.48158" lon="-1.71614">
        <ele>28</ele>
        <time>2018-04-23T05:46:07Z</time>
      </trkpt>
      <trkpt lat="46.48158" lon="-1.71614">
        <ele>28</ele>
        <time>2018-04-23T05:47:07Z</time>
      </trkpt>
      <trkpt lat="46.48158" lon="-1.71613">
        <ele>28</ele>
        <time>2018-04-23T05:48:07Z</time>
      </trkpt>
      <trkpt lat="46.48158" lon="-1.71612">
        <ele>28</ele>
        <time>2018-04-23T05:49:07Z</time>
      </trkpt>
      <trkpt lat="46.48158" lon="-1.71611">
        <ele>28</ele>
        <time>2018-04-23T05:50:07Z</time>
      </trkpt>
      <trkpt lat="46.48159" lon="-1.7161">
        <ele>28</ele>
        <time>2018-04-23T05:51:07Z</time>
      </trkpt>
      <trkpt lat="46.48159" lon="-1.71609">
        <ele>28</ele>
        <time>2018-04-23T05:52:07Z</time>
      </trkpt>
      <trkpt lat="46.4816" lon="-1.71608">
        <ele>28</ele>
        <time>2018-04-23T05:53:07Z</time>
      </trkpt>
      <trkpt lat="46.4816" lon="-1.71607">
        <ele>28</ele>
        <time>2018-04-23T05:54:07Z</time>
      </trkpt>
      <trkpt lat="46.48161" lon="-1.71606">
        <ele>28</ele>
        <time>2018-04-23T05:55:07Z</time>
      </trkpt>
      <trkpt lat="46.48162" lon="-1.71606">
        <ele>28</ele>
        <time>2018-04-23T05:56:07Z</time>
      </trkpt>
      <trkpt lat="46.48162" lon="-1.71605">
        <ele>28</ele>
        <time>2018-04-23T05:57:07Z</time>
      </trkpt>
      <trkpt lat="46.48163" lon="-1.71605">
        <ele>28</ele>
        <time>2018-04-23T05:58:07Z</time>
      </trkpt>
      <trkpt lat="46.48163" lon="-1.71604">
        <ele>28</ele>
        <time>2018-04-23T05:59:07Z</time>
      </trkpt>
      <trkpt lat="46.48164" lon="-1.71604">
        <ele>28</ele>
        <time>2018-04-23T06:00:07Z</time>
      </trkpt>
      <trkpt lat="46.48165" lon="-1.71603">
        <ele>28</ele>
        <time>2018-04-23T06:01:07Z</time>
      </trkpt>
      <trkpt lat="46.48166" lon="-1.71603">
        <ele>28</ele>
        <time>2018-04-23T06:02:07Z</time>
      </trkpt>
      <trkpt lat="46.48167" lon="-1.71603">
        <ele>28</ele>
        <time>2018-04-23T06:03:07Z</time>
      </trkpt>
      <trkpt lat="46.48168" lon="-1.71603">
        <ele>28</ele>
        <time>2018-04-23T06:04:07Z</time>
      </trkpt>
      <trkpt lat="46.48169" lon="-1.71603">
        <ele>28</ele>
        <time>2018-04-23T06:05:07Z</time>
      </trkpt>
      <trkpt lat="46.4817" lon="-1.71603">
        <ele>28</ele>
        <time>2018-04-23T06:06:07Z</time>
      </trkpt>
      <trkpt lat="46.4817" lon="-1.71604">
        <ele>28</ele>
        <time>2018-04-23T06:07:07Z</time>
      </trkpt>
      <trkpt lat="46.48171" lon="-1.71604">
        <ele>28</ele>
        <time>2018-04-23T06:08:07Z</time>
      </trkpt>
      <trkpt lat="46.48172" lon="-1.71604">
        <ele>28</ele>
        <time>2018-04-23T06:09:07Z</time>
      </trkpt>
      <trkpt lat="46.48172" lon="-1.71605">
        <ele>28</ele>
        <time>2018-04-23T06:10:07Z</time>
      </trkpt>
      <trkpt lat="46.48173" lon="-1.71605">
        <ele>28</ele>
        <time>2018-04-23T06:11:07Z</time>
      </trkpt>
      <trkpt lat="46.48181" lon="-1.71599">
        <ele>28</ele>
        <time>2018-04-23T06:12:07Z</time>
      </trkpt>
      <trkpt lat="46.48189" lon="-1.71593">
        <ele>29</ele>
        <time>2018-04-23T06:13:07Z</time>
      </trkpt>
      <trkpt lat="46.48193" lon="-1.7159">
        <ele>29</ele>
        <time>2018-04-23T06:14:07Z</time>
      </trkpt>
      <trkpt lat="46.48197" lon="-1.71589">
        <ele>29</ele>
        <time>2018-04-23T06:15:07Z</time>
      </trkpt>
      <trkpt lat="46.4822" lon="-1.71562">
        <ele>29</ele>
        <time>2018-04-23T06:16:07Z</time>
      </trkpt>
      <trkpt lat="46.48225" lon="-1.71556">
        <ele>29</ele>
        <time>2018-04-23T06:17:07Z</time>
      </trkpt>
      <trkpt lat="46.48256" lon="-1.71522">
        <ele>30</ele>
        <time>2018-04-23T06:18:07Z</time>
      </trkpt>
      <trkpt lat="46.48265" lon="-1.71511">
        <ele>30</ele>
        <time>2018-04-23T06:19:07Z</time>
      </trkpt>
      <trkpt lat="46.48284" lon="-1.7149">
        <ele>31</ele>
        <time>2018-04-23T06:20:07Z</time>
      </trkpt>
      <trkpt lat="46.48317" lon="-1.71452">
        <ele>33</ele>
        <time>2018-04-23T06:21:07Z</time>
      </trkpt>
      <trkpt lat="46.48347" lon="-1.7142">
        <ele>34</ele>
        <time>2018-04-23T06:22:07Z</time>
      </trkpt>
      <trkpt lat="46.48359" lon="-1.71407">
        <ele>33</ele>
        <time>2018-04-23T06:23:07Z</time>
      </trkpt>
      <trkpt lat="46.48379" lon="-1.71386">
        <ele>32</ele>
        <time>2018-04-23T06:24:07Z</time>
      </trkpt>
      <trkpt lat="46.48416" lon="-1.71338">
        <ele>31</ele>
        <time>2018-04-23T06:25:07Z</time>
      </trkpt>
      <trkpt lat="46.4842" lon="-1.71332">
        <ele>31</ele>
        <time>2018-04-23T06:26:07Z</time>
      </trkpt>
      <trkpt lat="46.48425" lon="-1.71326">
        <ele>31</ele>
        <time>2018-04-23T06:27:07Z</time>
      </trkpt>
      <trkpt lat="46.48462" lon="-1.71282">
        <ele>32</ele>
        <time>2018-04-23T06:28:07Z</time>
      </trkpt>
      <trkpt lat="46.48515" lon="-1.71218">
        <ele>32</ele>
        <time>2018-04-23T06:29:07Z</time>
      </trkpt>
      <trkpt lat="46.48581" lon="-1.71138">
        <ele>31</ele>
        <time>2018-04-23T06:30:07Z</time>
      </trkpt>
      <trkpt lat="46.48642" lon="-1.71065">
        <ele>30</ele>
        <time>2018-04-23T06:31:07Z</time>
      </trkpt>
      <trkpt lat="46.48703" lon="-1.70992">
        <ele>30</ele>
        <time>2018-04-23T06:32:07Z</time>
      </trkpt>
      <trkpt lat="46.48708" lon="-1.70987">
        <ele>30</ele>
        <time>2018-04-23T06:33:07Z</time>
      </trkpt>
      <trkpt lat="46.4872" lon="-1.70974">
        <ele>30</ele>
        <time>2018-04-23T06:34:07Z</time>
      </trkpt>
      <trkpt lat="46.48736" lon="-1.70954">
        <ele>29</ele>
        <time>2018-04-23T06:35:07Z</time>
      </trkpt>
      <trkpt lat="46.4875" lon="-1.70935">
        <ele>29</ele>
        <time>2018-04-23T06:36:07Z</time>
      </trkpt>
      <trkpt lat="46.48752" lon="-1.70932">
        <ele>29</ele>
        <time>2018-04-23T06:37:07Z</time>
      </trkpt>
      <trkpt lat="46.48761" lon="-1.70916">
        <ele>29</ele>
        <time>2018-04-23T06:38:07Z</time>
      </trkpt>
      <trkpt lat="46.48773" lon="-1.70892">
        <ele>30</ele>
        <time>2018-04-23T06:39:07Z</time>
      </trkpt>
      <trkpt lat="46.48776" lon="-1.70886">
        <ele>30</ele>
        <time>2018-04-23T06:40:07Z</time>
      </trkpt>
      <trkpt lat="46.48784" lon="-1.70871">
        <ele>30</ele>
        <time>2018-04-23T06:41:07Z</time>
      </trkpt>
      <trkpt lat="46.48793" lon="-1.70856">
        <ele>30</ele>
        <time>2018-04-23T06:42:07Z</time>
      </trkpt>
      <trkpt lat="46.48801" lon="-1.70841">
        <ele>30</ele>
        <time>2018-04-23T06:43:07Z</time>
      </trkpt>
      <trkpt lat="46.4881" lon="-1.70826">
        <ele>30</ele>
        <time>2018-04-23T06:44:07Z</time>
      </trkpt>
      <trkpt lat="46.48821" lon="-1.70811">
        <ele>31</ele>
        <time>2018-04-23T06:45:07Z</time>
      </trkpt>
      <trkpt lat="46.48832" lon="-1.70797">
        <ele>31</ele>
        <time>2018-04-23T06:46:07Z</time>
      </trkpt>
      <trkpt lat="46.48843" lon="-1.70783">
        <ele>31</ele>
        <time>2018-04-23T06:47:07Z</time>
      </trkpt>
      <trkpt lat="46.48854" lon="-1.7077">
        <ele>32</ele>
        <time>2018-04-23T06:48:07Z</time>
      </trkpt>
      <trkpt lat="46.48865" lon="-1.70757">
        <ele>32</ele>
        <time>2018-04-23T06:49:07Z</time>
      </trkpt>
      <trkpt lat="46.48876" lon="-1.70743">
        <ele>33</ele>
        <time>2018-04-23T06:50:07Z</time>
      </trkpt>
      <trkpt lat="46.48886" lon="-1.70731">
        <ele>33</ele>
        <time>2018-04-23T06:51:07Z</time>
      </trkpt>
      <trkpt lat="46.48897" lon="-1.7072">
        <ele>33</ele>
        <time>2018-04-23T06:52:07Z</time>
      </trkpt>
      <trkpt lat="46.48905" lon="-1.70709">
        <ele>34</ele>
        <time>2018-04-23T06:53:07Z</time>
      </trkpt>
      <trkpt lat="46.48907" lon="-1.70707">
        <ele>34</ele>
        <time>2018-04-23T06:54:07Z</time>
      </trkpt>
      <trkpt lat="46.48917" lon="-1.70695">
        <ele>34</ele>
        <time>2018-04-23T06:55:07Z</time>
      </trkpt>
      <trkpt lat="46.48917" lon="-1.70694">
        <ele>34</ele>
        <time>2018-04-23T06:56:07Z</time>
      </trkpt>
      <trkpt lat="46.48928" lon="-1.70681">
        <ele>35</ele>
        <time>2018-04-23T06:57:07Z</time>
      </trkpt>
      <trkpt lat="46.48958" lon="-1.70646">
        <ele>36</ele>
        <time>2018-04-23T06:58:07Z</time>
      </trkpt>
      <trkpt lat="46.48968" lon="-1.70635">
        <ele>37</ele>
        <time>2018-04-23T06:59:07Z</time>
      </trkpt>
      <trkpt lat="46.48978" lon="-1.70626">
        <ele>37</ele>
        <time>2018-04-23T07:00:07Z</time>
      </trkpt>
      <trkpt lat="46.48988" lon="-1.70618">
        <ele>38</ele>
        <time>2018-04-23T07:01:07Z</time>
      </trkpt>
      <trkpt lat="46.48997" lon="-1.70611">
        <ele>38</ele>
        <time>2018-04-23T07:02:07Z</time>
      </trkpt>
      <trkpt lat="46.49006" lon="-1.70604">
        <ele>38</ele>
        <time>2018-04-23T07:03:07Z</time>
      </trkpt>
      <trkpt lat="46.49015" lon="-1.70599">
        <ele>38</ele>
        <time>2018-04-23T07:04:07Z</time>
      </trkpt>
      <trkpt lat="46.49023" lon="-1.70594">
        <ele>39</ele>
        <time>2018-04-23T07:05:07Z</time>
      </trkpt>
      <trkpt lat="46.49032" lon="-1.7059">
        <ele>39</ele>
        <time>2018-04-23T07:06:07Z</time>
      </trkpt>
      <trkpt lat="46.4904" lon="-1.70585">
        <ele>39</ele>
        <time>2018-04-23T07:07:07Z</time>
      </trkpt>
      <trkpt lat="46.49048" lon="-1.7058">
        <ele>39</ele>
        <time>2018-04-23T07:08:07Z</time>
      </trkpt>
      <trkpt lat="46.49056" lon="-1.70574">
        <ele>39</ele>
        <time>2018-04-23T07:09:07Z</time>
      </trkpt>
      <trkpt lat="46.49064" lon="-1.70567">
        <ele>39</ele>
        <time>2018-04-23T07:10:07Z</time>
      </trkpt>
      <trkpt lat="46.49071" lon="-1.70559">
        <ele>39</ele>
        <time>2018-04-23T07:11:07Z</time>
      </trkpt>
      <trkpt lat="46.49078" lon="-1.70551">
        <ele>39</ele>
        <time>2018-04-23T07:12:07Z</time>
      </trkpt>
      <trkpt lat="46.49085" lon="-1.70543">
        <ele>40</ele>
        <time>2018-04-23T07:13:07Z</time>
      </trkpt>
      <trkpt lat="46.49093" lon="-1.70535">
        <ele>40</ele>
        <time>2018-04-23T07:14:07Z</time>
      </trkpt>
      <trkpt lat="46.491" lon="-1.70528">
        <ele>40</ele>
        <time>2018-04-23T07:15:07Z</time>
      </trkpt>
      <trkpt lat="46.49109" lon="-1.70516">
        <ele>40</ele>
        <time>2018-04-23T07:16:07Z</time>
      </trkpt>
      <trkpt lat="46.49124" lon="-1.705">
        <ele>40</ele>
        <time>2018-04-23T07:17:07Z</time>
      </trkpt>
      <trkpt lat="46.49172" lon="-1.70446">
        <ele>41</ele>
        <time>2018-04-23T07:18:07Z</time>
      </trkpt>
      <trkpt lat="46.49222" lon="-1.7039">
        <ele>42</ele>
        <time>2018-04-23T07:19:07Z</time>
      </trkpt>
      <trkpt lat="46.49254" lon="-1.70354">
        <ele>42</ele>
        <time>2018-04-23T07:20:07Z</time>
      </trkpt>
      <trkpt lat="46.4926" lon="-1.70345">
        <ele>42</ele>
        <time>2018-04-23T07:21:07Z</time>
      </trkpt>
      <trkpt lat="46.49295" lon="-1.70293">
        <ele>40</ele>
        <time>2018-04-23T07:22:07Z</time>
      </trkpt>
      <trkpt lat="46.49332" lon="-1.70231">
        <ele>40</ele>
        <time>2018-04-23T07:23:07Z</time>
      </trkpt>
      <trkpt lat="46.49385" lon="-1.70144">
        <ele>41</ele>
        <time>2018-04-23T07:24:07Z</time>
      </trkpt>
      <trkpt lat="46.49433" lon="-1.70062">
        <ele>42</ele>
        <time>2018-04-23T07:25:07Z</time>
      </trkpt>
      <trkpt lat="46.49458" lon="-1.7002">
        <ele>42</ele>
        <time>2018-04-23T07:26:07Z</time>
      </trkpt>
      <trkpt lat="46.49467" lon="-1.70007">
        <ele>43</ele>
        <time>2018-04-23T07:27:07Z</time>
      </trkpt>
      <trkpt lat="46.49482" lon="-1.6999">
        <ele>43</ele>
        <time>2018-04-23T07:28:07Z</time>
      </trkpt>
      <trkpt lat="46.49513" lon="-1.6996">
        <ele>43</ele>
        <time>2018-04-23T07:29:07Z</time>
      </trkpt>
      <trkpt lat="46.49537" lon="-1.69935">
        <ele>43</ele>
        <time>2018-04-23T07:30:07Z</time>
      </trkpt>
      <trkpt lat="46.49568" lon="-1.69906">
        <ele>43</ele>
        <time>2018-04-23T07:31:07Z</time>
      </trkpt>
      <trkpt lat="46.49568" lon="-1.69906">
        <ele>43</ele>
        <time>2018-04-23T07:32:07Z</time>
      </trkpt>
      <trkpt lat="46.49571" lon="-1.69944">
        <ele>43</ele>
        <time>2018-04-23T07:33:07Z</time>
      </trkpt>
      <trkpt lat="46.49571" lon="-1.69971">
        <ele>42</ele>
        <time>2018-04-23T07:34:07Z</time>
      </trkpt>
      <trkpt lat="46.49573" lon="-1.70001">
        <ele>42</ele>
        <time>2018-04-23T07:35:07Z</time>
      </trkpt>
      <trkpt lat="46.49578" lon="-1.7003">
        <ele>42</ele>
        <time>2018-04-23T07:36:07Z</time>
      </trkpt>
      <trkpt lat="46.49585" lon="-1.7006">
        <ele>41</ele>
        <time>2018-04-23T07:37:07Z</time>
      </trkpt>
      <trkpt lat="46.49592" lon="-1.70089">
        <ele>41</ele>
        <time>2018-04-23T07:38:07Z</time>
      </trkpt>
      <trkpt lat="46.49599" lon="-1.70119">
        <ele>40</ele>
        <time>2018-04-23T07:39:07Z</time>
      </trkpt>
      <trkpt lat="46.49606" lon="-1.70148">
        <ele>39</ele>
        <time>2018-04-23T07:40:07Z</time>
      </trkpt>
      <trkpt lat="46.49611" lon="-1.70168">
        <ele>38</ele>
        <time>2018-04-23T07:41:07Z</time>
      </trkpt>
      <trkpt lat="46.49617" lon="-1.70192">
        <ele>38</ele>
        <time>2018-04-23T07:42:07Z</time>
      </trkpt>
      <trkpt lat="46.4964" lon="-1.70291">
        <ele>37</ele>
        <time>2018-04-23T07:43:07Z</time>
      </trkpt>
      <trkpt lat="46.49669" lon="-1.70411">
        <ele>36</ele>
        <time>2018-04-23T07:44:07Z</time>
      </trkpt>
      <trkpt lat="46.49687" lon="-1.70478">
        <ele>37</ele>
        <time>2018-04-23T07:45:07Z</time>
      </trkpt>
      <trkpt lat="46.49696" lon="-1.70513">
        <ele>37</ele>
        <time>2018-04-23T07:46:07Z</time>
      </trkpt>
      <trkpt lat="46.49703" lon="-1.70539">
        <ele>37</ele>
        <time>2018-04-23T07:47:07Z</time>
      </trkpt>
      <trkpt lat="46.49705" lon="-1.70552">
        <ele>37</ele>
        <time>2018-04-23T07:48:07Z</time>
      </trkpt>
      <trkpt lat="46.49711" lon="-1.7058">
        <ele>38</ele>
        <time>2018-04-23T07:49:07Z</time>
      </trkpt>
      <trkpt lat="46.49712" lon="-1.70594">
        <ele>37</ele>
        <time>2018-04-23T07:50:07Z</time>
      </trkpt>
      <trkpt lat="46.49714" lon="-1.7062">
        <ele>37</ele>
        <time>2018-04-23T07:51:07Z</time>
      </trkpt>
      <trkpt lat="46.49715" lon="-1.70638">
        <ele>37</ele>
        <time>2018-04-23T07:52:07Z</time>
      </trkpt>
      <trkpt lat="46.49716" lon="-1.70652">
        <ele>37</ele>
        <time>2018-04-23T07:53:07Z</time>
      </trkpt>
      <trkpt lat="46.49716" lon="-1.70694">
        <ele>37</ele>
        <time>2018-04-23T07:54:07Z</time>
      </trkpt>
      <trkpt lat="46.49717" lon="-1.7073">
        <ele>37</ele>
        <time>2018-04-23T07:55:07Z</time>
      </trkpt>
      <trkpt lat="46.4972" lon="-1.70775">
        <ele>36</ele>
        <time>2018-04-23T07:56:07Z</time>
      </trkpt>
      <trkpt lat="46.49724" lon="-1.70818">
        <ele>36</ele>
        <time>2018-04-23T07:57:07Z</time>
      </trkpt>
      <trkpt lat="46.49726" lon="-1.70841">
        <ele>36</ele>
        <time>2018-04-23T07:58:07Z</time>
      </trkpt>
      <trkpt lat="46.49728" lon="-1.70857">
        <ele>36</ele>
        <time>2018-04-23T07:59:07Z</time>
      </trkpt>
      <trkpt lat="46.49729" lon="-1.70874">
        <ele>36</ele>
        <time>2018-04-23T08:00:07Z</time>
      </trkpt>
      <trkpt lat="46.49728" lon="-1.70898">
        <ele>36</ele>
        <time>2018-04-23T08:01:07Z</time>
      </trkpt>
      <trkpt lat="46.49726" lon="-1.70916">
        <ele>36</ele>
        <time>2018-04-23T08:02:07Z</time>
      </trkpt>
      <trkpt lat="46.49725" lon="-1.70939">
        <ele>36</ele>
        <time>2018-04-23T08:03:07Z</time>
      </trkpt>
      <trkpt lat="46.49724" lon="-1.70962">
        <ele>36</ele>
        <time>2018-04-23T08:04:07Z</time>
      </trkpt>
      <trkpt lat="46.49726" lon="-1.70984">
        <ele>36</ele>
        <time>2018-04-23T08:05:07Z</time>
      </trkpt>
      <trkpt lat="46.49729" lon="-1.7101">
        <ele>36</ele>
        <time>2018-04-23T08:06:07Z</time>
      </trkpt>
      <trkpt lat="46.49732" lon="-1.71034">
        <ele>36</ele>
        <time>2018-04-23T08:07:07Z</time>
      </trkpt>
      <trkpt lat="46.49735" lon="-1.71064">
        <ele>37</ele>
        <time>2018-04-23T08:08:07Z</time>
      </trkpt>
      <trkpt lat="46.49738" lon="-1.71087">
        <ele>37</ele>
        <time>2018-04-23T08:09:07Z</time>
      </trkpt>
      <trkpt lat="46.4974" lon="-1.71101">
        <ele>37</ele>
        <time>2018-04-23T08:10:07Z</time>
      </trkpt>
      <trkpt lat="46.49744" lon="-1.71116">
        <ele>37</ele>
        <time>2018-04-23T08:11:07Z</time>
      </trkpt>
      <trkpt lat="46.49748" lon="-1.71127">
        <ele>37</ele>
        <time>2018-04-23T08:12:07Z</time>
      </trkpt>
      <trkpt lat="46.49753" lon="-1.71143">
        <ele>38</ele>
        <time>2018-04-23T08:13:07Z</time>
      </trkpt>
      <trkpt lat="46.4976" lon="-1.71164">
        <ele>38</ele>
        <time>2018-04-23T08:14:07Z</time>
      </trkpt>
      <trkpt lat="46.49766" lon="-1.71181">
        <ele>39</ele>
        <time>2018-04-23T08:15:07Z</time>
      </trkpt>
      <trkpt lat="46.4977" lon="-1.71194">
        <ele>39</ele>
        <time>2018-04-23T08:16:07Z</time>
      </trkpt>
      <trkpt lat="46.49775" lon="-1.71213">
        <ele>39</ele>
        <time>2018-04-23T08:17:07Z</time>
      </trkpt>
      <trkpt lat="46.4978" lon="-1.71226">
        <ele>39</ele>
        <time>2018-04-23T08:18:07Z</time>
      </trkpt>
      <trkpt lat="46.49784" lon="-1.71243">
        <ele>40</ele>
        <time>2018-04-23T08:19:07Z</time>
      </trkpt>
      <trkpt lat="46.49792" lon="-1.71265">
        <ele>40</ele>
        <time>2018-04-23T08:20:07Z</time>
      </trkpt>
      <trkpt lat="46.498" lon="-1.71286">
        <ele>40</ele>
        <time>2018-04-23T08:21:07Z</time>
      </trkpt>
      <trkpt lat="46.49808" lon="-1.71309">
        <ele>41</ele>
        <time>2018-04-23T08:22:07Z</time>
      </trkpt>
      <trkpt lat="46.49817" lon="-1.71332">
        <ele>41</ele>
        <time>2018-04-23T08:23:07Z</time>
      </trkpt>
      <trkpt lat="46.49825" lon="-1.71351">
        <ele>41</ele>
        <time>2018-04-23T08:24:07Z</time>
      </trkpt>
      <trkpt lat="46.49833" lon="-1.71365">
        <ele>41</ele>
        <time>2018-04-23T08:25:07Z</time>
      </trkpt>
      <trkpt lat="46.49841" lon="-1.71378">
        <ele>41</ele>
        <time>2018-04-23T08:26:07Z</time>
      </trkpt>
      <trkpt lat="46.49864" lon="-1.7142">
        <ele>41</ele>
        <time>2018-04-23T08:27:07Z</time>
      </trkpt>
      <trkpt lat="46.49892" lon="-1.7147">
        <ele>41</ele>
        <time>2018-04-23T08:28:07Z</time>
      </trkpt>
      <trkpt lat="46.49904" lon="-1.71488">
        <ele>41</ele>
        <time>2018-04-23T08:29:07Z</time>
      </trkpt>
      <trkpt lat="46.49924" lon="-1.71517">
        <ele>41</ele>
        <time>2018-04-23T08:30:07Z</time>
      </trkpt>
      <trkpt lat="46.49939" lon="-1.71538">
        <ele>41</ele>
        <time>2018-04-23T08:31:07Z</time>
      </trkpt>
      <trkpt lat="46.49952" lon="-1.71561">
        <ele>41</ele>
        <time>2018-04-23T08:32:07Z</time>
      </trkpt>
      <trkpt lat="46.49962" lon="-1.7158">
        <ele>41</ele>
        <time>2018-04-23T08:33:07Z</time>
      </trkpt>
      <trkpt lat="46.49969" lon="-1.71593">
        <ele>41</ele>
        <time>2018-04-23T08:34:07Z</time>
      </trkpt>
      <trkpt lat="46.49975" lon="-1.71607">
        <ele>41</ele>
        <time>2018-04-23T08:35:07Z</time>
      </trkpt>
      <trkpt lat="46.4998" lon="-1.71624">
        <ele>41</ele>
        <time>2018-04-23T08:36:07Z</time>
      </trkpt>
      <trkpt lat="46.49988" lon="-1.71652">
        <ele>41</ele>
        <time>2018-04-23T08:37:07Z</time>
      </trkpt>
      <trkpt lat="46.49998" lon="-1.71683">
        <ele>41</ele>
        <time>2018-04-23T08:38:07Z</time>
      </trkpt>
      <trkpt lat="46.49998" lon="-1.71683">
        <ele>41</ele>
        <time>2018-04-23T08:39:07Z</time>
      </trkpt>
      <trkpt lat="46.50022" lon="-1.7175">
        <ele>39</ele>
        <time>2018-04-23T08:40:07Z</time>
      </trkpt>
      <trkpt lat="46.50037" lon="-1.71781">
        <ele>38</ele>
        <time>2018-04-23T08:41:07Z</time>
      </trkpt>
      <trkpt lat="46.50052" lon="-1.7181">
        <ele>38</ele>
        <time>2018-04-23T08:42:07Z</time>
      </trkpt>
      <trkpt lat="46.50069" lon="-1.71839">
        <ele>37</ele>
        <time>2018-04-23T08:43:07Z</time>
      </trkpt>
      <trkpt lat="46.50091" lon="-1.71877">
        <ele>37</ele>
        <time>2018-04-23T08:44:07Z</time>
      </trkpt>
      <trkpt lat="46.50102" lon="-1.71895">
        <ele>37</ele>
        <time>2018-04-23T08:45:07Z</time>
      </trkpt>
      <trkpt lat="46.50113" lon="-1.71914">
        <ele>37</ele>
        <time>2018-04-23T08:46:07Z</time>
      </trkpt>
      <trkpt lat="46.5012" lon="-1.71929">
        <ele>37</ele>
        <time>2018-04-23T08:47:07Z</time>
      </trkpt>
      <trkpt lat="46.50124" lon="-1.71939">
        <ele>37</ele>
        <time>2018-04-23T08:48:07Z</time>
      </trkpt>
      <trkpt lat="46.50128" lon="-1.7195">
        <ele>37</ele>
        <time>2018-04-23T08:49:07Z</time>
      </trkpt>
      <trkpt lat="46.5013" lon="-1.71962">
        <ele>37</ele>
        <time>2018-04-23T08:50:07Z</time>
      </trkpt>
      <trkpt lat="46.50133" lon="-1.7198">
        <ele>37</ele>
        <time>2018-04-23T08:51:07Z</time>
      </trkpt>
      <trkpt lat="46.50137" lon="-1.72007">
        <ele>37</ele>
        <time>2018-04-23T08:52:07Z</time>
      </trkpt>
      <trkpt lat="46.50144" lon="-1.7204">
        <ele>37</ele>
        <time>2018-04-23T08:53:07Z</time>
      </trkpt>
      <trkpt lat="46.5015" lon="-1.72061">
        <ele>37</ele>
        <time>2018-04-23T08:54:07Z</time>
      </trkpt>
      <trkpt lat="46.50158" lon="-1.72084">
        <ele>37</ele>
        <time>2018-04-23T08:55:07Z</time>
      </trkpt>
      <trkpt lat="46.50167" lon="-1.72108">
        <ele>37</ele>
        <time>2018-04-23T08:56:07Z</time>
      </trkpt>
      <trkpt lat="46.50176" lon="-1.72127">
        <ele>38</ele>
        <time>2018-04-23T08:57:07Z</time>
      </trkpt>
      <trkpt lat="46.50183" lon="-1.72144">
        <ele>38</ele>
        <time>2018-04-23T08:58:07Z</time>
      </trkpt>
      <trkpt lat="46.50194" lon="-1.72164">
        <ele>38</ele>
        <time>2018-04-23T08:59:07Z</time>
      </trkpt>
      <trkpt lat="46.50206" lon="-1.72188">
        <ele>38</ele>
        <time>2018-04-23T09:00:07Z</time>
      </trkpt>
      <trkpt lat="46.50213" lon="-1.72205">
        <ele>39</ele>
        <time>2018-04-23T09:01:07Z</time>
      </trkpt>
      <trkpt lat="46.50217" lon="-1.72219">
        <ele>39</ele>
        <time>2018-04-23T09:02:07Z</time>
      </trkpt>
      <trkpt lat="46.50221" lon="-1.72237">
        <ele>39</ele>
        <time>2018-04-23T09:03:07Z</time>
      </trkpt>
      <trkpt lat="46.50228" lon="-1.72273">
        <ele>39</ele>
        <time>2018-04-23T09:04:07Z</time>
      </trkpt>
      <trkpt lat="46.50232" lon="-1.72291">
        <ele>39</ele>
        <time>2018-04-23T09:05:07Z</time>
      </trkpt>
      <trkpt lat="46.50236" lon="-1.72306">
        <ele>39</ele>
        <time>2018-04-23T09:06:07Z</time>
      </trkpt>
      <trkpt lat="46.50238" lon="-1.7232">
        <ele>39</ele>
        <time>2018-04-23T09:07:07Z</time>
      </trkpt>
      <trkpt lat="46.50241" lon="-1.72339">
        <ele>39</ele>
        <time>2018-04-23T09:08:07Z</time>
      </trkpt>
      <trkpt lat="46.50243" lon="-1.72349">
        <ele>39</ele>
        <time>2018-04-23T09:09:07Z</time>
      </trkpt>
      <trkpt lat="46.50244" lon="-1.72361">
        <ele>39</ele>
        <time>2018-04-23T09:10:07Z</time>
      </trkpt>
      <trkpt lat="46.50245" lon="-1.72371">
        <ele>39</ele>
        <time>2018-04-23T09:11:07Z</time>
      </trkpt>
      <trkpt lat="46.50245" lon="-1.72382">
        <ele>39</ele>
        <time>2018-04-23T09:12:07Z</time>
      </trkpt>
      <trkpt lat="46.50244" lon="-1.72404">
        <ele>39</ele>
        <time>2018-04-23T09:13:07Z</time>
      </trkpt>
      <trkpt lat="46.50242" lon="-1.72427">
        <ele>39</ele>
        <time>2018-04-23T09:14:07Z</time>
      </trkpt>
      <trkpt lat="46.50241" lon="-1.72438">
        <ele>39</ele>
        <time>2018-04-23T09:15:07Z</time>
      </trkpt>
      <trkpt lat="46.50241" lon="-1.7245">
        <ele>38</ele>
        <time>2018-04-23T09:16:07Z</time>
      </trkpt>
      <trkpt lat="46.5024" lon="-1.72462">
        <ele>38</ele>
        <time>2018-04-23T09:17:07Z</time>
      </trkpt>
      <trkpt lat="46.50241" lon="-1.72474">
        <ele>38</ele>
        <time>2018-04-23T09:18:07Z</time>
      </trkpt>
      <trkpt lat="46.50242" lon="-1.72486">
        <ele>38</ele>
        <time>2018-04-23T09:19:07Z</time>
      </trkpt>
      <trkpt lat="46.50243" lon="-1.72498">
        <ele>38</ele>
        <time>2018-04-23T09:20:07Z</time>
      </trkpt>
      <trkpt lat="46.50245" lon="-1.7251">
        <ele>38</ele>
        <time>2018-04-23T09:21:07Z</time>
      </trkpt>
      <trkpt lat="46.50246" lon="-1.72522">
        <ele>38</ele>
        <time>2018-04-23T09:22:07Z</time>
      </trkpt>
      <trkpt lat="46.50248" lon="-1.72534">
        <ele>38</ele>
        <time>2018-04-23T09:23:07Z</time>
      </trkpt>
      <trkpt lat="46.50251" lon="-1.72547">
        <ele>38</ele>
        <time>2018-04-23T09:24:07Z</time>
      </trkpt>
      <trkpt lat="46.50253" lon="-1.72559">
        <ele>38</ele>
        <time>2018-04-23T09:25:07Z</time>
      </trkpt>
      <trkpt lat="46.50256" lon="-1.72571">
        <ele>38</ele>
        <time>2018-04-23T09:26:07Z</time>
      </trkpt>
      <trkpt lat="46.50259" lon="-1.72582">
        <ele>38</ele>
        <time>2018-04-23T09:27:07Z</time>
      </trkpt>
      <trkpt lat="46.50262" lon="-1.72593">
        <ele>38</ele>
        <time>2018-04-23T09:28:07Z</time>
      </trkpt>
      <trkpt lat="46.50266" lon="-1.72603">
        <ele>38</ele>
        <time>2018-04-23T09:29:07Z</time>
      </trkpt>
      <trkpt lat="46.5027" lon="-1.72613">
        <ele>38</ele>
        <time>2018-04-23T09:30:07Z</time>
      </trkpt>
      <trkpt lat="46.50274" lon="-1.72622">
        <ele>38</ele>
        <time>2018-04-23T09:31:07Z</time>
      </trkpt>
      <trkpt lat="46.50279" lon="-1.72631">
        <ele>37</ele>
        <time>2018-04-23T09:32:07Z</time>
      </trkpt>
      <trkpt lat="46.50284" lon="-1.72639">
        <ele>37</ele>
        <time>2018-04-23T09:33:07Z</time>
      </trkpt>
      <trkpt lat="46.50289" lon="-1.72647">
        <ele>37</ele>
        <time>2018-04-23T09:34:07Z</time>
      </trkpt>
      <trkpt lat="46.50293" lon="-1.72655">
        <ele>37</ele>
        <time>2018-04-23T09:35:07Z</time>
      </trkpt>
      <trkpt lat="46.50297" lon="-1.72664">
        <ele>37</ele>
        <time>2018-04-23T09:36:07Z</time>
      </trkpt>
      <trkpt lat="46.50301" lon="-1.72673">
        <ele>37</ele>
        <time>2018-04-23T09:37:07Z</time>
      </trkpt>
      <trkpt lat="46.50305" lon="-1.72682">
        <ele>37</ele>
        <time>2018-04-23T09:38:07Z</time>
      </trkpt>
      <trkpt lat="46.50308" lon="-1.72691">
        <ele>37</ele>
        <time>2018-04-23T09:39:07Z</time>
      </trkpt>
      <trkpt lat="46.5031" lon="-1.727">
        <ele>37</ele>
        <time>2018-04-23T09:40:07Z</time>
      </trkpt>
      <trkpt lat="46.50313" lon="-1.72708">
        <ele>37</ele>
        <time>2018-04-23T09:41:07Z</time>
      </trkpt>
      <trkpt lat="46.50315" lon="-1.72718">
        <ele>37</ele>
        <time>2018-04-23T09:42:07Z</time>
      </trkpt>
      <trkpt lat="46.50317" lon="-1.72727">
        <ele>37</ele>
        <time>2018-04-23T09:43:07Z</time>
      </trkpt>
      <trkpt lat="46.50319" lon="-1.72736">
        <ele>38</ele>
        <time>2018-04-23T09:44:07Z</time>
      </trkpt>
      <trkpt lat="46.5032" lon="-1.72745">
        <ele>38</ele>
        <time>2018-04-23T09:45:07Z</time>
      </trkpt>
      <trkpt lat="46.50321" lon="-1.72755">
        <ele>38</ele>
        <time>2018-04-23T09:46:07Z</time>
      </trkpt>
      <trkpt lat="46.50322" lon="-1.7277">
        <ele>37</ele>
        <time>2018-04-23T09:47:07Z</time>
      </trkpt>
      <trkpt lat="46.50324" lon="-1.72784">
        <ele>37</ele>
        <time>2018-04-23T09:48:07Z</time>
      </trkpt>
      <trkpt lat="46.50325" lon="-1.72794">
        <ele>37</ele>
        <time>2018-04-23T09:49:07Z</time>
      </trkpt>
      <trkpt lat="46.50325" lon="-1.72804">
        <ele>37</ele>
        <time>2018-04-23T09:50:07Z</time>
      </trkpt>
      <trkpt lat="46.50327" lon="-1.72823">
        <ele>36</ele>
        <time>2018-04-23T09:51:07Z</time>
      </trkpt>
      <trkpt lat="46.50329" lon="-1.7286">
        <ele>36</ele>
        <time>2018-04-23T09:52:07Z</time>
      </trkpt>
      <trkpt lat="46.5033" lon="-1.72882">
        <ele>36</ele>
        <time>2018-04-23T09:53:07Z</time>
      </trkpt>
      <trkpt lat="46.5033" lon="-1.72906">
        <ele>36</ele>
        <time>2018-04-23T09:54:07Z</time>
      </trkpt>
      <trkpt lat="46.50329" lon="-1.72953">
        <ele>36</ele>
        <time>2018-04-23T09:55:07Z</time>
      </trkpt>
      <trkpt lat="46.50328" lon="-1.72965">
        <ele>36</ele>
        <time>2018-04-23T09:56:07Z</time>
      </trkpt>
      <trkpt lat="46.50325" lon="-1.72995">
        <ele>36</ele>
        <time>2018-04-23T09:57:07Z</time>
      </trkpt>
      <trkpt lat="46.50324" lon="-1.73012">
        <ele>36</ele>
        <time>2018-04-23T09:58:07Z</time>
      </trkpt>
      <trkpt lat="46.5032" lon="-1.7304">
        <ele>36</ele>
        <time>2018-04-23T09:59:07Z</time>
      </trkpt>
      <trkpt lat="46.5032" lon="-1.7304">
        <ele>36</ele>
        <time>2018-04-23T10:00:07Z</time>
      </trkpt>
      <trkpt lat="46.50325" lon="-1.73052">
        <ele>35</ele>
        <time>2018-04-23T10:01:07Z</time>
      </trkpt>
      <trkpt lat="46.50329" lon="-1.73065">
        <ele>35</ele>
        <time>2018-04-23T10:02:07Z</time>
      </trkpt>
      <trkpt lat="46.50331" lon="-1.73068">
        <ele>35</ele>
        <time>2018-04-23T10:03:07Z</time>
      </trkpt>
      <trkpt lat="46.50333" lon="-1.7307">
        <ele>35</ele>
        <time>2018-04-23T10:04:07Z</time>
      </trkpt>
      <trkpt lat="46.50339" lon="-1.73075">
        <ele>35</ele>
        <time>2018-04-23T10:05:07Z</time>
      </trkpt>
      <trkpt lat="46.50339" lon="-1.73075">
        <ele>35</ele>
        <time>2018-04-23T10:06:07Z</time>
      </trkpt>
      <trkpt lat="46.50334" lon="-1.73098">
        <ele>35</ele>
        <time>2018-04-23T10:07:07Z</time>
      </trkpt>
      <trkpt lat="46.50332" lon="-1.73119">
        <ele>34</ele>
        <time>2018-04-23T10:08:07Z</time>
      </trkpt>
      <trkpt lat="46.5033" lon="-1.73137">
        <ele>34</ele>
        <time>2018-04-23T10:09:07Z</time>
      </trkpt>
      <trkpt lat="46.5033" lon="-1.73138">
        <ele>34</ele>
        <time>2018-04-23T10:10:07Z</time>
      </trkpt>
      <trkpt lat="46.50329" lon="-1.73155">
        <ele>33</ele>
        <time>2018-04-23T10:11:07Z</time>
      </trkpt>
      <trkpt lat="46.50329" lon="-1.73173">
        <ele>33</ele>
        <time>2018-04-23T10:12:07Z</time>
      </trkpt>
      <trkpt lat="46.50329" lon="-1.73196">
        <ele>33</ele>
        <time>2018-04-23T10:13:07Z</time>
      </trkpt>
      <trkpt lat="46.5033" lon="-1.73213">
        <ele>32</ele>
        <time>2018-04-23T10:14:07Z</time>
      </trkpt>
      <trkpt lat="46.50333" lon="-1.73222">
        <ele>32</ele>
        <time>2018-04-23T10:15:07Z</time>
      </trkpt>
      <trkpt lat="46.50333" lon="-1.73242">
        <ele>32</ele>
        <time>2018-04-23T10:16:07Z</time>
      </trkpt>
      <trkpt lat="46.50333" lon="-1.73253">
        <ele>32</ele>
        <time>2018-04-23T10:17:07Z</time>
      </trkpt>
      <trkpt lat="46.50333" lon="-1.73268">
        <ele>32</ele>
        <time>2018-04-23T10:18:07Z</time>
      </trkpt>
      <trkpt lat="46.50334" lon="-1.73278">
        <ele>32</ele>
        <time>2018-04-23T10:19:07Z</time>
      </trkpt>
      <trkpt lat="46.50337" lon="-1.73289">
        <ele>32</ele>
        <time>2018-04-23T10:20:07Z</time>
      </trkpt>
      <trkpt lat="46.50337" lon="-1.73289">
        <ele>32</ele>
        <time>2018-04-23T10:21:07Z</time>
      </trkpt>
      <trkpt lat="46.50339" lon="-1.73292">
        <ele>31</ele>
        <time>2018-04-23T10:22:07Z</time>
      </trkpt>
      <trkpt lat="46.50341" lon="-1.73294">
        <ele>31</ele>
        <time>2018-04-23T10:23:07Z</time>
      </trkpt>
      <trkpt lat="46.50343" lon="-1.73298">
        <ele>31</ele>
        <time>2018-04-23T10:24:07Z</time>
      </trkpt>
      <trkpt lat="46.50344" lon="-1.73305">
        <ele>31</ele>
        <time>2018-04-23T10:25:07Z</time>
      </trkpt>
      <trkpt lat="46.50344" lon="-1.73309">
        <ele>31</ele>
        <time>2018-04-23T10:26:07Z</time>
      </trkpt>
      <trkpt lat="46.50344" lon="-1.73311">
        <ele>31</ele>
        <time>2018-04-23T10:27:07Z</time>
      </trkpt>
      <trkpt lat="46.50345" lon="-1.73316">
        <ele>31</ele>
        <time>2018-04-23T10:28:07Z</time>
      </trkpt>
      <trkpt lat="46.50347" lon="-1.73322">
        <ele>31</ele>
        <time>2018-04-23T10:29:07Z</time>
      </trkpt>
      <trkpt lat="46.50351" lon="-1.7333">
        <ele>31</ele>
        <time>2018-04-23T10:30:07Z</time>
      </trkpt>
      <trkpt lat="46.50352" lon="-1.73335">
        <ele>31</ele>
        <time>2018-04-23T10:31:07Z</time>
      </trkpt>
      <trkpt lat="46.50354" lon="-1.73336">
        <ele>31</ele>
        <time>2018-04-23T10:32:07Z</time>
      </trkpt>
      <trkpt lat="46.50355" lon="-1.73338">
        <ele>31</ele>
        <time>2018-04-23T10:33:07Z</time>
      </trkpt>
      <trkpt lat="46.50357" lon="-1.73343">
        <ele>31</ele>
        <time>2018-04-23T10:34:07Z</time>
      </trkpt>
      <trkpt lat="46.5036" lon="-1.73349">
        <ele>30</ele>
        <time>2018-04-23T10:35:07Z</time>
      </trkpt>
      <trkpt lat="46.50362" lon="-1.73361">
        <ele>30</ele>
        <time>2018-04-23T10:36:07Z</time>
      </trkpt>
      <trkpt lat="46.50363" lon="-1.73364">
        <ele>30</ele>
        <time>2018-04-23T10:37:07Z</time>
      </trkpt>
      <trkpt lat="46.50365" lon="-1.73375">
        <ele>30</ele>
        <time>2018-04-23T10:38:07Z</time>
      </trkpt>
      <trkpt lat="46.50366" lon="-1.73378">
        <ele>30</ele>
        <time>2018-04-23T10:39:07Z</time>
      </trkpt>
      <trkpt lat="46.50368" lon="-1.73389">
        <ele>30</ele>
        <time>2018-04-23T10:40:07Z</time>
      </trkpt>
      <trkpt lat="46.5037" lon="-1.73395">
        <ele>29</ele>
        <time>2018-04-23T10:41:07Z</time>
      </trkpt>
      <trkpt lat="46.50375" lon="-1.73409">
        <ele>29</ele>
        <time>2018-04-23T10:42:07Z</time>
      </trkpt>
      <trkpt lat="46.50375" lon="-1.73409">
        <ele>29</ele>
        <time>2018-04-23T10:43:07Z</time>
      </trkpt>
      <trkpt lat="46.5038" lon="-1.73425">
        <ele>29</ele>
        <time>2018-04-23T10:44:07Z</time>
      </trkpt>
      <trkpt lat="46.50383" lon="-1.73438">
        <ele>28</ele>
        <time>2018-04-23T10:45:07Z</time>
      </trkpt>
      <trkpt lat="46.50396" lon="-1.73484">
        <ele>27</ele>
        <time>2018-04-23T10:46:07Z</time>
      </trkpt>
      <trkpt lat="46.50398" lon="-1.73494">
        <ele>27</ele>
        <time>2018-04-23T10:47:07Z</time>
      </trkpt>
      <trkpt lat="46.5041" lon="-1.73539">
        <ele>26</ele>
        <time>2018-04-23T10:48:07Z</time>
      </trkpt>
      <trkpt lat="46.50412" lon="-1.73544">
        <ele>26</ele>
        <time>2018-04-23T10:49:07Z</time>
      </trkpt>
      <trkpt lat="46.50417" lon="-1.7356">
        <ele>25</ele>
        <time>2018-04-23T10:50:07Z</time>
      </trkpt>
      <trkpt lat="46.50424" lon="-1.7358">
        <ele>25</ele>
        <time>2018-04-23T10:51:07Z</time>
      </trkpt>
      <trkpt lat="46.50429" lon="-1.736">
        <ele>25</ele>
        <time>2018-04-23T10:52:07Z</time>
      </trkpt>
      <trkpt lat="46.50432" lon="-1.73611">
        <ele>24</ele>
        <time>2018-04-23T10:53:07Z</time>
      </trkpt>
      <trkpt lat="46.50434" lon="-1.73621">
        <ele>24</ele>
        <time>2018-04-23T10:54:07Z</time>
      </trkpt>
      <trkpt lat="46.50436" lon="-1.73631">
        <ele>24</ele>
        <time>2018-04-23T10:55:07Z</time>
      </trkpt>
      <trkpt lat="46.50436" lon="-1.73635">
        <ele>24</ele>
        <time>2018-04-23T10:56:07Z</time>
      </trkpt>
      <trkpt lat="46.50439" lon="-1.7365">
        <ele>24</ele>
        <time>2018-04-23T10:57:07Z</time>
      </trkpt>
      <trkpt lat="46.5044" lon="-1.73656">
        <ele>24</ele>
        <time>2018-04-23T10:58:07Z</time>
      </trkpt>
      <trkpt lat="46.50442" lon="-1.73666">
        <ele>23</ele>
        <time>2018-04-23T10:59:07Z</time>
      </trkpt>
      <trkpt lat="46.50443" lon="-1.7367">
        <ele>23</ele>
        <time>2018-04-23T11:00:07Z</time>
      </trkpt>
      <trkpt lat="46.50446" lon="-1.73685">
        <ele>23</ele>
        <time>2018-04-23T11:01:07Z</time>
      </trkpt>
      <trkpt lat="46.50449" lon="-1.73704">
        <ele>23</ele>
        <time>2018-04-23T11:02:07Z</time>
      </trkpt>
      <trkpt lat="46.50449" lon="-1.73705">
        <ele>23</ele>
        <time>2018-04-23T11:03:07Z</time>
      </trkpt>
      <trkpt lat="46.50452" lon="-1.73722">
        <ele>22</ele>
        <time>2018-04-23T11:04:07Z</time>
      </trkpt>
      <trkpt lat="46.50453" lon="-1.73724">
        <ele>22</ele>
        <time>2018-04-23T11:05:07Z</time>
      </trkpt>
      <trkpt lat="46.50459" lon="-1.7376">
        <ele>22</ele>
        <time>2018-04-23T11:06:07Z</time>
      </trkpt>
      <trkpt lat="46.5046" lon="-1.73767">
        <ele>22</ele>
        <time>2018-04-23T11:07:07Z</time>
      </trkpt>
      <trkpt lat="46.50463" lon="-1.73791">
        <ele>22</ele>
        <time>2018-04-23T11:08:07Z</time>
      </trkpt>
      <trkpt lat="46.50464" lon="-1.73796">
        <ele>22</ele>
        <time>2018-04-23T11:09:07Z</time>
      </trkpt>
      <trkpt lat="46.50465" lon="-1.738">
        <ele>22</ele>
        <time>2018-04-23T11:10:07Z</time>
      </trkpt>
      <trkpt lat="46.50471" lon="-1.73819">
        <ele>22</ele>
        <time>2018-04-23T11:11:07Z</time>
      </trkpt>
      <trkpt lat="46.50471" lon="-1.73819">
        <ele>22</ele>
        <time>2018-04-23T11:12:07Z</time>
      </trkpt>
      <trkpt lat="46.50473" lon="-1.7382">
        <ele>22</ele>
        <time>2018-04-23T11:13:07Z</time>
      </trkpt>
      <trkpt lat="46.50474" lon="-1.73822">
        <ele>22</ele>
        <time>2018-04-23T11:14:07Z</time>
      </trkpt>
      <trkpt lat="46.50476" lon="-1.73825">
        <ele>22</ele>
        <time>2018-04-23T11:15:07Z</time>
      </trkpt>
      <trkpt lat="46.50478" lon="-1.7383">
        <ele>22</ele>
        <time>2018-04-23T11:16:07Z</time>
      </trkpt>
      <trkpt lat="46.50478" lon="-1.73833">
        <ele>22</ele>
        <time>2018-04-23T11:17:07Z</time>
      </trkpt>
      <trkpt lat="46.50478" lon="-1.73836">
        <ele>22</ele>
        <time>2018-04-23T11:18:07Z</time>
      </trkpt>
      <trkpt lat="46.50478" lon="-1.73839">
        <ele>22</ele>
        <time>2018-04-23T11:19:07Z</time>
      </trkpt>
      <trkpt lat="46.50477" lon="-1.73841">
        <ele>22</ele>
        <time>2018-04-23T11:20:07Z</time>
      </trkpt>
      <trkpt lat="46.50473" lon="-1.73844">
        <ele>22</ele>
        <time>2018-04-23T11:21:07Z</time>
      </trkpt>
      <trkpt lat="46.50478" lon="-1.73853">
        <ele>22</ele>
        <time>2018-04-23T11:22:07Z</time>
      </trkpt>
      <trkpt lat="46.50481" lon="-1.73859">
        <ele>22</ele>
        <time>2018-04-23T11:23:07Z</time>
      </trkpt>
      <trkpt lat="46.50485" lon="-1.73867">
        <ele>22</ele>
        <time>2018-04-23T11:24:07Z</time>
      </trkpt>
      <trkpt lat="46.50488" lon="-1.73876">
        <ele>22</ele>
        <time>2018-04-23T11:25:07Z</time>
      </trkpt>
      <trkpt lat="46.50492" lon="-1.73887">
        <ele>22</ele>
        <time>2018-04-23T11:26:07Z</time>
      </trkpt>
      <trkpt lat="46.50496" lon="-1.73905">
        <ele>23</ele>
        <time>2018-04-23T11:27:07Z</time>
      </trkpt>
      <trkpt lat="46.50499" lon="-1.73921">
        <ele>23</ele>
        <time>2018-04-23T11:28:07Z</time>
      </trkpt>
      <trkpt lat="46.50505" lon="-1.73944">
        <ele>24</ele>
        <time>2018-04-23T11:29:07Z</time>
      </trkpt>
      <trkpt lat="46.50506" lon="-1.73948">
        <ele>24</ele>
        <time>2018-04-23T11:30:07Z</time>
      </trkpt>
      <trkpt lat="46.50508" lon="-1.73956">
        <ele>24</ele>
        <time>2018-04-23T11:31:07Z</time>
      </trkpt>
      <trkpt lat="46.5051" lon="-1.73966">
        <ele>24</ele>
        <time>2018-04-23T11:32:07Z</time>
      </trkpt>
      <trkpt lat="46.50513" lon="-1.73976">
        <ele>25</ele>
        <time>2018-04-23T11:33:07Z</time>
      </trkpt>
      <trkpt lat="46.50519" lon="-1.7399">
        <ele>25</ele>
        <time>2018-04-23T11:34:07Z</time>
      </trkpt>
      <trkpt lat="46.50524" lon="-1.74001">
        <ele>25</ele>
        <time>2018-04-23T11:35:07Z</time>
      </trkpt>
      <trkpt lat="46.50535" lon="-1.7402">
        <ele>26</ele>
        <time>2018-04-23T11:36:07Z</time>
      </trkpt>
      <trkpt lat="46.5055" lon="-1.74047">
        <ele>26</ele>
        <time>2018-04-23T11:37:07Z</time>
      </trkpt>
      <trkpt lat="46.50569" lon="-1.74084">
        <ele>26</ele>
        <time>2018-04-23T11:38:07Z</time>
      </trkpt>
      <trkpt lat="46.50574" lon="-1.74094">
        <ele>26</ele>
        <time>2018-04-23T11:39:07Z</time>
      </trkpt>
      <trkpt lat="46.50577" lon="-1.74099">
        <ele>26</ele>
        <time>2018-04-23T11:40:07Z</time>
      </trkpt>
      <trkpt lat="46.5058" lon="-1.74101">
        <ele>26</ele>
        <time>2018-04-23T11:41:07Z</time>
      </trkpt>
      <trkpt lat="46.50583" lon="-1.74106">
        <ele>26</ele>
        <time>2018-04-23T11:42:07Z</time>
      </trkpt>
      <trkpt lat="46.50586" lon="-1.7411">
        <ele>26</ele>
        <time>2018-04-23T11:43:07Z</time>
      </trkpt>
      <trkpt lat="46.50589" lon="-1.74114">
        <ele>26</ele>
        <time>2018-04-23T11:44:07Z</time>
      </trkpt>
      <trkpt lat="46.50595" lon="-1.74119">
        <ele>26</ele>
        <time>2018-04-23T11:45:07Z</time>
      </trkpt>
      <trkpt lat="46.506" lon="-1.74123">
        <ele>26</ele>
        <time>2018-04-23T11:46:07Z</time>
      </trkpt>
      <trkpt lat="46.50605" lon="-1.74126">
        <ele>26</ele>
        <time>2018-04-23T11:47:07Z</time>
      </trkpt>
      <trkpt lat="46.50608" lon="-1.74127">
        <ele>26</ele>
        <time>2018-04-23T11:48:07Z</time>
      </trkpt>
      <trkpt lat="46.50612" lon="-1.74128">
        <ele>26</ele>
        <time>2018-04-23T11:49:07Z</time>
      </trkpt>
      <trkpt lat="46.50617" lon="-1.74128">
        <ele>26</ele>
        <time>2018-04-23T11:50:07Z</time>
      </trkpt>
      <trkpt lat="46.50621" lon="-1.74127">
        <ele>26</ele>
        <time>2018-04-23T11:51:07Z</time>
      </trkpt>
      <trkpt lat="46.50625" lon="-1.74125">
        <ele>27</ele>
        <time>2018-04-23T11:52:07Z</time>
      </trkpt>
      <trkpt lat="46.50629" lon="-1.74124">
        <ele>27</ele>
        <time>2018-04-23T11:53:07Z</time>
      </trkpt>
      <trkpt lat="46.50633" lon="-1.74123">
        <ele>27</ele>
        <time>2018-04-23T11:54:07Z</time>
      </trkpt>
      <trkpt lat="46.50638" lon="-1.74123">
        <ele>27</ele>
        <time>2018-04-23T11:55:07Z</time>
      </trkpt>
      <trkpt lat="46.50641" lon="-1.74122">
        <ele>27</ele>
        <time>2018-04-23T11:56:07Z</time>
      </trkpt>
      <trkpt lat="46.50684" lon="-1.74097">
        <ele>28</ele>
        <time>2018-04-23T11:57:07Z</time>
      </trkpt>
      <trkpt lat="46.50725" lon="-1.74073">
        <ele>28</ele>
        <time>2018-04-23T11:58:07Z</time>
      </trkpt>
      <trkpt lat="46.50767" lon="-1.7405">
        <ele>28</ele>
        <time>2018-04-23T11:59:07Z</time>
      </trkpt>
      <trkpt lat="46.50787" lon="-1.7404">
        <ele>29</ele>
        <time>2018-04-23T12:00:07Z</time>
      </trkpt>
      <trkpt lat="46.50797" lon="-1.74032">
        <ele>29</ele>
        <time>2018-04-23T12:01:07Z</time>
      </trkpt>
      <trkpt lat="46.50808" lon="-1.74023">
        <ele>29</ele>
        <time>2018-04-23T12:02:07Z</time>
      </trkpt>
      <trkpt lat="46.50818" lon="-1.74015">
        <ele>29</ele>
        <time>2018-04-23T12:03:07Z</time>
      </trkpt>
      <trkpt lat="46.50825" lon="-1.7401">
        <ele>30</ele>
        <time>2018-04-23T12:04:07Z</time>
      </trkpt>
      <trkpt lat="46.50824" lon="-1.74006">
        <ele>30</ele>
        <time>2018-04-23T12:05:07Z</time>
      </trkpt>
      <trkpt lat="46.50823" lon="-1.74002">
        <ele>30</ele>
        <time>2018-04-23T12:06:07Z</time>
      </trkpt>
      <trkpt lat="46.50824" lon="-1.73997">
        <ele>30</ele>
        <time>2018-04-23T12:07:07Z</time>
      </trkpt>
      <trkpt lat="46.50825" lon="-1.73994">
        <ele>30</ele>
        <time>2018-04-23T12:08:07Z</time>
      </trkpt>
      <trkpt lat="46.50827" lon="-1.73992">
        <ele>30</ele>
        <time>2018-04-23T12:09:07Z</time>
      </trkpt>
      <trkpt lat="46.50827" lon="-1.73991">
        <ele>30</ele>
        <time>2018-04-23T12:10:07Z</time>
      </trkpt>
      <trkpt lat="46.50829" lon="-1.7399">
        <ele>30</ele>
        <time>2018-04-23T12:11:07Z</time>
      </trkpt>
      <trkpt lat="46.50832" lon="-1.73989">
        <ele>30</ele>
        <time>2018-04-23T12:12:07Z</time>
      </trkpt>
      <trkpt lat="46.50835" lon="-1.73989">
        <ele>30</ele>
        <time>2018-04-23T12:13:07Z</time>
      </trkpt>
      <trkpt lat="46.50837" lon="-1.7399">
        <ele>30</ele>
        <time>2018-04-23T12:14:07Z</time>
      </trkpt>
      <trkpt lat="46.50838" lon="-1.73991">
        <ele>30</ele>
        <time>2018-04-23T12:15:07Z</time>
      </trkpt>
      <trkpt lat="46.5084" lon="-1.73994">
        <ele>30</ele>
        <time>2018-04-23T12:16:07Z</time>
      </trkpt>
      <trkpt lat="46.50842" lon="-1.73993">
        <ele>30</ele>
        <time>2018-04-23T12:17:07Z</time>
      </trkpt>
      <trkpt lat="46.50862" lon="-1.73976">
        <ele>30</ele>
        <time>2018-04-23T12:18:07Z</time>
      </trkpt>
      <trkpt lat="46.5088" lon="-1.73961">
        <ele>29</ele>
        <time>2018-04-23T12:19:07Z</time>
      </trkpt>
      <trkpt lat="46.50902" lon="-1.7394">
        <ele>30</ele>
        <time>2018-04-23T12:20:07Z</time>
      </trkpt>
      <trkpt lat="46.50917" lon="-1.73926">
        <ele>30</ele>
        <time>2018-04-23T12:21:07Z</time>
      </trkpt>
      <trkpt lat="46.50929" lon="-1.73916">
        <ele>30</ele>
        <time>2018-04-23T12:22:07Z</time>
      </trkpt>
      <trkpt lat="46.5094" lon="-1.73908">
        <ele>30</ele>
        <time>2018-04-23T12:23:07Z</time>
      </trkpt>
      <trkpt lat="46.50945" lon="-1.73905">
        <ele>30</ele>
        <time>2018-04-23T12:24:07Z</time>
      </trkpt>
      <trkpt lat="46.50954" lon="-1.739">
        <ele>30</ele>
        <time>2018-04-23T12:25:07Z</time>
      </trkpt>
      <trkpt lat="46.50964" lon="-1.73899">
        <ele>30</ele>
        <time>2018-04-23T12:26:07Z</time>
      </trkpt>
      <trkpt lat="46.50975" lon="-1.739">
        <ele>30</ele>
        <time>2018-04-23T12:27:07Z</time>
      </trkpt>
      <trkpt lat="46.5099" lon="-1.73904">
        <ele>30</ele>
        <time>2018-04-23T12:28:07Z</time>
      </trkpt>
      <trkpt lat="46.51014" lon="-1.73912">
        <ele>30</ele>
        <time>2018-04-23T12:29:07Z</time>
      </trkpt>
      <trkpt lat="46.51036" lon="-1.7392">
        <ele>30</ele>
        <time>2018-04-23T12:30:07Z</time>
      </trkpt>
      <trkpt lat="46.51054" lon="-1.73925">
        <ele>30</ele>
        <time>2018-04-23T12:31:07Z</time>
      </trkpt>
      <trkpt lat="46.51071" lon="-1.73928">
        <ele>31</ele>
        <time>2018-04-23T12:32:07Z</time>
      </trkpt>
      <trkpt lat="46.51087" lon="-1.7393">
        <ele>31</ele>
        <time>2018-04-23T12:33:07Z</time>
      </trkpt>
      <trkpt lat="46.51103" lon="-1.73931">
        <ele>31</ele>
        <time>2018-04-23T12:34:07Z</time>
      </trkpt>
      <trkpt lat="46.51119" lon="-1.7393">
        <ele>31</ele>
        <time>2018-04-23T12:35:07Z</time>
      </trkpt>
      <trkpt lat="46.5114" lon="-1.73929">
        <ele>32</ele>
        <time>2018-04-23T12:36:07Z</time>
      </trkpt>
      <trkpt lat="46.51168" lon="-1.73926">
        <ele>33</ele>
        <time>2018-04-23T12:37:07Z</time>
      </trkpt>
      <trkpt lat="46.51206" lon="-1.73921">
        <ele>33</ele>
        <time>2018-04-23T12:38:07Z</time>
      </trkpt>
      <trkpt lat="46.51214" lon="-1.7392">
        <ele>33</ele>
        <time>2018-04-23T12:39:07Z</time>
      </trkpt>
      <trkpt lat="46.51248" lon="-1.73917">
        <ele>34</ele>
        <time>2018-04-23T12:40:07Z</time>
      </trkpt>
      <trkpt lat="46.51256" lon="-1.73916">
        <ele>34</ele>
        <time>2018-04-23T12:41:07Z</time>
      </trkpt>
      <trkpt lat="46.51294" lon="-1.73911">
        <ele>34</ele>
        <time>2018-04-23T12:42:07Z</time>
      </trkpt>
      <trkpt lat="46.51326" lon="-1.73907">
        <ele>34</ele>
        <time>2018-04-23T12:43:07Z</time>
      </trkpt>
      <trkpt lat="46.51346" lon="-1.73906">
        <ele>34</ele>
        <time>2018-04-23T12:44:07Z</time>
      </trkpt>
      <trkpt lat="46.51359" lon="-1.73906">
        <ele>34</ele>
        <time>2018-04-23T12:45:07Z</time>
      </trkpt>
      <trkpt lat="46.51368" lon="-1.73908">
        <ele>35</ele>
        <time>2018-04-23T12:46:07Z</time>
      </trkpt>
      <trkpt lat="46.51376" lon="-1.7391">
        <ele>35</ele>
        <time>2018-04-23T12:47:07Z</time>
      </trkpt>
      <trkpt lat="46.51381" lon="-1.73911">
        <ele>35</ele>
        <time>2018-04-23T12:48:07Z</time>
      </trkpt>
      <trkpt lat="46.51387" lon="-1.73913">
        <ele>35</ele>
        <time>2018-04-23T12:49:07Z</time>
      </trkpt>
      <trkpt lat="46.51412" lon="-1.73923">
        <ele>36</ele>
        <time>2018-04-23T12:50:07Z</time>
      </trkpt>
      <trkpt lat="46.51435" lon="-1.73934">
        <ele>36</ele>
        <time>2018-04-23T12:51:07Z</time>
      </trkpt>
      <trkpt lat="46.51478" lon="-1.73958">
        <ele>35</ele>
        <time>2018-04-23T12:52:07Z</time>
      </trkpt>
      <trkpt lat="46.51485" lon="-1.73961">
        <ele>35</ele>
        <time>2018-04-23T12:53:07Z</time>
      </trkpt>
      <trkpt lat="46.51491" lon="-1.73965">
        <ele>35</ele>
        <time>2018-04-23T12:54:07Z</time>
      </trkpt>
      <trkpt lat="46.51498" lon="-1.73969">
        <ele>35</ele>
        <time>2018-04-23T12:55:07Z</time>
      </trkpt>
      <trkpt lat="46.51503" lon="-1.73972">
        <ele>35</ele>
        <time>2018-04-23T12:56:07Z</time>
      </trkpt>
      <trkpt lat="46.5151" lon="-1.73975">
        <ele>35</ele>
        <time>2018-04-23T12:57:07Z</time>
      </trkpt>
      <trkpt lat="46.51523" lon="-1.73983">
        <ele>35</ele>
        <time>2018-04-23T12:58:07Z</time>
      </trkpt>
      <trkpt lat="46.51535" lon="-1.73989">
        <ele>35</ele>
        <time>2018-04-23T12:59:07Z</time>
      </trkpt>
      <trkpt lat="46.51548" lon="-1.73995">
        <ele>36</ele>
        <time>2018-04-23T13:00:07Z</time>
      </trkpt>
      <trkpt lat="46.51566" lon="-1.74004">
        <ele>36</ele>
        <time>2018-04-23T13:01:07Z</time>
      </trkpt>
      <trkpt lat="46.51592" lon="-1.74017">
        <ele>36</ele>
        <time>2018-04-23T13:02:07Z</time>
      </trkpt>
      <trkpt lat="46.51637" lon="-1.74031">
        <ele>35</ele>
        <time>2018-04-23T13:03:07Z</time>
      </trkpt>
      <trkpt lat="46.51662" lon="-1.74037">
        <ele>35</ele>
        <time>2018-04-23T13:04:07Z</time>
      </trkpt>
      <trkpt lat="46.51703" lon="-1.74047">
        <ele>34</ele>
        <time>2018-04-23T13:05:07Z</time>
      </trkpt>
      <trkpt lat="46.51738" lon="-1.74057">
        <ele>34</ele>
        <time>2018-04-23T13:06:07Z</time>
      </trkpt>
      <trkpt lat="46.51763" lon="-1.74064">
        <ele>33</ele>
        <time>2018-04-23T13:07:07Z</time>
      </trkpt>
      <trkpt lat="46.51795" lon="-1.74075">
        <ele>33</ele>
        <time>2018-04-23T13:08:07Z</time>
      </trkpt>
      <trkpt lat="46.51819" lon="-1.74086">
        <ele>32</ele>
        <time>2018-04-23T13:09:07Z</time>
      </trkpt>
      <trkpt lat="46.51841" lon="-1.74098">
        <ele>32</ele>
        <time>2018-04-23T13:10:07Z</time>
      </trkpt>
      <trkpt lat="46.51862" lon="-1.74109">
        <ele>33</ele>
        <time>2018-04-23T13:11:07Z</time>
      </trkpt>
      <trkpt lat="46.51878" lon="-1.74117">
        <ele>33</ele>
        <time>2018-04-23T13:12:07Z</time>
      </trkpt>
      <trkpt lat="46.51898" lon="-1.7413">
        <ele>33</ele>
        <time>2018-04-23T13:13:07Z</time>
      </trkpt>
      <trkpt lat="46.51922" lon="-1.74146">
        <ele>33</ele>
        <time>2018-04-23T13:14:07Z</time>
      </trkpt>
      <trkpt lat="46.51935" lon="-1.74156">
        <ele>33</ele>
        <time>2018-04-23T13:15:07Z</time>
      </trkpt>
      <trkpt lat="46.51938" lon="-1.74159">
        <ele>32</ele>
        <time>2018-04-23T13:16:07Z</time>
      </trkpt>
      <trkpt lat="46.52032" lon="-1.74242">
        <ele>31</ele>
        <time>2018-04-23T13:17:07Z</time>
      </trkpt>
      <trkpt lat="46.52041" lon="-1.74251">
        <ele>31</ele>
        <time>2018-04-23T13:18:07Z</time>
      </trkpt>
      <trkpt lat="46.52047" lon="-1.74256">
        <ele>31</ele>
        <time>2018-04-23T13:19:07Z</time>
      </trkpt>
      <trkpt lat="46.52056" lon="-1.74264">
        <ele>31</ele>
        <time>2018-04-23T13:20:07Z</time>
      </trkpt>
      <trkpt lat="46.52061" lon="-1.74269">
        <ele>31</ele>
        <time>2018-04-23T13:21:07Z</time>
      </trkpt>
      <trkpt lat="46.52079" lon="-1.74285">
        <ele>31</ele>
        <time>2018-04-23T13:22:07Z</time>
      </trkpt>
      <trkpt lat="46.5216" lon="-1.74357">
        <ele>29</ele>
        <time>2018-04-23T13:23:07Z</time>
      </trkpt>
      <trkpt lat="46.52202" lon="-1.74394">
        <ele>28</ele>
        <time>2018-04-23T13:24:07Z</time>
      </trkpt>
      <trkpt lat="46.52206" lon="-1.74398">
        <ele>28</ele>
        <time>2018-04-23T13:25:07Z</time>
      </trkpt>
      <trkpt lat="46.52218" lon="-1.74409">
        <ele>28</ele>
        <time>2018-04-23T13:26:07Z</time>
      </trkpt>
      <trkpt lat="46.52219" lon="-1.7441">
        <ele>28</ele>
        <time>2018-04-23T13:27:07Z</time>
      </trkpt>
      <trkpt lat="46.52257" lon="-1.74445">
        <ele>27</ele>
        <time>2018-04-23T13:28:07Z</time>
      </trkpt>
      <trkpt lat="46.52291" lon="-1.74476">
        <ele>27</ele>
        <time>2018-04-23T13:29:07Z</time>
      </trkpt>
      <trkpt lat="46.52318" lon="-1.74498">
        <ele>28</ele>
        <time>2018-04-23T13:30:07Z</time>
      </trkpt>
      <trkpt lat="46.52332" lon="-1.74505">
        <ele>29</ele>
        <time>2018-04-23T13:31:07Z</time>
      </trkpt>
      <trkpt lat="46.52334" lon="-1.74506">
        <ele>29</ele>
        <time>2018-04-23T13:32:07Z</time>
      </trkpt>
      <trkpt lat="46.52337" lon="-1.74507">
        <ele>29</ele>
        <time>2018-04-23T13:33:07Z</time>
      </trkpt>
      <trkpt lat="46.52344" lon="-1.74508">
        <ele>30</ele>
        <time>2018-04-23T13:34:07Z</time>
      </trkpt>
      <trkpt lat="46.52357" lon="-1.7451">
        <ele>30</ele>
        <time>2018-04-23T13:35:07Z</time>
      </trkpt>
      <trkpt lat="46.52372" lon="-1.7451">
        <ele>31</ele>
        <time>2018-04-23T13:36:07Z</time>
      </trkpt>
      <trkpt lat="46.52387" lon="-1.74508">
        <ele>32</ele>
        <time>2018-04-23T13:37:07Z</time>
      </trkpt>
      <trkpt lat="46.52402" lon="-1.74504">
        <ele>32</ele>
        <time>2018-04-23T13:38:07Z</time>
      </trkpt>
      <trkpt lat="46.52428" lon="-1.74499">
        <ele>33</ele>
        <time>2018-04-23T13:39:07Z</time>
      </trkpt>
      <trkpt lat="46.52476" lon="-1.7449">
        <ele>34</ele>
        <time>2018-04-23T13:40:07Z</time>
      </trkpt>
      <trkpt lat="46.52521" lon="-1.74482">
        <ele>34</ele>
        <time>2018-04-23T13:41:07Z</time>
      </trkpt>
      <trkpt lat="46.52559" lon="-1.74475">
        <ele>34</ele>
        <time>2018-04-23T13:42:07Z</time>
      </trkpt>
      <trkpt lat="46.52586" lon="-1.7447">
        <ele>35</ele>
        <time>2018-04-23T13:43:07Z</time>
      </trkpt>
      <trkpt lat="46.52634" lon="-1.74463">
        <ele>34</ele>
        <time>2018-04-23T13:44:07Z</time>
      </trkpt>
      <trkpt lat="46.52634" lon="-1.74463">
        <ele>34</ele>
        <time>2018-04-23T13:45:07Z</time>
      </trkpt>
      <trkpt lat="46.52638" lon="-1.74462">
        <ele>34</ele>
        <time>2018-04-23T13:46:07Z</time>
      </trkpt>
      <trkpt lat="46.52639" lon="-1.74496">
        <ele>34</ele>
        <time>2018-04-23T13:47:07Z</time>
      </trkpt>
      <trkpt lat="46.5264" lon="-1.74507">
        <ele>34</ele>
        <time>2018-04-23T13:48:07Z</time>
      </trkpt>
      <trkpt lat="46.52641" lon="-1.74528">
        <ele>34</ele>
        <time>2018-04-23T13:49:07Z</time>
      </trkpt>
      <trkpt lat="46.52642" lon="-1.74539">
        <ele>34</ele>
        <time>2018-04-23T13:50:07Z</time>
      </trkpt>
      <trkpt lat="46.52644" lon="-1.74562">
        <ele>34</ele>
        <time>2018-04-23T13:51:07Z</time>
      </trkpt>
      <trkpt lat="46.52644" lon="-1.74571">
        <ele>34</ele>
        <time>2018-04-23T13:52:07Z</time>
      </trkpt>
      <trkpt lat="46.52654" lon="-1.74622">
        <ele>35</ele>
        <time>2018-04-23T13:53:07Z</time>
      </trkpt>
      <trkpt lat="46.52682" lon="-1.74725">
        <ele>37</ele>
        <time>2018-04-23T13:54:07Z</time>
      </trkpt>
      <trkpt lat="46.52683" lon="-1.74728">
        <ele>37</ele>
        <time>2018-04-23T13:55:07Z</time>
      </trkpt>
      <trkpt lat="46.52697" lon="-1.7478">
        <ele>38</ele>
        <time>2018-04-23T13:56:07Z</time>
      </trkpt>
      <trkpt lat="46.52709" lon="-1.7483">
        <ele>39</ele>
        <time>2018-04-23T13:57:07Z</time>
      </trkpt>
      <trkpt lat="46.52712" lon="-1.74844">
        <ele>39</ele>
        <time>2018-04-23T13:58:07Z</time>
      </trkpt>
      <trkpt lat="46.52714" lon="-1.74851">
        <ele>39</ele>
        <time>2018-04-23T13:59:07Z</time>
      </trkpt>
      <trkpt lat="46.52715" lon="-1.74858">
        <ele>39</ele>
        <time>2018-04-23T14:00:07Z</time>
      </trkpt>
      <trkpt lat="46.5272" lon="-1.7487">
        <ele>39</ele>
        <time>2018-04-23T14:01:07Z</time>
      </trkpt>
      <trkpt lat="46.52726" lon="-1.74907">
        <ele>39</ele>
        <time>2018-04-23T14:02:07Z</time>
      </trkpt>
      <trkpt lat="46.5273" lon="-1.74934">
        <ele>39</ele>
        <time>2018-04-23T14:03:07Z</time>
      </trkpt>
      <trkpt lat="46.52731" lon="-1.74945">
        <ele>39</ele>
        <time>2018-04-23T14:04:07Z</time>
      </trkpt>
      <trkpt lat="46.52735" lon="-1.7499">
        <ele>39</ele>
        <time>2018-04-23T14:05:07Z</time>
      </trkpt>
      <trkpt lat="46.52734" lon="-1.74999">
        <ele>38</ele>
        <time>2018-04-23T14:06:07Z</time>
      </trkpt>
      <trkpt lat="46.52738" lon="-1.75034">
        <ele>39</ele>
        <time>2018-04-23T14:07:07Z</time>
      </trkpt>
      <trkpt lat="46.5274" lon="-1.7505">
        <ele>39</ele>
        <time>2018-04-23T14:08:07Z</time>
      </trkpt>
      <trkpt lat="46.52746" lon="-1.75078">
        <ele>39</ele>
        <time>2018-04-23T14:09:07Z</time>
      </trkpt>
      <trkpt lat="46.52748" lon="-1.75088">
        <ele>39</ele>
        <time>2018-04-23T14:10:07Z</time>
      </trkpt>
      <trkpt lat="46.52754" lon="-1.75102">
        <ele>39</ele>
        <time>2018-04-23T14:11:07Z</time>
      </trkpt>
      <trkpt lat="46.5276" lon="-1.75116">
        <ele>39</ele>
        <time>2018-04-23T14:12:07Z</time>
      </trkpt>
      <trkpt lat="46.5276" lon="-1.75117">
        <ele>39</ele>
        <time>2018-04-23T14:13:07Z</time>
      </trkpt>
      <trkpt lat="46.52761" lon="-1.75117">
        <ele>39</ele>
        <time>2018-04-23T14:14:07Z</time>
      </trkpt>
      <trkpt lat="46.52762" lon="-1.75118">
        <ele>39</ele>
        <time>2018-04-23T14:15:07Z</time>
      </trkpt>
      <trkpt lat="46.52763" lon="-1.75119">
        <ele>39</ele>
        <time>2018-04-23T14:16:07Z</time>
      </trkpt>
      <trkpt lat="46.52763" lon="-1.7512">
        <ele>39</ele>
        <time>2018-04-23T14:17:07Z</time>
      </trkpt>
      <trkpt lat="46.52764" lon="-1.7512">
        <ele>39</ele>
        <time>2018-04-23T14:18:07Z</time>
      </trkpt>
      <trkpt lat="46.52764" lon="-1.75121">
        <ele>39</ele>
        <time>2018-04-23T14:19:07Z</time>
      </trkpt>
      <trkpt lat="46.52764" lon="-1.75122">
        <ele>39</ele>
        <time>2018-04-23T14:20:07Z</time>
      </trkpt>
      <trkpt lat="46.52765" lon="-1.75122">
        <ele>39</ele>
        <time>2018-04-23T14:21:07Z</time>
      </trkpt>
      <trkpt lat="46.52765" lon="-1.75123">
        <ele>39</ele>
        <time>2018-04-23T14:22:07Z</time>
      </trkpt>
      <trkpt lat="46.52765" lon="-1.75124">
        <ele>39</ele>
        <time>2018-04-23T14:23:07Z</time>
      </trkpt>
      <trkpt lat="46.52765" lon="-1.75125">
        <ele>39</ele>
        <time>2018-04-23T14:24:07Z</time>
      </trkpt>
      <trkpt lat="46.52765" lon="-1.75126">
        <ele>39</ele>
        <time>2018-04-23T14:25:07Z</time>
      </trkpt>
      <trkpt lat="46.52765" lon="-1.75127">
        <ele>39</ele>
        <time>2018-04-23T14:26:07Z</time>
      </trkpt>
      <trkpt lat="46.52765" lon="-1.75128">
        <ele>39</ele>
        <time>2018-04-23T14:27:07Z</time>
      </trkpt>
      <trkpt lat="46.52765" lon="-1.75129">
        <ele>39</ele>
        <time>2018-04-23T14:28:07Z</time>
      </trkpt>
      <trkpt lat="46.52765" lon="-1.7513">
        <ele>39</ele>
        <time>2018-04-23T14:29:07Z</time>
      </trkpt>
      <trkpt lat="46.52765" lon="-1.75131">
        <ele>39</ele>
        <time>2018-04-23T14:30:07Z</time>
      </trkpt>
      <trkpt lat="46.52764" lon="-1.75131">
        <ele>39</ele>
        <time>2018-04-23T14:31:07Z</time>
      </trkpt>
      <trkpt lat="46.52764" lon="-1.75132">
        <ele>39</ele>
        <time>2018-04-23T14:32:07Z</time>
      </trkpt>
      <trkpt lat="46.52764" lon="-1.75133">
        <ele>39</ele>
        <time>2018-04-23T14:33:07Z</time>
      </trkpt>
      <trkpt lat="46.52763" lon="-1.75134">
        <ele>39</ele>
        <time>2018-04-23T14:34:07Z</time>
      </trkpt>
      <trkpt lat="46.52765" lon="-1.7515">
        <ele>39</ele>
        <time>2018-04-23T14:35:07Z</time>
      </trkpt>
      <trkpt lat="46.52766" lon="-1.75161">
        <ele>39</ele>
        <time>2018-04-23T14:36:07Z</time>
      </trkpt>
      <trkpt lat="46.52766" lon="-1.75162">
        <ele>39</ele>
        <time>2018-04-23T14:37:07Z</time>
      </trkpt>
      <trkpt lat="46.52773" lon="-1.75181">
        <ele>39</ele>
        <time>2018-04-23T14:38:07Z</time>
      </trkpt>
      <trkpt lat="46.52782" lon="-1.752">
        <ele>38</ele>
        <time>2018-04-23T14:39:07Z</time>
      </trkpt>
      <trkpt lat="46.5279" lon="-1.75212">
        <ele>39</ele>
        <time>2018-04-23T14:40:07Z</time>
      </trkpt>
      <trkpt lat="46.52801" lon="-1.75226">
        <ele>39</ele>
        <time>2018-04-23T14:41:07Z</time>
      </trkpt>
      <trkpt lat="46.5281" lon="-1.75238">
        <ele>39</ele>
        <time>2018-04-23T14:42:07Z</time>
      </trkpt>
      <trkpt lat="46.52811" lon="-1.7524">
        <ele>39</ele>
        <time>2018-04-23T14:43:07Z</time>
      </trkpt>
      <trkpt lat="46.52815" lon="-1.75251">
        <ele>39</ele>
        <time>2018-04-23T14:44:07Z</time>
      </trkpt>
      <trkpt lat="46.52817" lon="-1.7526">
        <ele>39</ele>
        <time>2018-04-23T14:45:07Z</time>
      </trkpt>
      <trkpt lat="46.5282" lon="-1.75276">
        <ele>38</ele>
        <time>2018-04-23T14:46:07Z</time>
      </trkpt>
      <trkpt lat="46.52824" lon="-1.75286">
        <ele>38</ele>
        <time>2018-04-23T14:47:07Z</time>
      </trkpt>
      <trkpt lat="46.52824" lon="-1.75286">
        <ele>38</ele>
        <time>2018-04-23T14:48:07Z</time>
      </trkpt>
      <trkpt lat="46.52825" lon="-1.75287">
        <ele>38</ele>
        <time>2018-04-23T14:49:07Z</time>
      </trkpt>
      <trkpt lat="46.52827" lon="-1.75289">
        <ele>38</ele>
        <time>2018-04-23T14:50:07Z</time>
      </trkpt>
      <trkpt lat="46.52829" lon="-1.75291">
        <ele>38</ele>
        <time>2018-04-23T14:51:07Z</time>
      </trkpt>
      <trkpt lat="46.52831" lon="-1.75293">
        <ele>38</ele>
        <time>2018-04-23T14:52:07Z</time>
      </trkpt>
      <trkpt lat="46.52832" lon="-1.75295">
        <ele>38</ele>
        <time>2018-04-23T14:53:07Z</time>
      </trkpt>
      <trkpt lat="46.52834" lon="-1.75298">
        <ele>38</ele>
        <time>2018-04-23T14:54:07Z</time>
      </trkpt>
      <trkpt lat="46.52835" lon="-1.753">
        <ele>38</ele>
        <time>2018-04-23T14:55:07Z</time>
      </trkpt>
      <trkpt lat="46.52836" lon="-1.75303">
        <ele>38</ele>
        <time>2018-04-23T14:56:07Z</time>
      </trkpt>
      <trkpt lat="46.52837" lon="-1.75305">
        <ele>38</ele>
        <time>2018-04-23T14:57:07Z</time>
      </trkpt>
      <trkpt lat="46.52837" lon="-1.75308">
        <ele>38</ele>
        <time>2018-04-23T14:58:07Z</time>
      </trkpt>
      <trkpt lat="46.52838" lon="-1.7531">
        <ele>38</ele>
        <time>2018-04-23T14:59:07Z</time>
      </trkpt>
      <trkpt lat="46.52838" lon="-1.75313">
        <ele>38</ele>
        <time>2018-04-23T15:00:07Z</time>
      </trkpt>
      <trkpt lat="46.52838" lon="-1.75315">
        <ele>38</ele>
        <time>2018-04-23T15:01:07Z</time>
      </trkpt>
      <trkpt lat="46.52839" lon="-1.75318">
        <ele>37</ele>
        <time>2018-04-23T15:02:07Z</time>
      </trkpt>
      <trkpt lat="46.52839" lon="-1.7532">
        <ele>37</ele>
        <time>2018-04-23T15:03:07Z</time>
      </trkpt>
      <trkpt lat="46.52839" lon="-1.75323">
        <ele>37</ele>
        <time>2018-04-23T15:04:07Z</time>
      </trkpt>
      <trkpt lat="46.52839" lon="-1.75325">
        <ele>37</ele>
        <time>2018-04-23T15:05:07Z</time>
      </trkpt>
      <trkpt lat="46.52838" lon="-1.75328">
        <ele>37</ele>
        <time>2018-04-23T15:06:07Z</time>
      </trkpt>
      <trkpt lat="46.52838" lon="-1.7533">
        <ele>37</ele>
        <time>2018-04-23T15:07:07Z</time>
      </trkpt>
      <trkpt lat="46.52837" lon="-1.75333">
        <ele>37</ele>
        <time>2018-04-23T15:08:07Z</time>
      </trkpt>
      <trkpt lat="46.52837" lon="-1.75335">
        <ele>37</ele>
        <time>2018-04-23T15:09:07Z</time>
      </trkpt>
      <trkpt lat="46.52836" lon="-1.75337">
        <ele>37</ele>
        <time>2018-04-23T15:10:07Z</time>
      </trkpt>
      <trkpt lat="46.52835" lon="-1.7534">
        <ele>37</ele>
        <time>2018-04-23T15:11:07Z</time>
      </trkpt>
      <trkpt lat="46.52834" lon="-1.75342">
        <ele>37</ele>
        <time>2018-04-23T15:12:07Z</time>
      </trkpt>
      <trkpt lat="46.52842" lon="-1.75372">
        <ele>37</ele>
        <time>2018-04-23T15:13:07Z</time>
      </trkpt>
      <trkpt lat="46.52845" lon="-1.75378">
        <ele>37</ele>
        <time>2018-04-23T15:14:07Z</time>
      </trkpt>
      <trkpt lat="46.52851" lon="-1.75392">
        <ele>37</ele>
        <time>2018-04-23T15:15:07Z</time>
      </trkpt>
      <trkpt lat="46.52856" lon="-1.75405">
        <ele>37</ele>
        <time>2018-04-23T15:16:07Z</time>
      </trkpt>
      <trkpt lat="46.52858" lon="-1.75414">
        <ele>37</ele>
        <time>2018-04-23T15:17:07Z</time>
      </trkpt>
      <trkpt lat="46.52866" lon="-1.75433">
        <ele>36</ele>
        <time>2018-04-23T15:18:07Z</time>
      </trkpt>
      <trkpt lat="46.5287" lon="-1.75443">
        <ele>36</ele>
        <time>2018-04-23T15:19:07Z</time>
      </trkpt>
      <trkpt lat="46.52882" lon="-1.75471">
        <ele>35</ele>
        <time>2018-04-23T15:20:07Z</time>
      </trkpt>
      <trkpt lat="46.52886" lon="-1.75478">
        <ele>35</ele>
        <time>2018-04-23T15:21:07Z</time>
      </trkpt>
      <trkpt lat="46.52894" lon="-1.75495">
        <ele>35</ele>
        <time>2018-04-23T15:22:07Z</time>
      </trkpt>
      <trkpt lat="46.52902" lon="-1.75513">
        <ele>35</ele>
        <time>2018-04-23T15:23:07Z</time>
      </trkpt>
      <trkpt lat="46.52903" lon="-1.75516">
        <ele>35</ele>
        <time>2018-04-23T15:24:07Z</time>
      </trkpt>
      <trkpt lat="46.52916" lon="-1.75543">
        <ele>35</ele>
        <time>2018-04-23T15:25:07Z</time>
      </trkpt>
      <trkpt lat="46.52918" lon="-1.75548">
        <ele>35</ele>
        <time>2018-04-23T15:26:07Z</time>
      </trkpt>
      <trkpt lat="46.5295" lon="-1.75604">
        <ele>34</ele>
        <time>2018-04-23T15:27:07Z</time>
      </trkpt>
      <trkpt lat="46.52965" lon="-1.75628">
        <ele>33</ele>
        <time>2018-04-23T15:28:07Z</time>
      </trkpt>
      <trkpt lat="46.52977" lon="-1.75649">
        <ele>33</ele>
        <time>2018-04-23T15:29:07Z</time>
      </trkpt>
      <trkpt lat="46.52991" lon="-1.75673">
        <ele>32</ele>
        <time>2018-04-23T15:30:07Z</time>
      </trkpt>
      <trkpt lat="46.52994" lon="-1.75678">
        <ele>32</ele>
        <time>2018-04-23T15:31:07Z</time>
      </trkpt>
      <trkpt lat="46.53006" lon="-1.75697">
        <ele>32</ele>
        <time>2018-04-23T15:32:07Z</time>
      </trkpt>
      <trkpt lat="46.53011" lon="-1.75703">
        <ele>32</ele>
        <time>2018-04-23T15:33:07Z</time>
      </trkpt>
      <trkpt lat="46.53018" lon="-1.75712">
        <ele>32</ele>
        <time>2018-04-23T15:34:07Z</time>
      </trkpt>
      <trkpt lat="46.53021" lon="-1.75717">
        <ele>32</ele>
        <time>2018-04-23T15:35:07Z</time>
      </trkpt>
      <trkpt lat="46.53024" lon="-1.7572">
        <ele>32</ele>
        <time>2018-04-23T15:36:07Z</time>
      </trkpt>
      <trkpt lat="46.53032" lon="-1.75729">
        <ele>32</ele>
        <time>2018-04-23T15:37:07Z</time>
      </trkpt>
      <trkpt lat="46.5304" lon="-1.75736">
        <ele>32</ele>
        <time>2018-04-23T15:38:07Z</time>
      </trkpt>
      <trkpt lat="46.53046" lon="-1.75741">
        <ele>32</ele>
        <time>2018-04-23T15:39:07Z</time>
      </trkpt>
      <trkpt lat="46.53058" lon="-1.75751">
        <ele>32</ele>
        <time>2018-04-23T15:40:07Z</time>
      </trkpt>
      <trkpt lat="46.53061" lon="-1.75753">
        <ele>32</ele>
        <time>2018-04-23T15:41:07Z</time>
      </trkpt>
      <trkpt lat="46.53065" lon="-1.75756">
        <ele>32</ele>
        <time>2018-04-23T15:42:07Z</time>
      </trkpt>
      <trkpt lat="46.53079" lon="-1.75766">
        <ele>31</ele>
        <time>2018-04-23T15:43:07Z</time>
      </trkpt>
      <trkpt lat="46.53103" lon="-1.75785">
        <ele>31</ele>
        <time>2018-04-23T15:44:07Z</time>
      </trkpt>
      <trkpt lat="46.53109" lon="-1.75789">
        <ele>30</ele>
        <time>2018-04-23T15:45:07Z</time>
      </trkpt>
      <trkpt lat="46.53128" lon="-1.75806">
        <ele>30</ele>
        <time>2018-04-23T15:46:07Z</time>
      </trkpt>
      <trkpt lat="46.53144" lon="-1.7582">
        <ele>29</ele>
        <time>2018-04-23T15:47:07Z</time>
      </trkpt>
      <trkpt lat="46.53166" lon="-1.75842">
        <ele>29</ele>
        <time>2018-04-23T15:48:07Z</time>
      </trkpt>
      <trkpt lat="46.53172" lon="-1.75848">
        <ele>29</ele>
        <time>2018-04-23T15:49:07Z</time>
      </trkpt>
      <trkpt lat="46.53181" lon="-1.75856">
        <ele>29</ele>
        <time>2018-04-23T15:50:07Z</time>
      </trkpt>
      <trkpt lat="46.53188" lon="-1.75862">
        <ele>29</ele>
        <time>2018-04-23T15:51:07Z</time>
      </trkpt>
      <trkpt lat="46.53198" lon="-1.75871">
        <ele>30</ele>
        <time>2018-04-23T15:52:07Z</time>
      </trkpt>
      <trkpt lat="46.53214" lon="-1.75884">
        <ele>30</ele>
        <time>2018-04-23T15:53:07Z</time>
      </trkpt>
      <trkpt lat="46.53229" lon="-1.75898">
        <ele>30</ele>
        <time>2018-04-23T15:54:07Z</time>
      </trkpt>
      <trkpt lat="46.53246" lon="-1.75914">
        <ele>30</ele>
        <time>2018-04-23T15:55:07Z</time>
      </trkpt>
      <trkpt lat="46.53257" lon="-1.75925">
        <ele>30</ele>
        <time>2018-04-23T15:56:07Z</time>
      </trkpt>
      <trkpt lat="46.53266" lon="-1.75937">
        <ele>29</ele>
        <time>2018-04-23T15:57:07Z</time>
      </trkpt>
      <trkpt lat="46.53275" lon="-1.75952">
        <ele>29</ele>
        <time>2018-04-23T15:58:07Z</time>
      </trkpt>
      <trkpt lat="46.53284" lon="-1.75968">
        <ele>29</ele>
        <time>2018-04-23T15:59:07Z</time>
      </trkpt>
      <trkpt lat="46.53314" lon="-1.76022">
        <ele>28</ele>
        <time>2018-04-23T16:00:07Z</time>
      </trkpt>
      <trkpt lat="46.53319" lon="-1.76031">
        <ele>28</ele>
        <time>2018-04-23T16:01:07Z</time>
      </trkpt>
      <trkpt lat="46.53327" lon="-1.76047">
        <ele>28</ele>
        <time>2018-04-23T16:02:07Z</time>
      </trkpt>
      <trkpt lat="46.53334" lon="-1.76061">
        <ele>28</ele>
        <time>2018-04-23T16:03:07Z</time>
      </trkpt>
      <trkpt lat="46.53343" lon="-1.76076">
        <ele>28</ele>
        <time>2018-04-23T16:04:07Z</time>
      </trkpt>
      <trkpt lat="46.53349" lon="-1.76089">
        <ele>28</ele>
        <time>2018-04-23T16:05:07Z</time>
      </trkpt>
      <trkpt lat="46.53356" lon="-1.76101">
        <ele>29</ele>
        <time>2018-04-23T16:06:07Z</time>
      </trkpt>
      <trkpt lat="46.53366" lon="-1.76119">
        <ele>29</ele>
        <time>2018-04-23T16:07:07Z</time>
      </trkpt>
      <trkpt lat="46.53376" lon="-1.76136">
        <ele>29</ele>
        <time>2018-04-23T16:08:07Z</time>
      </trkpt>
      <trkpt lat="46.5338" lon="-1.76142">
        <ele>29</ele>
        <time>2018-04-23T16:09:07Z</time>
      </trkpt>
      <trkpt lat="46.53386" lon="-1.76152">
        <ele>29</ele>
        <time>2018-04-23T16:10:07Z</time>
      </trkpt>
      <trkpt lat="46.53394" lon="-1.76159">
        <ele>29</ele>
        <time>2018-04-23T16:11:07Z</time>
      </trkpt>
      <trkpt lat="46.53402" lon="-1.76171">
        <ele>30</ele>
        <time>2018-04-23T16:12:07Z</time>
      </trkpt>
      <trkpt lat="46.5341" lon="-1.76183">
        <ele>30</ele>
        <time>2018-04-23T16:13:07Z</time>
      </trkpt>
      <trkpt lat="46.53413" lon="-1.76188">
        <ele>30</ele>
        <time>2018-04-23T16:14:07Z</time>
      </trkpt>
      <trkpt lat="46.53418" lon="-1.76195">
        <ele>30</ele>
        <time>2018-04-23T16:15:07Z</time>
      </trkpt>
      <trkpt lat="46.53423" lon="-1.76203">
        <ele>30</ele>
        <time>2018-04-23T16:16:07Z</time>
      </trkpt>
      <trkpt lat="46.53428" lon="-1.76211">
        <ele>30</ele>
        <time>2018-04-23T16:17:07Z</time>
      </trkpt>
      <trkpt lat="46.5343" lon="-1.76214">
        <ele>30</ele>
        <time>2018-04-23T16:18:07Z</time>
      </trkpt>
      <trkpt lat="46.53433" lon="-1.7622">
        <ele>30</ele>
        <time>2018-04-23T16:19:07Z</time>
      </trkpt>
      <trkpt lat="46.53436" lon="-1.76229">
        <ele>29</ele>
        <time>2018-04-23T16:20:07Z</time>
      </trkpt>
      <trkpt lat="46.5344" lon="-1.7624">
        <ele>29</ele>
        <time>2018-04-23T16:21:07Z</time>
      </trkpt>
      <trkpt lat="46.53442" lon="-1.76249">
        <ele>29</ele>
        <time>2018-04-23T16:22:07Z</time>
      </trkpt>
      <trkpt lat="46.53444" lon="-1.76259">
        <ele>29</ele>
        <time>2018-04-23T16:23:07Z</time>
      </trkpt>
      <trkpt lat="46.53446" lon="-1.76268">
        <ele>29</ele>
        <time>2018-04-23T16:24:07Z</time>
      </trkpt>
      <trkpt lat="46.53449" lon="-1.7628">
        <ele>29</ele>
        <time>2018-04-23T16:25:07Z</time>
      </trkpt>
      <trkpt lat="46.53451" lon="-1.76294">
        <ele>29</ele>
        <time>2018-04-23T16:26:07Z</time>
      </trkpt>
      <trkpt lat="46.53453" lon="-1.76309">
        <ele>29</ele>
        <time>2018-04-23T16:27:07Z</time>
      </trkpt>
      <trkpt lat="46.53454" lon="-1.76317">
        <ele>29</ele>
        <time>2018-04-23T16:28:07Z</time>
      </trkpt>
      <trkpt lat="46.53455" lon="-1.76321">
        <ele>29</ele>
        <time>2018-04-23T16:29:07Z</time>
      </trkpt>
      <trkpt lat="46.53455" lon="-1.76322">
        <ele>29</ele>
        <time>2018-04-23T16:30:07Z</time>
      </trkpt>
      <trkpt lat="46.53456" lon="-1.76338">
        <ele>29</ele>
        <time>2018-04-23T16:31:07Z</time>
      </trkpt>
      <trkpt lat="46.53458" lon="-1.76352">
        <ele>29</ele>
        <time>2018-04-23T16:32:07Z</time>
      </trkpt>
      <trkpt lat="46.53459" lon="-1.76377">
        <ele>30</ele>
        <time>2018-04-23T16:33:07Z</time>
      </trkpt>
      <trkpt lat="46.53459" lon="-1.76393">
        <ele>30</ele>
        <time>2018-04-23T16:34:07Z</time>
      </trkpt>
      <trkpt lat="46.53458" lon="-1.76406">
        <ele>29</ele>
        <time>2018-04-23T16:35:07Z</time>
      </trkpt>
      <trkpt lat="46.53458" lon="-1.7641">
        <ele>29</ele>
        <time>2018-04-23T16:36:07Z</time>
      </trkpt>
      <trkpt lat="46.53459" lon="-1.76421">
        <ele>29</ele>
        <time>2018-04-23T16:37:07Z</time>
      </trkpt>
      <trkpt lat="46.5346" lon="-1.76439">
        <ele>29</ele>
        <time>2018-04-23T16:38:07Z</time>
      </trkpt>
      <trkpt lat="46.53463" lon="-1.76466">
        <ele>29</ele>
        <time>2018-04-23T16:39:07Z</time>
      </trkpt>
      <trkpt lat="46.53466" lon="-1.76483">
        <ele>29</ele>
        <time>2018-04-23T16:40:07Z</time>
      </trkpt>
      <trkpt lat="46.5347" lon="-1.76505">
        <ele>29</ele>
        <time>2018-04-23T16:41:07Z</time>
      </trkpt>
      <trkpt lat="46.53472" lon="-1.76517">
        <ele>29</ele>
        <time>2018-04-23T16:42:07Z</time>
      </trkpt>
      <trkpt lat="46.53478" lon="-1.76544">
        <ele>28</ele>
        <time>2018-04-23T16:43:07Z</time>
      </trkpt>
      <trkpt lat="46.53483" lon="-1.76562">
        <ele>28</ele>
        <time>2018-04-23T16:44:07Z</time>
      </trkpt>
      <trkpt lat="46.53498" lon="-1.76604">
        <ele>28</ele>
        <time>2018-04-23T16:45:07Z</time>
      </trkpt>
      <trkpt lat="46.53515" lon="-1.76666">
        <ele>29</ele>
        <time>2018-04-23T16:46:07Z</time>
      </trkpt>
      <trkpt lat="46.53518" lon="-1.76675">
        <ele>29</ele>
        <time>2018-04-23T16:47:07Z</time>
      </trkpt>
      <trkpt lat="46.5352" lon="-1.76684">
        <ele>29</ele>
        <time>2018-04-23T16:48:07Z</time>
      </trkpt>
      <trkpt lat="46.53523" lon="-1.76697">
        <ele>29</ele>
        <time>2018-04-23T16:49:07Z</time>
      </trkpt>
      <trkpt lat="46.53526" lon="-1.7671">
        <ele>29</ele>
        <time>2018-04-23T16:50:07Z</time>
      </trkpt>
      <trkpt lat="46.53529" lon="-1.76723">
        <ele>28</ele>
        <time>2018-04-23T16:51:07Z</time>
      </trkpt>
      <trkpt lat="46.5353" lon="-1.76727">
        <ele>28</ele>
        <time>2018-04-23T16:52:07Z</time>
      </trkpt>
      <trkpt lat="46.53533" lon="-1.76743">
        <ele>28</ele>
        <time>2018-04-23T16:53:07Z</time>
      </trkpt>
      <trkpt lat="46.53536" lon="-1.76759">
        <ele>28</ele>
        <time>2018-04-23T16:54:07Z</time>
      </trkpt>
      <trkpt lat="46.53542" lon="-1.76794">
        <ele>28</ele>
        <time>2018-04-23T16:55:07Z</time>
      </trkpt>
      <trkpt lat="46.53545" lon="-1.76819">
        <ele>28</ele>
        <time>2018-04-23T16:56:07Z</time>
      </trkpt>
      <trkpt lat="46.53548" lon="-1.76831">
        <ele>29</ele>
        <time>2018-04-23T16:57:07Z</time>
      </trkpt>
      <trkpt lat="46.53548" lon="-1.76837">
        <ele>29</ele>
        <time>2018-04-23T16:58:07Z</time>
      </trkpt>
      <trkpt lat="46.53549" lon="-1.76844">
        <ele>29</ele>
        <time>2018-04-23T16:59:07Z</time>
      </trkpt>
      <trkpt lat="46.53553" lon="-1.76869">
        <ele>28</ele>
        <time>2018-04-23T17:00:07Z</time>
      </trkpt>
      <trkpt lat="46.5356" lon="-1.76924">
        <ele>28</ele>
        <time>2018-04-23T17:01:07Z</time>
      </trkpt>
      <trkpt lat="46.5357" lon="-1.76977">
        <ele>28</ele>
        <time>2018-04-23T17:02:07Z</time>
      </trkpt>
      <trkpt lat="46.53577" lon="-1.77008">
        <ele>29</ele>
        <time>2018-04-23T17:03:07Z</time>
      </trkpt>
      <trkpt lat="46.53578" lon="-1.77014">
        <ele>29</ele>
        <time>2018-04-23T17:04:07Z</time>
      </trkpt>
      <trkpt lat="46.53615" lon="-1.77172">
        <ele>28</ele>
        <time>2018-04-23T17:05:07Z</time>
      </trkpt>
      <trkpt lat="46.53618" lon="-1.77185">
        <ele>28</ele>
        <time>2018-04-23T17:06:07Z</time>
      </trkpt>
      <trkpt lat="46.53625" lon="-1.77216">
        <ele>29</ele>
        <time>2018-04-23T17:07:07Z</time>
      </trkpt>
      <trkpt lat="46.53633" lon="-1.77243">
        <ele>29</ele>
        <time>2018-04-23T17:08:07Z</time>
      </trkpt>
      <trkpt lat="46.53639" lon="-1.77265">
        <ele>28</ele>
        <time>2018-04-23T17:09:07Z</time>
      </trkpt>
      <trkpt lat="46.53639" lon="-1.77265">
        <ele>28</ele>
        <time>2018-04-23T17:10:07Z</time>
      </trkpt>
      <trkpt lat="46.53749" lon="-1.77222">
        <ele>28</ele>
        <time>2018-04-23T17:11:07Z</time>
      </trkpt>
      <trkpt lat="46.53774" lon="-1.77212">
        <ele>28</ele>
        <time>2018-04-23T17:12:07Z</time>
      </trkpt>
      <trkpt lat="46.53784" lon="-1.77208">
        <ele>28</ele>
        <time>2018-04-23T17:13:07Z</time>
      </trkpt>
      <trkpt lat="46.53847" lon="-1.77182">
        <ele>26</ele>
        <time>2018-04-23T17:14:07Z</time>
      </trkpt>
      <trkpt lat="46.53876" lon="-1.77169">
        <ele>24</ele>
        <time>2018-04-23T17:15:07Z</time>
      </trkpt>
      <trkpt lat="46.53914" lon="-1.77155">
        <ele>23</ele>
        <time>2018-04-23T17:16:07Z</time>
      </trkpt>
      <trkpt lat="46.53952" lon="-1.77139">
        <ele>19</ele>
        <time>2018-04-23T17:17:07Z</time>
      </trkpt>
      <trkpt lat="46.53985" lon="-1.77126">
        <ele>17</ele>
        <time>2018-04-23T17:18:07Z</time>
      </trkpt>
      <trkpt lat="46.54031" lon="-1.77107">
        <ele>14</ele>
        <time>2018-04-23T17:19:07Z</time>
      </trkpt>
      <trkpt lat="46.54047" lon="-1.771">
        <ele>14</ele>
        <time>2018-04-23T17:20:07Z</time>
      </trkpt>
      <trkpt lat="46.5408" lon="-1.77086">
        <ele>13</ele>
        <time>2018-04-23T17:21:07Z</time>
      </trkpt>
      <trkpt lat="46.54082" lon="-1.77086">
        <ele>13</ele>
        <time>2018-04-23T17:22:07Z</time>
      </trkpt>
      <trkpt lat="46.54124" lon="-1.77069">
        <ele>11</ele>
        <time>2018-04-23T17:23:07Z</time>
      </trkpt>
      <trkpt lat="46.54132" lon="-1.77066">
        <ele>11</ele>
        <time>2018-04-23T17:24:07Z</time>
      </trkpt>
      <trkpt lat="46.54159" lon="-1.77054">
        <ele>10</ele>
        <time>2018-04-23T17:25:07Z</time>
      </trkpt>
      <trkpt lat="46.54169" lon="-1.77051">
        <ele>9</ele>
        <time>2018-04-23T17:26:07Z</time>
      </trkpt>
      <trkpt lat="46.54179" lon="-1.77046">
        <ele>9</ele>
        <time>2018-04-23T17:27:07Z</time>
      </trkpt>
      <trkpt lat="46.54184" lon="-1.77042">
        <ele>9</ele>
        <time>2018-04-23T17:28:07Z</time>
      </trkpt>
      <trkpt lat="46.54185" lon="-1.77041">
        <ele>9</ele>
        <time>2018-04-23T17:29:07Z</time>
      </trkpt>
      <trkpt lat="46.54192" lon="-1.77038">
        <ele>9</ele>
        <time>2018-04-23T17:30:07Z</time>
      </trkpt>
      <trkpt lat="46.54206" lon="-1.77031">
        <ele>9</ele>
        <time>2018-04-23T17:31:07Z</time>
      </trkpt>
      <trkpt lat="46.5422" lon="-1.77022">
        <ele>8</ele>
        <time>2018-04-23T17:32:07Z</time>
      </trkpt>
      <trkpt lat="46.54228" lon="-1.77012">
        <ele>8</ele>
        <time>2018-04-23T17:33:07Z</time>
      </trkpt>
      <trkpt lat="46.54228" lon="-1.77011">
        <ele>8</ele>
        <time>2018-04-23T17:34:07Z</time>
      </trkpt>
      <trkpt lat="46.54228" lon="-1.7701">
        <ele>8</ele>
        <time>2018-04-23T17:35:07Z</time>
      </trkpt>
      <trkpt lat="46.54229" lon="-1.77008">
        <ele>8</ele>
        <time>2018-04-23T17:36:07Z</time>
      </trkpt>
      <trkpt lat="46.54229" lon="-1.77007">
        <ele>8</ele>
        <time>2018-04-23T17:37:07Z</time>
      </trkpt>
      <trkpt lat="46.5423" lon="-1.77006">
        <ele>8</ele>
        <time>2018-04-23T17:38:07Z</time>
      </trkpt>
      <trkpt lat="46.54231" lon="-1.77005">
        <ele>8</ele>
        <time>2018-04-23T17:39:07Z</time>
      </trkpt>
      <trkpt lat="46.54231" lon="-1.77004">
        <ele>8</ele>
        <time>2018-04-23T17:40:07Z</time>
      </trkpt>
      <trkpt lat="46.54232" lon="-1.77003">
        <ele>8</ele>
        <time>2018-04-23T17:41:07Z</time>
      </trkpt>
      <trkpt lat="46.54233" lon="-1.77002">
        <ele>8</ele>
        <time>2018-04-23T17:42:07Z</time>
      </trkpt>
      <trkpt lat="46.54234" lon="-1.77002">
        <ele>8</ele>
        <time>2018-04-23T17:43:07Z</time>
      </trkpt>
      <trkpt lat="46.54234" lon="-1.77001">
        <ele>8</ele>
        <time>2018-04-23T17:44:07Z</time>
      </trkpt>
      <trkpt lat="46.54235" lon="-1.77">
        <ele>8</ele>
        <time>2018-04-23T17:45:07Z</time>
      </trkpt>
      <trkpt lat="46.54236" lon="-1.77">
        <ele>8</ele>
        <time>2018-04-23T17:46:07Z</time>
      </trkpt>
      <trkpt lat="46.54237" lon="-1.76999">
        <ele>8</ele>
        <time>2018-04-23T17:47:07Z</time>
      </trkpt>
      <trkpt lat="46.54238" lon="-1.76999">
        <ele>8</ele>
        <time>2018-04-23T17:48:07Z</time>
      </trkpt>
      <trkpt lat="46.54239" lon="-1.76999">
        <ele>8</ele>
        <time>2018-04-23T17:49:07Z</time>
      </trkpt>
      <trkpt lat="46.5424" lon="-1.76999">
        <ele>8</ele>
        <time>2018-04-23T17:50:07Z</time>
      </trkpt>
      <trkpt lat="46.54241" lon="-1.76999">
        <ele>8</ele>
        <time>2018-04-23T17:51:07Z</time>
      </trkpt>
      <trkpt lat="46.54242" lon="-1.76999">
        <ele>8</ele>
        <time>2018-04-23T17:52:07Z</time>
      </trkpt>
      <trkpt lat="46.54243" lon="-1.76999">
        <ele>8</ele>
        <time>2018-04-23T17:53:07Z</time>
      </trkpt>
      <trkpt lat="46.54244" lon="-1.76999">
        <ele>8</ele>
        <time>2018-04-23T17:54:07Z</time>
      </trkpt>
      <trkpt lat="46.54245" lon="-1.76999">
        <ele>8</ele>
        <time>2018-04-23T17:55:07Z</time>
      </trkpt>
      <trkpt lat="46.54246" lon="-1.77">
        <ele>8</ele>
        <time>2018-04-23T17:56:07Z</time>
      </trkpt>
      <trkpt lat="46.54247" lon="-1.77">
        <ele>8</ele>
        <time>2018-04-23T17:57:07Z</time>
      </trkpt>
      <trkpt lat="46.54248" lon="-1.77001">
        <ele>8</ele>
        <time>2018-04-23T17:58:07Z</time>
      </trkpt>
      <trkpt lat="46.54249" lon="-1.77002">
        <ele>8</ele>
        <time>2018-04-23T17:59:07Z</time>
      </trkpt>
      <trkpt lat="46.5425" lon="-1.77003">
        <ele>8</ele>
        <time>2018-04-23T18:00:07Z</time>
      </trkpt>
      <trkpt lat="46.54251" lon="-1.77003">
        <ele>8</ele>
        <time>2018-04-23T18:01:07Z</time>
      </trkpt>
      <trkpt lat="46.54251" lon="-1.77004">
        <ele>8</ele>
        <time>2018-04-23T18:02:07Z</time>
      </trkpt>
      <trkpt lat="46.54252" lon="-1.77005">
        <ele>8</ele>
        <time>2018-04-23T18:03:07Z</time>
      </trkpt>
      <trkpt lat="46.54253" lon="-1.77007">
        <ele>8</ele>
        <time>2018-04-23T18:04:07Z</time>
      </trkpt>
      <trkpt lat="46.54258" lon="-1.77006">
        <ele>8</ele>
        <time>2018-04-23T18:05:07Z</time>
      </trkpt>
      <trkpt lat="46.54264" lon="-1.77005">
        <ele>8</ele>
        <time>2018-04-23T18:06:07Z</time>
      </trkpt>
      <trkpt lat="46.54272" lon="-1.77004">
        <ele>8</ele>
        <time>2018-04-23T18:07:07Z</time>
      </trkpt>
      <trkpt lat="46.54279" lon="-1.77001">
        <ele>8</ele>
        <time>2018-04-23T18:08:07Z</time>
      </trkpt>
      <trkpt lat="46.54286" lon="-1.76999">
        <ele>8</ele>
        <time>2018-04-23T18:09:07Z</time>
      </trkpt>
      <trkpt lat="46.5429" lon="-1.76999">
        <ele>8</ele>
        <time>2018-04-23T18:10:07Z</time>
      </trkpt>
      <trkpt lat="46.54295" lon="-1.76999">
        <ele>8</ele>
        <time>2018-04-23T18:11:07Z</time>
      </trkpt>
      <trkpt lat="46.54301" lon="-1.76996">
        <ele>8</ele>
        <time>2018-04-23T18:12:07Z</time>
      </trkpt>
      <trkpt lat="46.54309" lon="-1.76992">
        <ele>8</ele>
        <time>2018-04-23T18:13:07Z</time>
      </trkpt>
      <trkpt lat="46.54352" lon="-1.76975">
        <ele>8</ele>
        <time>2018-04-23T18:14:07Z</time>
      </trkpt>
      <trkpt lat="46.5438" lon="-1.76964">
        <ele>8</ele>
        <time>2018-04-23T18:15:07Z</time>
      </trkpt>
      <trkpt lat="46.54398" lon="-1.76957">
        <ele>8</ele>
        <time>2018-04-23T18:16:07Z</time>
      </trkpt>
      <trkpt lat="46.54406" lon="-1.76954">
        <ele>8</ele>
        <time>2018-04-23T18:17:07Z</time>
      </trkpt>
      <trkpt lat="46.54448" lon="-1.76936">
        <ele>8</ele>
        <time>2018-04-23T18:18:07Z</time>
      </trkpt>
      <trkpt lat="46.54493" lon="-1.76917">
        <ele>7</ele>
        <time>2018-04-23T18:19:07Z</time>
      </trkpt>
      <trkpt lat="46.54527" lon="-1.76904">
        <ele>7</ele>
        <time>2018-04-23T18:20:07Z</time>
      </trkpt>
      <trkpt lat="46.54565" lon="-1.76888">
        <ele>7</ele>
        <time>2018-04-23T18:21:07Z</time>
      </trkpt>
      <trkpt lat="46.54622" lon="-1.76864">
        <ele>7</ele>
        <time>2018-04-23T18:22:07Z</time>
      </trkpt>
      <trkpt lat="46.54669" lon="-1.76845">
        <ele>7</ele>
        <time>2018-04-23T18:23:07Z</time>
      </trkpt>
      <trkpt lat="46.54674" lon="-1.76843">
        <ele>7</ele>
        <time>2018-04-23T18:24:07Z</time>
      </trkpt>
      <trkpt lat="46.54701" lon="-1.76832">
        <ele>7</ele>
        <time>2018-04-23T18:25:07Z</time>
      </trkpt>
      <trkpt lat="46.54712" lon="-1.76827">
        <ele>7</ele>
        <time>2018-04-23T18:26:07Z</time>
      </trkpt>
      <trkpt lat="46.5475" lon="-1.7681">
        <ele>7</ele>
        <time>2018-04-23T18:27:07Z</time>
      </trkpt>
      <trkpt lat="46.54779" lon="-1.76798">
        <ele>7</ele>
        <time>2018-04-23T18:28:07Z</time>
      </trkpt>
      <trkpt lat="46.54793" lon="-1.76793">
        <ele>7</ele>
        <time>2018-04-23T18:29:07Z</time>
      </trkpt>
      <trkpt lat="46.54805" lon="-1.76791">
        <ele>7</ele>
        <time>2018-04-23T18:30:07Z</time>
      </trkpt>
      <trkpt lat="46.54815" lon="-1.76794">
        <ele>7</ele>
        <time>2018-04-23T18:31:07Z</time>
      </trkpt>
      <trkpt lat="46.54827" lon="-1.76796">
        <ele>6</ele>
        <time>2018-04-23T18:32:07Z</time>
      </trkpt>
      <trkpt lat="46.54833" lon="-1.768">
        <ele>6</ele>
        <time>2018-04-23T18:33:07Z</time>
      </trkpt>
      <trkpt lat="46.54837" lon="-1.76801">
        <ele>6</ele>
        <time>2018-04-23T18:34:07Z</time>
      </trkpt>
      <trkpt lat="46.54843" lon="-1.76804">
        <ele>6</ele>
        <time>2018-04-23T18:35:07Z</time>
      </trkpt>
      <trkpt lat="46.54854" lon="-1.76808">
        <ele>6</ele>
        <time>2018-04-23T18:36:07Z</time>
      </trkpt>
      <trkpt lat="46.54859" lon="-1.76807">
        <ele>6</ele>
        <time>2018-04-23T18:37:07Z</time>
      </trkpt>
      <trkpt lat="46.54863" lon="-1.76805">
        <ele>6</ele>
        <time>2018-04-23T18:38:07Z</time>
      </trkpt>
      <trkpt lat="46.54867" lon="-1.76802">
        <ele>6</ele>
        <time>2018-04-23T18:39:07Z</time>
      </trkpt>
      <trkpt lat="46.54871" lon="-1.76798">
        <ele>6</ele>
        <time>2018-04-23T18:40:07Z</time>
      </trkpt>
      <trkpt lat="46.54874" lon="-1.76793">
        <ele>6</ele>
        <time>2018-04-23T18:41:07Z</time>
      </trkpt>
      <trkpt lat="46.54879" lon="-1.76785">
        <ele>6</ele>
        <time>2018-04-23T18:42:07Z</time>
      </trkpt>
      <trkpt lat="46.54886" lon="-1.76772">
        <ele>7</ele>
        <time>2018-04-23T18:43:07Z</time>
      </trkpt>
      <trkpt lat="46.54892" lon="-1.76761">
        <ele>7</ele>
        <time>2018-04-23T18:44:07Z</time>
      </trkpt>
      <trkpt lat="46.54894" lon="-1.76756">
        <ele>7</ele>
        <time>2018-04-23T18:45:07Z</time>
      </trkpt>
      <trkpt lat="46.54899" lon="-1.76749">
        <ele>7</ele>
        <time>2018-04-23T18:46:07Z</time>
      </trkpt>
      <trkpt lat="46.54904" lon="-1.76743">
        <ele>7</ele>
        <time>2018-04-23T18:47:07Z</time>
      </trkpt>
      <trkpt lat="46.54907" lon="-1.76739">
        <ele>7</ele>
        <time>2018-04-23T18:48:07Z</time>
      </trkpt>
      <trkpt lat="46.54912" lon="-1.76734">
        <ele>7</ele>
        <time>2018-04-23T18:49:07Z</time>
      </trkpt>
      <trkpt lat="46.54918" lon="-1.76728">
        <ele>7</ele>
        <time>2018-04-23T18:50:07Z</time>
      </trkpt>
      <trkpt lat="46.54925" lon="-1.76721">
        <ele>7</ele>
        <time>2018-04-23T18:51:07Z</time>
      </trkpt>
      <trkpt lat="46.54949" lon="-1.76694">
        <ele>6</ele>
        <time>2018-04-23T18:52:07Z</time>
      </trkpt>
      <trkpt lat="46.54953" lon="-1.76688">
        <ele>6</ele>
        <time>2018-04-23T18:53:07Z</time>
      </trkpt>
      <trkpt lat="46.54957" lon="-1.76682">
        <ele>6</ele>
        <time>2018-04-23T18:54:07Z</time>
      </trkpt>
      <trkpt lat="46.54962" lon="-1.7667">
        <ele>5</ele>
        <time>2018-04-23T18:55:07Z</time>
      </trkpt>
      <trkpt lat="46.54966" lon="-1.76659">
        <ele>5</ele>
        <time>2018-04-23T18:56:07Z</time>
      </trkpt>
      <trkpt lat="46.54977" lon="-1.76631">
        <ele>3</ele>
        <time>2018-04-23T18:57:07Z</time>
      </trkpt>
      <trkpt lat="46.54986" lon="-1.76609">
        <ele>2</ele>
        <time>2018-04-23T18:58:07Z</time>
      </trkpt>
      <trkpt lat="46.54991" lon="-1.76596">
        <ele>2</ele>
        <time>2018-04-23T18:59:07Z</time>
      </trkpt>
      <trkpt lat="46.54995" lon="-1.76583">
        <ele>1</ele>
        <time>2018-04-23T19:00:07Z</time>
      </trkpt>
      <trkpt lat="46.54997" lon="-1.76579">
        <ele>1</ele>
        <time>2018-04-23T19:01:07Z</time>
      </trkpt>
      <trkpt lat="46.55009" lon="-1.7655">
        <ele>2</ele>
        <time>2018-04-23T19:02:07Z</time>
      </trkpt>
      <trkpt lat="46.5502" lon="-1.76522">
        <ele>2</ele>
        <time>2018-04-23T19:03:07Z</time>
      </trkpt>
      <trkpt lat="46.5503" lon="-1.765">
        <ele>3</ele>
        <time>2018-04-23T19:04:07Z</time>
      </trkpt>
      <trkpt lat="46.55038" lon="-1.76484">
        <ele>3</ele>
        <time>2018-04-23T19:05:07Z</time>
      </trkpt>
      <trkpt lat="46.55045" lon="-1.7647">
        <ele>3</ele>
        <time>2018-04-23T19:06:07Z</time>
      </trkpt>
      <trkpt lat="46.55052" lon="-1.76457">
        <ele>3</ele>
        <time>2018-04-23T19:07:07Z</time>
      </trkpt>
      <trkpt lat="46.5506" lon="-1.76445">
        <ele>4</ele>
        <time>2018-04-23T19:08:07Z</time>
      </trkpt>
      <trkpt lat="46.55067" lon="-1.76436">
        <ele>4</ele>
        <time>2018-04-23T19:09:07Z</time>
      </trkpt>
      <trkpt lat="46.55071" lon="-1.76432">
        <ele>4</ele>
        <time>2018-04-23T19:10:07Z</time>
      </trkpt>
      <trkpt lat="46.55082" lon="-1.76426">
        <ele>5</ele>
        <time>2018-04-23T19:11:07Z</time>
      </trkpt>
      <trkpt lat="46.5509" lon="-1.76424">
        <ele>5</ele>
        <time>2018-04-23T19:12:07Z</time>
      </trkpt>
      <trkpt lat="46.55099" lon="-1.76423">
        <ele>5</ele>
        <time>2018-04-23T19:13:07Z</time>
      </trkpt>
      <trkpt lat="46.55108" lon="-1.76424">
        <ele>5</ele>
        <time>2018-04-23T19:14:07Z</time>
      </trkpt>
      <trkpt lat="46.55116" lon="-1.76427">
        <ele>5</ele>
        <time>2018-04-23T19:15:07Z</time>
      </trkpt>
      <trkpt lat="46.55123" lon="-1.76429">
        <ele>5</ele>
        <time>2018-04-23T19:16:07Z</time>
      </trkpt>
      <trkpt lat="46.55167" lon="-1.76455">
        <ele>5</ele>
        <time>2018-04-23T19:17:07Z</time>
      </trkpt>
      <trkpt lat="46.55232" lon="-1.76492">
        <ele>6</ele>
        <time>2018-04-23T19:18:07Z</time>
      </trkpt>
      <trkpt lat="46.55244" lon="-1.76493">
        <ele>7</ele>
        <time>2018-04-23T19:19:07Z</time>
      </trkpt>
      <trkpt lat="46.55261" lon="-1.76495">
        <ele>8</ele>
        <time>2018-04-23T19:20:07Z</time>
      </trkpt>
      <trkpt lat="46.55261" lon="-1.76495">
        <ele>8</ele>
        <time>2018-04-23T19:21:07Z</time>
      </trkpt>
      <trkpt lat="46.55262" lon="-1.76493">
        <ele>8</ele>
        <time>2018-04-23T19:22:07Z</time>
      </trkpt>
      <trkpt lat="46.55263" lon="-1.76491">
        <ele>8</ele>
        <time>2018-04-23T19:23:07Z</time>
      </trkpt>
      <trkpt lat="46.55265" lon="-1.7649">
        <ele>8</ele>
        <time>2018-04-23T19:24:07Z</time>
      </trkpt>
      <trkpt lat="46.55266" lon="-1.76488">
        <ele>8</ele>
        <time>2018-04-23T19:25:07Z</time>
      </trkpt>
      <trkpt lat="46.55267" lon="-1.76487">
        <ele>8</ele>
        <time>2018-04-23T19:26:07Z</time>
      </trkpt>
      <trkpt lat="46.55268" lon="-1.76487">
        <ele>8</ele>
        <time>2018-04-23T19:27:07Z</time>
      </trkpt>
      <trkpt lat="46.55269" lon="-1.76486">
        <ele>8</ele>
        <time>2018-04-23T19:28:07Z</time>
      </trkpt>
      <trkpt lat="46.55271" lon="-1.76485">
        <ele>8</ele>
        <time>2018-04-23T19:29:07Z</time>
      </trkpt>
      <trkpt lat="46.55272" lon="-1.76485">
        <ele>8</ele>
        <time>2018-04-23T19:30:07Z</time>
      </trkpt>
      <trkpt lat="46.55273" lon="-1.76485">
        <ele>8</ele>
        <time>2018-04-23T19:31:07Z</time>
      </trkpt>
      <trkpt lat="46.55274" lon="-1.76484">
        <ele>8</ele>
        <time>2018-04-23T19:32:07Z</time>
      </trkpt>
      <trkpt lat="46.55275" lon="-1.76484">
        <ele>8</ele>
        <time>2018-04-23T19:33:07Z</time>
      </trkpt>
      <trkpt lat="46.55277" lon="-1.76484">
        <ele>8</ele>
        <time>2018-04-23T19:34:07Z</time>
      </trkpt>
      <trkpt lat="46.55278" lon="-1.76485">
        <ele>8</ele>
        <time>2018-04-23T19:35:07Z</time>
      </trkpt>
      <trkpt lat="46.55279" lon="-1.76485">
        <ele>9</ele>
        <time>2018-04-23T19:36:07Z</time>
      </trkpt>
      <trkpt lat="46.5528" lon="-1.76486">
        <ele>9</ele>
        <time>2018-04-23T19:37:07Z</time>
      </trkpt>
      <trkpt lat="46.55282" lon="-1.76486">
        <ele>9</ele>
        <time>2018-04-23T19:38:07Z</time>
      </trkpt>
      <trkpt lat="46.55283" lon="-1.76487">
        <ele>9</ele>
        <time>2018-04-23T19:39:07Z</time>
      </trkpt>
      <trkpt lat="46.55284" lon="-1.76488">
        <ele>9</ele>
        <time>2018-04-23T19:40:07Z</time>
      </trkpt>
      <trkpt lat="46.55285" lon="-1.76489">
        <ele>9</ele>
        <time>2018-04-23T19:41:07Z</time>
      </trkpt>
      <trkpt lat="46.55286" lon="-1.7649">
        <ele>9</ele>
        <time>2018-04-23T19:42:07Z</time>
      </trkpt>
      <trkpt lat="46.55288" lon="-1.76491">
        <ele>9</ele>
        <time>2018-04-23T19:43:07Z</time>
      </trkpt>
      <trkpt lat="46.55289" lon="-1.76493">
        <ele>9</ele>
        <time>2018-04-23T19:44:07Z</time>
      </trkpt>
      <trkpt lat="46.5529" lon="-1.76494">
        <ele>9</ele>
        <time>2018-04-23T19:45:07Z</time>
      </trkpt>
      <trkpt lat="46.55291" lon="-1.76496">
        <ele>9</ele>
        <time>2018-04-23T19:46:07Z</time>
      </trkpt>
      <trkpt lat="46.55292" lon="-1.76498">
        <ele>9</ele>
        <time>2018-04-23T19:47:07Z</time>
      </trkpt>
      <trkpt lat="46.55293" lon="-1.765">
        <ele>9</ele>
        <time>2018-04-23T19:48:07Z</time>
      </trkpt>
      <trkpt lat="46.55293" lon="-1.76502">
        <ele>9</ele>
        <time>2018-04-23T19:49:07Z</time>
      </trkpt>
      <trkpt lat="46.55294" lon="-1.76504">
        <ele>9</ele>
        <time>2018-04-23T19:50:07Z</time>
      </trkpt>
      <trkpt lat="46.55294" lon="-1.76505">
        <ele>9</ele>
        <time>2018-04-23T19:51:07Z</time>
      </trkpt>
      <trkpt lat="46.55294" lon="-1.76506">
        <ele>9</ele>
        <time>2018-04-23T19:52:07Z</time>
      </trkpt>
      <trkpt lat="46.55295" lon="-1.76508">
        <ele>9</ele>
        <time>2018-04-23T19:53:07Z</time>
      </trkpt>
      <trkpt lat="46.55295" lon="-1.7651">
        <ele>9</ele>
        <time>2018-04-23T19:54:07Z</time>
      </trkpt>
      <trkpt lat="46.55295" lon="-1.76513">
        <ele>9</ele>
        <time>2018-04-23T19:55:07Z</time>
      </trkpt>
      <trkpt lat="46.55295" lon="-1.76515">
        <ele>9</ele>
        <time>2018-04-23T19:56:07Z</time>
      </trkpt>
      <trkpt lat="46.55295" lon="-1.76517">
        <ele>9</ele>
        <time>2018-04-23T19:57:07Z</time>
      </trkpt>
      <trkpt lat="46.55294" lon="-1.76519">
        <ele>9</ele>
        <time>2018-04-23T19:58:07Z</time>
      </trkpt>
      <trkpt lat="46.55294" lon="-1.76523">
        <ele>9</ele>
        <time>2018-04-23T19:59:07Z</time>
      </trkpt>
      <trkpt lat="46.55293" lon="-1.76525">
        <ele>8</ele>
        <time>2018-04-23T20:00:07Z</time>
      </trkpt>
      <trkpt lat="46.55292" lon="-1.76527">
        <ele>8</ele>
        <time>2018-04-23T20:01:07Z</time>
      </trkpt>
      <trkpt lat="46.55291" lon="-1.76529">
        <ele>8</ele>
        <time>2018-04-23T20:02:07Z</time>
      </trkpt>
      <trkpt lat="46.5529" lon="-1.76531">
        <ele>8</ele>
        <time>2018-04-23T20:03:07Z</time>
      </trkpt>
      <trkpt lat="46.55289" lon="-1.76532">
        <ele>8</ele>
        <time>2018-04-23T20:04:07Z</time>
      </trkpt>
      <trkpt lat="46.55288" lon="-1.76534">
        <ele>8</ele>
        <time>2018-04-23T20:05:07Z</time>
      </trkpt>
      <trkpt lat="46.55287" lon="-1.76535">
        <ele>8</ele>
        <time>2018-04-23T20:06:07Z</time>
      </trkpt>
      <trkpt lat="46.55286" lon="-1.76536">
        <ele>8</ele>
        <time>2018-04-23T20:07:07Z</time>
      </trkpt>
      <trkpt lat="46.55284" lon="-1.76537">
        <ele>8</ele>
        <time>2018-04-23T20:08:07Z</time>
      </trkpt>
      <trkpt lat="46.55283" lon="-1.76538">
        <ele>8</ele>
        <time>2018-04-23T20:09:07Z</time>
      </trkpt>
      <trkpt lat="46.55281" lon="-1.76539">
        <ele>7</ele>
        <time>2018-04-23T20:10:07Z</time>
      </trkpt>
      <trkpt lat="46.55282" lon="-1.76555">
        <ele>7</ele>
        <time>2018-04-23T20:11:07Z</time>
      </trkpt>
      <trkpt lat="46.55282" lon="-1.76567">
        <ele>7</ele>
        <time>2018-04-23T20:12:07Z</time>
      </trkpt>
      <trkpt lat="46.55313" lon="-1.7675">
        <ele>8</ele>
        <time>2018-04-23T20:13:07Z</time>
      </trkpt>
      <trkpt lat="46.55323" lon="-1.76803">
        <ele>8</ele>
        <time>2018-04-23T20:14:07Z</time>
      </trkpt>
      <trkpt lat="46.55332" lon="-1.76856">
        <ele>8</ele>
        <time>2018-04-23T20:15:07Z</time>
      </trkpt>
      <trkpt lat="46.55338" lon="-1.76883">
        <ele>8</ele>
        <time>2018-04-23T20:16:07Z</time>
      </trkpt>
      <trkpt lat="46.55342" lon="-1.76906">
        <ele>8</ele>
        <time>2018-04-23T20:17:07Z</time>
      </trkpt>
      <trkpt lat="46.55348" lon="-1.7694">
        <ele>8</ele>
        <time>2018-04-23T20:18:07Z</time>
      </trkpt>
      <trkpt lat="46.55352" lon="-1.76967">
        <ele>9</ele>
        <time>2018-04-23T20:19:07Z</time>
      </trkpt>
      <trkpt lat="46.55358" lon="-1.77001">
        <ele>9</ele>
        <time>2018-04-23T20:20:07Z</time>
      </trkpt>
      <trkpt lat="46.55372" lon="-1.77084">
        <ele>6</ele>
        <time>2018-04-23T20:21:07Z</time>
      </trkpt>
      <trkpt lat="46.55372" lon="-1.77086">
        <ele>6</ele>
        <time>2018-04-23T20:22:07Z</time>
      </trkpt>
      <trkpt lat="46.55401" lon="-1.77254">
        <ele>4</ele>
        <time>2018-04-23T20:23:07Z</time>
      </trkpt>
      <trkpt lat="46.55405" lon="-1.77277">
        <ele>4</ele>
        <time>2018-04-23T20:24:07Z</time>
      </trkpt>
      <trkpt lat="46.55409" lon="-1.77292">
        <ele>4</ele>
        <time>2018-04-23T20:25:07Z</time>
      </trkpt>
      <trkpt lat="46.55412" lon="-1.77307">
        <ele>4</ele>
        <time>2018-04-23T20:26:07Z</time>
      </trkpt>
      <trkpt lat="46.55414" lon="-1.77313">
        <ele>3</ele>
        <time>2018-04-23T20:27:07Z</time>
      </trkpt>
      <trkpt lat="46.55416" lon="-1.77318">
        <ele>3</ele>
        <time>2018-04-23T20:28:07Z</time>
      </trkpt>
      <trkpt lat="46.55418" lon="-1.77324">
        <ele>3</ele>
        <time>2018-04-23T20:29:07Z</time>
      </trkpt>
      <trkpt lat="46.55421" lon="-1.77332">
        <ele>3</ele>
        <time>2018-04-23T20:30:07Z</time>
      </trkpt>
      <trkpt lat="46.55425" lon="-1.77341">
        <ele>3</ele>
        <time>2018-04-23T20:31:07Z</time>
      </trkpt>
      <trkpt lat="46.55429" lon="-1.77348">
        <ele>3</ele>
        <time>2018-04-23T20:32:07Z</time>
      </trkpt>
      <trkpt lat="46.55431" lon="-1.77353">
        <ele>3</ele>
        <time>2018-04-23T20:33:07Z</time>
      </trkpt>
      <trkpt lat="46.55434" lon="-1.77357">
        <ele>3</ele>
        <time>2018-04-23T20:34:07Z</time>
      </trkpt>
      <trkpt lat="46.5544" lon="-1.77367">
        <ele>3</ele>
        <time>2018-04-23T20:35:07Z</time>
      </trkpt>
      <trkpt lat="46.55449" lon="-1.77381">
        <ele>3</ele>
        <time>2018-04-23T20:36:07Z</time>
      </trkpt>
      <trkpt lat="46.55474" lon="-1.77418">
        <ele>2</ele>
        <time>2018-04-23T20:37:07Z</time>
      </trkpt>
      <trkpt lat="46.55495" lon="-1.77448">
        <ele>2</ele>
        <time>2018-04-23T20:38:07Z</time>
      </trkpt>
      <trkpt lat="46.5551" lon="-1.7747">
        <ele>2</ele>
        <time>2018-04-23T20:39:07Z</time>
      </trkpt>
      <trkpt lat="46.55521" lon="-1.77485">
        <ele>2</ele>
        <time>2018-04-23T20:40:07Z</time>
      </trkpt>
      <trkpt lat="46.55534" lon="-1.77501">
        <ele>2</ele>
        <time>2018-04-23T20:41:07Z</time>
      </trkpt>
      <trkpt lat="46.55553" lon="-1.77525">
        <ele>2</ele>
        <time>2018-04-23T20:42:07Z</time>
      </trkpt>
      <trkpt lat="46.55566" lon="-1.77538">
        <ele>2</ele>
        <time>2018-04-23T20:43:07Z</time>
      </trkpt>
      <trkpt lat="46.55573" lon="-1.77545">
        <ele>2</ele>
        <time>2018-04-23T20:44:07Z</time>
      </trkpt>
      <trkpt lat="46.55582" lon="-1.77553">
        <ele>2</ele>
        <time>2018-04-23T20:45:07Z</time>
      </trkpt>
      <trkpt lat="46.55595" lon="-1.77562">
        <ele>3</ele>
        <time>2018-04-23T20:46:07Z</time>
      </trkpt>
      <trkpt lat="46.55616" lon="-1.77577">
        <ele>3</ele>
        <time>2018-04-23T20:47:07Z</time>
      </trkpt>
      <trkpt lat="46.55642" lon="-1.77594">
        <ele>3</ele>
        <time>2018-04-23T20:48:07Z</time>
      </trkpt>
      <trkpt lat="46.55659" lon="-1.77606">
        <ele>4</ele>
        <time>2018-04-23T20:49:07Z</time>
      </trkpt>
      <trkpt lat="46.5567" lon="-1.77612">
        <ele>4</ele>
        <time>2018-04-23T20:50:07Z</time>
      </trkpt>
      <trkpt lat="46.55692" lon="-1.77626">
        <ele>5</ele>
        <time>2018-04-23T20:51:07Z</time>
      </trkpt>
      <trkpt lat="46.55717" lon="-1.77641">
        <ele>5</ele>
        <time>2018-04-23T20:52:07Z</time>
      </trkpt>
      <trkpt lat="46.55724" lon="-1.77645">
        <ele>6</ele>
        <time>2018-04-23T20:53:07Z</time>
      </trkpt>
      <trkpt lat="46.55742" lon="-1.77657">
        <ele>6</ele>
        <time>2018-04-23T20:54:07Z</time>
      </trkpt>
      <trkpt lat="46.55764" lon="-1.77671">
        <ele>6</ele>
        <time>2018-04-23T20:55:07Z</time>
      </trkpt>
      <trkpt lat="46.55781" lon="-1.77682">
        <ele>6</ele>
        <time>2018-04-23T20:56:07Z</time>
      </trkpt>
      <trkpt lat="46.55784" lon="-1.77684">
        <ele>6</ele>
        <time>2018-04-23T20:57:07Z</time>
      </trkpt>
      <trkpt lat="46.55814" lon="-1.77703">
        <ele>6</ele>
        <time>2018-04-23T20:58:07Z</time>
      </trkpt>
      <trkpt lat="46.55835" lon="-1.77717">
        <ele>6</ele>
        <time>2018-04-23T20:59:07Z</time>
      </trkpt>
      <trkpt lat="46.55863" lon="-1.77735">
        <ele>6</ele>
        <time>2018-04-23T21:00:07Z</time>
      </trkpt>
      <trkpt lat="46.55874" lon="-1.77742">
        <ele>6</ele>
        <time>2018-04-23T21:01:07Z</time>
      </trkpt>
      <trkpt lat="46.55877" lon="-1.77744">
        <ele>7</ele>
        <time>2018-04-23T21:02:07Z</time>
      </trkpt>
      <trkpt lat="46.55923" lon="-1.77772">
        <ele>7</ele>
        <time>2018-04-23T21:03:07Z</time>
      </trkpt>
      <trkpt lat="46.5599" lon="-1.77806">
        <ele>7</ele>
        <time>2018-04-23T21:04:07Z</time>
      </trkpt>
      <trkpt lat="46.56067" lon="-1.77842">
        <ele>5</ele>
        <time>2018-04-23T21:05:07Z</time>
      </trkpt>
      <trkpt lat="46.56172" lon="-1.77892">
        <ele>4</ele>
        <time>2018-04-23T21:06:07Z</time>
      </trkpt>
      <trkpt lat="46.56183" lon="-1.77893">
        <ele>4</ele>
        <time>2018-04-23T21:07:07Z</time>
      </trkpt>
      <trkpt lat="46.56191" lon="-1.77894">
        <ele>4</ele>
        <time>2018-04-23T21:08:07Z</time>
      </trkpt>
      <trkpt lat="46.56199" lon="-1.77895">
        <ele>4</ele>
        <time>2018-04-23T21:09:07Z</time>
      </trkpt>
      <trkpt lat="46.56209" lon="-1.77895">
        <ele>4</ele>
        <time>2018-04-23T21:10:07Z</time>
      </trkpt>
      <trkpt lat="46.56209" lon="-1.77895">
        <ele>4</ele>
        <time>2018-04-23T21:11:07Z</time>
      </trkpt>
      <trkpt lat="46.56209" lon="-1.77894">
        <ele>4</ele>
        <time>2018-04-23T21:12:07Z</time>
      </trkpt>
      <trkpt lat="46.5621" lon="-1.77893">
        <ele>4</ele>
        <time>2018-04-23T21:13:07Z</time>
      </trkpt>
      <trkpt lat="46.5621" lon="-1.77892">
        <ele>4</ele>
        <time>2018-04-23T21:14:07Z</time>
      </trkpt>
      <trkpt lat="46.56211" lon="-1.77892">
        <ele>4</ele>
        <time>2018-04-23T21:15:07Z</time>
      </trkpt>
      <trkpt lat="46.56211" lon="-1.77891">
        <ele>4</ele>
        <time>2018-04-23T21:16:07Z</time>
      </trkpt>
      <trkpt lat="46.56212" lon="-1.77891">
        <ele>4</ele>
        <time>2018-04-23T21:17:07Z</time>
      </trkpt>
      <trkpt lat="46.56213" lon="-1.7789">
        <ele>4</ele>
        <time>2018-04-23T21:18:07Z</time>
      </trkpt>
      <trkpt lat="46.56214" lon="-1.77889">
        <ele>4</ele>
        <time>2018-04-23T21:19:07Z</time>
      </trkpt>
      <trkpt lat="46.56215" lon="-1.77889">
        <ele>4</ele>
        <time>2018-04-23T21:20:07Z</time>
      </trkpt>
      <trkpt lat="46.56216" lon="-1.77889">
        <ele>4</ele>
        <time>2018-04-23T21:21:07Z</time>
      </trkpt>
      <trkpt lat="46.56217" lon="-1.77888">
        <ele>4</ele>
        <time>2018-04-23T21:22:07Z</time>
      </trkpt>
      <trkpt lat="46.56218" lon="-1.77888">
        <ele>4</ele>
        <time>2018-04-23T21:23:07Z</time>
      </trkpt>
      <trkpt lat="46.56219" lon="-1.77888">
        <ele>4</ele>
        <time>2018-04-23T21:24:07Z</time>
      </trkpt>
      <trkpt lat="46.56219" lon="-1.77889">
        <ele>4</ele>
        <time>2018-04-23T21:25:07Z</time>
      </trkpt>
      <trkpt lat="46.5622" lon="-1.77889">
        <ele>4</ele>
        <time>2018-04-23T21:26:07Z</time>
      </trkpt>
      <trkpt lat="46.56221" lon="-1.77889">
        <ele>4</ele>
        <time>2018-04-23T21:27:07Z</time>
      </trkpt>
      <trkpt lat="46.56222" lon="-1.7789">
        <ele>4</ele>
        <time>2018-04-23T21:28:07Z</time>
      </trkpt>
      <trkpt lat="46.56223" lon="-1.7789">
        <ele>4</ele>
        <time>2018-04-23T21:29:07Z</time>
      </trkpt>
      <trkpt lat="46.56223" lon="-1.77891">
        <ele>4</ele>
        <time>2018-04-23T21:30:07Z</time>
      </trkpt>
      <trkpt lat="46.56224" lon="-1.77892">
        <ele>4</ele>
        <time>2018-04-23T21:31:07Z</time>
      </trkpt>
      <trkpt lat="46.56225" lon="-1.77892">
        <ele>4</ele>
        <time>2018-04-23T21:32:07Z</time>
      </trkpt>
      <trkpt lat="46.56225" lon="-1.77893">
        <ele>4</ele>
        <time>2018-04-23T21:33:07Z</time>
      </trkpt>
      <trkpt lat="46.56226" lon="-1.77893">
        <ele>4</ele>
        <time>2018-04-23T21:34:07Z</time>
      </trkpt>
      <trkpt lat="46.56226" lon="-1.77894">
        <ele>4</ele>
        <time>2018-04-23T21:35:07Z</time>
      </trkpt>
      <trkpt lat="46.56227" lon="-1.77895">
        <ele>4</ele>
        <time>2018-04-23T21:36:07Z</time>
      </trkpt>
      <trkpt lat="46.56227" lon="-1.77896">
        <ele>4</ele>
        <time>2018-04-23T21:37:07Z</time>
      </trkpt>
      <trkpt lat="46.56228" lon="-1.77897">
        <ele>4</ele>
        <time>2018-04-23T21:38:07Z</time>
      </trkpt>
      <trkpt lat="46.56228" lon="-1.77898">
        <ele>4</ele>
        <time>2018-04-23T21:39:07Z</time>
      </trkpt>
      <trkpt lat="46.56228" lon="-1.77899">
        <ele>4</ele>
        <time>2018-04-23T21:40:07Z</time>
      </trkpt>
      <trkpt lat="46.56228" lon="-1.779">
        <ele>4</ele>
        <time>2018-04-23T21:41:07Z</time>
      </trkpt>
      <trkpt lat="46.56229" lon="-1.77901">
        <ele>4</ele>
        <time>2018-04-23T21:42:07Z</time>
      </trkpt>
      <trkpt lat="46.56229" lon="-1.77902">
        <ele>4</ele>
        <time>2018-04-23T21:43:07Z</time>
      </trkpt>
      <trkpt lat="46.56229" lon="-1.77903">
        <ele>4</ele>
        <time>2018-04-23T21:44:07Z</time>
      </trkpt>
      <trkpt lat="46.56229" lon="-1.77904">
        <ele>4</ele>
        <time>2018-04-23T21:45:07Z</time>
      </trkpt>
      <trkpt lat="46.56229" lon="-1.77905">
        <ele>4</ele>
        <time>2018-04-23T21:46:07Z</time>
      </trkpt>
      <trkpt lat="46.56229" lon="-1.77906">
        <ele>4</ele>
        <time>2018-04-23T21:47:07Z</time>
      </trkpt>
      <trkpt lat="46.56229" lon="-1.77907">
        <ele>4</ele>
        <time>2018-04-23T21:48:07Z</time>
      </trkpt>
      <trkpt lat="46.56229" lon="-1.77908">
        <ele>4</ele>
        <time>2018-04-23T21:49:07Z</time>
      </trkpt>
      <trkpt lat="46.56234" lon="-1.77918">
        <ele>4</ele>
        <time>2018-04-23T21:50:07Z</time>
      </trkpt>
      <trkpt lat="46.5624" lon="-1.77926">
        <ele>4</ele>
        <time>2018-04-23T21:51:07Z</time>
      </trkpt>
      <trkpt lat="46.56247" lon="-1.77934">
        <ele>4</ele>
        <time>2018-04-23T21:52:07Z</time>
      </trkpt>
      <trkpt lat="46.56252" lon="-1.77939">
        <ele>4</ele>
        <time>2018-04-23T21:53:07Z</time>
      </trkpt>
      <trkpt lat="46.5626" lon="-1.77946">
        <ele>4</ele>
        <time>2018-04-23T21:54:07Z</time>
      </trkpt>
      <trkpt lat="46.56263" lon="-1.77948">
        <ele>4</ele>
        <time>2018-04-23T21:55:07Z</time>
      </trkpt>
      <trkpt lat="46.56266" lon="-1.77952">
        <ele>4</ele>
        <time>2018-04-23T21:56:07Z</time>
      </trkpt>
      <trkpt lat="46.56275" lon="-1.77959">
        <ele>4</ele>
        <time>2018-04-23T21:57:07Z</time>
      </trkpt>
      <trkpt lat="46.56287" lon="-1.77965">
        <ele>3</ele>
        <time>2018-04-23T21:58:07Z</time>
      </trkpt>
      <trkpt lat="46.56301" lon="-1.77973">
        <ele>3</ele>
        <time>2018-04-23T21:59:07Z</time>
      </trkpt>
      <trkpt lat="46.56314" lon="-1.77979">
        <ele>3</ele>
        <time>2018-04-23T22:00:07Z</time>
      </trkpt>
      <trkpt lat="46.56333" lon="-1.77987">
        <ele>2</ele>
        <time>2018-04-23T22:01:07Z</time>
      </trkpt>
      <trkpt lat="46.56352" lon="-1.77994">
        <ele>2</ele>
        <time>2018-04-23T22:02:07Z</time>
      </trkpt>
      <trkpt lat="46.5641" lon="-1.78016">
        <ele>2</ele>
        <time>2018-04-23T22:03:07Z</time>
      </trkpt>
      <trkpt lat="46.56473" lon="-1.78041">
        <ele>3</ele>
        <time>2018-04-23T22:04:07Z</time>
      </trkpt>
      <trkpt lat="46.56492" lon="-1.78049">
        <ele>4</ele>
        <time>2018-04-23T22:05:07Z</time>
      </trkpt>
      <trkpt lat="46.56543" lon="-1.78069">
        <ele>3</ele>
        <time>2018-04-23T22:06:07Z</time>
      </trkpt>
      <trkpt lat="46.56605" lon="-1.78093">
        <ele>3</ele>
        <time>2018-04-23T22:07:07Z</time>
      </trkpt>
      <trkpt lat="46.56637" lon="-1.78106">
        <ele>3</ele>
        <time>2018-04-23T22:08:07Z</time>
      </trkpt>
      <trkpt lat="46.5665" lon="-1.78113">
        <ele>3</ele>
        <time>2018-04-23T22:09:07Z</time>
      </trkpt>
      <trkpt lat="46.56656" lon="-1.78116">
        <ele>3</ele>
        <time>2018-04-23T22:10:07Z</time>
      </trkpt>
      <trkpt lat="46.56662" lon="-1.7812">
        <ele>3</ele>
        <time>2018-04-23T22:11:07Z</time>
      </trkpt>
      <trkpt lat="46.56666" lon="-1.78123">
        <ele>3</ele>
        <time>2018-04-23T22:12:07Z</time>
      </trkpt>
      <trkpt lat="46.56671" lon="-1.78127">
        <ele>3</ele>
        <time>2018-04-23T22:13:07Z</time>
      </trkpt>
      <trkpt lat="46.56681" lon="-1.78136">
        <ele>3</ele>
        <time>2018-04-23T22:14:07Z</time>
      </trkpt>
      <trkpt lat="46.56685" lon="-1.7814">
        <ele>3</ele>
        <time>2018-04-23T22:15:07Z</time>
      </trkpt>
      <trkpt lat="46.56697" lon="-1.78151">
        <ele>3</ele>
        <time>2018-04-23T22:16:07Z</time>
      </trkpt>
      <trkpt lat="46.56744" lon="-1.78205">
        <ele>5</ele>
        <time>2018-04-23T22:17:07Z</time>
      </trkpt>
      <trkpt lat="46.56769" lon="-1.78235">
        <ele>5</ele>
        <time>2018-04-23T22:18:07Z</time>
      </trkpt>
      <trkpt lat="46.5677" lon="-1.78236">
        <ele>6</ele>
        <time>2018-04-23T22:19:07Z</time>
      </trkpt>
      <trkpt lat="46.56782" lon="-1.7825">
        <ele>6</ele>
        <time>2018-04-23T22:20:07Z</time>
      </trkpt>
      <trkpt lat="46.56801" lon="-1.78271">
        <ele>6</ele>
        <time>2018-04-23T22:21:07Z</time>
      </trkpt>
      <trkpt lat="46.56828" lon="-1.78301">
        <ele>6</ele>
        <time>2018-04-23T22:22:07Z</time>
      </trkpt>
      <trkpt lat="46.56837" lon="-1.78309">
        <ele>6</ele>
        <time>2018-04-23T22:23:07Z</time>
      </trkpt>
      <trkpt lat="46.56848" lon="-1.78321">
        <ele>6</ele>
        <time>2018-04-23T22:24:07Z</time>
      </trkpt>
      <trkpt lat="46.56863" lon="-1.78337">
        <ele>6</ele>
        <time>2018-04-23T22:25:07Z</time>
      </trkpt>
      <trkpt lat="46.56915" lon="-1.78393">
        <ele>6</ele>
        <time>2018-04-23T22:26:07Z</time>
      </trkpt>
      <trkpt lat="46.56948" lon="-1.78429">
        <ele>7</ele>
        <time>2018-04-23T22:27:07Z</time>
      </trkpt>
      <trkpt lat="46.56963" lon="-1.78445">
        <ele>7</ele>
        <time>2018-04-23T22:28:07Z</time>
      </trkpt>
      <trkpt lat="46.56991" lon="-1.78475">
        <ele>7</ele>
        <time>2018-04-23T22:29:07Z</time>
      </trkpt>
      <trkpt lat="46.56993" lon="-1.78476">
        <ele>7</ele>
        <time>2018-04-23T22:30:07Z</time>
      </trkpt>
      <trkpt lat="46.57007" lon="-1.78491">
        <ele>7</ele>
        <time>2018-04-23T22:31:07Z</time>
      </trkpt>
      <trkpt lat="46.5701" lon="-1.78494">
        <ele>7</ele>
        <time>2018-04-23T22:32:07Z</time>
      </trkpt>
      <trkpt lat="46.57014" lon="-1.78498">
        <ele>7</ele>
        <time>2018-04-23T22:33:07Z</time>
      </trkpt>
      <trkpt lat="46.57028" lon="-1.78514">
        <ele>7</ele>
        <time>2018-04-23T22:34:07Z</time>
      </trkpt>
      <trkpt lat="46.5703" lon="-1.78516">
        <ele>7</ele>
        <time>2018-04-23T22:35:07Z</time>
      </trkpt>
      <trkpt lat="46.5705" lon="-1.78538">
        <ele>6</ele>
        <time>2018-04-23T22:36:07Z</time>
      </trkpt>
      <trkpt lat="46.57125" lon="-1.78619">
        <ele>6</ele>
        <time>2018-04-23T22:37:07Z</time>
      </trkpt>
      <trkpt lat="46.57189" lon="-1.78687">
        <ele>5</ele>
        <time>2018-04-23T22:38:07Z</time>
      </trkpt>
      <trkpt lat="46.57216" lon="-1.78715">
        <ele>6</ele>
        <time>2018-04-23T22:39:07Z</time>
      </trkpt>
      <trkpt lat="46.57248" lon="-1.78748">
        <ele>6</ele>
        <time>2018-04-23T22:40:07Z</time>
      </trkpt>
      <trkpt lat="46.57258" lon="-1.78758">
        <ele>6</ele>
        <time>2018-04-23T22:41:07Z</time>
      </trkpt>
      <trkpt lat="46.57267" lon="-1.78765">
        <ele>6</ele>
        <time>2018-04-23T22:42:07Z</time>
      </trkpt>
      <trkpt lat="46.57277" lon="-1.78773">
        <ele>7</ele>
        <time>2018-04-23T22:43:07Z</time>
      </trkpt>
      <trkpt lat="46.57302" lon="-1.78792">
        <ele>7</ele>
        <time>2018-04-23T22:44:07Z</time>
      </trkpt>
      <trkpt lat="46.57315" lon="-1.78801">
        <ele>8</ele>
        <time>2018-04-23T22:45:07Z</time>
      </trkpt>
      <trkpt lat="46.57387" lon="-1.78845">
        <ele>6</ele>
        <time>2018-04-23T22:46:07Z</time>
      </trkpt>
      <trkpt lat="46.57424" lon="-1.78868">
        <ele>6</ele>
        <time>2018-04-23T22:47:07Z</time>
      </trkpt>
      <trkpt lat="46.5745" lon="-1.78884">
        <ele>6</ele>
        <time>2018-04-23T22:48:07Z</time>
      </trkpt>
      <trkpt lat="46.57468" lon="-1.78896">
        <ele>6</ele>
        <time>2018-04-23T22:49:07Z</time>
      </trkpt>
      <trkpt lat="46.57504" lon="-1.78918">
        <ele>7</ele>
        <time>2018-04-23T22:50:07Z</time>
      </trkpt>
      <trkpt lat="46.5754" lon="-1.78941">
        <ele>7</ele>
        <time>2018-04-23T22:51:07Z</time>
      </trkpt>
      <trkpt lat="46.57688" lon="-1.79032">
        <ele>8</ele>
        <time>2018-04-23T22:52:07Z</time>
      </trkpt>
      <trkpt lat="46.57747" lon="-1.7907">
        <ele>9</ele>
        <time>2018-04-23T22:53:07Z</time>
      </trkpt>
      <trkpt lat="46.57751" lon="-1.79072">
        <ele>9</ele>
        <time>2018-04-23T22:54:07Z</time>
      </trkpt>
      <trkpt lat="46.57787" lon="-1.79095">
        <ele>9</ele>
        <time>2018-04-23T22:55:07Z</time>
      </trkpt>
      <trkpt lat="46.5781" lon="-1.79109">
        <ele>8</ele>
        <time>2018-04-23T22:56:07Z</time>
      </trkpt>
      <trkpt lat="46.57863" lon="-1.79142">
        <ele>8</ele>
        <time>2018-04-23T22:57:07Z</time>
      </trkpt>
      <trkpt lat="46.57921" lon="-1.79179">
        <ele>8</ele>
        <time>2018-04-23T22:58:07Z</time>
      </trkpt>
      <trkpt lat="46.57967" lon="-1.79208">
        <ele>8</ele>
        <time>2018-04-23T22:59:07Z</time>
      </trkpt>
      <trkpt lat="46.58008" lon="-1.79234">
        <ele>9</ele>
        <time>2018-04-23T23:00:07Z</time>
      </trkpt>
      <trkpt lat="46.58045" lon="-1.79257">
        <ele>10</ele>
        <time>2018-04-23T23:01:07Z</time>
      </trkpt>
      <trkpt lat="46.58052" lon="-1.79261">
        <ele>10</ele>
        <time>2018-04-23T23:02:07Z</time>
      </trkpt>
      <trkpt lat="46.58059" lon="-1.79265">
        <ele>10</ele>
        <time>2018-04-23T23:03:07Z</time>
      </trkpt>
      <trkpt lat="46.58095" lon="-1.79287">
        <ele>11</ele>
        <time>2018-04-23T23:04:07Z</time>
      </trkpt>
      <trkpt lat="46.58121" lon="-1.79303">
        <ele>11</ele>
        <time>2018-04-23T23:05:07Z</time>
      </trkpt>
      <trkpt lat="46.58147" lon="-1.79319">
        <ele>11</ele>
        <time>2018-04-23T23:06:07Z</time>
      </trkpt>
      <trkpt lat="46.58166" lon="-1.79331">
        <ele>11</ele>
        <time>2018-04-23T23:07:07Z</time>
      </trkpt>
      <trkpt lat="46.58411" lon="-1.79484">
        <ele>15</ele>
        <time>2018-04-23T23:08:07Z</time>
      </trkpt>
      <trkpt lat="46.58471" lon="-1.79521">
        <ele>14</ele>
        <time>2018-04-23T23:09:07Z</time>
      </trkpt>
      <trkpt lat="46.58501" lon="-1.79539">
        <ele>14</ele>
        <time>2018-04-23T23:10:07Z</time>
      </trkpt>
      <trkpt lat="46.58569" lon="-1.79581">
        <ele>11</ele>
        <time>2018-04-23T23:11:07Z</time>
      </trkpt>
      <trkpt lat="46.58617" lon="-1.79611">
        <ele>9</ele>
        <time>2018-04-23T23:12:07Z</time>
      </trkpt>
      <trkpt lat="46.58655" lon="-1.79633">
        <ele>6</ele>
        <time>2018-04-23T23:13:07Z</time>
      </trkpt>
      <trkpt lat="46.5869" lon="-1.79654">
        <ele>4</ele>
        <time>2018-04-23T23:14:07Z</time>
      </trkpt>
      <trkpt lat="46.5871" lon="-1.79665">
        <ele>3</ele>
        <time>2018-04-23T23:15:07Z</time>
      </trkpt>
      <trkpt lat="46.5877" lon="-1.79702">
        <ele>1</ele>
        <time>2018-04-23T23:16:07Z</time>
      </trkpt>
      <trkpt lat="46.58849" lon="-1.7975">
        <ele>1</ele>
        <time>2018-04-23T23:17:07Z</time>
      </trkpt>
      <trkpt lat="46.58898" lon="-1.79781">
        <ele>3</ele>
        <time>2018-04-23T23:18:07Z</time>
      </trkpt>
      <trkpt lat="46.58928" lon="-1.79803">
        <ele>4</ele>
        <time>2018-04-23T23:19:07Z</time>
      </trkpt>
      <trkpt lat="46.58941" lon="-1.79813">
        <ele>6</ele>
        <time>2018-04-23T23:20:07Z</time>
      </trkpt>
      <trkpt lat="46.58946" lon="-1.79819">
        <ele>6</ele>
        <time>2018-04-23T23:21:07Z</time>
      </trkpt>
      <trkpt lat="46.58952" lon="-1.79826">
        <ele>6</ele>
        <time>2018-04-23T23:22:07Z</time>
      </trkpt>
      <trkpt lat="46.58956" lon="-1.79831">
        <ele>7</ele>
        <time>2018-04-23T23:23:07Z</time>
      </trkpt>
      <trkpt lat="46.58969" lon="-1.79848">
        <ele>8</ele>
        <time>2018-04-23T23:24:07Z</time>
      </trkpt>
      <trkpt lat="46.58979" lon="-1.79863">
        <ele>8</ele>
        <time>2018-04-23T23:25:07Z</time>
      </trkpt>
      <trkpt lat="46.58994" lon="-1.79886">
        <ele>8</ele>
        <time>2018-04-23T23:26:07Z</time>
      </trkpt>
      <trkpt lat="46.59012" lon="-1.79915">
        <ele>8</ele>
        <time>2018-04-23T23:27:07Z</time>
      </trkpt>
      <trkpt lat="46.59038" lon="-1.79956">
        <ele>9</ele>
        <time>2018-04-23T23:28:07Z</time>
      </trkpt>
      <trkpt lat="46.59064" lon="-1.79998">
        <ele>9</ele>
        <time>2018-04-23T23:29:07Z</time>
      </trkpt>
      <trkpt lat="46.59093" lon="-1.80044">
        <ele>8</ele>
        <time>2018-04-23T23:30:07Z</time>
      </trkpt>
      <trkpt lat="46.59102" lon="-1.80058">
        <ele>7</ele>
        <time>2018-04-23T23:31:07Z</time>
      </trkpt>
      <trkpt lat="46.59123" lon="-1.80092">
        <ele>6</ele>
        <time>2018-04-23T23:32:07Z</time>
      </trkpt>
      <trkpt lat="46.59151" lon="-1.80134">
        <ele>6</ele>
        <time>2018-04-23T23:33:07Z</time>
      </trkpt>
      <trkpt lat="46.59169" lon="-1.8016">
        <ele>5</ele>
        <time>2018-04-23T23:34:07Z</time>
      </trkpt>
      <trkpt lat="46.5918" lon="-1.80175">
        <ele>5</ele>
        <time>2018-04-23T23:35:07Z</time>
      </trkpt>
      <trkpt lat="46.59202" lon="-1.80205">
        <ele>6</ele>
        <time>2018-04-23T23:36:07Z</time>
      </trkpt>
      <trkpt lat="46.5922" lon="-1.80229">
        <ele>7</ele>
        <time>2018-04-23T23:37:07Z</time>
      </trkpt>
      <trkpt lat="46.59246" lon="-1.80262">
        <ele>8</ele>
        <time>2018-04-23T23:38:07Z</time>
      </trkpt>
      <trkpt lat="46.5928" lon="-1.80309">
        <ele>7</ele>
        <time>2018-04-23T23:39:07Z</time>
      </trkpt>
      <trkpt lat="46.59337" lon="-1.80385">
        <ele>7</ele>
        <time>2018-04-23T23:40:07Z</time>
      </trkpt>
      <trkpt lat="46.59385" lon="-1.8045">
        <ele>7</ele>
        <time>2018-04-23T23:41:07Z</time>
      </trkpt>
      <trkpt lat="46.59425" lon="-1.80502">
        <ele>6</ele>
        <time>2018-04-23T23:42:07Z</time>
      </trkpt>
      <trkpt lat="46.59436" lon="-1.80518">
        <ele>7</ele>
        <time>2018-04-23T23:43:07Z</time>
      </trkpt>
      <trkpt lat="46.59442" lon="-1.80526">
        <ele>7</ele>
        <time>2018-04-23T23:44:07Z</time>
      </trkpt>
      <trkpt lat="46.59503" lon="-1.80608">
        <ele>8</ele>
        <time>2018-04-23T23:45:07Z</time>
      </trkpt>
      <trkpt lat="46.59514" lon="-1.80625">
        <ele>8</ele>
        <time>2018-04-23T23:46:07Z</time>
      </trkpt>
      <trkpt lat="46.59722" lon="-1.80902">
        <ele>6</ele>
        <time>2018-04-23T23:47:07Z</time>
      </trkpt>
      <trkpt lat="46.59765" lon="-1.80961">
        <ele>9</ele>
        <time>2018-04-23T23:48:07Z</time>
      </trkpt>
      <trkpt lat="46.59791" lon="-1.80997">
        <ele>12</ele>
        <time>2018-04-23T23:49:07Z</time>
      </trkpt>
      <trkpt lat="46.59825" lon="-1.81042">
        <ele>14</ele>
        <time>2018-04-23T23:50:07Z</time>
      </trkpt>
      <trkpt lat="46.59877" lon="-1.81112">
        <ele>17</ele>
        <time>2018-04-23T23:51:07Z</time>
      </trkpt>
      <trkpt lat="46.59898" lon="-1.8114">
        <ele>18</ele>
        <time>2018-04-23T23:52:07Z</time>
      </trkpt>
      <trkpt lat="46.5991" lon="-1.81158">
        <ele>19</ele>
        <time>2018-04-23T23:53:07Z</time>
      </trkpt>
      <trkpt lat="46.59921" lon="-1.81178">
        <ele>19</ele>
        <time>2018-04-23T23:54:07Z</time>
      </trkpt>
      <trkpt lat="46.59927" lon="-1.81195">
        <ele>20</ele>
        <time>2018-04-23T23:55:07Z</time>
      </trkpt>
      <trkpt lat="46.59931" lon="-1.8121">
        <ele>20</ele>
        <time>2018-04-23T23:56:07Z</time>
      </trkpt>
      <trkpt lat="46.59934" lon="-1.81224">
        <ele>21</ele>
        <time>2018-04-23T23:57:07Z</time>
      </trkpt>
      <trkpt lat="46.59936" lon="-1.81241">
        <ele>21</ele>
        <time>2018-04-23T23:58:07Z</time>
      </trkpt>
      <trkpt lat="46.5994" lon="-1.81291">
        <ele>21</ele>
        <time>2018-04-23T23:59:07Z</time>
      </trkpt>
      <trkpt lat="46.59943" lon="-1.81345">
        <ele>22</ele>
        <time>2018-04-24T00:00:07Z</time>
      </trkpt>
      <trkpt lat="46.59949" lon="-1.8145">
        <ele>23</ele>
        <time>2018-04-24T00:01:07Z</time>
      </trkpt>
      <trkpt lat="46.59952" lon="-1.81507">
        <ele>22</ele>
        <time>2018-04-24T00:02:07Z</time>
      </trkpt>
      <trkpt lat="46.59953" lon="-1.81523">
        <ele>22</ele>
        <time>2018-04-24T00:03:07Z</time>
      </trkpt>
      <trkpt lat="46.59953" lon="-1.81536">
        <ele>22</ele>
        <time>2018-04-24T00:04:07Z</time>
      </trkpt>
      <trkpt lat="46.59956" lon="-1.81573">
        <ele>21</ele>
        <time>2018-04-24T00:05:07Z</time>
      </trkpt>
      <trkpt lat="46.59959" lon="-1.81632">
        <ele>21</ele>
        <time>2018-04-24T00:06:07Z</time>
      </trkpt>
      <trkpt lat="46.59964" lon="-1.81744">
        <ele>20</ele>
        <time>2018-04-24T00:07:07Z</time>
      </trkpt>
      <trkpt lat="46.59964" lon="-1.81749">
        <ele>20</ele>
        <time>2018-04-24T00:08:07Z</time>
      </trkpt>
      <trkpt lat="46.59967" lon="-1.81783">
        <ele>20</ele>
        <time>2018-04-24T00:09:07Z</time>
      </trkpt>
      <trkpt lat="46.59968" lon="-1.81801">
        <ele>20</ele>
        <time>2018-04-24T00:10:07Z</time>
      </trkpt>
      <trkpt lat="46.59969" lon="-1.81816">
        <ele>19</ele>
        <time>2018-04-24T00:11:07Z</time>
      </trkpt>
      <trkpt lat="46.5997" lon="-1.8183">
        <ele>19</ele>
        <time>2018-04-24T00:12:07Z</time>
      </trkpt>
      <trkpt lat="46.59971" lon="-1.81836">
        <ele>19</ele>
        <time>2018-04-24T00:13:07Z</time>
      </trkpt>
      <trkpt lat="46.59973" lon="-1.81847">
        <ele>19</ele>
        <time>2018-04-24T00:14:07Z</time>
      </trkpt>
      <trkpt lat="46.59977" lon="-1.8187">
        <ele>18</ele>
        <time>2018-04-24T00:15:07Z</time>
      </trkpt>
      <trkpt lat="46.5998" lon="-1.81882">
        <ele>18</ele>
        <time>2018-04-24T00:16:07Z</time>
      </trkpt>
      <trkpt lat="46.59984" lon="-1.81899">
        <ele>18</ele>
        <time>2018-04-24T00:17:07Z</time>
      </trkpt>
      <trkpt lat="46.59993" lon="-1.81934">
        <ele>17</ele>
        <time>2018-04-24T00:18:07Z</time>
      </trkpt>
      <trkpt lat="46.60003" lon="-1.81975">
        <ele>15</ele>
        <time>2018-04-24T00:19:07Z</time>
      </trkpt>
      <trkpt lat="46.60017" lon="-1.82026">
        <ele>14</ele>
        <time>2018-04-24T00:20:07Z</time>
      </trkpt>
      <trkpt lat="46.60029" lon="-1.82072">
        <ele>12</ele>
        <time>2018-04-24T00:21:07Z</time>
      </trkpt>
      <trkpt lat="46.60037" lon="-1.82108">
        <ele>12</ele>
        <time>2018-04-24T00:22:07Z</time>
      </trkpt>
      <trkpt lat="46.60039" lon="-1.82118">
        <ele>12</ele>
        <time>2018-04-24T00:23:07Z</time>
      </trkpt>
      <trkpt lat="46.60042" lon="-1.8213">
        <ele>12</ele>
        <time>2018-04-24T00:24:07Z</time>
      </trkpt>
      <trkpt lat="46.60045" lon="-1.8214">
        <ele>12</ele>
        <time>2018-04-24T00:25:07Z</time>
      </trkpt>
      <trkpt lat="46.60049" lon="-1.82159">
        <ele>11</ele>
        <time>2018-04-24T00:26:07Z</time>
      </trkpt>
      <trkpt lat="46.60054" lon="-1.8219">
        <ele>11</ele>
        <time>2018-04-24T00:27:07Z</time>
      </trkpt>
      <trkpt lat="46.60059" lon="-1.82225">
        <ele>12</ele>
        <time>2018-04-24T00:28:07Z</time>
      </trkpt>
      <trkpt lat="46.60059" lon="-1.82225">
        <ele>12</ele>
        <time>2018-04-24T00:29:07Z</time>
      </trkpt>
      <trkpt lat="46.60067" lon="-1.82272">
        <ele>13</ele>
        <time>2018-04-24T00:30:07Z</time>
      </trkpt>
      <trkpt lat="46.6007" lon="-1.82283">
        <ele>13</ele>
        <time>2018-04-24T00:31:07Z</time>
      </trkpt>
      <trkpt lat="46.60073" lon="-1.82295">
        <ele>13</ele>
        <time>2018-04-24T00:32:07Z</time>
      </trkpt>
      <trkpt lat="46.60076" lon="-1.82314">
        <ele>14</ele>
        <time>2018-04-24T00:33:07Z</time>
      </trkpt>
      <trkpt lat="46.60078" lon="-1.82322">
        <ele>14</ele>
        <time>2018-04-24T00:34:07Z</time>
      </trkpt>
      <trkpt lat="46.6008" lon="-1.82334">
        <ele>14</ele>
        <time>2018-04-24T00:35:07Z</time>
      </trkpt>
      <trkpt lat="46.6008" lon="-1.82343">
        <ele>14</ele>
        <time>2018-04-24T00:36:07Z</time>
      </trkpt>
      <trkpt lat="46.6009" lon="-1.82405">
        <ele>16</ele>
        <time>2018-04-24T00:37:07Z</time>
      </trkpt>
      <trkpt lat="46.60096" lon="-1.82418">
        <ele>16</ele>
        <time>2018-04-24T00:38:07Z</time>
      </trkpt>
      <trkpt lat="46.60099" lon="-1.82436">
        <ele>16</ele>
        <time>2018-04-24T00:39:07Z</time>
      </trkpt>
      <trkpt lat="46.60099" lon="-1.82436">
        <ele>16</ele>
        <time>2018-04-24T00:40:07Z</time>
      </trkpt>
      <trkpt lat="46.60107" lon="-1.82433">
        <ele>16</ele>
        <time>2018-04-24T00:41:07Z</time>
      </trkpt>
      <trkpt lat="46.60116" lon="-1.82428">
        <ele>16</ele>
        <time>2018-04-24T00:42:07Z</time>
      </trkpt>
      <trkpt lat="46.60121" lon="-1.82425">
        <ele>16</ele>
        <time>2018-04-24T00:43:07Z</time>
      </trkpt>
      <trkpt lat="46.60128" lon="-1.82415">
        <ele>17</ele>
        <time>2018-04-24T00:44:07Z</time>
      </trkpt>
      <trkpt lat="46.60138" lon="-1.82403">
        <ele>16</ele>
        <time>2018-04-24T00:45:07Z</time>
      </trkpt>
      <trkpt lat="46.60149" lon="-1.82396">
        <ele>16</ele>
        <time>2018-04-24T00:46:07Z</time>
      </trkpt>
      <trkpt lat="46.60162" lon="-1.82391">
        <ele>17</ele>
        <time>2018-04-24T00:47:07Z</time>
      </trkpt>
      <trkpt lat="46.60173" lon="-1.82387">
        <ele>17</ele>
        <time>2018-04-24T00:48:07Z</time>
      </trkpt>
      <trkpt lat="46.60181" lon="-1.82384">
        <ele>17</ele>
        <time>2018-04-24T00:49:07Z</time>
      </trkpt>
      <trkpt lat="46.60199" lon="-1.82378">
        <ele>17</ele>
        <time>2018-04-24T00:50:07Z</time>
      </trkpt>
      <trkpt lat="46.60244" lon="-1.82361">
        <ele>18</ele>
        <time>2018-04-24T00:51:07Z</time>
      </trkpt>
      <trkpt lat="46.60289" lon="-1.82346">
        <ele>19</ele>
        <time>2018-04-24T00:52:07Z</time>
      </trkpt>
      <trkpt lat="46.60318" lon="-1.82335">
        <ele>20</ele>
        <time>2018-04-24T00:53:07Z</time>
      </trkpt>
      <trkpt lat="46.60345" lon="-1.82325">
        <ele>20</ele>
        <time>2018-04-24T00:54:07Z</time>
      </trkpt>
      <trkpt lat="46.60363" lon="-1.8232">
        <ele>20</ele>
        <time>2018-04-24T00:55:07Z</time>
      </trkpt>
      <trkpt lat="46.60382" lon="-1.82318">
        <ele>20</ele>
        <time>2018-04-24T00:56:07Z</time>
      </trkpt>
      <trkpt lat="46.60402" lon="-1.82317">
        <ele>21</ele>
        <time>2018-04-24T00:57:07Z</time>
      </trkpt>
      <trkpt lat="46.60414" lon="-1.82317">
        <ele>21</ele>
        <time>2018-04-24T00:58:07Z</time>
      </trkpt>
      <trkpt lat="46.60424" lon="-1.82315">
        <ele>21</ele>
        <time>2018-04-24T00:59:07Z</time>
      </trkpt>
      <trkpt lat="46.60433" lon="-1.82313">
        <ele>21</ele>
        <time>2018-04-24T01:00:07Z</time>
      </trkpt>
      <trkpt lat="46.60448" lon="-1.82307">
        <ele>22</ele>
        <time>2018-04-24T01:01:07Z</time>
      </trkpt>
      <trkpt lat="46.60473" lon="-1.82291">
        <ele>22</ele>
        <time>2018-04-24T01:02:07Z</time>
      </trkpt>
      <trkpt lat="46.60495" lon="-1.82277">
        <ele>22</ele>
        <time>2018-04-24T01:03:07Z</time>
      </trkpt>
      <trkpt lat="46.60524" lon="-1.82261">
        <ele>22</ele>
        <time>2018-04-24T01:04:07Z</time>
      </trkpt>
      <trkpt lat="46.60554" lon="-1.82243">
        <ele>23</ele>
        <time>2018-04-24T01:05:07Z</time>
      </trkpt>
      <trkpt lat="46.60578" lon="-1.8223">
        <ele>24</ele>
        <time>2018-04-24T01:06:07Z</time>
      </trkpt>
      <trkpt lat="46.60596" lon="-1.82223">
        <ele>24</ele>
        <time>2018-04-24T01:07:07Z</time>
      </trkpt>
      <trkpt lat="46.6063" lon="-1.82219">
        <ele>26</ele>
        <time>2018-04-24T01:08:07Z</time>
      </trkpt>
      <trkpt lat="46.60639" lon="-1.82218">
        <ele>26</ele>
        <time>2018-04-24T01:09:07Z</time>
      </trkpt>
      <trkpt lat="46.60643" lon="-1.82219">
        <ele>26</ele>
        <time>2018-04-24T01:10:07Z</time>
      </trkpt>
      <trkpt lat="46.60643" lon="-1.82219">
        <ele>26</ele>
        <time>2018-04-24T01:11:07Z</time>
      </trkpt>
      <trkpt lat="46.60641" lon="-1.82244">
        <ele>27</ele>
        <time>2018-04-24T01:12:07Z</time>
      </trkpt>
      <trkpt lat="46.60638" lon="-1.82269">
        <ele>27</ele>
        <time>2018-04-24T01:13:07Z</time>
      </trkpt>
      <trkpt lat="46.60635" lon="-1.82309">
        <ele>27</ele>
        <time>2018-04-24T01:14:07Z</time>
      </trkpt>
      <trkpt lat="46.60634" lon="-1.82322">
        <ele>28</ele>
        <time>2018-04-24T01:15:07Z</time>
      </trkpt>
      <trkpt lat="46.60634" lon="-1.82322">
        <ele>28</ele>
        <time>2018-04-24T01:16:07Z</time>
      </trkpt>
      <trkpt lat="46.60632" lon="-1.82355">
        <ele>28</ele>
        <time>2018-04-24T01:17:07Z</time>
      </trkpt>
      <trkpt lat="46.60629" lon="-1.82392">
        <ele>29</ele>
        <time>2018-04-24T01:18:07Z</time>
      </trkpt>
      <trkpt lat="46.60626" lon="-1.8244">
        <ele>29</ele>
        <time>2018-04-24T01:19:07Z</time>
      </trkpt>
      <trkpt lat="46.60623" lon="-1.82486">
        <ele>30</ele>
        <time>2018-04-24T01:20:07Z</time>
      </trkpt>
      <trkpt lat="46.60621" lon="-1.82532">
        <ele>30</ele>
        <time>2018-04-24T01:21:07Z</time>
      </trkpt>
      <trkpt lat="46.60618" lon="-1.82574">
        <ele>30</ele>
        <time>2018-04-24T01:22:07Z</time>
      </trkpt>
      <trkpt lat="46.60615" lon="-1.82634">
        <ele>29</ele>
        <time>2018-04-24T01:23:07Z</time>
      </trkpt>
      <trkpt lat="46.60613" lon="-1.82683">
        <ele>29</ele>
        <time>2018-04-24T01:24:07Z</time>
      </trkpt>
      <trkpt lat="46.60611" lon="-1.82713">
        <ele>28</ele>
        <time>2018-04-24T01:25:07Z</time>
      </trkpt>
      <trkpt lat="46.6061" lon="-1.82742">
        <ele>28</ele>
        <time>2018-04-24T01:26:07Z</time>
      </trkpt>
      <trkpt lat="46.6061" lon="-1.82742">
        <ele>28</ele>
        <time>2018-04-24T01:27:07Z</time>
      </trkpt>
      <trkpt lat="46.60618" lon="-1.82741">
        <ele>28</ele>
        <time>2018-04-24T01:28:07Z</time>
      </trkpt>
      <trkpt lat="46.60633" lon="-1.82738">
        <ele>28</ele>
        <time>2018-04-24T01:29:07Z</time>
      </trkpt>
      <trkpt lat="46.60662" lon="-1.82725">
        <ele>29</ele>
        <time>2018-04-24T01:30:07Z</time>
      </trkpt>
      <trkpt lat="46.60676" lon="-1.82718">
        <ele>30</ele>
        <time>2018-04-24T01:31:07Z</time>
      </trkpt>
      <trkpt lat="46.60682" lon="-1.82715">
        <ele>30</ele>
        <time>2018-04-24T01:32:07Z</time>
      </trkpt>
      <trkpt lat="46.60702" lon="-1.82705">
        <ele>31</ele>
        <time>2018-04-24T01:33:07Z</time>
      </trkpt>
      <trkpt lat="46.60716" lon="-1.82697">
        <ele>31</ele>
        <time>2018-04-24T01:34:07Z</time>
      </trkpt>
      <trkpt lat="46.60724" lon="-1.82694">
        <ele>31</ele>
        <time>2018-04-24T01:35:07Z</time>
      </trkpt>
      <trkpt lat="46.60732" lon="-1.82691">
        <ele>31</ele>
        <time>2018-04-24T01:36:07Z</time>
      </trkpt>
      <trkpt lat="46.60744" lon="-1.82686">
        <ele>32</ele>
        <time>2018-04-24T01:37:07Z</time>
      </trkpt>
      <trkpt lat="46.60759" lon="-1.82683">
        <ele>32</ele>
        <time>2018-04-24T01:38:07Z</time>
      </trkpt>
      <trkpt lat="46.60779" lon="-1.82682">
        <ele>32</ele>
        <time>2018-04-24T01:39:07Z</time>
      </trkpt>
      <trkpt lat="46.60801" lon="-1.82682">
        <ele>33</ele>
        <time>2018-04-24T01:40:07Z</time>
      </trkpt>
      <trkpt lat="46.60829" lon="-1.82683">
        <ele>33</ele>
        <time>2018-04-24T01:41:07Z</time>
      </trkpt>
      <trkpt lat="46.60858" lon="-1.82685">
        <ele>34</ele>
        <time>2018-04-24T01:42:07Z</time>
      </trkpt>
      <trkpt lat="46.60867" lon="-1.82686">
        <ele>34</ele>
        <time>2018-04-24T01:43:07Z</time>
      </trkpt>
      <trkpt lat="46.60888" lon="-1.82689">
        <ele>35</ele>
        <time>2018-04-24T01:44:07Z</time>
      </trkpt>
      <trkpt lat="46.60911" lon="-1.82692">
        <ele>35</ele>
        <time>2018-04-24T01:45:07Z</time>
      </trkpt>
      <trkpt lat="46.60925" lon="-1.82695">
        <ele>36</ele>
        <time>2018-04-24T01:46:07Z</time>
      </trkpt>
      <trkpt lat="46.60935" lon="-1.82699">
        <ele>36</ele>
        <time>2018-04-24T01:47:07Z</time>
      </trkpt>
      <trkpt lat="46.60935" lon="-1.82699">
        <ele>36</ele>
        <time>2018-04-24T01:48:07Z</time>
      </trkpt>
      <trkpt lat="46.60946" lon="-1.82694">
        <ele>36</ele>
        <time>2018-04-24T01:49:07Z</time>
      </trkpt>
      <trkpt lat="46.6096" lon="-1.82688">
        <ele>36</ele>
        <time>2018-04-24T01:50:07Z</time>
      </trkpt>
      <trkpt lat="46.60975" lon="-1.82684">
        <ele>36</ele>
        <time>2018-04-24T01:51:07Z</time>
      </trkpt>
      <trkpt lat="46.60987" lon="-1.82682">
        <ele>36</ele>
        <time>2018-04-24T01:52:07Z</time>
      </trkpt>
      <trkpt lat="46.60998" lon="-1.82682">
        <ele>36</ele>
        <time>2018-04-24T01:53:07Z</time>
      </trkpt>
      <trkpt lat="46.61007" lon="-1.82682">
        <ele>36</ele>
        <time>2018-04-24T01:54:07Z</time>
      </trkpt>
      <trkpt lat="46.61019" lon="-1.82684">
        <ele>37</ele>
        <time>2018-04-24T01:55:07Z</time>
      </trkpt>
      <trkpt lat="46.61027" lon="-1.82686">
        <ele>37</ele>
        <time>2018-04-24T01:56:07Z</time>
      </trkpt>
      <trkpt lat="46.61037" lon="-1.82689">
        <ele>37</ele>
        <time>2018-04-24T01:57:07Z</time>
      </trkpt>
      <trkpt lat="46.61078" lon="-1.82704">
        <ele>37</ele>
        <time>2018-04-24T01:58:07Z</time>
      </trkpt>
      <trkpt lat="46.6108" lon="-1.82704">
        <ele>37</ele>
        <time>2018-04-24T01:59:07Z</time>
      </trkpt>
      <trkpt lat="46.61106" lon="-1.82712">
        <ele>37</ele>
        <time>2018-04-24T02:00:07Z</time>
      </trkpt>
      <trkpt lat="46.61119" lon="-1.82714">
        <ele>37</ele>
        <time>2018-04-24T02:01:07Z</time>
      </trkpt>
      <trkpt lat="46.6113" lon="-1.82714">
        <ele>38</ele>
        <time>2018-04-24T02:02:07Z</time>
      </trkpt>
      <trkpt lat="46.61142" lon="-1.82713">
        <ele>38</ele>
        <time>2018-04-24T02:03:07Z</time>
      </trkpt>
      <trkpt lat="46.61161" lon="-1.82708">
        <ele>38</ele>
        <time>2018-04-24T02:04:07Z</time>
      </trkpt>
      <trkpt lat="46.61197" lon="-1.82696">
        <ele>38</ele>
        <time>2018-04-24T02:05:07Z</time>
      </trkpt>
      <trkpt lat="46.6123" lon="-1.82684">
        <ele>37</ele>
        <time>2018-04-24T02:06:07Z</time>
      </trkpt>
      <trkpt lat="46.6128" lon="-1.82669">
        <ele>36</ele>
        <time>2018-04-24T02:07:07Z</time>
      </trkpt>
      <trkpt lat="46.6132" lon="-1.82657">
        <ele>35</ele>
        <time>2018-04-24T02:08:07Z</time>
      </trkpt>
      <trkpt lat="46.61345" lon="-1.82648">
        <ele>35</ele>
        <time>2018-04-24T02:09:07Z</time>
      </trkpt>
      <trkpt lat="46.61364" lon="-1.82641">
        <ele>34</ele>
        <time>2018-04-24T02:10:07Z</time>
      </trkpt>
      <trkpt lat="46.61388" lon="-1.82634">
        <ele>34</ele>
        <time>2018-04-24T02:11:07Z</time>
      </trkpt>
      <trkpt lat="46.61421" lon="-1.82623">
        <ele>33</ele>
        <time>2018-04-24T02:12:07Z</time>
      </trkpt>
      <trkpt lat="46.6144" lon="-1.82619">
        <ele>32</ele>
        <time>2018-04-24T02:13:07Z</time>
      </trkpt>
      <trkpt lat="46.61479" lon="-1.8262">
        <ele>30</ele>
        <time>2018-04-24T02:14:07Z</time>
      </trkpt>
      <trkpt lat="46.61512" lon="-1.82625">
        <ele>29</ele>
        <time>2018-04-24T02:15:07Z</time>
      </trkpt>
      <trkpt lat="46.61545" lon="-1.82631">
        <ele>28</ele>
        <time>2018-04-24T02:16:07Z</time>
      </trkpt>
      <trkpt lat="46.61591" lon="-1.8264">
        <ele>27</ele>
        <time>2018-04-24T02:17:07Z</time>
      </trkpt>
      <trkpt lat="46.61636" lon="-1.82649">
        <ele>26</ele>
        <time>2018-04-24T02:18:07Z</time>
      </trkpt>
      <trkpt lat="46.61682" lon="-1.82659">
        <ele>25</ele>
        <time>2018-04-24T02:19:07Z</time>
      </trkpt>
      <trkpt lat="46.6171" lon="-1.82663">
        <ele>24</ele>
        <time>2018-04-24T02:20:07Z</time>
      </trkpt>
      <trkpt lat="46.61724" lon="-1.82663">
        <ele>24</ele>
        <time>2018-04-24T02:21:07Z</time>
      </trkpt>
      <trkpt lat="46.61742" lon="-1.82662">
        <ele>23</ele>
        <time>2018-04-24T02:22:07Z</time>
      </trkpt>
      <trkpt lat="46.61764" lon="-1.82658">
        <ele>23</ele>
        <time>2018-04-24T02:23:07Z</time>
      </trkpt>
      <trkpt lat="46.61796" lon="-1.82651">
        <ele>22</ele>
        <time>2018-04-24T02:24:07Z</time>
      </trkpt>
      <trkpt lat="46.61808" lon="-1.82649">
        <ele>22</ele>
        <time>2018-04-24T02:25:07Z</time>
      </trkpt>
      <trkpt lat="46.61828" lon="-1.82644">
        <ele>21</ele>
        <time>2018-04-24T02:26:07Z</time>
      </trkpt>
      <trkpt lat="46.61861" lon="-1.82638">
        <ele>20</ele>
        <time>2018-04-24T02:27:07Z</time>
      </trkpt>
      <trkpt lat="46.61903" lon="-1.8263">
        <ele>19</ele>
        <time>2018-04-24T02:28:07Z</time>
      </trkpt>
      <trkpt lat="46.61945" lon="-1.82623">
        <ele>19</ele>
        <time>2018-04-24T02:29:07Z</time>
      </trkpt>
      <trkpt lat="46.61971" lon="-1.82618">
        <ele>19</ele>
        <time>2018-04-24T02:30:07Z</time>
      </trkpt>
      <trkpt lat="46.61973" lon="-1.82617">
        <ele>19</ele>
        <time>2018-04-24T02:31:07Z</time>
      </trkpt>
      <trkpt lat="46.61997" lon="-1.82613">
        <ele>19</ele>
        <time>2018-04-24T02:32:07Z</time>
      </trkpt>
      <trkpt lat="46.62027" lon="-1.82606">
        <ele>19</ele>
        <time>2018-04-24T02:33:07Z</time>
      </trkpt>
      <trkpt lat="46.62064" lon="-1.82599">
        <ele>19</ele>
        <time>2018-04-24T02:34:07Z</time>
      </trkpt>
      <trkpt lat="46.62092" lon="-1.82593">
        <ele>19</ele>
        <time>2018-04-24T02:35:07Z</time>
      </trkpt>
      <trkpt lat="46.62109" lon="-1.82589">
        <ele>20</ele>
        <time>2018-04-24T02:36:07Z</time>
      </trkpt>
      <trkpt lat="46.62116" lon="-1.82586">
        <ele>20</ele>
        <time>2018-04-24T02:37:07Z</time>
      </trkpt>
      <trkpt lat="46.62127" lon="-1.8258">
        <ele>21</ele>
        <time>2018-04-24T02:38:07Z</time>
      </trkpt>
      <trkpt lat="46.62142" lon="-1.8257">
        <ele>22</ele>
        <time>2018-04-24T02:39:07Z</time>
      </trkpt>
      <trkpt lat="46.62148" lon="-1.82565">
        <ele>22</ele>
        <time>2018-04-24T02:40:07Z</time>
      </trkpt>
      <trkpt lat="46.62153" lon="-1.8256">
        <ele>23</ele>
        <time>2018-04-24T02:41:07Z</time>
      </trkpt>
      <trkpt lat="46.62158" lon="-1.82555">
        <ele>23</ele>
        <time>2018-04-24T02:42:07Z</time>
      </trkpt>
      <trkpt lat="46.62162" lon="-1.8255">
        <ele>23</ele>
        <time>2018-04-24T02:43:07Z</time>
      </trkpt>
      <trkpt lat="46.62171" lon="-1.82538">
        <ele>23</ele>
        <time>2018-04-24T02:44:07Z</time>
      </trkpt>
      <trkpt lat="46.62179" lon="-1.82528">
        <ele>23</ele>
        <time>2018-04-24T02:45:07Z</time>
      </trkpt>
      <trkpt lat="46.62199" lon="-1.82502">
        <ele>21</ele>
        <time>2018-04-24T02:46:07Z</time>
      </trkpt>
      <trkpt lat="46.62207" lon="-1.82492">
        <ele>21</ele>
        <time>2018-04-24T02:47:07Z</time>
      </trkpt>
      <trkpt lat="46.62219" lon="-1.82475">
        <ele>21</ele>
        <time>2018-04-24T02:48:07Z</time>
      </trkpt>
      <trkpt lat="46.62233" lon="-1.82456">
        <ele>21</ele>
        <time>2018-04-24T02:49:07Z</time>
      </trkpt>
      <trkpt lat="46.62242" lon="-1.82443">
        <ele>21</ele>
        <time>2018-04-24T02:50:07Z</time>
      </trkpt>
      <trkpt lat="46.62273" lon="-1.82401">
        <ele>23</ele>
        <time>2018-04-24T02:51:07Z</time>
      </trkpt>
      <trkpt lat="46.62289" lon="-1.82379">
        <ele>22</ele>
        <time>2018-04-24T02:52:07Z</time>
      </trkpt>
      <trkpt lat="46.62295" lon="-1.82372">
        <ele>22</ele>
        <time>2018-04-24T02:53:07Z</time>
      </trkpt>
      <trkpt lat="46.623" lon="-1.82365">
        <ele>22</ele>
        <time>2018-04-24T02:54:07Z</time>
      </trkpt>
      <trkpt lat="46.62306" lon="-1.82359">
        <ele>22</ele>
        <time>2018-04-24T02:55:07Z</time>
      </trkpt>
      <trkpt lat="46.62312" lon="-1.82352">
        <ele>22</ele>
        <time>2018-04-24T02:56:07Z</time>
      </trkpt>
      <trkpt lat="46.62318" lon="-1.82346">
        <ele>22</ele>
        <time>2018-04-24T02:57:07Z</time>
      </trkpt>
      <trkpt lat="46.62324" lon="-1.82341">
        <ele>22</ele>
        <time>2018-04-24T02:58:07Z</time>
      </trkpt>
      <trkpt lat="46.62331" lon="-1.82336">
        <ele>22</ele>
        <time>2018-04-24T02:59:07Z</time>
      </trkpt>
      <trkpt lat="46.62338" lon="-1.82332">
        <ele>22</ele>
        <time>2018-04-24T03:00:07Z</time>
      </trkpt>
      <trkpt lat="46.62347" lon="-1.82326">
        <ele>21</ele>
        <time>2018-04-24T03:01:07Z</time>
      </trkpt>
      <trkpt lat="46.62357" lon="-1.82321">
        <ele>21</ele>
        <time>2018-04-24T03:02:07Z</time>
      </trkpt>
      <trkpt lat="46.62374" lon="-1.82314">
        <ele>20</ele>
        <time>2018-04-24T03:03:07Z</time>
      </trkpt>
      <trkpt lat="46.62388" lon="-1.8231">
        <ele>20</ele>
        <time>2018-04-24T03:04:07Z</time>
      </trkpt>
      <trkpt lat="46.62406" lon="-1.82305">
        <ele>19</ele>
        <time>2018-04-24T03:05:07Z</time>
      </trkpt>
      <trkpt lat="46.62431" lon="-1.82298">
        <ele>17</ele>
        <time>2018-04-24T03:06:07Z</time>
      </trkpt>
      <trkpt lat="46.62464" lon="-1.8229">
        <ele>14</ele>
        <time>2018-04-24T03:07:07Z</time>
      </trkpt>
      <trkpt lat="46.6249" lon="-1.82284">
        <ele>12</ele>
        <time>2018-04-24T03:08:07Z</time>
      </trkpt>
      <trkpt lat="46.62517" lon="-1.82277">
        <ele>11</ele>
        <time>2018-04-24T03:09:07Z</time>
      </trkpt>
      <trkpt lat="46.62538" lon="-1.82273">
        <ele>10</ele>
        <time>2018-04-24T03:10:07Z</time>
      </trkpt>
      <trkpt lat="46.62548" lon="-1.8227">
        <ele>9</ele>
        <time>2018-04-24T03:11:07Z</time>
      </trkpt>
      <trkpt lat="46.62553" lon="-1.82269">
        <ele>9</ele>
        <time>2018-04-24T03:12:07Z</time>
      </trkpt>
      <trkpt lat="46.62558" lon="-1.82268">
        <ele>9</ele>
        <time>2018-04-24T03:13:07Z</time>
      </trkpt>
      <trkpt lat="46.62569" lon="-1.82265">
        <ele>9</ele>
        <time>2018-04-24T03:14:07Z</time>
      </trkpt>
      <trkpt lat="46.62579" lon="-1.82263">
        <ele>8</ele>
        <time>2018-04-24T03:15:07Z</time>
      </trkpt>
      <trkpt lat="46.62589" lon="-1.82261">
        <ele>9</ele>
        <time>2018-04-24T03:16:07Z</time>
      </trkpt>
      <trkpt lat="46.62599" lon="-1.82259">
        <ele>9</ele>
        <time>2018-04-24T03:17:07Z</time>
      </trkpt>
      <trkpt lat="46.62617" lon="-1.82256">
        <ele>11</ele>
        <time>2018-04-24T03:18:07Z</time>
      </trkpt>
      <trkpt lat="46.62641" lon="-1.82253">
        <ele>13</ele>
        <time>2018-04-24T03:19:07Z</time>
      </trkpt>
      <trkpt lat="46.6266" lon="-1.82252">
        <ele>15</ele>
        <time>2018-04-24T03:20:07Z</time>
      </trkpt>
      <trkpt lat="46.62689" lon="-1.8225">
        <ele>18</ele>
        <time>2018-04-24T03:21:07Z</time>
      </trkpt>
      <trkpt lat="46.62726" lon="-1.82248">
        <ele>22</ele>
        <time>2018-04-24T03:22:07Z</time>
      </trkpt>
      <trkpt lat="46.62734" lon="-1.82248">
        <ele>22</ele>
        <time>2018-04-24T03:23:07Z</time>
      </trkpt>
      <trkpt lat="46.6275" lon="-1.82248">
        <ele>24</ele>
        <time>2018-04-24T03:24:07Z</time>
      </trkpt>
      <trkpt lat="46.62763" lon="-1.82247">
        <ele>25</ele>
        <time>2018-04-24T03:25:07Z</time>
      </trkpt>
      <trkpt lat="46.62771" lon="-1.82246">
        <ele>25</ele>
        <time>2018-04-24T03:26:07Z</time>
      </trkpt>
      <trkpt lat="46.62777" lon="-1.82244">
        <ele>25</ele>
        <time>2018-04-24T03:27:07Z</time>
      </trkpt>
      <trkpt lat="46.62783" lon="-1.82242">
        <ele>25</ele>
        <time>2018-04-24T03:28:07Z</time>
      </trkpt>
      <trkpt lat="46.6279" lon="-1.82238">
        <ele>26</ele>
        <time>2018-04-24T03:29:07Z</time>
      </trkpt>
      <trkpt lat="46.62796" lon="-1.82235">
        <ele>26</ele>
        <time>2018-04-24T03:30:07Z</time>
      </trkpt>
      <trkpt lat="46.62802" lon="-1.8223">
        <ele>26</ele>
        <time>2018-04-24T03:31:07Z</time>
      </trkpt>
      <trkpt lat="46.62807" lon="-1.82226">
        <ele>26</ele>
        <time>2018-04-24T03:32:07Z</time>
      </trkpt>
      <trkpt lat="46.62813" lon="-1.82218">
        <ele>26</ele>
        <time>2018-04-24T03:33:07Z</time>
      </trkpt>
      <trkpt lat="46.62818" lon="-1.82211">
        <ele>27</ele>
        <time>2018-04-24T03:34:07Z</time>
      </trkpt>
      <trkpt lat="46.62823" lon="-1.82203">
        <ele>27</ele>
        <time>2018-04-24T03:35:07Z</time>
      </trkpt>
      <trkpt lat="46.62827" lon="-1.82196">
        <ele>27</ele>
        <time>2018-04-24T03:36:07Z</time>
      </trkpt>
      <trkpt lat="46.62832" lon="-1.82188">
        <ele>27</ele>
        <time>2018-04-24T03:37:07Z</time>
      </trkpt>
      <trkpt lat="46.62837" lon="-1.8218">
        <ele>27</ele>
        <time>2018-04-24T03:38:07Z</time>
      </trkpt>
      <trkpt lat="46.62842" lon="-1.82172">
        <ele>27</ele>
        <time>2018-04-24T03:39:07Z</time>
      </trkpt>
      <trkpt lat="46.62848" lon="-1.82164">
        <ele>28</ele>
        <time>2018-04-24T03:40:07Z</time>
      </trkpt>
      <trkpt lat="46.62854" lon="-1.82156">
        <ele>28</ele>
        <time>2018-04-24T03:41:07Z</time>
      </trkpt>
      <trkpt lat="46.6286" lon="-1.8215">
        <ele>28</ele>
        <time>2018-04-24T03:42:07Z</time>
      </trkpt>
      <trkpt lat="46.62867" lon="-1.82144">
        <ele>28</ele>
        <time>2018-04-24T03:43:07Z</time>
      </trkpt>
      <trkpt lat="46.62874" lon="-1.82138">
        <ele>28</ele>
        <time>2018-04-24T03:44:07Z</time>
      </trkpt>
      <trkpt lat="46.62881" lon="-1.82132">
        <ele>28</ele>
        <time>2018-04-24T03:45:07Z</time>
      </trkpt>
      <trkpt lat="46.62888" lon="-1.82129">
        <ele>29</ele>
        <time>2018-04-24T03:46:07Z</time>
      </trkpt>
      <trkpt lat="46.62896" lon="-1.82126">
        <ele>29</ele>
        <time>2018-04-24T03:47:07Z</time>
      </trkpt>
      <trkpt lat="46.62903" lon="-1.82124">
        <ele>30</ele>
        <time>2018-04-24T03:48:07Z</time>
      </trkpt>
      <trkpt lat="46.6291" lon="-1.82123">
        <ele>30</ele>
        <time>2018-04-24T03:49:07Z</time>
      </trkpt>
      <trkpt lat="46.62917" lon="-1.82123">
        <ele>31</ele>
        <time>2018-04-24T03:50:07Z</time>
      </trkpt>
      <trkpt lat="46.62923" lon="-1.82125">
        <ele>31</ele>
        <time>2018-04-24T03:51:07Z</time>
      </trkpt>
      <trkpt lat="46.62929" lon="-1.82128">
        <ele>32</ele>
        <time>2018-04-24T03:52:07Z</time>
      </trkpt>
      <trkpt lat="46.62935" lon="-1.82132">
        <ele>32</ele>
        <time>2018-04-24T03:53:07Z</time>
      </trkpt>
      <trkpt lat="46.62942" lon="-1.82137">
        <ele>33</ele>
        <time>2018-04-24T03:54:07Z</time>
      </trkpt>
      <trkpt lat="46.62954" lon="-1.82146">
        <ele>34</ele>
        <time>2018-04-24T03:55:07Z</time>
      </trkpt>
      <trkpt lat="46.62959" lon="-1.82151">
        <ele>34</ele>
        <time>2018-04-24T03:56:07Z</time>
      </trkpt>
      <trkpt lat="46.62983" lon="-1.82171">
        <ele>36</ele>
        <time>2018-04-24T03:57:07Z</time>
      </trkpt>
      <trkpt lat="46.62989" lon="-1.82176">
        <ele>36</ele>
        <time>2018-04-24T03:58:07Z</time>
      </trkpt>
      <trkpt lat="46.62994" lon="-1.82181">
        <ele>36</ele>
        <time>2018-04-24T03:59:07Z</time>
      </trkpt>
      <trkpt lat="46.63" lon="-1.82185">
        <ele>36</ele>
        <time>2018-04-24T04:00:07Z</time>
      </trkpt>
      <trkpt lat="46.63005" lon="-1.82189">
        <ele>36</ele>
        <time>2018-04-24T04:01:07Z</time>
      </trkpt>
      <trkpt lat="46.6301" lon="-1.82191">
        <ele>36</ele>
        <time>2018-04-24T04:02:07Z</time>
      </trkpt>
      <trkpt lat="46.63016" lon="-1.82193">
        <ele>36</ele>
        <time>2018-04-24T04:03:07Z</time>
      </trkpt>
      <trkpt lat="46.63021" lon="-1.82195">
        <ele>36</ele>
        <time>2018-04-24T04:04:07Z</time>
      </trkpt>
      <trkpt lat="46.63027" lon="-1.82195">
        <ele>36</ele>
        <time>2018-04-24T04:05:07Z</time>
      </trkpt>
      <trkpt lat="46.63032" lon="-1.82195">
        <ele>36</ele>
        <time>2018-04-24T04:06:07Z</time>
      </trkpt>
      <trkpt lat="46.63038" lon="-1.82194">
        <ele>36</ele>
        <time>2018-04-24T04:07:07Z</time>
      </trkpt>
      <trkpt lat="46.63046" lon="-1.82193">
        <ele>36</ele>
        <time>2018-04-24T04:08:07Z</time>
      </trkpt>
      <trkpt lat="46.63048" lon="-1.82192">
        <ele>36</ele>
        <time>2018-04-24T04:09:07Z</time>
      </trkpt>
      <trkpt lat="46.63058" lon="-1.82188">
        <ele>36</ele>
        <time>2018-04-24T04:10:07Z</time>
      </trkpt>
      <trkpt lat="46.63074" lon="-1.82182">
        <ele>37</ele>
        <time>2018-04-24T04:11:07Z</time>
      </trkpt>
      <trkpt lat="46.6309" lon="-1.82176">
        <ele>37</ele>
        <time>2018-04-24T04:12:07Z</time>
      </trkpt>
      <trkpt lat="46.63106" lon="-1.8217">
        <ele>36</ele>
        <time>2018-04-24T04:13:07Z</time>
      </trkpt>
      <trkpt lat="46.63121" lon="-1.82164">
        <ele>36</ele>
        <time>2018-04-24T04:14:07Z</time>
      </trkpt>
      <trkpt lat="46.63138" lon="-1.82158">
        <ele>36</ele>
        <time>2018-04-24T04:15:07Z</time>
      </trkpt>
      <trkpt lat="46.63164" lon="-1.82147">
        <ele>36</ele>
        <time>2018-04-24T04:16:07Z</time>
      </trkpt>
      <trkpt lat="46.6319" lon="-1.82136">
        <ele>35</ele>
        <time>2018-04-24T04:17:07Z</time>
      </trkpt>
      <trkpt lat="46.63228" lon="-1.82121">
        <ele>34</ele>
        <time>2018-04-24T04:18:07Z</time>
      </trkpt>
      <trkpt lat="46.63247" lon="-1.82113">
        <ele>34</ele>
        <time>2018-04-24T04:19:07Z</time>
      </trkpt>
      <trkpt lat="46.63266" lon="-1.82105">
        <ele>33</ele>
        <time>2018-04-24T04:20:07Z</time>
      </trkpt>
      <trkpt lat="46.63284" lon="-1.82098">
        <ele>33</ele>
        <time>2018-04-24T04:21:07Z</time>
      </trkpt>
      <trkpt lat="46.63302" lon="-1.82092">
        <ele>32</ele>
        <time>2018-04-24T04:22:07Z</time>
      </trkpt>
      <trkpt lat="46.63316" lon="-1.82088">
        <ele>32</ele>
        <time>2018-04-24T04:23:07Z</time>
      </trkpt>
      <trkpt lat="46.63328" lon="-1.82085">
        <ele>31</ele>
        <time>2018-04-24T04:24:07Z</time>
      </trkpt>
      <trkpt lat="46.63339" lon="-1.82084">
        <ele>31</ele>
        <time>2018-04-24T04:25:07Z</time>
      </trkpt>
      <trkpt lat="46.63355" lon="-1.82084">
        <ele>32</ele>
        <time>2018-04-24T04:26:07Z</time>
      </trkpt>
      <trkpt lat="46.63368" lon="-1.82084">
        <ele>32</ele>
        <time>2018-04-24T04:27:07Z</time>
      </trkpt>
      <trkpt lat="46.63384" lon="-1.82084">
        <ele>33</ele>
        <time>2018-04-24T04:28:07Z</time>
      </trkpt>
      <trkpt lat="46.63409" lon="-1.82085">
        <ele>34</ele>
        <time>2018-04-24T04:29:07Z</time>
      </trkpt>
      <trkpt lat="46.63439" lon="-1.82088">
        <ele>34</ele>
        <time>2018-04-24T04:30:07Z</time>
      </trkpt>
      <trkpt lat="46.6348" lon="-1.82089">
        <ele>35</ele>
        <time>2018-04-24T04:31:07Z</time>
      </trkpt>
      <trkpt lat="46.63518" lon="-1.82092">
        <ele>34</ele>
        <time>2018-04-24T04:32:07Z</time>
      </trkpt>
      <trkpt lat="46.63557" lon="-1.82094">
        <ele>33</ele>
        <time>2018-04-24T04:33:07Z</time>
      </trkpt>
      <trkpt lat="46.63559" lon="-1.82094">
        <ele>33</ele>
        <time>2018-04-24T04:34:07Z</time>
      </trkpt>
      <trkpt lat="46.63577" lon="-1.82095">
        <ele>33</ele>
        <time>2018-04-24T04:35:07Z</time>
      </trkpt>
      <trkpt lat="46.63613" lon="-1.82096">
        <ele>33</ele>
        <time>2018-04-24T04:36:07Z</time>
      </trkpt>
      <trkpt lat="46.63622" lon="-1.82096">
        <ele>32</ele>
        <time>2018-04-24T04:37:07Z</time>
      </trkpt>
      <trkpt lat="46.63648" lon="-1.82096">
        <ele>32</ele>
        <time>2018-04-24T04:38:07Z</time>
      </trkpt>
      <trkpt lat="46.63664" lon="-1.82095">
        <ele>32</ele>
        <time>2018-04-24T04:39:07Z</time>
      </trkpt>
      <trkpt lat="46.6368" lon="-1.82095">
        <ele>32</ele>
        <time>2018-04-24T04:40:07Z</time>
      </trkpt>
      <trkpt lat="46.637" lon="-1.82094">
        <ele>33</ele>
        <time>2018-04-24T04:41:07Z</time>
      </trkpt>
      <trkpt lat="46.63716" lon="-1.82094">
        <ele>33</ele>
        <time>2018-04-24T04:42:07Z</time>
      </trkpt>
      <trkpt lat="46.63728" lon="-1.82095">
        <ele>34</ele>
        <time>2018-04-24T04:43:07Z</time>
      </trkpt>
      <trkpt lat="46.63734" lon="-1.82095">
        <ele>34</ele>
        <time>2018-04-24T04:44:07Z</time>
      </trkpt>
      <trkpt lat="46.6374" lon="-1.82098">
        <ele>34</ele>
        <time>2018-04-24T04:45:07Z</time>
      </trkpt>
      <trkpt lat="46.63755" lon="-1.821">
        <ele>34</ele>
        <time>2018-04-24T04:46:07Z</time>
      </trkpt>
      <trkpt lat="46.63765" lon="-1.82105">
        <ele>34</ele>
        <time>2018-04-24T04:47:07Z</time>
      </trkpt>
      <trkpt lat="46.63774" lon="-1.82109">
        <ele>34</ele>
        <time>2018-04-24T04:48:07Z</time>
      </trkpt>
      <trkpt lat="46.63792" lon="-1.82112">
        <ele>34</ele>
        <time>2018-04-24T04:49:07Z</time>
      </trkpt>
      <trkpt lat="46.63792" lon="-1.82112">
        <ele>34</ele>
        <time>2018-04-24T04:50:07Z</time>
      </trkpt>
      <trkpt lat="46.63794" lon="-1.82111">
        <ele>34</ele>
        <time>2018-04-24T04:51:07Z</time>
      </trkpt>
      <trkpt lat="46.63795" lon="-1.8211">
        <ele>34</ele>
        <time>2018-04-24T04:52:07Z</time>
      </trkpt>
      <trkpt lat="46.63796" lon="-1.82109">
        <ele>34</ele>
        <time>2018-04-24T04:53:07Z</time>
      </trkpt>
      <trkpt lat="46.63797" lon="-1.82109">
        <ele>34</ele>
        <time>2018-04-24T04:54:07Z</time>
      </trkpt>
      <trkpt lat="46.63798" lon="-1.82108">
        <ele>34</ele>
        <time>2018-04-24T04:55:07Z</time>
      </trkpt>
      <trkpt lat="46.63799" lon="-1.82108">
        <ele>34</ele>
        <time>2018-04-24T04:56:07Z</time>
      </trkpt>
      <trkpt lat="46.638" lon="-1.82107">
        <ele>34</ele>
        <time>2018-04-24T04:57:07Z</time>
      </trkpt>
      <trkpt lat="46.63802" lon="-1.82107">
        <ele>34</ele>
        <time>2018-04-24T04:58:07Z</time>
      </trkpt>
      <trkpt lat="46.63803" lon="-1.82107">
        <ele>34</ele>
        <time>2018-04-24T04:59:07Z</time>
      </trkpt>
      <trkpt lat="46.63804" lon="-1.82108">
        <ele>34</ele>
        <time>2018-04-24T05:00:07Z</time>
      </trkpt>
      <trkpt lat="46.63805" lon="-1.82108">
        <ele>34</ele>
        <time>2018-04-24T05:01:07Z</time>
      </trkpt>
      <trkpt lat="46.63806" lon="-1.82108">
        <ele>34</ele>
        <time>2018-04-24T05:02:07Z</time>
      </trkpt>
      <trkpt lat="46.63807" lon="-1.82109">
        <ele>34</ele>
        <time>2018-04-24T05:03:07Z</time>
      </trkpt>
      <trkpt lat="46.63809" lon="-1.82109">
        <ele>34</ele>
        <time>2018-04-24T05:04:07Z</time>
      </trkpt>
      <trkpt lat="46.6381" lon="-1.8211">
        <ele>34</ele>
        <time>2018-04-24T05:05:07Z</time>
      </trkpt>
      <trkpt lat="46.63811" lon="-1.82111">
        <ele>34</ele>
        <time>2018-04-24T05:06:07Z</time>
      </trkpt>
      <trkpt lat="46.63812" lon="-1.82112">
        <ele>34</ele>
        <time>2018-04-24T05:07:07Z</time>
      </trkpt>
      <trkpt lat="46.63813" lon="-1.82113">
        <ele>34</ele>
        <time>2018-04-24T05:08:07Z</time>
      </trkpt>
      <trkpt lat="46.63814" lon="-1.82114">
        <ele>34</ele>
        <time>2018-04-24T05:09:07Z</time>
      </trkpt>
      <trkpt lat="46.6383" lon="-1.82107">
        <ele>34</ele>
        <time>2018-04-24T05:10:07Z</time>
      </trkpt>
      <trkpt lat="46.63835" lon="-1.82104">
        <ele>34</ele>
        <time>2018-04-24T05:11:07Z</time>
      </trkpt>
      <trkpt lat="46.63847" lon="-1.82099">
        <ele>34</ele>
        <time>2018-04-24T05:12:07Z</time>
      </trkpt>
      <trkpt lat="46.63862" lon="-1.82089">
        <ele>34</ele>
        <time>2018-04-24T05:13:07Z</time>
      </trkpt>
      <trkpt lat="46.63875" lon="-1.8208">
        <ele>33</ele>
        <time>2018-04-24T05:14:07Z</time>
      </trkpt>
      <trkpt lat="46.63898" lon="-1.82067">
        <ele>33</ele>
        <time>2018-04-24T05:15:07Z</time>
      </trkpt>
      <trkpt lat="46.63922" lon="-1.82054">
        <ele>32</ele>
        <time>2018-04-24T05:16:07Z</time>
      </trkpt>
      <trkpt lat="46.63949" lon="-1.82042">
        <ele>31</ele>
        <time>2018-04-24T05:17:07Z</time>
      </trkpt>
      <trkpt lat="46.63964" lon="-1.82036">
        <ele>31</ele>
        <time>2018-04-24T05:18:07Z</time>
      </trkpt>
      <trkpt lat="46.63972" lon="-1.82033">
        <ele>31</ele>
        <time>2018-04-24T05:19:07Z</time>
      </trkpt>
      <trkpt lat="46.63983" lon="-1.8203">
        <ele>31</ele>
        <time>2018-04-24T05:20:07Z</time>
      </trkpt>
      <trkpt lat="46.64001" lon="-1.82026">
        <ele>30</ele>
        <time>2018-04-24T05:21:07Z</time>
      </trkpt>
      <trkpt lat="46.6401" lon="-1.82024">
        <ele>30</ele>
        <time>2018-04-24T05:22:07Z</time>
      </trkpt>
      <trkpt lat="46.6402" lon="-1.82023">
        <ele>30</ele>
        <time>2018-04-24T05:23:07Z</time>
      </trkpt>
      <trkpt lat="46.6403" lon="-1.82021">
        <ele>30</ele>
        <time>2018-04-24T05:24:07Z</time>
      </trkpt>
      <trkpt lat="46.64046" lon="-1.8202">
        <ele>30</ele>
        <time>2018-04-24T05:25:07Z</time>
      </trkpt>
      <trkpt lat="46.64052" lon="-1.82019">
        <ele>30</ele>
        <time>2018-04-24T05:26:07Z</time>
      </trkpt>
      <trkpt lat="46.64056" lon="-1.82019">
        <ele>30</ele>
        <time>2018-04-24T05:27:07Z</time>
      </trkpt>
      <trkpt lat="46.64062" lon="-1.82015">
        <ele>29</ele>
        <time>2018-04-24T05:28:07Z</time>
      </trkpt>
      <trkpt lat="46.64069" lon="-1.82014">
        <ele>29</ele>
        <time>2018-04-24T05:29:07Z</time>
      </trkpt>
      <trkpt lat="46.64092" lon="-1.82009">
        <ele>29</ele>
        <time>2018-04-24T05:30:07Z</time>
      </trkpt>
      <trkpt lat="46.64125" lon="-1.82001">
        <ele>30</ele>
        <time>2018-04-24T05:31:07Z</time>
      </trkpt>
      <trkpt lat="46.64132" lon="-1.82">
        <ele>30</ele>
        <time>2018-04-24T05:32:07Z</time>
      </trkpt>
      <trkpt lat="46.64153" lon="-1.81998">
        <ele>31</ele>
        <time>2018-04-24T05:33:07Z</time>
      </trkpt>
      <trkpt lat="46.64193" lon="-1.81994">
        <ele>31</ele>
        <time>2018-04-24T05:34:07Z</time>
      </trkpt>
      <trkpt lat="46.64201" lon="-1.81996">
        <ele>31</ele>
        <time>2018-04-24T05:35:07Z</time>
      </trkpt>
      <trkpt lat="46.64226" lon="-1.81991">
        <ele>30</ele>
        <time>2018-04-24T05:36:07Z</time>
      </trkpt>
      <trkpt lat="46.64237" lon="-1.81989">
        <ele>30</ele>
        <time>2018-04-24T05:37:07Z</time>
      </trkpt>
      <trkpt lat="46.64248" lon="-1.81987">
        <ele>30</ele>
        <time>2018-04-24T05:38:07Z</time>
      </trkpt>
      <trkpt lat="46.64259" lon="-1.81986">
        <ele>30</ele>
        <time>2018-04-24T05:39:07Z</time>
      </trkpt>
      <trkpt lat="46.64275" lon="-1.81984">
        <ele>31</ele>
        <time>2018-04-24T05:40:07Z</time>
      </trkpt>
      <trkpt lat="46.64285" lon="-1.81981">
        <ele>31</ele>
        <time>2018-04-24T05:41:07Z</time>
      </trkpt>
      <trkpt lat="46.64303" lon="-1.81978">
        <ele>31</ele>
        <time>2018-04-24T05:42:07Z</time>
      </trkpt>
      <trkpt lat="46.64314" lon="-1.81977">
        <ele>31</ele>
        <time>2018-04-24T05:43:07Z</time>
      </trkpt>
      <trkpt lat="46.64358" lon="-1.8197">
        <ele>33</ele>
        <time>2018-04-24T05:44:07Z</time>
      </trkpt>
      <trkpt lat="46.64365" lon="-1.81968">
        <ele>33</ele>
        <time>2018-04-24T05:45:07Z</time>
      </trkpt>
      <trkpt lat="46.64379" lon="-1.81966">
        <ele>33</ele>
        <time>2018-04-24T05:46:07Z</time>
      </trkpt>
      <trkpt lat="46.64391" lon="-1.81964">
        <ele>34</ele>
        <time>2018-04-24T05:47:07Z</time>
      </trkpt>
      <trkpt lat="46.64395" lon="-1.81964">
        <ele>34</ele>
        <time>2018-04-24T05:48:07Z</time>
      </trkpt>
      <trkpt lat="46.64402" lon="-1.81961">
        <ele>34</ele>
        <time>2018-04-24T05:49:07Z</time>
      </trkpt>
      <trkpt lat="46.64424" lon="-1.81957">
        <ele>35</ele>
        <time>2018-04-24T05:50:07Z</time>
      </trkpt>
      <trkpt lat="46.64444" lon="-1.81957">
        <ele>35</ele>
        <time>2018-04-24T05:51:07Z</time>
      </trkpt>
      <trkpt lat="46.6445" lon="-1.81959">
        <ele>35</ele>
        <time>2018-04-24T05:52:07Z</time>
      </trkpt>
      <trkpt lat="46.64457" lon="-1.81959">
        <ele>35</ele>
        <time>2018-04-24T05:53:07Z</time>
      </trkpt>
      <trkpt lat="46.64462" lon="-1.81959">
        <ele>36</ele>
        <time>2018-04-24T05:54:07Z</time>
      </trkpt>
      <trkpt lat="46.64467" lon="-1.81959">
        <ele>36</ele>
        <time>2018-04-24T05:55:07Z</time>
      </trkpt>
      <trkpt lat="46.64473" lon="-1.81959">
        <ele>36</ele>
        <time>2018-04-24T05:56:07Z</time>
      </trkpt>
      <trkpt lat="46.64478" lon="-1.81959">
        <ele>36</ele>
        <time>2018-04-24T05:57:07Z</time>
      </trkpt>
      <trkpt lat="46.64484" lon="-1.81959">
        <ele>36</ele>
        <time>2018-04-24T05:58:07Z</time>
      </trkpt>
      <trkpt lat="46.64491" lon="-1.8196">
        <ele>36</ele>
        <time>2018-04-24T05:59:07Z</time>
      </trkpt>
      <trkpt lat="46.64497" lon="-1.8196">
        <ele>36</ele>
        <time>2018-04-24T06:00:07Z</time>
      </trkpt>
      <trkpt lat="46.64501" lon="-1.8196">
        <ele>36</ele>
        <time>2018-04-24T06:01:07Z</time>
      </trkpt>
      <trkpt lat="46.6451" lon="-1.81961">
        <ele>36</ele>
        <time>2018-04-24T06:02:07Z</time>
      </trkpt>
      <trkpt lat="46.64525" lon="-1.81963">
        <ele>36</ele>
        <time>2018-04-24T06:03:07Z</time>
      </trkpt>
      <trkpt lat="46.64535" lon="-1.81964">
        <ele>36</ele>
        <time>2018-04-24T06:04:07Z</time>
      </trkpt>
      <trkpt lat="46.64539" lon="-1.81962">
        <ele>36</ele>
        <time>2018-04-24T06:05:07Z</time>
      </trkpt>
      <trkpt lat="46.64546" lon="-1.81962">
        <ele>36</ele>
        <time>2018-04-24T06:06:07Z</time>
      </trkpt>
      <trkpt lat="46.64551" lon="-1.81963">
        <ele>36</ele>
        <time>2018-04-24T06:07:07Z</time>
      </trkpt>
      <trkpt lat="46.6456" lon="-1.81964">
        <ele>36</ele>
        <time>2018-04-24T06:08:07Z</time>
      </trkpt>
      <trkpt lat="46.64566" lon="-1.81965">
        <ele>36</ele>
        <time>2018-04-24T06:09:07Z</time>
      </trkpt>
      <trkpt lat="46.64579" lon="-1.81966">
        <ele>36</ele>
        <time>2018-04-24T06:10:07Z</time>
      </trkpt>
      <trkpt lat="46.64584" lon="-1.81968">
        <ele>36</ele>
        <time>2018-04-24T06:11:07Z</time>
      </trkpt>
      <trkpt lat="46.64591" lon="-1.81971">
        <ele>36</ele>
        <time>2018-04-24T06:12:07Z</time>
      </trkpt>
      <trkpt lat="46.64614" lon="-1.81971">
        <ele>36</ele>
        <time>2018-04-24T06:13:07Z</time>
      </trkpt>
      <trkpt lat="46.6462" lon="-1.81971">
        <ele>36</ele>
        <time>2018-04-24T06:14:07Z</time>
      </trkpt>
      <trkpt lat="46.64624" lon="-1.81971">
        <ele>36</ele>
        <time>2018-04-24T06:15:07Z</time>
      </trkpt>
      <trkpt lat="46.64629" lon="-1.81971">
        <ele>35</ele>
        <time>2018-04-24T06:16:07Z</time>
      </trkpt>
      <trkpt lat="46.64634" lon="-1.81971">
        <ele>35</ele>
        <time>2018-04-24T06:17:07Z</time>
      </trkpt>
      <trkpt lat="46.64639" lon="-1.81971">
        <ele>35</ele>
        <time>2018-04-24T06:18:07Z</time>
      </trkpt>
      <trkpt lat="46.64644" lon="-1.81971">
        <ele>35</ele>
        <time>2018-04-24T06:19:07Z</time>
      </trkpt>
      <trkpt lat="46.64649" lon="-1.8197">
        <ele>35</ele>
        <time>2018-04-24T06:20:07Z</time>
      </trkpt>
      <trkpt lat="46.64654" lon="-1.81969">
        <ele>35</ele>
        <time>2018-04-24T06:21:07Z</time>
      </trkpt>
      <trkpt lat="46.64659" lon="-1.81969">
        <ele>35</ele>
        <time>2018-04-24T06:22:07Z</time>
      </trkpt>
      <trkpt lat="46.64663" lon="-1.81968">
        <ele>35</ele>
        <time>2018-04-24T06:23:07Z</time>
      </trkpt>
      <trkpt lat="46.64668" lon="-1.81967">
        <ele>35</ele>
        <time>2018-04-24T06:24:07Z</time>
      </trkpt>
      <trkpt lat="46.64673" lon="-1.81966">
        <ele>35</ele>
        <time>2018-04-24T06:25:07Z</time>
      </trkpt>
      <trkpt lat="46.64679" lon="-1.81965">
        <ele>35</ele>
        <time>2018-04-24T06:26:07Z</time>
      </trkpt>
      <trkpt lat="46.64687" lon="-1.81963">
        <ele>35</ele>
        <time>2018-04-24T06:27:07Z</time>
      </trkpt>
      <trkpt lat="46.64692" lon="-1.81962">
        <ele>34</ele>
        <time>2018-04-24T06:28:07Z</time>
      </trkpt>
      <trkpt lat="46.64697" lon="-1.81961">
        <ele>34</ele>
        <time>2018-04-24T06:29:07Z</time>
      </trkpt>
      <trkpt lat="46.64702" lon="-1.81959">
        <ele>34</ele>
        <time>2018-04-24T06:30:07Z</time>
      </trkpt>
      <trkpt lat="46.64707" lon="-1.81958">
        <ele>34</ele>
        <time>2018-04-24T06:31:07Z</time>
      </trkpt>
      <trkpt lat="46.64712" lon="-1.81957">
        <ele>34</ele>
        <time>2018-04-24T06:32:07Z</time>
      </trkpt>
      <trkpt lat="46.64717" lon="-1.81955">
        <ele>34</ele>
        <time>2018-04-24T06:33:07Z</time>
      </trkpt>
      <trkpt lat="46.64722" lon="-1.81954">
        <ele>34</ele>
        <time>2018-04-24T06:34:07Z</time>
      </trkpt>
      <trkpt lat="46.64727" lon="-1.81952">
        <ele>34</ele>
        <time>2018-04-24T06:35:07Z</time>
      </trkpt>
      <trkpt lat="46.64732" lon="-1.8195">
        <ele>33</ele>
        <time>2018-04-24T06:36:07Z</time>
      </trkpt>
      <trkpt lat="46.64737" lon="-1.81948">
        <ele>33</ele>
        <time>2018-04-24T06:37:07Z</time>
      </trkpt>
      <trkpt lat="46.64741" lon="-1.81946">
        <ele>33</ele>
        <time>2018-04-24T06:38:07Z</time>
      </trkpt>
      <trkpt lat="46.64745" lon="-1.81944">
        <ele>33</ele>
        <time>2018-04-24T06:39:07Z</time>
      </trkpt>
      <trkpt lat="46.64748" lon="-1.81942">
        <ele>33</ele>
        <time>2018-04-24T06:40:07Z</time>
      </trkpt>
      <trkpt lat="46.6475" lon="-1.81941">
        <ele>33</ele>
        <time>2018-04-24T06:41:07Z</time>
      </trkpt>
      <trkpt lat="46.64757" lon="-1.81935">
        <ele>33</ele>
        <time>2018-04-24T06:42:07Z</time>
      </trkpt>
      <trkpt lat="46.64757" lon="-1.81935">
        <ele>33</ele>
        <time>2018-04-24T06:43:07Z</time>
      </trkpt>
      <trkpt lat="46.64757" lon="-1.81934">
        <ele>33</ele>
        <time>2018-04-24T06:44:07Z</time>
      </trkpt>
      <trkpt lat="46.64758" lon="-1.81934">
        <ele>33</ele>
        <time>2018-04-24T06:45:07Z</time>
      </trkpt>
      <trkpt lat="46.64758" lon="-1.81933">
        <ele>33</ele>
        <time>2018-04-24T06:46:07Z</time>
      </trkpt>
      <trkpt lat="46.64758" lon="-1.81932">
        <ele>33</ele>
        <time>2018-04-24T06:47:07Z</time>
      </trkpt>
      <trkpt lat="46.64758" lon="-1.81931">
        <ele>33</ele>
        <time>2018-04-24T06:48:07Z</time>
      </trkpt>
      <trkpt lat="46.64759" lon="-1.81931">
        <ele>33</ele>
        <time>2018-04-24T06:49:07Z</time>
      </trkpt>
      <trkpt lat="46.64759" lon="-1.8193">
        <ele>33</ele>
        <time>2018-04-24T06:50:07Z</time>
      </trkpt>
      <trkpt lat="46.64759" lon="-1.81929">
        <ele>33</ele>
        <time>2018-04-24T06:51:07Z</time>
      </trkpt>
      <trkpt lat="46.6476" lon="-1.81929">
        <ele>32</ele>
        <time>2018-04-24T06:52:07Z</time>
      </trkpt>
      <trkpt lat="46.6476" lon="-1.81928">
        <ele>32</ele>
        <time>2018-04-24T06:53:07Z</time>
      </trkpt>
      <trkpt lat="46.64761" lon="-1.81928">
        <ele>32</ele>
        <time>2018-04-24T06:54:07Z</time>
      </trkpt>
      <trkpt lat="46.64762" lon="-1.81928">
        <ele>32</ele>
        <time>2018-04-24T06:55:07Z</time>
      </trkpt>
      <trkpt lat="46.64762" lon="-1.81927">
        <ele>32</ele>
        <time>2018-04-24T06:56:07Z</time>
      </trkpt>
      <trkpt lat="46.64763" lon="-1.81927">
        <ele>32</ele>
        <time>2018-04-24T06:57:07Z</time>
      </trkpt>
      <trkpt lat="46.64764" lon="-1.81927">
        <ele>32</ele>
        <time>2018-04-24T06:58:07Z</time>
      </trkpt>
      <trkpt lat="46.64764" lon="-1.81928">
        <ele>32</ele>
        <time>2018-04-24T06:59:07Z</time>
      </trkpt>
      <trkpt lat="46.64765" lon="-1.81928">
        <ele>32</ele>
        <time>2018-04-24T07:00:07Z</time>
      </trkpt>
      <trkpt lat="46.64766" lon="-1.81928">
        <ele>32</ele>
        <time>2018-04-24T07:01:07Z</time>
      </trkpt>
      <trkpt lat="46.64766" lon="-1.81929">
        <ele>32</ele>
        <time>2018-04-24T07:02:07Z</time>
      </trkpt>
      <trkpt lat="46.64767" lon="-1.81929">
        <ele>32</ele>
        <time>2018-04-24T07:03:07Z</time>
      </trkpt>
      <trkpt lat="46.64767" lon="-1.8193">
        <ele>32</ele>
        <time>2018-04-24T07:04:07Z</time>
      </trkpt>
      <trkpt lat="46.64767" lon="-1.81931">
        <ele>32</ele>
        <time>2018-04-24T07:05:07Z</time>
      </trkpt>
      <trkpt lat="46.64768" lon="-1.81931">
        <ele>32</ele>
        <time>2018-04-24T07:06:07Z</time>
      </trkpt>
      <trkpt lat="46.64768" lon="-1.81932">
        <ele>32</ele>
        <time>2018-04-24T07:07:07Z</time>
      </trkpt>
      <trkpt lat="46.64768" lon="-1.81933">
        <ele>32</ele>
        <time>2018-04-24T07:08:07Z</time>
      </trkpt>
      <trkpt lat="46.64768" lon="-1.81934">
        <ele>32</ele>
        <time>2018-04-24T07:09:07Z</time>
      </trkpt>
      <trkpt lat="46.64769" lon="-1.81935">
        <ele>32</ele>
        <time>2018-04-24T07:10:07Z</time>
      </trkpt>
      <trkpt lat="46.64769" lon="-1.81936">
        <ele>32</ele>
        <time>2018-04-24T07:11:07Z</time>
      </trkpt>
      <trkpt lat="46.64768" lon="-1.81936">
        <ele>32</ele>
        <time>2018-04-24T07:12:07Z</time>
      </trkpt>
      <trkpt lat="46.64768" lon="-1.81937">
        <ele>32</ele>
        <time>2018-04-24T07:13:07Z</time>
      </trkpt>
      <trkpt lat="46.64768" lon="-1.81938">
        <ele>32</ele>
        <time>2018-04-24T07:14:07Z</time>
      </trkpt>
      <trkpt lat="46.64768" lon="-1.81939">
        <ele>32</ele>
        <time>2018-04-24T07:15:07Z</time>
      </trkpt>
      <trkpt lat="46.64768" lon="-1.8194">
        <ele>32</ele>
        <time>2018-04-24T07:16:07Z</time>
      </trkpt>
      <trkpt lat="46.64767" lon="-1.8194">
        <ele>32</ele>
        <time>2018-04-24T07:17:07Z</time>
      </trkpt>
      <trkpt lat="46.64767" lon="-1.81941">
        <ele>32</ele>
        <time>2018-04-24T07:18:07Z</time>
      </trkpt>
      <trkpt lat="46.64767" lon="-1.81942">
        <ele>32</ele>
        <time>2018-04-24T07:19:07Z</time>
      </trkpt>
      <trkpt lat="46.64764" lon="-1.81961">
        <ele>32</ele>
        <time>2018-04-24T07:20:07Z</time>
      </trkpt>
      <trkpt lat="46.64764" lon="-1.81967">
        <ele>32</ele>
        <time>2018-04-24T07:21:07Z</time>
      </trkpt>
      <trkpt lat="46.64764" lon="-1.81975">
        <ele>32</ele>
        <time>2018-04-24T07:22:07Z</time>
      </trkpt>
      <trkpt lat="46.64763" lon="-1.81982">
        <ele>32</ele>
        <time>2018-04-24T07:23:07Z</time>
      </trkpt>
      <trkpt lat="46.64762" lon="-1.81991">
        <ele>32</ele>
        <time>2018-04-24T07:24:07Z</time>
      </trkpt>
      <trkpt lat="46.64761" lon="-1.81999">
        <ele>32</ele>
        <time>2018-04-24T07:25:07Z</time>
      </trkpt>
      <trkpt lat="46.64759" lon="-1.82008">
        <ele>32</ele>
        <time>2018-04-24T07:26:07Z</time>
      </trkpt>
      <trkpt lat="46.64757" lon="-1.82018">
        <ele>32</ele>
        <time>2018-04-24T07:27:07Z</time>
      </trkpt>
      <trkpt lat="46.64755" lon="-1.82027">
        <ele>32</ele>
        <time>2018-04-24T07:28:07Z</time>
      </trkpt>
      <trkpt lat="46.64753" lon="-1.82037">
        <ele>32</ele>
        <time>2018-04-24T07:29:07Z</time>
      </trkpt>
      <trkpt lat="46.64751" lon="-1.82048">
        <ele>32</ele>
        <time>2018-04-24T07:30:07Z</time>
      </trkpt>
      <trkpt lat="46.64749" lon="-1.82058">
        <ele>32</ele>
        <time>2018-04-24T07:31:07Z</time>
      </trkpt>
      <trkpt lat="46.64747" lon="-1.82069">
        <ele>32</ele>
        <time>2018-04-24T07:32:07Z</time>
      </trkpt>
      <trkpt lat="46.64745" lon="-1.82081">
        <ele>32</ele>
        <time>2018-04-24T07:33:07Z</time>
      </trkpt>
      <trkpt lat="46.64744" lon="-1.82092">
        <ele>32</ele>
        <time>2018-04-24T07:34:07Z</time>
      </trkpt>
      <trkpt lat="46.64742" lon="-1.82103">
        <ele>32</ele>
        <time>2018-04-24T07:35:07Z</time>
      </trkpt>
      <trkpt lat="46.64739" lon="-1.82126">
        <ele>32</ele>
        <time>2018-04-24T07:36:07Z</time>
      </trkpt>
      <trkpt lat="46.64738" lon="-1.82138">
        <ele>32</ele>
        <time>2018-04-24T07:37:07Z</time>
      </trkpt>
      <trkpt lat="46.64736" lon="-1.82154">
        <ele>31</ele>
        <time>2018-04-24T07:38:07Z</time>
      </trkpt>
      <trkpt lat="46.64733" lon="-1.82184">
        <ele>31</ele>
        <time>2018-04-24T07:39:07Z</time>
      </trkpt>
      <trkpt lat="46.64732" lon="-1.82195">
        <ele>31</ele>
        <time>2018-04-24T07:40:07Z</time>
      </trkpt>
      <trkpt lat="46.6473" lon="-1.82221">
        <ele>31</ele>
        <time>2018-04-24T07:41:07Z</time>
      </trkpt>
      <trkpt lat="46.64728" lon="-1.82235">
        <ele>30</ele>
        <time>2018-04-24T07:42:07Z</time>
      </trkpt>
      <trkpt lat="46.64728" lon="-1.82244">
        <ele>30</ele>
        <time>2018-04-24T07:43:07Z</time>
      </trkpt>
      <trkpt lat="46.64727" lon="-1.82253">
        <ele>30</ele>
        <time>2018-04-24T07:44:07Z</time>
      </trkpt>
      <trkpt lat="46.64726" lon="-1.82261">
        <ele>30</ele>
        <time>2018-04-24T07:45:07Z</time>
      </trkpt>
      <trkpt lat="46.64726" lon="-1.82269">
        <ele>30</ele>
        <time>2018-04-24T07:46:07Z</time>
      </trkpt>
      <trkpt lat="46.64724" lon="-1.82276">
        <ele>29</ele>
        <time>2018-04-24T07:47:07Z</time>
      </trkpt>
      <trkpt lat="46.64723" lon="-1.82282">
        <ele>29</ele>
        <time>2018-04-24T07:48:07Z</time>
      </trkpt>
      <trkpt lat="46.64721" lon="-1.82287">
        <ele>29</ele>
        <time>2018-04-24T07:49:07Z</time>
      </trkpt>
      <trkpt lat="46.64719" lon="-1.82293">
        <ele>29</ele>
        <time>2018-04-24T07:50:07Z</time>
      </trkpt>
      <trkpt lat="46.64716" lon="-1.82297">
        <ele>29</ele>
        <time>2018-04-24T07:51:07Z</time>
      </trkpt>
      <trkpt lat="46.64714" lon="-1.82301">
        <ele>29</ele>
        <time>2018-04-24T07:52:07Z</time>
      </trkpt>
      <trkpt lat="46.64709" lon="-1.82307">
        <ele>29</ele>
        <time>2018-04-24T07:53:07Z</time>
      </trkpt>
      <trkpt lat="46.64705" lon="-1.82312">
        <ele>29</ele>
        <time>2018-04-24T07:54:07Z</time>
      </trkpt>
      <trkpt lat="46.64701" lon="-1.82317">
        <ele>29</ele>
        <time>2018-04-24T07:55:07Z</time>
      </trkpt>
      <trkpt lat="46.64697" lon="-1.82323">
        <ele>29</ele>
        <time>2018-04-24T07:56:07Z</time>
      </trkpt>
      <trkpt lat="46.64693" lon="-1.82329">
        <ele>28</ele>
        <time>2018-04-24T07:57:07Z</time>
      </trkpt>
      <trkpt lat="46.64689" lon="-1.82336">
        <ele>28</ele>
        <time>2018-04-24T07:58:07Z</time>
      </trkpt>
      <trkpt lat="46.64686" lon="-1.82344">
        <ele>28</ele>
        <time>2018-04-24T07:59:07Z</time>
      </trkpt>
      <trkpt lat="46.64684" lon="-1.82352">
        <ele>28</ele>
        <time>2018-04-24T08:00:07Z</time>
      </trkpt>
      <trkpt lat="46.64682" lon="-1.82362">
        <ele>28</ele>
        <time>2018-04-24T08:01:07Z</time>
      </trkpt>
      <trkpt lat="46.6468" lon="-1.82371">
        <ele>28</ele>
        <time>2018-04-24T08:02:07Z</time>
      </trkpt>
      <trkpt lat="46.6468" lon="-1.82381">
        <ele>27</ele>
        <time>2018-04-24T08:03:07Z</time>
      </trkpt>
      <trkpt lat="46.64679" lon="-1.82391">
        <ele>27</ele>
        <time>2018-04-24T08:04:07Z</time>
      </trkpt>
      <trkpt lat="46.64679" lon="-1.82402">
        <ele>27</ele>
        <time>2018-04-24T08:05:07Z</time>
      </trkpt>
      <trkpt lat="46.6468" lon="-1.82413">
        <ele>26</ele>
        <time>2018-04-24T08:06:07Z</time>
      </trkpt>
      <trkpt lat="46.64681" lon="-1.82426">
        <ele>26</ele>
        <time>2018-04-24T08:07:07Z</time>
      </trkpt>
      <trkpt lat="46.64682" lon="-1.82433">
        <ele>26</ele>
        <time>2018-04-24T08:08:07Z</time>
      </trkpt>
      <trkpt lat="46.64684" lon="-1.8244">
        <ele>26</ele>
        <time>2018-04-24T08:09:07Z</time>
      </trkpt>
      <trkpt lat="46.64685" lon="-1.82446">
        <ele>26</ele>
        <time>2018-04-24T08:10:07Z</time>
      </trkpt>
      <trkpt lat="46.64687" lon="-1.82459">
        <ele>26</ele>
        <time>2018-04-24T08:11:07Z</time>
      </trkpt>
      <trkpt lat="46.64689" lon="-1.82472">
        <ele>26</ele>
        <time>2018-04-24T08:12:07Z</time>
      </trkpt>
      <trkpt lat="46.64691" lon="-1.82485">
        <ele>26</ele>
        <time>2018-04-24T08:13:07Z</time>
      </trkpt>
      <trkpt lat="46.64693" lon="-1.82497">
        <ele>26</ele>
        <time>2018-04-24T08:14:07Z</time>
      </trkpt>
      <trkpt lat="46.64695" lon="-1.8251">
        <ele>26</ele>
        <time>2018-04-24T08:15:07Z</time>
      </trkpt>
      <trkpt lat="46.64698" lon="-1.82523">
        <ele>26</ele>
        <time>2018-04-24T08:16:07Z</time>
      </trkpt>
      <trkpt lat="46.647" lon="-1.82536">
        <ele>26</ele>
        <time>2018-04-24T08:17:07Z</time>
      </trkpt>
      <trkpt lat="46.64703" lon="-1.82552">
        <ele>26</ele>
        <time>2018-04-24T08:18:07Z</time>
      </trkpt>
      <trkpt lat="46.64708" lon="-1.82584">
        <ele>26</ele>
        <time>2018-04-24T08:19:07Z</time>
      </trkpt>
      <trkpt lat="46.64712" lon="-1.82607">
        <ele>26</ele>
        <time>2018-04-24T08:20:07Z</time>
      </trkpt>
      <trkpt lat="46.64716" lon="-1.8263">
        <ele>25</ele>
        <time>2018-04-24T08:21:07Z</time>
      </trkpt>
      <trkpt lat="46.6472" lon="-1.82655">
        <ele>25</ele>
        <time>2018-04-24T08:22:07Z</time>
      </trkpt>
      <trkpt lat="46.64722" lon="-1.82668">
        <ele>25</ele>
        <time>2018-04-24T08:23:07Z</time>
      </trkpt>
      <trkpt lat="46.64723" lon="-1.8268">
        <ele>24</ele>
        <time>2018-04-24T08:24:07Z</time>
      </trkpt>
      <trkpt lat="46.64725" lon="-1.82692">
        <ele>24</ele>
        <time>2018-04-24T08:25:07Z</time>
      </trkpt>
      <trkpt lat="46.64726" lon="-1.82705">
        <ele>24</ele>
        <time>2018-04-24T08:26:07Z</time>
      </trkpt>
      <trkpt lat="46.64728" lon="-1.82718">
        <ele>23</ele>
        <time>2018-04-24T08:27:07Z</time>
      </trkpt>
      <trkpt lat="46.6473" lon="-1.82732">
        <ele>23</ele>
        <time>2018-04-24T08:28:07Z</time>
      </trkpt>
      <trkpt lat="46.64731" lon="-1.82745">
        <ele>23</ele>
        <time>2018-04-24T08:29:07Z</time>
      </trkpt>
      <trkpt lat="46.64733" lon="-1.82759">
        <ele>23</ele>
        <time>2018-04-24T08:30:07Z</time>
      </trkpt>
      <trkpt lat="46.64734" lon="-1.82772">
        <ele>23</ele>
        <time>2018-04-24T08:31:07Z</time>
      </trkpt>
      <trkpt lat="46.64736" lon="-1.82786">
        <ele>23</ele>
        <time>2018-04-24T08:32:07Z</time>
      </trkpt>
      <trkpt lat="46.64737" lon="-1.828">
        <ele>23</ele>
        <time>2018-04-24T08:33:07Z</time>
      </trkpt>
      <trkpt lat="46.64739" lon="-1.82814">
        <ele>23</ele>
        <time>2018-04-24T08:34:07Z</time>
      </trkpt>
      <trkpt lat="46.6474" lon="-1.82828">
        <ele>23</ele>
        <time>2018-04-24T08:35:07Z</time>
      </trkpt>
      <trkpt lat="46.64742" lon="-1.82842">
        <ele>23</ele>
        <time>2018-04-24T08:36:07Z</time>
      </trkpt>
      <trkpt lat="46.64743" lon="-1.82855">
        <ele>23</ele>
        <time>2018-04-24T08:37:07Z</time>
      </trkpt>
      <trkpt lat="46.64744" lon="-1.8287">
        <ele>23</ele>
        <time>2018-04-24T08:38:07Z</time>
      </trkpt>
      <trkpt lat="46.64745" lon="-1.82879">
        <ele>23</ele>
        <time>2018-04-24T08:39:07Z</time>
      </trkpt>
      <trkpt lat="46.64747" lon="-1.82909">
        <ele>23</ele>
        <time>2018-04-24T08:40:07Z</time>
      </trkpt>
      <trkpt lat="46.64751" lon="-1.82946">
        <ele>23</ele>
        <time>2018-04-24T08:41:07Z</time>
      </trkpt>
      <trkpt lat="46.64756" lon="-1.83004">
        <ele>23</ele>
        <time>2018-04-24T08:42:07Z</time>
      </trkpt>
      <trkpt lat="46.64757" lon="-1.83014">
        <ele>23</ele>
        <time>2018-04-24T08:43:07Z</time>
      </trkpt>
      <trkpt lat="46.64758" lon="-1.83027">
        <ele>23</ele>
        <time>2018-04-24T08:44:07Z</time>
      </trkpt>
      <trkpt lat="46.6476" lon="-1.83039">
        <ele>23</ele>
        <time>2018-04-24T08:45:07Z</time>
      </trkpt>
      <trkpt lat="46.64762" lon="-1.83051">
        <ele>23</ele>
        <time>2018-04-24T08:46:07Z</time>
      </trkpt>
      <trkpt lat="46.64765" lon="-1.83063">
        <ele>23</ele>
        <time>2018-04-24T08:47:07Z</time>
      </trkpt>
      <trkpt lat="46.64767" lon="-1.83075">
        <ele>23</ele>
        <time>2018-04-24T08:48:07Z</time>
      </trkpt>
      <trkpt lat="46.6477" lon="-1.83086">
        <ele>23</ele>
        <time>2018-04-24T08:49:07Z</time>
      </trkpt>
      <trkpt lat="46.64773" lon="-1.83098">
        <ele>23</ele>
        <time>2018-04-24T08:50:07Z</time>
      </trkpt>
      <trkpt lat="46.64777" lon="-1.83109">
        <ele>23</ele>
        <time>2018-04-24T08:51:07Z</time>
      </trkpt>
      <trkpt lat="46.6478" lon="-1.8312">
        <ele>23</ele>
        <time>2018-04-24T08:52:07Z</time>
      </trkpt>
      <trkpt lat="46.64783" lon="-1.83131">
        <ele>23</ele>
        <time>2018-04-24T08:53:07Z</time>
      </trkpt>
      <trkpt lat="46.64786" lon="-1.83142">
        <ele>23</ele>
        <time>2018-04-24T08:54:07Z</time>
      </trkpt>
      <trkpt lat="46.64789" lon="-1.83153">
        <ele>23</ele>
        <time>2018-04-24T08:55:07Z</time>
      </trkpt>
      <trkpt lat="46.64792" lon="-1.83165">
        <ele>23</ele>
        <time>2018-04-24T08:56:07Z</time>
      </trkpt>
      <trkpt lat="46.64797" lon="-1.83185">
        <ele>23</ele>
        <time>2018-04-24T08:57:07Z</time>
      </trkpt>
      <trkpt lat="46.64798" lon="-1.83187">
        <ele>23</ele>
        <time>2018-04-24T08:58:07Z</time>
      </trkpt>
      <trkpt lat="46.648" lon="-1.832">
        <ele>23</ele>
        <time>2018-04-24T08:59:07Z</time>
      </trkpt>
      <trkpt lat="46.64802" lon="-1.83212">
        <ele>22</ele>
        <time>2018-04-24T09:00:07Z</time>
      </trkpt>
      <trkpt lat="46.64804" lon="-1.83225">
        <ele>22</ele>
        <time>2018-04-24T09:01:07Z</time>
      </trkpt>
      <trkpt lat="46.64805" lon="-1.83238">
        <ele>22</ele>
        <time>2018-04-24T09:02:07Z</time>
      </trkpt>
      <trkpt lat="46.64807" lon="-1.83251">
        <ele>22</ele>
        <time>2018-04-24T09:03:07Z</time>
      </trkpt>
      <trkpt lat="46.64808" lon="-1.83264">
        <ele>22</ele>
        <time>2018-04-24T09:04:07Z</time>
      </trkpt>
      <trkpt lat="46.6481" lon="-1.83276">
        <ele>22</ele>
        <time>2018-04-24T09:05:07Z</time>
      </trkpt>
      <trkpt lat="46.64811" lon="-1.8329">
        <ele>21</ele>
        <time>2018-04-24T09:06:07Z</time>
      </trkpt>
      <trkpt lat="46.64813" lon="-1.83302">
        <ele>21</ele>
        <time>2018-04-24T09:07:07Z</time>
      </trkpt>
      <trkpt lat="46.64814" lon="-1.83316">
        <ele>21</ele>
        <time>2018-04-24T09:08:07Z</time>
      </trkpt>
      <trkpt lat="46.64815" lon="-1.83328">
        <ele>21</ele>
        <time>2018-04-24T09:09:07Z</time>
      </trkpt>
      <trkpt lat="46.64815" lon="-1.83335">
        <ele>21</ele>
        <time>2018-04-24T09:10:07Z</time>
      </trkpt>
      <trkpt lat="46.64816" lon="-1.83354">
        <ele>21</ele>
        <time>2018-04-24T09:11:07Z</time>
      </trkpt>
      <trkpt lat="46.64816" lon="-1.83368">
        <ele>21</ele>
        <time>2018-04-24T09:12:07Z</time>
      </trkpt>
      <trkpt lat="46.64816" lon="-1.83381">
        <ele>21</ele>
        <time>2018-04-24T09:13:07Z</time>
      </trkpt>
      <trkpt lat="46.64815" lon="-1.83395">
        <ele>21</ele>
        <time>2018-04-24T09:14:07Z</time>
      </trkpt>
      <trkpt lat="46.64813" lon="-1.83408">
        <ele>21</ele>
        <time>2018-04-24T09:15:07Z</time>
      </trkpt>
      <trkpt lat="46.64812" lon="-1.83422">
        <ele>21</ele>
        <time>2018-04-24T09:16:07Z</time>
      </trkpt>
      <trkpt lat="46.6481" lon="-1.83435">
        <ele>21</ele>
        <time>2018-04-24T09:17:07Z</time>
      </trkpt>
      <trkpt lat="46.64807" lon="-1.83448">
        <ele>21</ele>
        <time>2018-04-24T09:18:07Z</time>
      </trkpt>
      <trkpt lat="46.64805" lon="-1.83461">
        <ele>22</ele>
        <time>2018-04-24T09:19:07Z</time>
      </trkpt>
      <trkpt lat="46.64803" lon="-1.83473">
        <ele>22</ele>
        <time>2018-04-24T09:20:07Z</time>
      </trkpt>
      <trkpt lat="46.64801" lon="-1.83477">
        <ele>22</ele>
        <time>2018-04-24T09:21:07Z</time>
      </trkpt>
      <trkpt lat="46.648" lon="-1.83488">
        <ele>22</ele>
        <time>2018-04-24T09:22:07Z</time>
      </trkpt>
      <trkpt lat="46.64798" lon="-1.83501">
        <ele>23</ele>
        <time>2018-04-24T09:23:07Z</time>
      </trkpt>
      <trkpt lat="46.64795" lon="-1.83513">
        <ele>23</ele>
        <time>2018-04-24T09:24:07Z</time>
      </trkpt>
      <trkpt lat="46.64793" lon="-1.83526">
        <ele>23</ele>
        <time>2018-04-24T09:25:07Z</time>
      </trkpt>
      <trkpt lat="46.6479" lon="-1.8354">
        <ele>23</ele>
        <time>2018-04-24T09:26:07Z</time>
      </trkpt>
      <trkpt lat="46.64788" lon="-1.83553">
        <ele>24</ele>
        <time>2018-04-24T09:27:07Z</time>
      </trkpt>
      <trkpt lat="46.64785" lon="-1.83566">
        <ele>24</ele>
        <time>2018-04-24T09:28:07Z</time>
      </trkpt>
      <trkpt lat="46.64783" lon="-1.83579">
        <ele>24</ele>
        <time>2018-04-24T09:29:07Z</time>
      </trkpt>
      <trkpt lat="46.6478" lon="-1.83593">
        <ele>24</ele>
        <time>2018-04-24T09:30:07Z</time>
      </trkpt>
      <trkpt lat="46.64778" lon="-1.83606">
        <ele>25</ele>
        <time>2018-04-24T09:31:07Z</time>
      </trkpt>
      <trkpt lat="46.64776" lon="-1.83619">
        <ele>25</ele>
        <time>2018-04-24T09:32:07Z</time>
      </trkpt>
      <trkpt lat="46.64773" lon="-1.83631">
        <ele>25</ele>
        <time>2018-04-24T09:33:07Z</time>
      </trkpt>
      <trkpt lat="46.64771" lon="-1.83644">
        <ele>25</ele>
        <time>2018-04-24T09:34:07Z</time>
      </trkpt>
      <trkpt lat="46.64769" lon="-1.83657">
        <ele>25</ele>
        <time>2018-04-24T09:35:07Z</time>
      </trkpt>
      <trkpt lat="46.64766" lon="-1.8367">
        <ele>25</ele>
        <time>2018-04-24T09:36:07Z</time>
      </trkpt>
      <trkpt lat="46.64764" lon="-1.83683">
        <ele>26</ele>
        <time>2018-04-24T09:37:07Z</time>
      </trkpt>
      <trkpt lat="46.64761" lon="-1.83695">
        <ele>26</ele>
        <time>2018-04-24T09:38:07Z</time>
      </trkpt>
      <trkpt lat="46.64759" lon="-1.83709">
        <ele>26</ele>
        <time>2018-04-24T09:39:07Z</time>
      </trkpt>
      <trkpt lat="46.64757" lon="-1.83721">
        <ele>26</ele>
        <time>2018-04-24T09:40:07Z</time>
      </trkpt>
      <trkpt lat="46.64754" lon="-1.83733">
        <ele>27</ele>
        <time>2018-04-24T09:41:07Z</time>
      </trkpt>
      <trkpt lat="46.64752" lon="-1.83746">
        <ele>27</ele>
        <time>2018-04-24T09:42:07Z</time>
      </trkpt>
      <trkpt lat="46.6475" lon="-1.83758">
        <ele>27</ele>
        <time>2018-04-24T09:43:07Z</time>
      </trkpt>
      <trkpt lat="46.64747" lon="-1.83771">
        <ele>26</ele>
        <time>2018-04-24T09:44:07Z</time>
      </trkpt>
      <trkpt lat="46.64745" lon="-1.83784">
        <ele>26</ele>
        <time>2018-04-24T09:45:07Z</time>
      </trkpt>
      <trkpt lat="46.64743" lon="-1.83796">
        <ele>25</ele>
        <time>2018-04-24T09:46:07Z</time>
      </trkpt>
      <trkpt lat="46.6474" lon="-1.83809">
        <ele>25</ele>
        <time>2018-04-24T09:47:07Z</time>
      </trkpt>
      <trkpt lat="46.64738" lon="-1.83821">
        <ele>24</ele>
        <time>2018-04-24T09:48:07Z</time>
      </trkpt>
      <trkpt lat="46.64736" lon="-1.83833">
        <ele>24</ele>
        <time>2018-04-24T09:49:07Z</time>
      </trkpt>
      <trkpt lat="46.64732" lon="-1.83857">
        <ele>23</ele>
        <time>2018-04-24T09:50:07Z</time>
      </trkpt>
      <trkpt lat="46.6473" lon="-1.8387">
        <ele>23</ele>
        <time>2018-04-24T09:51:07Z</time>
      </trkpt>
      <trkpt lat="46.64729" lon="-1.83883">
        <ele>23</ele>
        <time>2018-04-24T09:52:07Z</time>
      </trkpt>
      <trkpt lat="46.64728" lon="-1.83896">
        <ele>23</ele>
        <time>2018-04-24T09:53:07Z</time>
      </trkpt>
      <trkpt lat="46.64728" lon="-1.8391">
        <ele>22</ele>
        <time>2018-04-24T09:54:07Z</time>
      </trkpt>
      <trkpt lat="46.64728" lon="-1.83924">
        <ele>22</ele>
        <time>2018-04-24T09:55:07Z</time>
      </trkpt>
      <trkpt lat="46.64728" lon="-1.83937">
        <ele>22</ele>
        <time>2018-04-24T09:56:07Z</time>
      </trkpt>
      <trkpt lat="46.64729" lon="-1.83951">
        <ele>22</ele>
        <time>2018-04-24T09:57:07Z</time>
      </trkpt>
      <trkpt lat="46.64731" lon="-1.83965">
        <ele>22</ele>
        <time>2018-04-24T09:58:07Z</time>
      </trkpt>
      <trkpt lat="46.64732" lon="-1.8398">
        <ele>22</ele>
        <time>2018-04-24T09:59:07Z</time>
      </trkpt>
      <trkpt lat="46.64734" lon="-1.83994">
        <ele>22</ele>
        <time>2018-04-24T10:00:07Z</time>
      </trkpt>
      <trkpt lat="46.64736" lon="-1.84008">
        <ele>22</ele>
        <time>2018-04-24T10:01:07Z</time>
      </trkpt>
      <trkpt lat="46.64738" lon="-1.84022">
        <ele>22</ele>
        <time>2018-04-24T10:02:07Z</time>
      </trkpt>
      <trkpt lat="46.6474" lon="-1.84036">
        <ele>22</ele>
        <time>2018-04-24T10:03:07Z</time>
      </trkpt>
      <trkpt lat="46.64742" lon="-1.8405">
        <ele>22</ele>
        <time>2018-04-24T10:04:07Z</time>
      </trkpt>
      <trkpt lat="46.64744" lon="-1.84064">
        <ele>22</ele>
        <time>2018-04-24T10:05:07Z</time>
      </trkpt>
      <trkpt lat="46.64746" lon="-1.84077">
        <ele>22</ele>
        <time>2018-04-24T10:06:07Z</time>
      </trkpt>
      <trkpt lat="46.64748" lon="-1.84087">
        <ele>22</ele>
        <time>2018-04-24T10:07:07Z</time>
      </trkpt>
      <trkpt lat="46.64752" lon="-1.84118">
        <ele>22</ele>
        <time>2018-04-24T10:08:07Z</time>
      </trkpt>
      <trkpt lat="46.64755" lon="-1.84133">
        <ele>22</ele>
        <time>2018-04-24T10:09:07Z</time>
      </trkpt>
      <trkpt lat="46.64757" lon="-1.84147">
        <ele>22</ele>
        <time>2018-04-24T10:10:07Z</time>
      </trkpt>
      <trkpt lat="46.64759" lon="-1.84161">
        <ele>22</ele>
        <time>2018-04-24T10:11:07Z</time>
      </trkpt>
      <trkpt lat="46.64761" lon="-1.84175">
        <ele>22</ele>
        <time>2018-04-24T10:12:07Z</time>
      </trkpt>
      <trkpt lat="46.64763" lon="-1.8419">
        <ele>21</ele>
        <time>2018-04-24T10:13:07Z</time>
      </trkpt>
      <trkpt lat="46.64766" lon="-1.84204">
        <ele>21</ele>
        <time>2018-04-24T10:14:07Z</time>
      </trkpt>
      <trkpt lat="46.64768" lon="-1.84218">
        <ele>21</ele>
        <time>2018-04-24T10:15:07Z</time>
      </trkpt>
      <trkpt lat="46.6477" lon="-1.84232">
        <ele>21</ele>
        <time>2018-04-24T10:16:07Z</time>
      </trkpt>
      <trkpt lat="46.64772" lon="-1.84247">
        <ele>20</ele>
        <time>2018-04-24T10:17:07Z</time>
      </trkpt>
      <trkpt lat="46.64775" lon="-1.84261">
        <ele>20</ele>
        <time>2018-04-24T10:18:07Z</time>
      </trkpt>
      <trkpt lat="46.64777" lon="-1.84276">
        <ele>20</ele>
        <time>2018-04-24T10:19:07Z</time>
      </trkpt>
      <trkpt lat="46.64779" lon="-1.84291">
        <ele>19</ele>
        <time>2018-04-24T10:20:07Z</time>
      </trkpt>
      <trkpt lat="46.64782" lon="-1.84306">
        <ele>19</ele>
        <time>2018-04-24T10:21:07Z</time>
      </trkpt>
      <trkpt lat="46.64784" lon="-1.84322">
        <ele>19</ele>
        <time>2018-04-24T10:22:07Z</time>
      </trkpt>
      <trkpt lat="46.64787" lon="-1.84338">
        <ele>19</ele>
        <time>2018-04-24T10:23:07Z</time>
      </trkpt>
      <trkpt lat="46.64789" lon="-1.84353">
        <ele>18</ele>
        <time>2018-04-24T10:24:07Z</time>
      </trkpt>
      <trkpt lat="46.64792" lon="-1.84368">
        <ele>18</ele>
        <time>2018-04-24T10:25:07Z</time>
      </trkpt>
      <trkpt lat="46.64794" lon="-1.84384">
        <ele>18</ele>
        <time>2018-04-24T10:26:07Z</time>
      </trkpt>
      <trkpt lat="46.64797" lon="-1.844">
        <ele>18</ele>
        <time>2018-04-24T10:27:07Z</time>
      </trkpt>
      <trkpt lat="46.64799" lon="-1.84416">
        <ele>17</ele>
        <time>2018-04-24T10:28:07Z</time>
      </trkpt>
      <trkpt lat="46.64802" lon="-1.84431">
        <ele>17</ele>
        <time>2018-04-24T10:29:07Z</time>
      </trkpt>
      <trkpt lat="46.64804" lon="-1.84448">
        <ele>18</ele>
        <time>2018-04-24T10:30:07Z</time>
      </trkpt>
      <trkpt lat="46.64806" lon="-1.84463">
        <ele>18</ele>
        <time>2018-04-24T10:31:07Z</time>
      </trkpt>
      <trkpt lat="46.64808" lon="-1.84479">
        <ele>18</ele>
        <time>2018-04-24T10:32:07Z</time>
      </trkpt>
      <trkpt lat="46.6481" lon="-1.84496">
        <ele>18</ele>
        <time>2018-04-24T10:33:07Z</time>
      </trkpt>
      <trkpt lat="46.64812" lon="-1.84512">
        <ele>18</ele>
        <time>2018-04-24T10:34:07Z</time>
      </trkpt>
      <trkpt lat="46.64814" lon="-1.84528">
        <ele>18</ele>
        <time>2018-04-24T10:35:07Z</time>
      </trkpt>
      <trkpt lat="46.64815" lon="-1.84544">
        <ele>19</ele>
        <time>2018-04-24T10:36:07Z</time>
      </trkpt>
      <trkpt lat="46.64816" lon="-1.84561">
        <ele>19</ele>
        <time>2018-04-24T10:37:07Z</time>
      </trkpt>
      <trkpt lat="46.64818" lon="-1.84577">
        <ele>19</ele>
        <time>2018-04-24T10:38:07Z</time>
      </trkpt>
      <trkpt lat="46.64819" lon="-1.84593">
        <ele>19</ele>
        <time>2018-04-24T10:39:07Z</time>
      </trkpt>
      <trkpt lat="46.6482" lon="-1.84609">
        <ele>18</ele>
        <time>2018-04-24T10:40:07Z</time>
      </trkpt>
      <trkpt lat="46.64822" lon="-1.84625">
        <ele>18</ele>
        <time>2018-04-24T10:41:07Z</time>
      </trkpt>
      <trkpt lat="46.64823" lon="-1.84642">
        <ele>18</ele>
        <time>2018-04-24T10:42:07Z</time>
      </trkpt>
      <trkpt lat="46.64824" lon="-1.84658">
        <ele>17</ele>
        <time>2018-04-24T10:43:07Z</time>
      </trkpt>
      <trkpt lat="46.64825" lon="-1.84675">
        <ele>17</ele>
        <time>2018-04-24T10:44:07Z</time>
      </trkpt>
      <trkpt lat="46.64826" lon="-1.84691">
        <ele>17</ele>
        <time>2018-04-24T10:45:07Z</time>
      </trkpt>
      <trkpt lat="46.64827" lon="-1.84708">
        <ele>18</ele>
        <time>2018-04-24T10:46:07Z</time>
      </trkpt>
      <trkpt lat="46.64829" lon="-1.84724">
        <ele>18</ele>
        <time>2018-04-24T10:47:07Z</time>
      </trkpt>
      <trkpt lat="46.6483" lon="-1.84741">
        <ele>18</ele>
        <time>2018-04-24T10:48:07Z</time>
      </trkpt>
      <trkpt lat="46.64832" lon="-1.84758">
        <ele>18</ele>
        <time>2018-04-24T10:49:07Z</time>
      </trkpt>
      <trkpt lat="46.64833" lon="-1.84774">
        <ele>18</ele>
        <time>2018-04-24T10:50:07Z</time>
      </trkpt>
      <trkpt lat="46.64834" lon="-1.84791">
        <ele>18</ele>
        <time>2018-04-24T10:51:07Z</time>
      </trkpt>
      <trkpt lat="46.64835" lon="-1.84806">
        <ele>18</ele>
        <time>2018-04-24T10:52:07Z</time>
      </trkpt>
      <trkpt lat="46.64837" lon="-1.84824">
        <ele>18</ele>
        <time>2018-04-24T10:53:07Z</time>
      </trkpt>
      <trkpt lat="46.64838" lon="-1.8484">
        <ele>18</ele>
        <time>2018-04-24T10:54:07Z</time>
      </trkpt>
      <trkpt lat="46.64839" lon="-1.84856">
        <ele>18</ele>
        <time>2018-04-24T10:55:07Z</time>
      </trkpt>
      <trkpt lat="46.6484" lon="-1.84872">
        <ele>18</ele>
        <time>2018-04-24T10:56:07Z</time>
      </trkpt>
      <trkpt lat="46.64847" lon="-1.84949">
        <ele>19</ele>
        <time>2018-04-24T10:57:07Z</time>
      </trkpt>
      <trkpt lat="46.64851" lon="-1.84998">
        <ele>19</ele>
        <time>2018-04-24T10:58:07Z</time>
      </trkpt>
      <trkpt lat="46.64852" lon="-1.85014">
        <ele>19</ele>
        <time>2018-04-24T10:59:07Z</time>
      </trkpt>
      <trkpt lat="46.64853" lon="-1.8503">
        <ele>19</ele>
        <time>2018-04-24T11:00:07Z</time>
      </trkpt>
      <trkpt lat="46.64855" lon="-1.85046">
        <ele>18</ele>
        <time>2018-04-24T11:01:07Z</time>
      </trkpt>
      <trkpt lat="46.64856" lon="-1.85061">
        <ele>18</ele>
        <time>2018-04-24T11:02:07Z</time>
      </trkpt>
      <trkpt lat="46.64857" lon="-1.85077">
        <ele>18</ele>
        <time>2018-04-24T11:03:07Z</time>
      </trkpt>
      <trkpt lat="46.64858" lon="-1.85092">
        <ele>18</ele>
        <time>2018-04-24T11:04:07Z</time>
      </trkpt>
      <trkpt lat="46.6486" lon="-1.85108">
        <ele>18</ele>
        <time>2018-04-24T11:05:07Z</time>
      </trkpt>
      <trkpt lat="46.64863" lon="-1.85146">
        <ele>19</ele>
        <time>2018-04-24T11:06:07Z</time>
      </trkpt>
      <trkpt lat="46.64868" lon="-1.85198">
        <ele>18</ele>
        <time>2018-04-24T11:07:07Z</time>
      </trkpt>
      <trkpt lat="46.64876" lon="-1.85276">
        <ele>18</ele>
        <time>2018-04-24T11:08:07Z</time>
      </trkpt>
      <trkpt lat="46.64883" lon="-1.85341">
        <ele>19</ele>
        <time>2018-04-24T11:09:07Z</time>
      </trkpt>
      <trkpt lat="46.64889" lon="-1.85398">
        <ele>19</ele>
        <time>2018-04-24T11:10:07Z</time>
      </trkpt>
      <trkpt lat="46.64893" lon="-1.85436">
        <ele>19</ele>
        <time>2018-04-24T11:11:07Z</time>
      </trkpt>
      <trkpt lat="46.64901" lon="-1.85506">
        <ele>17</ele>
        <time>2018-04-24T11:12:07Z</time>
      </trkpt>
      <trkpt lat="46.64909" lon="-1.85574">
        <ele>17</ele>
        <time>2018-04-24T11:13:07Z</time>
      </trkpt>
      <trkpt lat="46.64915" lon="-1.85626">
        <ele>17</ele>
        <time>2018-04-24T11:14:07Z</time>
      </trkpt>
      <trkpt lat="46.6492" lon="-1.85676">
        <ele>17</ele>
        <time>2018-04-24T11:15:07Z</time>
      </trkpt>
      <trkpt lat="46.64925" lon="-1.85725">
        <ele>18</ele>
        <time>2018-04-24T11:16:07Z</time>
      </trkpt>
      <trkpt lat="46.64929" lon="-1.85757">
        <ele>19</ele>
        <time>2018-04-24T11:17:07Z</time>
      </trkpt>
      <trkpt lat="46.64934" lon="-1.85805">
        <ele>20</ele>
        <time>2018-04-24T11:18:07Z</time>
      </trkpt>
      <trkpt lat="46.64937" lon="-1.85835">
        <ele>21</ele>
        <time>2018-04-24T11:19:07Z</time>
      </trkpt>
      <trkpt lat="46.64938" lon="-1.85845">
        <ele>21</ele>
        <time>2018-04-24T11:20:07Z</time>
      </trkpt>
      <trkpt lat="46.64942" lon="-1.85886">
        <ele>20</ele>
        <time>2018-04-24T11:21:07Z</time>
      </trkpt>
      <trkpt lat="46.64945" lon="-1.85915">
        <ele>20</ele>
        <time>2018-04-24T11:22:07Z</time>
      </trkpt>
      <trkpt lat="46.64952" lon="-1.86">
        <ele>20</ele>
        <time>2018-04-24T11:23:07Z</time>
      </trkpt>
      <trkpt lat="46.6496" lon="-1.86087">
        <ele>20</ele>
        <time>2018-04-24T11:24:07Z</time>
      </trkpt>
      <trkpt lat="46.64968" lon="-1.86171">
        <ele>18</ele>
        <time>2018-04-24T11:25:07Z</time>
      </trkpt>
      <trkpt lat="46.64975" lon="-1.86256">
        <ele>16</ele>
        <time>2018-04-24T11:26:07Z</time>
      </trkpt>
      <trkpt lat="46.64981" lon="-1.86324">
        <ele>14</ele>
        <time>2018-04-24T11:27:07Z</time>
      </trkpt>
      <trkpt lat="46.64987" lon="-1.8638">
        <ele>14</ele>
        <time>2018-04-24T11:28:07Z</time>
      </trkpt>
      <trkpt lat="46.64991" lon="-1.86428">
        <ele>14</ele>
        <time>2018-04-24T11:29:07Z</time>
      </trkpt>
      <trkpt lat="46.64996" lon="-1.86474">
        <ele>13</ele>
        <time>2018-04-24T11:30:07Z</time>
      </trkpt>
      <trkpt lat="46.64998" lon="-1.86496">
        <ele>12</ele>
        <time>2018-04-24T11:31:07Z</time>
      </trkpt>
      <trkpt lat="46.64999" lon="-1.86515">
        <ele>12</ele>
        <time>2018-04-24T11:32:07Z</time>
      </trkpt>
      <trkpt lat="46.65001" lon="-1.86559">
        <ele>10</ele>
        <time>2018-04-24T11:33:07Z</time>
      </trkpt>
      <trkpt lat="46.65003" lon="-1.86633">
        <ele>8</ele>
        <time>2018-04-24T11:34:07Z</time>
      </trkpt>
      <trkpt lat="46.65004" lon="-1.86682">
        <ele>7</ele>
        <time>2018-04-24T11:35:07Z</time>
      </trkpt>
      <trkpt lat="46.65004" lon="-1.86709">
        <ele>7</ele>
        <time>2018-04-24T11:36:07Z</time>
      </trkpt>
      <trkpt lat="46.65005" lon="-1.86741">
        <ele>7</ele>
        <time>2018-04-24T11:37:07Z</time>
      </trkpt>
      <trkpt lat="46.65007" lon="-1.86796">
        <ele>8</ele>
        <time>2018-04-24T11:38:07Z</time>
      </trkpt>
      <trkpt lat="46.6501" lon="-1.86857">
        <ele>9</ele>
        <time>2018-04-24T11:39:07Z</time>
      </trkpt>
      <trkpt lat="46.65015" lon="-1.86918">
        <ele>12</ele>
        <time>2018-04-24T11:40:07Z</time>
      </trkpt>
      <trkpt lat="46.65019" lon="-1.86982">
        <ele>12</ele>
        <time>2018-04-24T11:41:07Z</time>
      </trkpt>
      <trkpt lat="46.65026" lon="-1.87069">
        <ele>12</ele>
        <time>2018-04-24T11:42:07Z</time>
      </trkpt>
      <trkpt lat="46.6503" lon="-1.87136">
        <ele>11</ele>
        <time>2018-04-24T11:43:07Z</time>
      </trkpt>
      <trkpt lat="46.65033" lon="-1.8719">
        <ele>11</ele>
        <time>2018-04-24T11:44:07Z</time>
      </trkpt>
      <trkpt lat="46.65036" lon="-1.87224">
        <ele>10</ele>
        <time>2018-04-24T11:45:07Z</time>
      </trkpt>
      <trkpt lat="46.65039" lon="-1.87258">
        <ele>10</ele>
        <time>2018-04-24T11:46:07Z</time>
      </trkpt>
      <trkpt lat="46.65042" lon="-1.8729">
        <ele>10</ele>
        <time>2018-04-24T11:47:07Z</time>
      </trkpt>
      <trkpt lat="46.65046" lon="-1.87318">
        <ele>11</ele>
        <time>2018-04-24T11:48:07Z</time>
      </trkpt>
      <trkpt lat="46.65055" lon="-1.87369">
        <ele>10</ele>
        <time>2018-04-24T11:49:07Z</time>
      </trkpt>
      <trkpt lat="46.65059" lon="-1.87392">
        <ele>10</ele>
        <time>2018-04-24T11:50:07Z</time>
      </trkpt>
      <trkpt lat="46.65071" lon="-1.87461">
        <ele>10</ele>
        <time>2018-04-24T11:51:07Z</time>
      </trkpt>
      <trkpt lat="46.65079" lon="-1.87507">
        <ele>10</ele>
        <time>2018-04-24T11:52:07Z</time>
      </trkpt>
      <trkpt lat="46.65082" lon="-1.87529">
        <ele>10</ele>
        <time>2018-04-24T11:53:07Z</time>
      </trkpt>
      <trkpt lat="46.65086" lon="-1.87557">
        <ele>11</ele>
        <time>2018-04-24T11:54:07Z</time>
      </trkpt>
      <trkpt lat="46.65088" lon="-1.87575">
        <ele>11</ele>
        <time>2018-04-24T11:55:07Z</time>
      </trkpt>
      <trkpt lat="46.65091" lon="-1.87603">
        <ele>10</ele>
        <time>2018-04-24T11:56:07Z</time>
      </trkpt>
      <trkpt lat="46.65094" lon="-1.87638">
        <ele>10</ele>
        <time>2018-04-24T11:57:07Z</time>
      </trkpt>
      <trkpt lat="46.65095" lon="-1.87668">
        <ele>9</ele>
        <time>2018-04-24T11:58:07Z</time>
      </trkpt>
      <trkpt lat="46.65096" lon="-1.87689">
        <ele>9</ele>
        <time>2018-04-24T11:59:07Z</time>
      </trkpt>
      <trkpt lat="46.65097" lon="-1.87734">
        <ele>9</ele>
        <time>2018-04-24T12:00:07Z</time>
      </trkpt>
      <trkpt lat="46.65099" lon="-1.87787">
        <ele>10</ele>
        <time>2018-04-24T12:01:07Z</time>
      </trkpt>
      <trkpt lat="46.651" lon="-1.87802">
        <ele>10</ele>
        <time>2018-04-24T12:02:07Z</time>
      </trkpt>
      <trkpt lat="46.65101" lon="-1.87824">
        <ele>11</ele>
        <time>2018-04-24T12:03:07Z</time>
      </trkpt>
      <trkpt lat="46.65105" lon="-1.87853">
        <ele>11</ele>
        <time>2018-04-24T12:04:07Z</time>
      </trkpt>
      <trkpt lat="46.65109" lon="-1.87885">
        <ele>11</ele>
        <time>2018-04-24T12:05:07Z</time>
      </trkpt>
      <trkpt lat="46.65116" lon="-1.87918">
        <ele>11</ele>
        <time>2018-04-24T12:06:07Z</time>
      </trkpt>
      <trkpt lat="46.65124" lon="-1.87945">
        <ele>11</ele>
        <time>2018-04-24T12:07:07Z</time>
      </trkpt>
      <trkpt lat="46.65133" lon="-1.87972">
        <ele>11</ele>
        <time>2018-04-24T12:08:07Z</time>
      </trkpt>
      <trkpt lat="46.65133" lon="-1.87974">
        <ele>11</ele>
        <time>2018-04-24T12:09:07Z</time>
      </trkpt>
      <trkpt lat="46.65137" lon="-1.87988">
        <ele>11</ele>
        <time>2018-04-24T12:10:07Z</time>
      </trkpt>
      <trkpt lat="46.65145" lon="-1.88021">
        <ele>11</ele>
        <time>2018-04-24T12:11:07Z</time>
      </trkpt>
      <trkpt lat="46.65151" lon="-1.8804">
        <ele>10</ele>
        <time>2018-04-24T12:12:07Z</time>
      </trkpt>
      <trkpt lat="46.65158" lon="-1.88068">
        <ele>10</ele>
        <time>2018-04-24T12:13:07Z</time>
      </trkpt>
      <trkpt lat="46.65171" lon="-1.88116">
        <ele>10</ele>
        <time>2018-04-24T12:14:07Z</time>
      </trkpt>
      <trkpt lat="46.65186" lon="-1.88173">
        <ele>9</ele>
        <time>2018-04-24T12:15:07Z</time>
      </trkpt>
      <trkpt lat="46.65195" lon="-1.8821">
        <ele>8</ele>
        <time>2018-04-24T12:16:07Z</time>
      </trkpt>
      <trkpt lat="46.65202" lon="-1.88244">
        <ele>8</ele>
        <time>2018-04-24T12:17:07Z</time>
      </trkpt>
      <trkpt lat="46.65207" lon="-1.88274">
        <ele>7</ele>
        <time>2018-04-24T12:18:07Z</time>
      </trkpt>
      <trkpt lat="46.65208" lon="-1.88282">
        <ele>7</ele>
        <time>2018-04-24T12:19:07Z</time>
      </trkpt>
      <trkpt lat="46.65211" lon="-1.88306">
        <ele>7</ele>
        <time>2018-04-24T12:20:07Z</time>
      </trkpt>
      <trkpt lat="46.65215" lon="-1.8834">
        <ele>6</ele>
        <time>2018-04-24T12:21:07Z</time>
      </trkpt>
      <trkpt lat="46.6522" lon="-1.88391">
        <ele>5</ele>
        <time>2018-04-24T12:22:07Z</time>
      </trkpt>
      <trkpt lat="46.65226" lon="-1.88446">
        <ele>5</ele>
        <time>2018-04-24T12:23:07Z</time>
      </trkpt>
      <trkpt lat="46.65229" lon="-1.88491">
        <ele>6</ele>
        <time>2018-04-24T12:24:07Z</time>
      </trkpt>
      <trkpt lat="46.65235" lon="-1.8855">
        <ele>6</ele>
        <time>2018-04-24T12:25:07Z</time>
      </trkpt>
      <trkpt lat="46.65235" lon="-1.88551">
        <ele>6</ele>
        <time>2018-04-24T12:26:07Z</time>
      </trkpt>
      <trkpt lat="46.65239" lon="-1.88591">
        <ele>5</ele>
        <time>2018-04-24T12:27:07Z</time>
      </trkpt>
      <trkpt lat="46.65243" lon="-1.88632">
        <ele>6</ele>
        <time>2018-04-24T12:28:07Z</time>
      </trkpt>
      <trkpt lat="46.65248" lon="-1.88687">
        <ele>7</ele>
        <time>2018-04-24T12:29:07Z</time>
      </trkpt>
      <trkpt lat="46.65254" lon="-1.88736">
        <ele>7</ele>
        <time>2018-04-24T12:30:07Z</time>
      </trkpt>
      <trkpt lat="46.65257" lon="-1.88772">
        <ele>8</ele>
        <time>2018-04-24T12:31:07Z</time>
      </trkpt>
      <trkpt lat="46.65261" lon="-1.888">
        <ele>7</ele>
        <time>2018-04-24T12:32:07Z</time>
      </trkpt>
      <trkpt lat="46.65267" lon="-1.88835">
        <ele>7</ele>
        <time>2018-04-24T12:33:07Z</time>
      </trkpt>
      <trkpt lat="46.65275" lon="-1.88888">
        <ele>8</ele>
        <time>2018-04-24T12:34:07Z</time>
      </trkpt>
      <trkpt lat="46.65283" lon="-1.88941">
        <ele>8</ele>
        <time>2018-04-24T12:35:07Z</time>
      </trkpt>
      <trkpt lat="46.65287" lon="-1.88968">
        <ele>8</ele>
        <time>2018-04-24T12:36:07Z</time>
      </trkpt>
      <trkpt lat="46.65298" lon="-1.89032">
        <ele>7</ele>
        <time>2018-04-24T12:37:07Z</time>
      </trkpt>
      <trkpt lat="46.65308" lon="-1.89096">
        <ele>6</ele>
        <time>2018-04-24T12:38:07Z</time>
      </trkpt>
      <trkpt lat="46.65321" lon="-1.89187">
        <ele>5</ele>
        <time>2018-04-24T12:39:07Z</time>
      </trkpt>
      <trkpt lat="46.65331" lon="-1.89246">
        <ele>5</ele>
        <time>2018-04-24T12:40:07Z</time>
      </trkpt>
      <trkpt lat="46.65335" lon="-1.89273">
        <ele>5</ele>
        <time>2018-04-24T12:41:07Z</time>
      </trkpt>
      <trkpt lat="46.65344" lon="-1.89332">
        <ele>5</ele>
        <time>2018-04-24T12:42:07Z</time>
      </trkpt>
      <trkpt lat="46.65354" lon="-1.894">
        <ele>5</ele>
        <time>2018-04-24T12:43:07Z</time>
      </trkpt>
      <trkpt lat="46.65366" lon="-1.89476">
        <ele>6</ele>
        <time>2018-04-24T12:44:07Z</time>
      </trkpt>
      <trkpt lat="46.65369" lon="-1.89496">
        <ele>6</ele>
        <time>2018-04-24T12:45:07Z</time>
      </trkpt>
      <trkpt lat="46.65369" lon="-1.89496">
        <ele>6</ele>
        <time>2018-04-24T12:46:07Z</time>
      </trkpt>
      <trkpt lat="46.65414" lon="-1.89536">
        <ele>7</ele>
        <time>2018-04-24T12:47:07Z</time>
      </trkpt>
      <trkpt lat="46.65449" lon="-1.89567">
        <ele>7</ele>
        <time>2018-04-24T12:48:07Z</time>
      </trkpt>
      <trkpt lat="46.65489" lon="-1.89598">
        <ele>8</ele>
        <time>2018-04-24T12:49:07Z</time>
      </trkpt>
      <trkpt lat="46.65541" lon="-1.89637">
        <ele>7</ele>
        <time>2018-04-24T12:50:07Z</time>
      </trkpt>
      <trkpt lat="46.65546" lon="-1.89643">
        <ele>7</ele>
        <time>2018-04-24T12:51:07Z</time>
      </trkpt>
      <trkpt lat="46.65631" lon="-1.89698">
        <ele>8</ele>
        <time>2018-04-24T12:52:07Z</time>
      </trkpt>
      <trkpt lat="46.65759" lon="-1.89784">
        <ele>8</ele>
        <time>2018-04-24T12:53:07Z</time>
      </trkpt>
      <trkpt lat="46.65878" lon="-1.8986">
        <ele>7</ele>
        <time>2018-04-24T12:54:07Z</time>
      </trkpt>
      <trkpt lat="46.65944" lon="-1.89901">
        <ele>7</ele>
        <time>2018-04-24T12:55:07Z</time>
      </trkpt>
      <trkpt lat="46.65958" lon="-1.89911">
        <ele>6</ele>
        <time>2018-04-24T12:56:07Z</time>
      </trkpt>
      <trkpt lat="46.65975" lon="-1.89922">
        <ele>7</ele>
        <time>2018-04-24T12:57:07Z</time>
      </trkpt>
      <trkpt lat="46.66028" lon="-1.89956">
        <ele>8</ele>
        <time>2018-04-24T12:58:07Z</time>
      </trkpt>
      <trkpt lat="46.66074" lon="-1.89986">
        <ele>7</ele>
        <time>2018-04-24T12:59:07Z</time>
      </trkpt>
      <trkpt lat="46.6609" lon="-1.89996">
        <ele>7</ele>
        <time>2018-04-24T13:00:07Z</time>
      </trkpt>
      <trkpt lat="46.66116" lon="-1.90011">
        <ele>6</ele>
        <time>2018-04-24T13:01:07Z</time>
      </trkpt>
      <trkpt lat="46.6615" lon="-1.90033">
        <ele>5</ele>
        <time>2018-04-24T13:02:07Z</time>
      </trkpt>
      <trkpt lat="46.66183" lon="-1.90053">
        <ele>4</ele>
        <time>2018-04-24T13:03:07Z</time>
      </trkpt>
      <trkpt lat="46.66205" lon="-1.90067">
        <ele>3</ele>
        <time>2018-04-24T13:04:07Z</time>
      </trkpt>
      <trkpt lat="46.66216" lon="-1.90073">
        <ele>3</ele>
        <time>2018-04-24T13:05:07Z</time>
      </trkpt>
      <trkpt lat="46.66223" lon="-1.90077">
        <ele>3</ele>
        <time>2018-04-24T13:06:07Z</time>
      </trkpt>
      <trkpt lat="46.66229" lon="-1.9008">
        <ele>3</ele>
        <time>2018-04-24T13:07:07Z</time>
      </trkpt>
      <trkpt lat="46.66237" lon="-1.90084">
        <ele>2</ele>
        <time>2018-04-24T13:08:07Z</time>
      </trkpt>
      <trkpt lat="46.66244" lon="-1.90087">
        <ele>2</ele>
        <time>2018-04-24T13:09:07Z</time>
      </trkpt>
      <trkpt lat="46.66251" lon="-1.90089">
        <ele>2</ele>
        <time>2018-04-24T13:10:07Z</time>
      </trkpt>
      <trkpt lat="46.66254" lon="-1.90091">
        <ele>2</ele>
        <time>2018-04-24T13:11:07Z</time>
      </trkpt>
      <trkpt lat="46.66258" lon="-1.90092">
        <ele>2</ele>
        <time>2018-04-24T13:12:07Z</time>
      </trkpt>
      <trkpt lat="46.66265" lon="-1.90094">
        <ele>2</ele>
        <time>2018-04-24T13:13:07Z</time>
      </trkpt>
      <trkpt lat="46.66278" lon="-1.90097">
        <ele>2</ele>
        <time>2018-04-24T13:14:07Z</time>
      </trkpt>
      <trkpt lat="46.66301" lon="-1.90103">
        <ele>1</ele>
        <time>2018-04-24T13:15:07Z</time>
      </trkpt>
      <trkpt lat="46.66328" lon="-1.90109">
        <ele>1</ele>
        <time>2018-04-24T13:16:07Z</time>
      </trkpt>
      <trkpt lat="46.66335" lon="-1.90111">
        <ele>1</ele>
        <time>2018-04-24T13:17:07Z</time>
      </trkpt>
      <trkpt lat="46.66342" lon="-1.90113">
        <ele>1</ele>
        <time>2018-04-24T13:18:07Z</time>
      </trkpt>
      <trkpt lat="46.66354" lon="-1.90116">
        <ele>1</ele>
        <time>2018-04-24T13:19:07Z</time>
      </trkpt>
      <trkpt lat="46.6636" lon="-1.90117">
        <ele>1</ele>
        <time>2018-04-24T13:20:07Z</time>
      </trkpt>
      <trkpt lat="46.66365" lon="-1.90118">
        <ele>1</ele>
        <time>2018-04-24T13:21:07Z</time>
      </trkpt>
      <trkpt lat="46.66457" lon="-1.90141">
        <ele>3</ele>
        <time>2018-04-24T13:22:07Z</time>
      </trkpt>
      <trkpt lat="46.66556" lon="-1.90164">
        <ele>3</ele>
        <time>2018-04-24T13:23:07Z</time>
      </trkpt>
      <trkpt lat="46.66598" lon="-1.90175">
        <ele>4</ele>
        <time>2018-04-24T13:24:07Z</time>
      </trkpt>
      <trkpt lat="46.66644" lon="-1.90186">
        <ele>5</ele>
        <time>2018-04-24T13:25:07Z</time>
      </trkpt>
      <trkpt lat="46.66651" lon="-1.90186">
        <ele>5</ele>
        <time>2018-04-24T13:26:07Z</time>
      </trkpt>
      <trkpt lat="46.66727" lon="-1.90202">
        <ele>6</ele>
        <time>2018-04-24T13:27:07Z</time>
      </trkpt>
      <trkpt lat="46.66748" lon="-1.90207">
        <ele>6</ele>
        <time>2018-04-24T13:28:07Z</time>
      </trkpt>
      <trkpt lat="46.66755" lon="-1.90209">
        <ele>5</ele>
        <time>2018-04-24T13:29:07Z</time>
      </trkpt>
      <trkpt lat="46.66772" lon="-1.90213">
        <ele>5</ele>
        <time>2018-04-24T13:30:07Z</time>
      </trkpt>
      <trkpt lat="46.66799" lon="-1.90219">
        <ele>5</ele>
        <time>2018-04-24T13:31:07Z</time>
      </trkpt>
      <trkpt lat="46.66818" lon="-1.90224">
        <ele>5</ele>
        <time>2018-04-24T13:32:07Z</time>
      </trkpt>
      <trkpt lat="46.66831" lon="-1.90229">
        <ele>5</ele>
        <time>2018-04-24T13:33:07Z</time>
      </trkpt>
      <trkpt lat="46.66842" lon="-1.90233">
        <ele>5</ele>
        <time>2018-04-24T13:34:07Z</time>
      </trkpt>
      <trkpt lat="46.66848" lon="-1.90237">
        <ele>5</ele>
        <time>2018-04-24T13:35:07Z</time>
      </trkpt>
      <trkpt lat="46.66863" lon="-1.90243">
        <ele>5</ele>
        <time>2018-04-24T13:36:07Z</time>
      </trkpt>
      <trkpt lat="46.66868" lon="-1.90245">
        <ele>5</ele>
        <time>2018-04-24T13:37:07Z</time>
      </trkpt>
      <trkpt lat="46.66874" lon="-1.90248">
        <ele>5</ele>
        <time>2018-04-24T13:38:07Z</time>
      </trkpt>
      <trkpt lat="46.66878" lon="-1.90251">
        <ele>5</ele>
        <time>2018-04-24T13:39:07Z</time>
      </trkpt>
      <trkpt lat="46.66883" lon="-1.90253">
        <ele>5</ele>
        <time>2018-04-24T13:40:07Z</time>
      </trkpt>
      <trkpt lat="46.66887" lon="-1.90256">
        <ele>5</ele>
        <time>2018-04-24T13:41:07Z</time>
      </trkpt>
      <trkpt lat="46.66891" lon="-1.90258">
        <ele>5</ele>
        <time>2018-04-24T13:42:07Z</time>
      </trkpt>
      <trkpt lat="46.66895" lon="-1.90261">
        <ele>5</ele>
        <time>2018-04-24T13:43:07Z</time>
      </trkpt>
      <trkpt lat="46.66902" lon="-1.90265">
        <ele>5</ele>
        <time>2018-04-24T13:44:07Z</time>
      </trkpt>
      <trkpt lat="46.66908" lon="-1.90269">
        <ele>5</ele>
        <time>2018-04-24T13:45:07Z</time>
      </trkpt>
      <trkpt lat="46.66913" lon="-1.90272">
        <ele>5</ele>
        <time>2018-04-24T13:46:07Z</time>
      </trkpt>
      <trkpt lat="46.66917" lon="-1.90275">
        <ele>5</ele>
        <time>2018-04-24T13:47:07Z</time>
      </trkpt>
      <trkpt lat="46.66922" lon="-1.90279">
        <ele>5</ele>
        <time>2018-04-24T13:48:07Z</time>
      </trkpt>
      <trkpt lat="46.66926" lon="-1.90283">
        <ele>5</ele>
        <time>2018-04-24T13:49:07Z</time>
      </trkpt>
      <trkpt lat="46.66936" lon="-1.90291">
        <ele>5</ele>
        <time>2018-04-24T13:50:07Z</time>
      </trkpt>
      <trkpt lat="46.66953" lon="-1.90302">
        <ele>5</ele>
        <time>2018-04-24T13:51:07Z</time>
      </trkpt>
      <trkpt lat="46.66954" lon="-1.90303">
        <ele>5</ele>
        <time>2018-04-24T13:52:07Z</time>
      </trkpt>
      <trkpt lat="46.66956" lon="-1.90304">
        <ele>5</ele>
        <time>2018-04-24T13:53:07Z</time>
      </trkpt>
      <trkpt lat="46.66957" lon="-1.90304">
        <ele>5</ele>
        <time>2018-04-24T13:54:07Z</time>
      </trkpt>
      <trkpt lat="46.66957" lon="-1.90305">
        <ele>5</ele>
        <time>2018-04-24T13:55:07Z</time>
      </trkpt>
      <trkpt lat="46.66958" lon="-1.90305">
        <ele>5</ele>
        <time>2018-04-24T13:56:07Z</time>
      </trkpt>
      <trkpt lat="46.66959" lon="-1.90305">
        <ele>5</ele>
        <time>2018-04-24T13:57:07Z</time>
      </trkpt>
      <trkpt lat="46.66962" lon="-1.90306">
        <ele>5</ele>
        <time>2018-04-24T13:58:07Z</time>
      </trkpt>
      <trkpt lat="46.66976" lon="-1.9031">
        <ele>6</ele>
        <time>2018-04-24T13:59:07Z</time>
      </trkpt>
      <trkpt lat="46.66976" lon="-1.9031">
        <ele>6</ele>
        <time>2018-04-24T14:00:07Z</time>
      </trkpt>
      <trkpt lat="46.66976" lon="-1.90309">
        <ele>6</ele>
        <time>2018-04-24T14:01:07Z</time>
      </trkpt>
      <trkpt lat="46.66977" lon="-1.90309">
        <ele>6</ele>
        <time>2018-04-24T14:02:07Z</time>
      </trkpt>
      <trkpt lat="46.66978" lon="-1.90309">
        <ele>6</ele>
        <time>2018-04-24T14:03:07Z</time>
      </trkpt>
      <trkpt lat="46.66978" lon="-1.90308">
        <ele>6</ele>
        <time>2018-04-24T14:04:07Z</time>
      </trkpt>
      <trkpt lat="46.6698" lon="-1.90308">
        <ele>6</ele>
        <time>2018-04-24T14:05:07Z</time>
      </trkpt>
      <trkpt lat="46.66981" lon="-1.90307">
        <ele>6</ele>
        <time>2018-04-24T14:06:07Z</time>
      </trkpt>
      <trkpt lat="46.66982" lon="-1.90307">
        <ele>6</ele>
        <time>2018-04-24T14:07:07Z</time>
      </trkpt>
      <trkpt lat="46.66983" lon="-1.90306">
        <ele>6</ele>
        <time>2018-04-24T14:08:07Z</time>
      </trkpt>
      <trkpt lat="46.66984" lon="-1.90306">
        <ele>6</ele>
        <time>2018-04-24T14:09:07Z</time>
      </trkpt>
      <trkpt lat="46.66986" lon="-1.90306">
        <ele>6</ele>
        <time>2018-04-24T14:10:07Z</time>
      </trkpt>
      <trkpt lat="46.66987" lon="-1.90306">
        <ele>6</ele>
        <time>2018-04-24T14:11:07Z</time>
      </trkpt>
      <trkpt lat="46.66988" lon="-1.90307">
        <ele>6</ele>
        <time>2018-04-24T14:12:07Z</time>
      </trkpt>
      <trkpt lat="46.66989" lon="-1.90307">
        <ele>6</ele>
        <time>2018-04-24T14:13:07Z</time>
      </trkpt>
      <trkpt lat="46.66991" lon="-1.90308">
        <ele>6</ele>
        <time>2018-04-24T14:14:07Z</time>
      </trkpt>
      <trkpt lat="46.66992" lon="-1.90308">
        <ele>6</ele>
        <time>2018-04-24T14:15:07Z</time>
      </trkpt>
      <trkpt lat="46.66993" lon="-1.90309">
        <ele>6</ele>
        <time>2018-04-24T14:16:07Z</time>
      </trkpt>
      <trkpt lat="46.66995" lon="-1.90311">
        <ele>6</ele>
        <time>2018-04-24T14:17:07Z</time>
      </trkpt>
      <trkpt lat="46.66996" lon="-1.90311">
        <ele>6</ele>
        <time>2018-04-24T14:18:07Z</time>
      </trkpt>
      <trkpt lat="46.66996" lon="-1.90312">
        <ele>6</ele>
        <time>2018-04-24T14:19:07Z</time>
      </trkpt>
      <trkpt lat="46.66997" lon="-1.90313">
        <ele>6</ele>
        <time>2018-04-24T14:20:07Z</time>
      </trkpt>
      <trkpt lat="46.66997" lon="-1.90314">
        <ele>6</ele>
        <time>2018-04-24T14:21:07Z</time>
      </trkpt>
      <trkpt lat="46.66998" lon="-1.90315">
        <ele>6</ele>
        <time>2018-04-24T14:22:07Z</time>
      </trkpt>
      <trkpt lat="46.66998" lon="-1.90316">
        <ele>6</ele>
        <time>2018-04-24T14:23:07Z</time>
      </trkpt>
      <trkpt lat="46.66999" lon="-1.90317">
        <ele>6</ele>
        <time>2018-04-24T14:24:07Z</time>
      </trkpt>
      <trkpt lat="46.66999" lon="-1.90318">
        <ele>6</ele>
        <time>2018-04-24T14:25:07Z</time>
      </trkpt>
      <trkpt lat="46.67" lon="-1.90319">
        <ele>6</ele>
        <time>2018-04-24T14:26:07Z</time>
      </trkpt>
      <trkpt lat="46.67001" lon="-1.90321">
        <ele>6</ele>
        <time>2018-04-24T14:27:07Z</time>
      </trkpt>
      <trkpt lat="46.67001" lon="-1.90322">
        <ele>6</ele>
        <time>2018-04-24T14:28:07Z</time>
      </trkpt>
      <trkpt lat="46.67001" lon="-1.90324">
        <ele>6</ele>
        <time>2018-04-24T14:29:07Z</time>
      </trkpt>
      <trkpt lat="46.67002" lon="-1.90326">
        <ele>6</ele>
        <time>2018-04-24T14:30:07Z</time>
      </trkpt>
      <trkpt lat="46.67002" lon="-1.90328">
        <ele>6</ele>
        <time>2018-04-24T14:31:07Z</time>
      </trkpt>
      <trkpt lat="46.67002" lon="-1.9033">
        <ele>6</ele>
        <time>2018-04-24T14:32:07Z</time>
      </trkpt>
      <trkpt lat="46.67002" lon="-1.90332">
        <ele>6</ele>
        <time>2018-04-24T14:33:07Z</time>
      </trkpt>
      <trkpt lat="46.67002" lon="-1.90333">
        <ele>6</ele>
        <time>2018-04-24T14:34:07Z</time>
      </trkpt>
      <trkpt lat="46.67002" lon="-1.90335">
        <ele>6</ele>
        <time>2018-04-24T14:35:07Z</time>
      </trkpt>
      <trkpt lat="46.67001" lon="-1.90337">
        <ele>6</ele>
        <time>2018-04-24T14:36:07Z</time>
      </trkpt>
      <trkpt lat="46.67001" lon="-1.90339">
        <ele>6</ele>
        <time>2018-04-24T14:37:07Z</time>
      </trkpt>
      <trkpt lat="46.67001" lon="-1.9034">
        <ele>6</ele>
        <time>2018-04-24T14:38:07Z</time>
      </trkpt>
      <trkpt lat="46.67001" lon="-1.90341">
        <ele>6</ele>
        <time>2018-04-24T14:39:07Z</time>
      </trkpt>
      <trkpt lat="46.67" lon="-1.90342">
        <ele>6</ele>
        <time>2018-04-24T14:40:07Z</time>
      </trkpt>
      <trkpt lat="46.67" lon="-1.90343">
        <ele>6</ele>
        <time>2018-04-24T14:41:07Z</time>
      </trkpt>
      <trkpt lat="46.67" lon="-1.90344">
        <ele>6</ele>
        <time>2018-04-24T14:42:07Z</time>
      </trkpt>
      <trkpt lat="46.67" lon="-1.90345">
        <ele>6</ele>
        <time>2018-04-24T14:43:07Z</time>
      </trkpt>
      <trkpt lat="46.67" lon="-1.90351">
        <ele>6</ele>
        <time>2018-04-24T14:44:07Z</time>
      </trkpt>
      <trkpt lat="46.67001" lon="-1.90365">
        <ele>6</ele>
        <time>2018-04-24T14:45:07Z</time>
      </trkpt>
      <trkpt lat="46.67001" lon="-1.90368">
        <ele>6</ele>
        <time>2018-04-24T14:46:07Z</time>
      </trkpt>
      <trkpt lat="46.67002" lon="-1.9037">
        <ele>6</ele>
        <time>2018-04-24T14:47:07Z</time>
      </trkpt>
      <trkpt lat="46.67002" lon="-1.90373">
        <ele>6</ele>
        <time>2018-04-24T14:48:07Z</time>
      </trkpt>
      <trkpt lat="46.67003" lon="-1.90375">
        <ele>6</ele>
        <time>2018-04-24T14:49:07Z</time>
      </trkpt>
      <trkpt lat="46.67004" lon="-1.90378">
        <ele>6</ele>
        <time>2018-04-24T14:50:07Z</time>
      </trkpt>
      <trkpt lat="46.67006" lon="-1.9038">
        <ele>6</ele>
        <time>2018-04-24T14:51:07Z</time>
      </trkpt>
      <trkpt lat="46.67007" lon="-1.90383">
        <ele>5</ele>
        <time>2018-04-24T14:52:07Z</time>
      </trkpt>
      <trkpt lat="46.67009" lon="-1.90386">
        <ele>5</ele>
        <time>2018-04-24T14:53:07Z</time>
      </trkpt>
      <trkpt lat="46.67012" lon="-1.9039">
        <ele>5</ele>
        <time>2018-04-24T14:54:07Z</time>
      </trkpt>
      <trkpt lat="46.67021" lon="-1.90401">
        <ele>5</ele>
        <time>2018-04-24T14:55:07Z</time>
      </trkpt>
      <trkpt lat="46.67034" lon="-1.90417">
        <ele>5</ele>
        <time>2018-04-24T14:56:07Z</time>
      </trkpt>
      <trkpt lat="46.67059" lon="-1.90451">
        <ele>5</ele>
        <time>2018-04-24T14:57:07Z</time>
      </trkpt>
      <trkpt lat="46.671" lon="-1.90508">
        <ele>5</ele>
        <time>2018-04-24T14:58:07Z</time>
      </trkpt>
      <trkpt lat="46.67105" lon="-1.90518">
        <ele>5</ele>
        <time>2018-04-24T14:59:07Z</time>
      </trkpt>
      <trkpt lat="46.67166" lon="-1.90604">
        <ele>5</ele>
        <time>2018-04-24T15:00:07Z</time>
      </trkpt>
      <trkpt lat="46.67205" lon="-1.90658">
        <ele>4</ele>
        <time>2018-04-24T15:01:07Z</time>
      </trkpt>
      <trkpt lat="46.67226" lon="-1.90688">
        <ele>4</ele>
        <time>2018-04-24T15:02:07Z</time>
      </trkpt>
      <trkpt lat="46.67255" lon="-1.90729">
        <ele>3</ele>
        <time>2018-04-24T15:03:07Z</time>
      </trkpt>
      <trkpt lat="46.67282" lon="-1.90767">
        <ele>3</ele>
        <time>2018-04-24T15:04:07Z</time>
      </trkpt>
      <trkpt lat="46.67301" lon="-1.90794">
        <ele>2</ele>
        <time>2018-04-24T15:05:07Z</time>
      </trkpt>
      <trkpt lat="46.67313" lon="-1.9081">
        <ele>2</ele>
        <time>2018-04-24T15:06:07Z</time>
      </trkpt>
      <trkpt lat="46.6732" lon="-1.90819">
        <ele>2</ele>
        <time>2018-04-24T15:07:07Z</time>
      </trkpt>
      <trkpt lat="46.67323" lon="-1.90824">
        <ele>2</ele>
        <time>2018-04-24T15:08:07Z</time>
      </trkpt>
      <trkpt lat="46.67327" lon="-1.90829">
        <ele>2</ele>
        <time>2018-04-24T15:09:07Z</time>
      </trkpt>
      <trkpt lat="46.6733" lon="-1.90833">
        <ele>2</ele>
        <time>2018-04-24T15:10:07Z</time>
      </trkpt>
      <trkpt lat="46.67333" lon="-1.90837">
        <ele>2</ele>
        <time>2018-04-24T15:11:07Z</time>
      </trkpt>
      <trkpt lat="46.67336" lon="-1.9084">
        <ele>2</ele>
        <time>2018-04-24T15:12:07Z</time>
      </trkpt>
      <trkpt lat="46.67339" lon="-1.90844">
        <ele>2</ele>
        <time>2018-04-24T15:13:07Z</time>
      </trkpt>
      <trkpt lat="46.67347" lon="-1.90849">
        <ele>2</ele>
        <time>2018-04-24T15:14:07Z</time>
      </trkpt>
      <trkpt lat="46.67361" lon="-1.90864">
        <ele>2</ele>
        <time>2018-04-24T15:15:07Z</time>
      </trkpt>
      <trkpt lat="46.67381" lon="-1.90883">
        <ele>3</ele>
        <time>2018-04-24T15:16:07Z</time>
      </trkpt>
      <trkpt lat="46.67397" lon="-1.90898">
        <ele>3</ele>
        <time>2018-04-24T15:17:07Z</time>
      </trkpt>
      <trkpt lat="46.674" lon="-1.90901">
        <ele>3</ele>
        <time>2018-04-24T15:18:07Z</time>
      </trkpt>
      <trkpt lat="46.67404" lon="-1.90904">
        <ele>3</ele>
        <time>2018-04-24T15:19:07Z</time>
      </trkpt>
      <trkpt lat="46.67406" lon="-1.90905">
        <ele>3</ele>
        <time>2018-04-24T15:20:07Z</time>
      </trkpt>
      <trkpt lat="46.67409" lon="-1.90906">
        <ele>3</ele>
        <time>2018-04-24T15:21:07Z</time>
      </trkpt>
      <trkpt lat="46.67412" lon="-1.90907">
        <ele>3</ele>
        <time>2018-04-24T15:22:07Z</time>
      </trkpt>
      <trkpt lat="46.67414" lon="-1.90908">
        <ele>3</ele>
        <time>2018-04-24T15:23:07Z</time>
      </trkpt>
      <trkpt lat="46.67417" lon="-1.90909">
        <ele>3</ele>
        <time>2018-04-24T15:24:07Z</time>
      </trkpt>
      <trkpt lat="46.67436" lon="-1.90914">
        <ele>3</ele>
        <time>2018-04-24T15:25:07Z</time>
      </trkpt>
      <trkpt lat="46.67436" lon="-1.90914">
        <ele>3</ele>
        <time>2018-04-24T15:26:07Z</time>
      </trkpt>
      <trkpt lat="46.67438" lon="-1.90914">
        <ele>3</ele>
        <time>2018-04-24T15:27:07Z</time>
      </trkpt>
      <trkpt lat="46.6744" lon="-1.90914">
        <ele>3</ele>
        <time>2018-04-24T15:28:07Z</time>
      </trkpt>
      <trkpt lat="46.67441" lon="-1.90914">
        <ele>3</ele>
        <time>2018-04-24T15:29:07Z</time>
      </trkpt>
      <trkpt lat="46.67443" lon="-1.90915">
        <ele>3</ele>
        <time>2018-04-24T15:30:07Z</time>
      </trkpt>
      <trkpt lat="46.67445" lon="-1.90915">
        <ele>3</ele>
        <time>2018-04-24T15:31:07Z</time>
      </trkpt>
      <trkpt lat="46.67446" lon="-1.90916">
        <ele>3</ele>
        <time>2018-04-24T15:32:07Z</time>
      </trkpt>
      <trkpt lat="46.67448" lon="-1.90917">
        <ele>3</ele>
        <time>2018-04-24T15:33:07Z</time>
      </trkpt>
      <trkpt lat="46.6745" lon="-1.90918">
        <ele>3</ele>
        <time>2018-04-24T15:34:07Z</time>
      </trkpt>
      <trkpt lat="46.67451" lon="-1.9092">
        <ele>3</ele>
        <time>2018-04-24T15:35:07Z</time>
      </trkpt>
      <trkpt lat="46.67452" lon="-1.90922">
        <ele>3</ele>
        <time>2018-04-24T15:36:07Z</time>
      </trkpt>
      <trkpt lat="46.67454" lon="-1.90923">
        <ele>3</ele>
        <time>2018-04-24T15:37:07Z</time>
      </trkpt>
      <trkpt lat="46.67455" lon="-1.90925">
        <ele>4</ele>
        <time>2018-04-24T15:38:07Z</time>
      </trkpt>
      <trkpt lat="46.67456" lon="-1.90927">
        <ele>4</ele>
        <time>2018-04-24T15:39:07Z</time>
      </trkpt>
      <trkpt lat="46.67457" lon="-1.9093">
        <ele>4</ele>
        <time>2018-04-24T15:40:07Z</time>
      </trkpt>
      <trkpt lat="46.67458" lon="-1.90933">
        <ele>4</ele>
        <time>2018-04-24T15:41:07Z</time>
      </trkpt>
      <trkpt lat="46.67458" lon="-1.90936">
        <ele>4</ele>
        <time>2018-04-24T15:42:07Z</time>
      </trkpt>
      <trkpt lat="46.67459" lon="-1.90938">
        <ele>4</ele>
        <time>2018-04-24T15:43:07Z</time>
      </trkpt>
      <trkpt lat="46.67459" lon="-1.90941">
        <ele>4</ele>
        <time>2018-04-24T15:44:07Z</time>
      </trkpt>
      <trkpt lat="46.67459" lon="-1.90943">
        <ele>4</ele>
        <time>2018-04-24T15:45:07Z</time>
      </trkpt>
      <trkpt lat="46.67459" lon="-1.90946">
        <ele>4</ele>
        <time>2018-04-24T15:46:07Z</time>
      </trkpt>
      <trkpt lat="46.67459" lon="-1.90948">
        <ele>4</ele>
        <time>2018-04-24T15:47:07Z</time>
      </trkpt>
      <trkpt lat="46.67458" lon="-1.9095">
        <ele>4</ele>
        <time>2018-04-24T15:48:07Z</time>
      </trkpt>
      <trkpt lat="46.67458" lon="-1.90953">
        <ele>4</ele>
        <time>2018-04-24T15:49:07Z</time>
      </trkpt>
      <trkpt lat="46.67457" lon="-1.90955">
        <ele>4</ele>
        <time>2018-04-24T15:50:07Z</time>
      </trkpt>
      <trkpt lat="46.67456" lon="-1.90957">
        <ele>4</ele>
        <time>2018-04-24T15:51:07Z</time>
      </trkpt>
      <trkpt lat="46.67455" lon="-1.9096">
        <ele>4</ele>
        <time>2018-04-24T15:52:07Z</time>
      </trkpt>
      <trkpt lat="46.67455" lon="-1.90961">
        <ele>4</ele>
        <time>2018-04-24T15:53:07Z</time>
      </trkpt>
      <trkpt lat="46.67454" lon="-1.90962">
        <ele>4</ele>
        <time>2018-04-24T15:54:07Z</time>
      </trkpt>
      <trkpt lat="46.67453" lon="-1.90963">
        <ele>4</ele>
        <time>2018-04-24T15:55:07Z</time>
      </trkpt>
      <trkpt lat="46.67453" lon="-1.90964">
        <ele>4</ele>
        <time>2018-04-24T15:56:07Z</time>
      </trkpt>
      <trkpt lat="46.67452" lon="-1.90965">
        <ele>4</ele>
        <time>2018-04-24T15:57:07Z</time>
      </trkpt>
      <trkpt lat="46.67451" lon="-1.90965">
        <ele>4</ele>
        <time>2018-04-24T15:58:07Z</time>
      </trkpt>
      <trkpt lat="46.67451" lon="-1.90966">
        <ele>4</ele>
        <time>2018-04-24T15:59:07Z</time>
      </trkpt>
      <trkpt lat="46.6745" lon="-1.90967">
        <ele>4</ele>
        <time>2018-04-24T16:00:07Z</time>
      </trkpt>
      <trkpt lat="46.6745" lon="-1.90984">
        <ele>4</ele>
        <time>2018-04-24T16:01:07Z</time>
      </trkpt>
      <trkpt lat="46.67451" lon="-1.90994">
        <ele>4</ele>
        <time>2018-04-24T16:02:07Z</time>
      </trkpt>
      <trkpt lat="46.67454" lon="-1.91004">
        <ele>4</ele>
        <time>2018-04-24T16:03:07Z</time>
      </trkpt>
      <trkpt lat="46.67456" lon="-1.9101">
        <ele>4</ele>
        <time>2018-04-24T16:04:07Z</time>
      </trkpt>
      <trkpt lat="46.67469" lon="-1.9103">
        <ele>4</ele>
        <time>2018-04-24T16:05:07Z</time>
      </trkpt>
      <trkpt lat="46.6749" lon="-1.9106">
        <ele>5</ele>
        <time>2018-04-24T16:06:07Z</time>
      </trkpt>
      <trkpt lat="46.67518" lon="-1.91097">
        <ele>5</ele>
        <time>2018-04-24T16:07:07Z</time>
      </trkpt>
      <trkpt lat="46.67546" lon="-1.91137">
        <ele>5</ele>
        <time>2018-04-24T16:08:07Z</time>
      </trkpt>
      <trkpt lat="46.67578" lon="-1.91181">
        <ele>6</ele>
        <time>2018-04-24T16:09:07Z</time>
      </trkpt>
      <trkpt lat="46.67587" lon="-1.91194">
        <ele>6</ele>
        <time>2018-04-24T16:10:07Z</time>
      </trkpt>
      <trkpt lat="46.67612" lon="-1.91228">
        <ele>5</ele>
        <time>2018-04-24T16:11:07Z</time>
      </trkpt>
      <trkpt lat="46.67634" lon="-1.91261">
        <ele>5</ele>
        <time>2018-04-24T16:12:07Z</time>
      </trkpt>
      <trkpt lat="46.67662" lon="-1.91298">
        <ele>5</ele>
        <time>2018-04-24T16:13:07Z</time>
      </trkpt>
      <trkpt lat="46.67704" lon="-1.91358">
        <ele>5</ele>
        <time>2018-04-24T16:14:07Z</time>
      </trkpt>
      <trkpt lat="46.67743" lon="-1.91414">
        <ele>6</ele>
        <time>2018-04-24T16:15:07Z</time>
      </trkpt>
      <trkpt lat="46.67747" lon="-1.9142">
        <ele>6</ele>
        <time>2018-04-24T16:16:07Z</time>
      </trkpt>
      <trkpt lat="46.67783" lon="-1.91471">
        <ele>6</ele>
        <time>2018-04-24T16:17:07Z</time>
      </trkpt>
      <trkpt lat="46.67831" lon="-1.91538">
        <ele>6</ele>
        <time>2018-04-24T16:18:07Z</time>
      </trkpt>
      <trkpt lat="46.6784" lon="-1.91552">
        <ele>6</ele>
        <time>2018-04-24T16:19:07Z</time>
      </trkpt>
      <trkpt lat="46.67864" lon="-1.91583">
        <ele>6</ele>
        <time>2018-04-24T16:20:07Z</time>
      </trkpt>
      <trkpt lat="46.67883" lon="-1.91611">
        <ele>6</ele>
        <time>2018-04-24T16:21:07Z</time>
      </trkpt>
      <trkpt lat="46.67898" lon="-1.91633">
        <ele>7</ele>
        <time>2018-04-24T16:22:07Z</time>
      </trkpt>
      <trkpt lat="46.67928" lon="-1.91675">
        <ele>7</ele>
        <time>2018-04-24T16:23:07Z</time>
      </trkpt>
      <trkpt lat="46.67947" lon="-1.91703">
        <ele>7</ele>
        <time>2018-04-24T16:24:07Z</time>
      </trkpt>
      <trkpt lat="46.67972" lon="-1.91737">
        <ele>7</ele>
        <time>2018-04-24T16:25:07Z</time>
      </trkpt>
      <trkpt lat="46.68" lon="-1.91776">
        <ele>8</ele>
        <time>2018-04-24T16:26:07Z</time>
      </trkpt>
      <trkpt lat="46.68022" lon="-1.91808">
        <ele>8</ele>
        <time>2018-04-24T16:27:07Z</time>
      </trkpt>
      <trkpt lat="46.68033" lon="-1.91825">
        <ele>8</ele>
        <time>2018-04-24T16:28:07Z</time>
      </trkpt>
      <trkpt lat="46.68041" lon="-1.91836">
        <ele>8</ele>
        <time>2018-04-24T16:29:07Z</time>
      </trkpt>
      <trkpt lat="46.68057" lon="-1.91858">
        <ele>8</ele>
        <time>2018-04-24T16:30:07Z</time>
      </trkpt>
      <trkpt lat="46.68083" lon="-1.91897">
        <ele>8</ele>
        <time>2018-04-24T16:31:07Z</time>
      </trkpt>
      <trkpt lat="46.68115" lon="-1.91941">
        <ele>8</ele>
        <time>2018-04-24T16:32:07Z</time>
      </trkpt>
      <trkpt lat="46.68158" lon="-1.92003">
        <ele>8</ele>
        <time>2018-04-24T16:33:07Z</time>
      </trkpt>
      <trkpt lat="46.68174" lon="-1.92025">
        <ele>8</ele>
        <time>2018-04-24T16:34:07Z</time>
      </trkpt>
      <trkpt lat="46.68198" lon="-1.92057">
        <ele>7</ele>
        <time>2018-04-24T16:35:07Z</time>
      </trkpt>
      <trkpt lat="46.68208" lon="-1.92073">
        <ele>7</ele>
        <time>2018-04-24T16:36:07Z</time>
      </trkpt>
      <trkpt lat="46.6822" lon="-1.92091">
        <ele>7</ele>
        <time>2018-04-24T16:37:07Z</time>
      </trkpt>
      <trkpt lat="46.68224" lon="-1.92097">
        <ele>7</ele>
        <time>2018-04-24T16:38:07Z</time>
      </trkpt>
      <trkpt lat="46.68224" lon="-1.92098">
        <ele>7</ele>
        <time>2018-04-24T16:39:07Z</time>
      </trkpt>
      <trkpt lat="46.68227" lon="-1.92103">
        <ele>7</ele>
        <time>2018-04-24T16:40:07Z</time>
      </trkpt>
      <trkpt lat="46.6823" lon="-1.92107">
        <ele>7</ele>
        <time>2018-04-24T16:41:07Z</time>
      </trkpt>
      <trkpt lat="46.68255" lon="-1.9214">
        <ele>7</ele>
        <time>2018-04-24T16:42:07Z</time>
      </trkpt>
      <trkpt lat="46.68267" lon="-1.92157">
        <ele>7</ele>
        <time>2018-04-24T16:43:07Z</time>
      </trkpt>
      <trkpt lat="46.68277" lon="-1.92172">
        <ele>8</ele>
        <time>2018-04-24T16:44:07Z</time>
      </trkpt>
      <trkpt lat="46.68286" lon="-1.92186">
        <ele>8</ele>
        <time>2018-04-24T16:45:07Z</time>
      </trkpt>
      <trkpt lat="46.68291" lon="-1.92193">
        <ele>8</ele>
        <time>2018-04-24T16:46:07Z</time>
      </trkpt>
      <trkpt lat="46.68306" lon="-1.92219">
        <ele>9</ele>
        <time>2018-04-24T16:47:07Z</time>
      </trkpt>
      <trkpt lat="46.6832" lon="-1.92245">
        <ele>9</ele>
        <time>2018-04-24T16:48:07Z</time>
      </trkpt>
      <trkpt lat="46.6833" lon="-1.92261">
        <ele>9</ele>
        <time>2018-04-24T16:49:07Z</time>
      </trkpt>
      <trkpt lat="46.68355" lon="-1.92305">
        <ele>10</ele>
        <time>2018-04-24T16:50:07Z</time>
      </trkpt>
      <trkpt lat="46.6837" lon="-1.92334">
        <ele>10</ele>
        <time>2018-04-24T16:51:07Z</time>
      </trkpt>
      <trkpt lat="46.68377" lon="-1.92346">
        <ele>10</ele>
        <time>2018-04-24T16:52:07Z</time>
      </trkpt>
      <trkpt lat="46.6838" lon="-1.92351">
        <ele>10</ele>
        <time>2018-04-24T16:53:07Z</time>
      </trkpt>
      <trkpt lat="46.68389" lon="-1.92363">
        <ele>10</ele>
        <time>2018-04-24T16:54:07Z</time>
      </trkpt>
      <trkpt lat="46.68403" lon="-1.9238">
        <ele>10</ele>
        <time>2018-04-24T16:55:07Z</time>
      </trkpt>
      <trkpt lat="46.68413" lon="-1.92388">
        <ele>10</ele>
        <time>2018-04-24T16:56:07Z</time>
      </trkpt>
      <trkpt lat="46.68426" lon="-1.92396">
        <ele>10</ele>
        <time>2018-04-24T16:57:07Z</time>
      </trkpt>
      <trkpt lat="46.68435" lon="-1.924">
        <ele>10</ele>
        <time>2018-04-24T16:58:07Z</time>
      </trkpt>
      <trkpt lat="46.68447" lon="-1.92403">
        <ele>10</ele>
        <time>2018-04-24T16:59:07Z</time>
      </trkpt>
      <trkpt lat="46.68454" lon="-1.92404">
        <ele>10</ele>
        <time>2018-04-24T17:00:07Z</time>
      </trkpt>
      <trkpt lat="46.68463" lon="-1.92406">
        <ele>10</ele>
        <time>2018-04-24T17:01:07Z</time>
      </trkpt>
      <trkpt lat="46.68472" lon="-1.92408">
        <ele>10</ele>
        <time>2018-04-24T17:02:07Z</time>
      </trkpt>
      <trkpt lat="46.68481" lon="-1.92411">
        <ele>10</ele>
        <time>2018-04-24T17:03:07Z</time>
      </trkpt>
      <trkpt lat="46.68487" lon="-1.92415">
        <ele>10</ele>
        <time>2018-04-24T17:04:07Z</time>
      </trkpt>
      <trkpt lat="46.68495" lon="-1.9242">
        <ele>10</ele>
        <time>2018-04-24T17:05:07Z</time>
      </trkpt>
      <trkpt lat="46.68505" lon="-1.92428">
        <ele>10</ele>
        <time>2018-04-24T17:06:07Z</time>
      </trkpt>
      <trkpt lat="46.68514" lon="-1.92436">
        <ele>10</ele>
        <time>2018-04-24T17:07:07Z</time>
      </trkpt>
      <trkpt lat="46.68528" lon="-1.9245">
        <ele>10</ele>
        <time>2018-04-24T17:08:07Z</time>
      </trkpt>
      <trkpt lat="46.68532" lon="-1.92456">
        <ele>10</ele>
        <time>2018-04-24T17:09:07Z</time>
      </trkpt>
      <trkpt lat="46.68538" lon="-1.92464">
        <ele>10</ele>
        <time>2018-04-24T17:10:07Z</time>
      </trkpt>
      <trkpt lat="46.68549" lon="-1.92476">
        <ele>10</ele>
        <time>2018-04-24T17:11:07Z</time>
      </trkpt>
      <trkpt lat="46.68567" lon="-1.925">
        <ele>10</ele>
        <time>2018-04-24T17:12:07Z</time>
      </trkpt>
      <trkpt lat="46.68589" lon="-1.92528">
        <ele>10</ele>
        <time>2018-04-24T17:13:07Z</time>
      </trkpt>
      <trkpt lat="46.68594" lon="-1.92534">
        <ele>10</ele>
        <time>2018-04-24T17:14:07Z</time>
      </trkpt>
      <trkpt lat="46.68605" lon="-1.92548">
        <ele>10</ele>
        <time>2018-04-24T17:15:07Z</time>
      </trkpt>
      <trkpt lat="46.68616" lon="-1.92563">
        <ele>10</ele>
        <time>2018-04-24T17:16:07Z</time>
      </trkpt>
      <trkpt lat="46.68625" lon="-1.92575">
        <ele>10</ele>
        <time>2018-04-24T17:17:07Z</time>
      </trkpt>
      <trkpt lat="46.68629" lon="-1.9258">
        <ele>10</ele>
        <time>2018-04-24T17:18:07Z</time>
      </trkpt>
      <trkpt lat="46.68634" lon="-1.92586">
        <ele>10</ele>
        <time>2018-04-24T17:19:07Z</time>
      </trkpt>
      <trkpt lat="46.68635" lon="-1.92588">
        <ele>10</ele>
        <time>2018-04-24T17:20:07Z</time>
      </trkpt>
      <trkpt lat="46.68644" lon="-1.92596">
        <ele>10</ele>
        <time>2018-04-24T17:21:07Z</time>
      </trkpt>
      <trkpt lat="46.68651" lon="-1.92602">
        <ele>10</ele>
        <time>2018-04-24T17:22:07Z</time>
      </trkpt>
      <trkpt lat="46.68669" lon="-1.92615">
        <ele>10</ele>
        <time>2018-04-24T17:23:07Z</time>
      </trkpt>
      <trkpt lat="46.68707" lon="-1.92638">
        <ele>9</ele>
        <time>2018-04-24T17:24:07Z</time>
      </trkpt>
      <trkpt lat="46.68732" lon="-1.92654">
        <ele>8</ele>
        <time>2018-04-24T17:25:07Z</time>
      </trkpt>
      <trkpt lat="46.68733" lon="-1.92654">
        <ele>8</ele>
        <time>2018-04-24T17:26:07Z</time>
      </trkpt>
      <trkpt lat="46.68759" lon="-1.92668">
        <ele>8</ele>
        <time>2018-04-24T17:27:07Z</time>
      </trkpt>
      <trkpt lat="46.6876" lon="-1.92669">
        <ele>8</ele>
        <time>2018-04-24T17:28:07Z</time>
      </trkpt>
      <trkpt lat="46.68776" lon="-1.92676">
        <ele>8</ele>
        <time>2018-04-24T17:29:07Z</time>
      </trkpt>
      <trkpt lat="46.68787" lon="-1.9268">
        <ele>8</ele>
        <time>2018-04-24T17:30:07Z</time>
      </trkpt>
      <trkpt lat="46.68804" lon="-1.92685">
        <ele>7</ele>
        <time>2018-04-24T17:31:07Z</time>
      </trkpt>
      <trkpt lat="46.68817" lon="-1.9269">
        <ele>7</ele>
        <time>2018-04-24T17:32:07Z</time>
      </trkpt>
      <trkpt lat="46.68817" lon="-1.92689">
        <ele>7</ele>
        <time>2018-04-24T17:33:07Z</time>
      </trkpt>
      <trkpt lat="46.68818" lon="-1.92689">
        <ele>7</ele>
        <time>2018-04-24T17:34:07Z</time>
      </trkpt>
      <trkpt lat="46.68818" lon="-1.92688">
        <ele>7</ele>
        <time>2018-04-24T17:35:07Z</time>
      </trkpt>
      <trkpt lat="46.68818" lon="-1.92687">
        <ele>7</ele>
        <time>2018-04-24T17:36:07Z</time>
      </trkpt>
      <trkpt lat="46.68819" lon="-1.92687">
        <ele>7</ele>
        <time>2018-04-24T17:37:07Z</time>
      </trkpt>
      <trkpt lat="46.68819" lon="-1.92686">
        <ele>7</ele>
        <time>2018-04-24T17:38:07Z</time>
      </trkpt>
      <trkpt lat="46.6882" lon="-1.92686">
        <ele>7</ele>
        <time>2018-04-24T17:39:07Z</time>
      </trkpt>
      <trkpt lat="46.6882" lon="-1.92685">
        <ele>7</ele>
        <time>2018-04-24T17:40:07Z</time>
      </trkpt>
      <trkpt lat="46.68821" lon="-1.92685">
        <ele>7</ele>
        <time>2018-04-24T17:41:07Z</time>
      </trkpt>
      <trkpt lat="46.68822" lon="-1.92685">
        <ele>7</ele>
        <time>2018-04-24T17:42:07Z</time>
      </trkpt>
      <trkpt lat="46.68823" lon="-1.92685">
        <ele>7</ele>
        <time>2018-04-24T17:43:07Z</time>
      </trkpt>
      <trkpt lat="46.68824" lon="-1.92685">
        <ele>7</ele>
        <time>2018-04-24T17:44:07Z</time>
      </trkpt>
      <trkpt lat="46.68825" lon="-1.92685">
        <ele>7</ele>
        <time>2018-04-24T17:45:07Z</time>
      </trkpt>
      <trkpt lat="46.68826" lon="-1.92686">
        <ele>7</ele>
        <time>2018-04-24T17:46:07Z</time>
      </trkpt>
      <trkpt lat="46.68827" lon="-1.92686">
        <ele>7</ele>
        <time>2018-04-24T17:47:07Z</time>
      </trkpt>
      <trkpt lat="46.68827" lon="-1.92687">
        <ele>7</ele>
        <time>2018-04-24T17:48:07Z</time>
      </trkpt>
      <trkpt lat="46.68827" lon="-1.92688">
        <ele>7</ele>
        <time>2018-04-24T17:49:07Z</time>
      </trkpt>
      <trkpt lat="46.68828" lon="-1.92688">
        <ele>7</ele>
        <time>2018-04-24T17:50:07Z</time>
      </trkpt>
      <trkpt lat="46.68841" lon="-1.92685">
        <ele>7</ele>
        <time>2018-04-24T17:51:07Z</time>
      </trkpt>
      <trkpt lat="46.68841" lon="-1.92685">
        <ele>7</ele>
        <time>2018-04-24T17:52:07Z</time>
      </trkpt>
      <trkpt lat="46.68841" lon="-1.92684">
        <ele>7</ele>
        <time>2018-04-24T17:53:07Z</time>
      </trkpt>
      <trkpt lat="46.68842" lon="-1.92684">
        <ele>7</ele>
        <time>2018-04-24T17:54:07Z</time>
      </trkpt>
      <trkpt lat="46.68842" lon="-1.92683">
        <ele>7</ele>
        <time>2018-04-24T17:55:07Z</time>
      </trkpt>
      <trkpt lat="46.68843" lon="-1.92682">
        <ele>7</ele>
        <time>2018-04-24T17:56:07Z</time>
      </trkpt>
      <trkpt lat="46.68844" lon="-1.92682">
        <ele>7</ele>
        <time>2018-04-24T17:57:07Z</time>
      </trkpt>
      <trkpt lat="46.68844" lon="-1.92681">
        <ele>7</ele>
        <time>2018-04-24T17:58:07Z</time>
      </trkpt>
      <trkpt lat="46.68845" lon="-1.92681">
        <ele>6</ele>
        <time>2018-04-24T17:59:07Z</time>
      </trkpt>
      <trkpt lat="46.68846" lon="-1.92681">
        <ele>6</ele>
        <time>2018-04-24T18:00:07Z</time>
      </trkpt>
      <trkpt lat="46.68847" lon="-1.92681">
        <ele>6</ele>
        <time>2018-04-24T18:01:07Z</time>
      </trkpt>
      <trkpt lat="46.68848" lon="-1.92681">
        <ele>6</ele>
        <time>2018-04-24T18:02:07Z</time>
      </trkpt>
      <trkpt lat="46.68849" lon="-1.92681">
        <ele>6</ele>
        <time>2018-04-24T18:03:07Z</time>
      </trkpt>
      <trkpt lat="46.68849" lon="-1.92682">
        <ele>6</ele>
        <time>2018-04-24T18:04:07Z</time>
      </trkpt>
      <trkpt lat="46.6885" lon="-1.92682">
        <ele>6</ele>
        <time>2018-04-24T18:05:07Z</time>
      </trkpt>
      <trkpt lat="46.6885" lon="-1.92683">
        <ele>6</ele>
        <time>2018-04-24T18:06:07Z</time>
      </trkpt>
      <trkpt lat="46.68851" lon="-1.92683">
        <ele>6</ele>
        <time>2018-04-24T18:07:07Z</time>
      </trkpt>
      <trkpt lat="46.68851" lon="-1.92684">
        <ele>6</ele>
        <time>2018-04-24T18:08:07Z</time>
      </trkpt>
      <trkpt lat="46.68852" lon="-1.92684">
        <ele>6</ele>
        <time>2018-04-24T18:09:07Z</time>
      </trkpt>
      <trkpt lat="46.68852" lon="-1.92685">
        <ele>6</ele>
        <time>2018-04-24T18:10:07Z</time>
      </trkpt>
      <trkpt lat="46.68852" lon="-1.92686">
        <ele>6</ele>
        <time>2018-04-24T18:11:07Z</time>
      </trkpt>
      <trkpt lat="46.68853" lon="-1.92687">
        <ele>6</ele>
        <time>2018-04-24T18:12:07Z</time>
      </trkpt>
      <trkpt lat="46.68853" lon="-1.92688">
        <ele>6</ele>
        <time>2018-04-24T18:13:07Z</time>
      </trkpt>
      <trkpt lat="46.68853" lon="-1.92689">
        <ele>6</ele>
        <time>2018-04-24T18:14:07Z</time>
      </trkpt>
      <trkpt lat="46.68853" lon="-1.9269">
        <ele>6</ele>
        <time>2018-04-24T18:15:07Z</time>
      </trkpt>
      <trkpt lat="46.68853" lon="-1.92691">
        <ele>6</ele>
        <time>2018-04-24T18:16:07Z</time>
      </trkpt>
      <trkpt lat="46.68853" lon="-1.92692">
        <ele>6</ele>
        <time>2018-04-24T18:17:07Z</time>
      </trkpt>
      <trkpt lat="46.68853" lon="-1.92693">
        <ele>6</ele>
        <time>2018-04-24T18:18:07Z</time>
      </trkpt>
      <trkpt lat="46.68853" lon="-1.92694">
        <ele>6</ele>
        <time>2018-04-24T18:19:07Z</time>
      </trkpt>
      <trkpt lat="46.68853" lon="-1.92695">
        <ele>6</ele>
        <time>2018-04-24T18:20:07Z</time>
      </trkpt>
      <trkpt lat="46.68852" lon="-1.92695">
        <ele>6</ele>
        <time>2018-04-24T18:21:07Z</time>
      </trkpt>
      <trkpt lat="46.68852" lon="-1.92696">
        <ele>6</ele>
        <time>2018-04-24T18:22:07Z</time>
      </trkpt>
      <trkpt lat="46.68852" lon="-1.92697">
        <ele>6</ele>
        <time>2018-04-24T18:23:07Z</time>
      </trkpt>
      <trkpt lat="46.68851" lon="-1.92697">
        <ele>6</ele>
        <time>2018-04-24T18:24:07Z</time>
      </trkpt>
      <trkpt lat="46.68851" lon="-1.92698">
        <ele>6</ele>
        <time>2018-04-24T18:25:07Z</time>
      </trkpt>
      <trkpt lat="46.68859" lon="-1.92704">
        <ele>6</ele>
        <time>2018-04-24T18:26:07Z</time>
      </trkpt>
      <trkpt lat="46.6886" lon="-1.92704">
        <ele>6</ele>
        <time>2018-04-24T18:27:07Z</time>
      </trkpt>
      <trkpt lat="46.68869" lon="-1.92706">
        <ele>5</ele>
        <time>2018-04-24T18:28:07Z</time>
      </trkpt>
      <trkpt lat="46.68881" lon="-1.92711">
        <ele>5</ele>
        <time>2018-04-24T18:29:07Z</time>
      </trkpt>
      <trkpt lat="46.68897" lon="-1.92716">
        <ele>4</ele>
        <time>2018-04-24T18:30:07Z</time>
      </trkpt>
      <trkpt lat="46.68913" lon="-1.92723">
        <ele>4</ele>
        <time>2018-04-24T18:31:07Z</time>
      </trkpt>
      <trkpt lat="46.68926" lon="-1.9273">
        <ele>4</ele>
        <time>2018-04-24T18:32:07Z</time>
      </trkpt>
      <trkpt lat="46.68936" lon="-1.92737">
        <ele>4</ele>
        <time>2018-04-24T18:33:07Z</time>
      </trkpt>
      <trkpt lat="46.68947" lon="-1.92747">
        <ele>4</ele>
        <time>2018-04-24T18:34:07Z</time>
      </trkpt>
      <trkpt lat="46.68955" lon="-1.92755">
        <ele>4</ele>
        <time>2018-04-24T18:35:07Z</time>
      </trkpt>
      <trkpt lat="46.68965" lon="-1.92769">
        <ele>4</ele>
        <time>2018-04-24T18:36:07Z</time>
      </trkpt>
      <trkpt lat="46.68969" lon="-1.92774">
        <ele>4</ele>
        <time>2018-04-24T18:37:07Z</time>
      </trkpt>
      <trkpt lat="46.68977" lon="-1.92784">
        <ele>4</ele>
        <time>2018-04-24T18:38:07Z</time>
      </trkpt>
      <trkpt lat="46.68992" lon="-1.92805">
        <ele>4</ele>
        <time>2018-04-24T18:39:07Z</time>
      </trkpt>
      <trkpt lat="46.68993" lon="-1.92806">
        <ele>4</ele>
        <time>2018-04-24T18:40:07Z</time>
      </trkpt>
      <trkpt lat="46.69014" lon="-1.92836">
        <ele>4</ele>
        <time>2018-04-24T18:41:07Z</time>
      </trkpt>
      <trkpt lat="46.69038" lon="-1.92867">
        <ele>4</ele>
        <time>2018-04-24T18:42:07Z</time>
      </trkpt>
      <trkpt lat="46.69055" lon="-1.9289">
        <ele>4</ele>
        <time>2018-04-24T18:43:07Z</time>
      </trkpt>
      <trkpt lat="46.69068" lon="-1.92907">
        <ele>4</ele>
        <time>2018-04-24T18:44:07Z</time>
      </trkpt>
      <trkpt lat="46.69095" lon="-1.92938">
        <ele>4</ele>
        <time>2018-04-24T18:45:07Z</time>
      </trkpt>
      <trkpt lat="46.69107" lon="-1.92948">
        <ele>4</ele>
        <time>2018-04-24T18:46:07Z</time>
      </trkpt>
      <trkpt lat="46.69133" lon="-1.92971">
        <ele>4</ele>
        <time>2018-04-24T18:47:07Z</time>
      </trkpt>
      <trkpt lat="46.69154" lon="-1.92991">
        <ele>4</ele>
        <time>2018-04-24T18:48:07Z</time>
      </trkpt>
      <trkpt lat="46.6917" lon="-1.93005">
        <ele>4</ele>
        <time>2018-04-24T18:49:07Z</time>
      </trkpt>
      <trkpt lat="46.69175" lon="-1.93009">
        <ele>4</ele>
        <time>2018-04-24T18:50:07Z</time>
      </trkpt>
      <trkpt lat="46.69194" lon="-1.93026">
        <ele>5</ele>
        <time>2018-04-24T18:51:07Z</time>
      </trkpt>
      <trkpt lat="46.69217" lon="-1.93046">
        <ele>5</ele>
        <time>2018-04-24T18:52:07Z</time>
      </trkpt>
      <trkpt lat="46.69224" lon="-1.93053">
        <ele>5</ele>
        <time>2018-04-24T18:53:07Z</time>
      </trkpt>
      <trkpt lat="46.69245" lon="-1.93071">
        <ele>5</ele>
        <time>2018-04-24T18:54:07Z</time>
      </trkpt>
      <trkpt lat="46.69255" lon="-1.9308">
        <ele>5</ele>
        <time>2018-04-24T18:55:07Z</time>
      </trkpt>
      <trkpt lat="46.69269" lon="-1.93094">
        <ele>5</ele>
        <time>2018-04-24T18:56:07Z</time>
      </trkpt>
      <trkpt lat="46.69287" lon="-1.9311">
        <ele>5</ele>
        <time>2018-04-24T18:57:07Z</time>
      </trkpt>
      <trkpt lat="46.69303" lon="-1.93127">
        <ele>5</ele>
        <time>2018-04-24T18:58:07Z</time>
      </trkpt>
      <trkpt lat="46.69314" lon="-1.93136">
        <ele>5</ele>
        <time>2018-04-24T18:59:07Z</time>
      </trkpt>
      <trkpt lat="46.69324" lon="-1.93151">
        <ele>5</ele>
        <time>2018-04-24T19:00:07Z</time>
      </trkpt>
      <trkpt lat="46.69333" lon="-1.93166">
        <ele>5</ele>
        <time>2018-04-24T19:01:07Z</time>
      </trkpt>
      <trkpt lat="46.69341" lon="-1.93186">
        <ele>5</ele>
        <time>2018-04-24T19:02:07Z</time>
      </trkpt>
      <trkpt lat="46.69348" lon="-1.93201">
        <ele>5</ele>
        <time>2018-04-24T19:03:07Z</time>
      </trkpt>
      <trkpt lat="46.69351" lon="-1.93212">
        <ele>5</ele>
        <time>2018-04-24T19:04:07Z</time>
      </trkpt>
      <trkpt lat="46.69355" lon="-1.93224">
        <ele>4</ele>
        <time>2018-04-24T19:05:07Z</time>
      </trkpt>
      <trkpt lat="46.6936" lon="-1.93244">
        <ele>4</ele>
        <time>2018-04-24T19:06:07Z</time>
      </trkpt>
      <trkpt lat="46.69365" lon="-1.93261">
        <ele>4</ele>
        <time>2018-04-24T19:07:07Z</time>
      </trkpt>
      <trkpt lat="46.69368" lon="-1.93273">
        <ele>4</ele>
        <time>2018-04-24T19:08:07Z</time>
      </trkpt>
      <trkpt lat="46.69372" lon="-1.93291">
        <ele>4</ele>
        <time>2018-04-24T19:09:07Z</time>
      </trkpt>
      <trkpt lat="46.69374" lon="-1.93299">
        <ele>4</ele>
        <time>2018-04-24T19:10:07Z</time>
      </trkpt>
      <trkpt lat="46.69376" lon="-1.93304">
        <ele>4</ele>
        <time>2018-04-24T19:11:07Z</time>
      </trkpt>
      <trkpt lat="46.69378" lon="-1.93307">
        <ele>4</ele>
        <time>2018-04-24T19:12:07Z</time>
      </trkpt>
      <trkpt lat="46.69379" lon="-1.93309">
        <ele>4</ele>
        <time>2018-04-24T19:13:07Z</time>
      </trkpt>
      <trkpt lat="46.69384" lon="-1.93312">
        <ele>4</ele>
        <time>2018-04-24T19:14:07Z</time>
      </trkpt>
      <trkpt lat="46.69385" lon="-1.93312">
        <ele>4</ele>
        <time>2018-04-24T19:15:07Z</time>
      </trkpt>
      <trkpt lat="46.69386" lon="-1.93311">
        <ele>4</ele>
        <time>2018-04-24T19:16:07Z</time>
      </trkpt>
      <trkpt lat="46.69387" lon="-1.93311">
        <ele>4</ele>
        <time>2018-04-24T19:17:07Z</time>
      </trkpt>
      <trkpt lat="46.69388" lon="-1.93311">
        <ele>4</ele>
        <time>2018-04-24T19:18:07Z</time>
      </trkpt>
      <trkpt lat="46.69389" lon="-1.93311">
        <ele>4</ele>
        <time>2018-04-24T19:19:07Z</time>
      </trkpt>
      <trkpt lat="46.69389" lon="-1.93312">
        <ele>4</ele>
        <time>2018-04-24T19:20:07Z</time>
      </trkpt>
      <trkpt lat="46.6939" lon="-1.93312">
        <ele>4</ele>
        <time>2018-04-24T19:21:07Z</time>
      </trkpt>
      <trkpt lat="46.69391" lon="-1.93312">
        <ele>4</ele>
        <time>2018-04-24T19:22:07Z</time>
      </trkpt>
      <trkpt lat="46.69391" lon="-1.93313">
        <ele>4</ele>
        <time>2018-04-24T19:23:07Z</time>
      </trkpt>
      <trkpt lat="46.69392" lon="-1.93313">
        <ele>4</ele>
        <time>2018-04-24T19:24:07Z</time>
      </trkpt>
      <trkpt lat="46.69393" lon="-1.93314">
        <ele>4</ele>
        <time>2018-04-24T19:25:07Z</time>
      </trkpt>
      <trkpt lat="46.69393" lon="-1.93315">
        <ele>4</ele>
        <time>2018-04-24T19:26:07Z</time>
      </trkpt>
      <trkpt lat="46.69394" lon="-1.93315">
        <ele>4</ele>
        <time>2018-04-24T19:27:07Z</time>
      </trkpt>
      <trkpt lat="46.69394" lon="-1.93316">
        <ele>4</ele>
        <time>2018-04-24T19:28:07Z</time>
      </trkpt>
      <trkpt lat="46.69395" lon="-1.93317">
        <ele>4</ele>
        <time>2018-04-24T19:29:07Z</time>
      </trkpt>
      <trkpt lat="46.69395" lon="-1.93318">
        <ele>4</ele>
        <time>2018-04-24T19:30:07Z</time>
      </trkpt>
      <trkpt lat="46.69396" lon="-1.93319">
        <ele>4</ele>
        <time>2018-04-24T19:31:07Z</time>
      </trkpt>
      <trkpt lat="46.69396" lon="-1.9332">
        <ele>4</ele>
        <time>2018-04-24T19:32:07Z</time>
      </trkpt>
      <trkpt lat="46.69396" lon="-1.93321">
        <ele>4</ele>
        <time>2018-04-24T19:33:07Z</time>
      </trkpt>
      <trkpt lat="46.69406" lon="-1.93325">
        <ele>4</ele>
        <time>2018-04-24T19:34:07Z</time>
      </trkpt>
      <trkpt lat="46.69416" lon="-1.93331">
        <ele>4</ele>
        <time>2018-04-24T19:35:07Z</time>
      </trkpt>
      <trkpt lat="46.69421" lon="-1.93333">
        <ele>4</ele>
        <time>2018-04-24T19:36:07Z</time>
      </trkpt>
      <trkpt lat="46.69426" lon="-1.93334">
        <ele>4</ele>
        <time>2018-04-24T19:37:07Z</time>
      </trkpt>
      <trkpt lat="46.69431" lon="-1.93336">
        <ele>4</ele>
        <time>2018-04-24T19:38:07Z</time>
      </trkpt>
      <trkpt lat="46.6946" lon="-1.93349">
        <ele>4</ele>
        <time>2018-04-24T19:39:07Z</time>
      </trkpt>
      <trkpt lat="46.69498" lon="-1.93366">
        <ele>4</ele>
        <time>2018-04-24T19:40:07Z</time>
      </trkpt>
      <trkpt lat="46.69503" lon="-1.93368">
        <ele>4</ele>
        <time>2018-04-24T19:41:07Z</time>
      </trkpt>
      <trkpt lat="46.69507" lon="-1.9337">
        <ele>4</ele>
        <time>2018-04-24T19:42:07Z</time>
      </trkpt>
      <trkpt lat="46.69518" lon="-1.93374">
        <ele>4</ele>
        <time>2018-04-24T19:43:07Z</time>
      </trkpt>
      <trkpt lat="46.69551" lon="-1.93388">
        <ele>4</ele>
        <time>2018-04-24T19:44:07Z</time>
      </trkpt>
      <trkpt lat="46.69587" lon="-1.93404">
        <ele>4</ele>
        <time>2018-04-24T19:45:07Z</time>
      </trkpt>
      <trkpt lat="46.69607" lon="-1.93416">
        <ele>4</ele>
        <time>2018-04-24T19:46:07Z</time>
      </trkpt>
      <trkpt lat="46.69617" lon="-1.9342">
        <ele>4</ele>
        <time>2018-04-24T19:47:07Z</time>
      </trkpt>
      <trkpt lat="46.69617" lon="-1.9342">
        <ele>4</ele>
        <time>2018-04-24T19:48:07Z</time>
      </trkpt>
      <trkpt lat="46.69617" lon="-1.93419">
        <ele>4</ele>
        <time>2018-04-24T19:49:07Z</time>
      </trkpt>
      <trkpt lat="46.69617" lon="-1.93418">
        <ele>4</ele>
        <time>2018-04-24T19:50:07Z</time>
      </trkpt>
      <trkpt lat="46.69618" lon="-1.93418">
        <ele>4</ele>
        <time>2018-04-24T19:51:07Z</time>
      </trkpt>
      <trkpt lat="46.69618" lon="-1.93417">
        <ele>4</ele>
        <time>2018-04-24T19:52:07Z</time>
      </trkpt>
      <trkpt lat="46.69618" lon="-1.93416">
        <ele>4</ele>
        <time>2018-04-24T19:53:07Z</time>
      </trkpt>
      <trkpt lat="46.69619" lon="-1.93416">
        <ele>4</ele>
        <time>2018-04-24T19:54:07Z</time>
      </trkpt>
      <trkpt lat="46.69619" lon="-1.93415">
        <ele>4</ele>
        <time>2018-04-24T19:55:07Z</time>
      </trkpt>
      <trkpt lat="46.6962" lon="-1.93415">
        <ele>4</ele>
        <time>2018-04-24T19:56:07Z</time>
      </trkpt>
      <trkpt lat="46.6962" lon="-1.93414">
        <ele>5</ele>
        <time>2018-04-24T19:57:07Z</time>
      </trkpt>
      <trkpt lat="46.69621" lon="-1.93414">
        <ele>5</ele>
        <time>2018-04-24T19:58:07Z</time>
      </trkpt>
      <trkpt lat="46.69621" lon="-1.93413">
        <ele>5</ele>
        <time>2018-04-24T19:59:07Z</time>
      </trkpt>
      <trkpt lat="46.69622" lon="-1.93413">
        <ele>5</ele>
        <time>2018-04-24T20:00:07Z</time>
      </trkpt>
      <trkpt lat="46.69623" lon="-1.93412">
        <ele>5</ele>
        <time>2018-04-24T20:01:07Z</time>
      </trkpt>
      <trkpt lat="46.69624" lon="-1.93412">
        <ele>5</ele>
        <time>2018-04-24T20:02:07Z</time>
      </trkpt>
      <trkpt lat="46.69625" lon="-1.93412">
        <ele>5</ele>
        <time>2018-04-24T20:03:07Z</time>
      </trkpt>
      <trkpt lat="46.69626" lon="-1.93412">
        <ele>5</ele>
        <time>2018-04-24T20:04:07Z</time>
      </trkpt>
      <trkpt lat="46.69627" lon="-1.93412">
        <ele>5</ele>
        <time>2018-04-24T20:05:07Z</time>
      </trkpt>
      <trkpt lat="46.69627" lon="-1.93413">
        <ele>5</ele>
        <time>2018-04-24T20:06:07Z</time>
      </trkpt>
      <trkpt lat="46.69628" lon="-1.93413">
        <ele>5</ele>
        <time>2018-04-24T20:07:07Z</time>
      </trkpt>
      <trkpt lat="46.69629" lon="-1.93413">
        <ele>5</ele>
        <time>2018-04-24T20:08:07Z</time>
      </trkpt>
      <trkpt lat="46.69629" lon="-1.93414">
        <ele>5</ele>
        <time>2018-04-24T20:09:07Z</time>
      </trkpt>
      <trkpt lat="46.6963" lon="-1.93414">
        <ele>5</ele>
        <time>2018-04-24T20:10:07Z</time>
      </trkpt>
      <trkpt lat="46.6963" lon="-1.93415">
        <ele>5</ele>
        <time>2018-04-24T20:11:07Z</time>
      </trkpt>
      <trkpt lat="46.69631" lon="-1.93416">
        <ele>5</ele>
        <time>2018-04-24T20:12:07Z</time>
      </trkpt>
      <trkpt lat="46.69631" lon="-1.93417">
        <ele>5</ele>
        <time>2018-04-24T20:13:07Z</time>
      </trkpt>
      <trkpt lat="46.69632" lon="-1.93417">
        <ele>5</ele>
        <time>2018-04-24T20:14:07Z</time>
      </trkpt>
      <trkpt lat="46.69632" lon="-1.93418">
        <ele>5</ele>
        <time>2018-04-24T20:15:07Z</time>
      </trkpt>
      <trkpt lat="46.69632" lon="-1.93419">
        <ele>5</ele>
        <time>2018-04-24T20:16:07Z</time>
      </trkpt>
      <trkpt lat="46.69633" lon="-1.93419">
        <ele>5</ele>
        <time>2018-04-24T20:17:07Z</time>
      </trkpt>
      <trkpt lat="46.69633" lon="-1.9342">
        <ele>5</ele>
        <time>2018-04-24T20:18:07Z</time>
      </trkpt>
      <trkpt lat="46.69633" lon="-1.93421">
        <ele>5</ele>
        <time>2018-04-24T20:19:07Z</time>
      </trkpt>
      <trkpt lat="46.69633" lon="-1.93422">
        <ele>5</ele>
        <time>2018-04-24T20:20:07Z</time>
      </trkpt>
      <trkpt lat="46.69633" lon="-1.93423">
        <ele>5</ele>
        <time>2018-04-24T20:21:07Z</time>
      </trkpt>
      <trkpt lat="46.69685" lon="-1.93435">
        <ele>5</ele>
        <time>2018-04-24T20:22:07Z</time>
      </trkpt>
      <trkpt lat="46.69697" lon="-1.93436">
        <ele>5</ele>
        <time>2018-04-24T20:23:07Z</time>
      </trkpt>
      <trkpt lat="46.69714" lon="-1.93435">
        <ele>5</ele>
        <time>2018-04-24T20:24:07Z</time>
      </trkpt>
      <trkpt lat="46.69721" lon="-1.93434">
        <ele>5</ele>
        <time>2018-04-24T20:25:07Z</time>
      </trkpt>
      <trkpt lat="46.69759" lon="-1.93424">
        <ele>5</ele>
        <time>2018-04-24T20:26:07Z</time>
      </trkpt>
      <trkpt lat="46.69762" lon="-1.93423">
        <ele>5</ele>
        <time>2018-04-24T20:27:07Z</time>
      </trkpt>
      <trkpt lat="46.69772" lon="-1.9342">
        <ele>5</ele>
        <time>2018-04-24T20:28:07Z</time>
      </trkpt>
      <trkpt lat="46.69776" lon="-1.9342">
        <ele>5</ele>
        <time>2018-04-24T20:29:07Z</time>
      </trkpt>
      <trkpt lat="46.69779" lon="-1.9342">
        <ele>5</ele>
        <time>2018-04-24T20:30:07Z</time>
      </trkpt>
      <trkpt lat="46.69785" lon="-1.93422">
        <ele>5</ele>
        <time>2018-04-24T20:31:07Z</time>
      </trkpt>
      <trkpt lat="46.69785" lon="-1.93421">
        <ele>5</ele>
        <time>2018-04-24T20:32:07Z</time>
      </trkpt>
      <trkpt lat="46.69786" lon="-1.93421">
        <ele>5</ele>
        <time>2018-04-24T20:33:07Z</time>
      </trkpt>
      <trkpt lat="46.69786" lon="-1.9342">
        <ele>5</ele>
        <time>2018-04-24T20:34:07Z</time>
      </trkpt>
      <trkpt lat="46.69786" lon="-1.93419">
        <ele>5</ele>
        <time>2018-04-24T20:35:07Z</time>
      </trkpt>
      <trkpt lat="46.69786" lon="-1.93418">
        <ele>5</ele>
        <time>2018-04-24T20:36:07Z</time>
      </trkpt>
      <trkpt lat="46.69787" lon="-1.93418">
        <ele>5</ele>
        <time>2018-04-24T20:37:07Z</time>
      </trkpt>
      <trkpt lat="46.69787" lon="-1.93417">
        <ele>5</ele>
        <time>2018-04-24T20:38:07Z</time>
      </trkpt>
      <trkpt lat="46.69788" lon="-1.93417">
        <ele>5</ele>
        <time>2018-04-24T20:39:07Z</time>
      </trkpt>
      <trkpt lat="46.69789" lon="-1.93417">
        <ele>5</ele>
        <time>2018-04-24T20:40:07Z</time>
      </trkpt>
      <trkpt lat="46.6979" lon="-1.93417">
        <ele>5</ele>
        <time>2018-04-24T20:41:07Z</time>
      </trkpt>
      <trkpt lat="46.69791" lon="-1.93417">
        <ele>5</ele>
        <time>2018-04-24T20:42:07Z</time>
      </trkpt>
      <trkpt lat="46.69791" lon="-1.93418">
        <ele>5</ele>
        <time>2018-04-24T20:43:07Z</time>
      </trkpt>
      <trkpt lat="46.69792" lon="-1.93418">
        <ele>5</ele>
        <time>2018-04-24T20:44:07Z</time>
      </trkpt>
      <trkpt lat="46.69792" lon="-1.93419">
        <ele>5</ele>
        <time>2018-04-24T20:45:07Z</time>
      </trkpt>
      <trkpt lat="46.69792" lon="-1.9342">
        <ele>5</ele>
        <time>2018-04-24T20:46:07Z</time>
      </trkpt>
      <trkpt lat="46.69793" lon="-1.9342">
        <ele>5</ele>
        <time>2018-04-24T20:47:07Z</time>
      </trkpt>
      <trkpt lat="46.69797" lon="-1.93421">
        <ele>5</ele>
        <time>2018-04-24T20:48:07Z</time>
      </trkpt>
      <trkpt lat="46.69798" lon="-1.93421">
        <ele>5</ele>
        <time>2018-04-24T20:49:07Z</time>
      </trkpt>
      <trkpt lat="46.69806" lon="-1.93419">
        <ele>5</ele>
        <time>2018-04-24T20:50:07Z</time>
      </trkpt>
      <trkpt lat="46.69824" lon="-1.93411">
        <ele>5</ele>
        <time>2018-04-24T20:51:07Z</time>
      </trkpt>
      <trkpt lat="46.69862" lon="-1.93396">
        <ele>5</ele>
        <time>2018-04-24T20:52:07Z</time>
      </trkpt>
    </trkseg>
  </trk>
</gpx>